<?xml version="1.0" encoding="UTF-8" standalone="no" ?>
<gpx xmlns="http://www.topografix.com/GPX/1/1" xmlns:xsi="http://www.w3.org/2001/XMLSchema-instance" xsi:schemaLocation="http://www.topografix.com/GPX/1/1 http://www.topografix.com/GPX/1/1/gpx.xsd" version="1.1" creator="VisuGPX - https://www.visugpx.com">
  <metadata>
    <name>Rezé, Vertou, St Fiacre &amp; Vignoble</name>
    <desc><![CDATA[Rezé, Vertou, St Fiacre & Vignoble]]></desc>
  </metadata>
  <trk>
    <name><![CDATA[Rezé, Vertou, St Fiacre & Vignoble]]></name>
    <trkseg>
      <trkpt lat="47.16657" lon="-1.54787">
        <ele>36.6</ele>
        <time>2015-01-11T07:26:24Z</time>
      </trkpt>
      <trkpt lat="47.16657" lon="-1.54787">
        <ele>28</ele>
        <time>2015-01-11T07:26:24Z</time>
      </trkpt>
      <trkpt lat="47.16656" lon="-1.54789">
        <ele>41</ele>
        <time>2015-01-11T07:26:25Z</time>
      </trkpt>
      <trkpt lat="47.16656" lon="-1.54791">
        <ele>41</ele>
        <time>2015-01-11T07:26:26Z</time>
      </trkpt>
      <trkpt lat="47.16654" lon="-1.54795">
        <ele>29.3</ele>
        <time>2015-01-11T07:26:29Z</time>
      </trkpt>
      <trkpt lat="47.16654" lon="-1.54795">
        <ele>36.6</ele>
        <time>2015-01-11T07:26:29Z</time>
      </trkpt>
      <trkpt lat="47.16654" lon="-1.54795">
        <ele>36.6</ele>
        <time>2015-01-11T07:29:10Z</time>
      </trkpt>
      <trkpt lat="47.16657" lon="-1.54812">
        <ele>29.6</ele>
        <time>2015-01-11T07:29:11Z</time>
      </trkpt>
      <trkpt lat="47.16659" lon="-1.54831">
        <ele>29.7</ele>
        <time>2015-01-11T07:29:16Z</time>
      </trkpt>
      <trkpt lat="47.16659" lon="-1.54838">
        <ele>29.7</ele>
        <time>2015-01-11T07:29:18Z</time>
      </trkpt>
      <trkpt lat="47.16664" lon="-1.54842">
        <ele>29.7</ele>
        <time>2015-01-11T07:29:21Z</time>
      </trkpt>
      <trkpt lat="47.16668" lon="-1.54838">
        <ele>29.7</ele>
        <time>2015-01-11T07:29:23Z</time>
      </trkpt>
      <trkpt lat="47.1667" lon="-1.5483">
        <ele>29.7</ele>
        <time>2015-01-11T07:29:25Z</time>
      </trkpt>
      <trkpt lat="47.16682" lon="-1.54815">
        <ele>31.2</ele>
        <time>2015-01-11T07:29:30Z</time>
      </trkpt>
      <trkpt lat="47.1669" lon="-1.54808">
        <ele>32.5</ele>
        <time>2015-01-11T07:29:33Z</time>
      </trkpt>
      <trkpt lat="47.16704" lon="-1.54797">
        <ele>33</ele>
        <time>2015-01-11T07:29:38Z</time>
      </trkpt>
      <trkpt lat="47.16709" lon="-1.54791">
        <ele>33.3</ele>
        <time>2015-01-11T07:29:40Z</time>
      </trkpt>
      <trkpt lat="47.16713" lon="-1.54784">
        <ele>33.3</ele>
        <time>2015-01-11T07:29:42Z</time>
      </trkpt>
      <trkpt lat="47.1671" lon="-1.54764">
        <ele>33.6</ele>
        <time>2015-01-11T07:29:46Z</time>
      </trkpt>
      <trkpt lat="47.16716" lon="-1.54746">
        <ele>34.5</ele>
        <time>2015-01-11T07:29:50Z</time>
      </trkpt>
      <trkpt lat="47.16727" lon="-1.54733">
        <ele>34.9</ele>
        <time>2015-01-11T07:29:54Z</time>
      </trkpt>
      <trkpt lat="47.16731" lon="-1.54714">
        <ele>35.3</ele>
        <time>2015-01-11T07:29:58Z</time>
      </trkpt>
      <trkpt lat="47.1673" lon="-1.54693">
        <ele>35.4</ele>
        <time>2015-01-11T07:30:02Z</time>
      </trkpt>
      <trkpt lat="47.16732" lon="-1.5467">
        <ele>35.6</ele>
        <time>2015-01-11T07:30:06Z</time>
      </trkpt>
      <trkpt lat="47.16737" lon="-1.54648">
        <ele>35.7</ele>
        <time>2015-01-11T07:30:10Z</time>
      </trkpt>
      <trkpt lat="47.16736" lon="-1.54626">
        <ele>36</ele>
        <time>2015-01-11T07:30:14Z</time>
      </trkpt>
      <trkpt lat="47.16738" lon="-1.54605">
        <ele>36.2</ele>
        <time>2015-01-11T07:30:18Z</time>
      </trkpt>
      <trkpt lat="47.16739" lon="-1.54583">
        <ele>36.4</ele>
        <time>2015-01-11T07:30:22Z</time>
      </trkpt>
      <trkpt lat="47.16739" lon="-1.5456">
        <ele>36.6</ele>
        <time>2015-01-11T07:30:26Z</time>
      </trkpt>
      <trkpt lat="47.16739" lon="-1.54539">
        <ele>36.7</ele>
        <time>2015-01-11T07:30:30Z</time>
      </trkpt>
      <trkpt lat="47.1674" lon="-1.54517">
        <ele>36.8</ele>
        <time>2015-01-11T07:30:34Z</time>
      </trkpt>
      <trkpt lat="47.16741" lon="-1.54495">
        <ele>37</ele>
        <time>2015-01-11T07:30:38Z</time>
      </trkpt>
      <trkpt lat="47.16742" lon="-1.54473">
        <ele>37.6</ele>
        <time>2015-01-11T07:30:42Z</time>
      </trkpt>
      <trkpt lat="47.16745" lon="-1.54453">
        <ele>38.2</ele>
        <time>2015-01-11T07:30:46Z</time>
      </trkpt>
      <trkpt lat="47.16746" lon="-1.5443">
        <ele>38.5</ele>
        <time>2015-01-11T07:30:50Z</time>
      </trkpt>
      <trkpt lat="47.16747" lon="-1.5442">
        <ele>39.5</ele>
        <time>2015-01-11T07:30:52Z</time>
      </trkpt>
      <trkpt lat="47.16745" lon="-1.54411">
        <ele>39.5</ele>
        <time>2015-01-11T07:30:54Z</time>
      </trkpt>
      <trkpt lat="47.16741" lon="-1.54406">
        <ele>40.3</ele>
        <time>2015-01-11T07:30:56Z</time>
      </trkpt>
      <trkpt lat="47.16734" lon="-1.54406">
        <ele>40.3</ele>
        <time>2015-01-11T07:30:58Z</time>
      </trkpt>
      <trkpt lat="47.16729" lon="-1.54407">
        <ele>40.3</ele>
        <time>2015-01-11T07:30:59Z</time>
      </trkpt>
      <trkpt lat="47.16708" lon="-1.54409">
        <ele>41.8</ele>
        <time>2015-01-11T07:31:04Z</time>
      </trkpt>
      <trkpt lat="47.16694" lon="-1.54408">
        <ele>43.4</ele>
        <time>2015-01-11T07:31:08Z</time>
      </trkpt>
      <trkpt lat="47.16682" lon="-1.54406">
        <ele>43.5</ele>
        <time>2015-01-11T07:31:11Z</time>
      </trkpt>
      <trkpt lat="47.16676" lon="-1.54401">
        <ele>43.7</ele>
        <time>2015-01-11T07:31:13Z</time>
      </trkpt>
      <trkpt lat="47.16672" lon="-1.54392">
        <ele>43.7</ele>
        <time>2015-01-11T07:31:15Z</time>
      </trkpt>
      <trkpt lat="47.16669" lon="-1.54383">
        <ele>43.7</ele>
        <time>2015-01-11T07:31:17Z</time>
      </trkpt>
      <trkpt lat="47.1666" lon="-1.54377">
        <ele>43.7</ele>
        <time>2015-01-11T07:31:20Z</time>
      </trkpt>
      <trkpt lat="47.16649" lon="-1.54374">
        <ele>43.7</ele>
        <time>2015-01-11T07:31:23Z</time>
      </trkpt>
      <trkpt lat="47.16631" lon="-1.54374">
        <ele>43.7</ele>
        <time>2015-01-11T07:31:28Z</time>
      </trkpt>
      <trkpt lat="47.16615" lon="-1.5437">
        <ele>43.7</ele>
        <time>2015-01-11T07:31:33Z</time>
      </trkpt>
      <trkpt lat="47.16605" lon="-1.54372">
        <ele>43.7</ele>
        <time>2015-01-11T07:31:36Z</time>
      </trkpt>
      <trkpt lat="47.16597" lon="-1.54382">
        <ele>42.7</ele>
        <time>2015-01-11T07:31:40Z</time>
      </trkpt>
      <trkpt lat="47.16589" lon="-1.54394">
        <ele>41.6</ele>
        <time>2015-01-11T07:31:44Z</time>
      </trkpt>
      <trkpt lat="47.16581" lon="-1.54398">
        <ele>41.6</ele>
        <time>2015-01-11T07:31:47Z</time>
      </trkpt>
      <trkpt lat="47.16569" lon="-1.54404">
        <ele>40.2</ele>
        <time>2015-01-11T07:31:54Z</time>
      </trkpt>
      <trkpt lat="47.16571" lon="-1.54403">
        <ele>37.3</ele>
        <time>2015-01-11T07:31:58Z</time>
      </trkpt>
      <trkpt lat="47.16571" lon="-1.54403">
        <ele>37</ele>
        <time>2015-01-11T07:31:58Z</time>
      </trkpt>
      <trkpt lat="47.16571" lon="-1.54403">
        <ele>37</ele>
        <time>2015-01-11T07:37:26Z</time>
      </trkpt>
      <trkpt lat="47.16587" lon="-1.54412">
        <ele>48.2</ele>
        <time>2015-01-11T07:37:27Z</time>
      </trkpt>
      <trkpt lat="47.16588" lon="-1.54412">
        <ele>48.2</ele>
        <time>2015-01-11T07:37:28Z</time>
      </trkpt>
      <trkpt lat="47.16588" lon="-1.54413">
        <ele>45.9</ele>
        <time>2015-01-11T07:37:32Z</time>
      </trkpt>
      <trkpt lat="47.16588" lon="-1.54413">
        <ele>37.2</ele>
        <time>2015-01-11T07:37:32Z</time>
      </trkpt>
      <trkpt lat="47.16588" lon="-1.54413">
        <ele>37.2</ele>
        <time>2015-01-11T07:39:20Z</time>
      </trkpt>
      <trkpt lat="47.16582" lon="-1.54399">
        <ele>46.1</ele>
        <time>2015-01-11T07:39:21Z</time>
      </trkpt>
      <trkpt lat="47.16583" lon="-1.54383">
        <ele>46.1</ele>
        <time>2015-01-11T07:39:25Z</time>
      </trkpt>
      <trkpt lat="47.16583" lon="-1.54375">
        <ele>46.1</ele>
        <time>2015-01-11T07:39:28Z</time>
      </trkpt>
      <trkpt lat="47.16582" lon="-1.54374">
        <ele>46.1</ele>
        <time>2015-01-11T07:39:29Z</time>
      </trkpt>
      <trkpt lat="47.16582" lon="-1.54373">
        <ele>45.3</ele>
        <time>2015-01-11T07:39:33Z</time>
      </trkpt>
      <trkpt lat="47.16582" lon="-1.54373">
        <ele>37</ele>
        <time>2015-01-11T07:39:33Z</time>
      </trkpt>
      <trkpt lat="47.16582" lon="-1.54373">
        <ele>37</ele>
        <time>2015-01-11T07:39:51Z</time>
      </trkpt>
      <trkpt lat="47.16569" lon="-1.54366">
        <ele>45.5</ele>
        <time>2015-01-11T07:39:53Z</time>
      </trkpt>
      <trkpt lat="47.16564" lon="-1.54364">
        <ele>45.3</ele>
        <time>2015-01-11T07:39:56Z</time>
      </trkpt>
      <trkpt lat="47.1656" lon="-1.54367">
        <ele>45.3</ele>
        <time>2015-01-11T07:39:59Z</time>
      </trkpt>
      <trkpt lat="47.16562" lon="-1.54373">
        <ele>45.3</ele>
        <time>2015-01-11T07:40:03Z</time>
      </trkpt>
      <trkpt lat="47.16563" lon="-1.54372">
        <ele>45.2</ele>
        <time>2015-01-11T07:40:04Z</time>
      </trkpt>
      <trkpt lat="47.16565" lon="-1.54371">
        <ele>44.8</ele>
        <time>2015-01-11T07:40:08Z</time>
      </trkpt>
      <trkpt lat="47.16565" lon="-1.54371">
        <ele>37</ele>
        <time>2015-01-11T07:40:08Z</time>
      </trkpt>
      <trkpt lat="47.16565" lon="-1.54371">
        <ele>37</ele>
        <time>2015-01-11T07:40:56Z</time>
      </trkpt>
      <trkpt lat="47.16575" lon="-1.54369">
        <ele>43.5</ele>
        <time>2015-01-11T07:40:57Z</time>
      </trkpt>
      <trkpt lat="47.16584" lon="-1.54372">
        <ele>43.6</ele>
        <time>2015-01-11T07:41:01Z</time>
      </trkpt>
      <trkpt lat="47.16587" lon="-1.54367">
        <ele>43.6</ele>
        <time>2015-01-11T07:41:03Z</time>
      </trkpt>
      <trkpt lat="47.16589" lon="-1.54356">
        <ele>43.6</ele>
        <time>2015-01-11T07:41:05Z</time>
      </trkpt>
      <trkpt lat="47.1659" lon="-1.54331">
        <ele>43.6</ele>
        <time>2015-01-11T07:41:09Z</time>
      </trkpt>
      <trkpt lat="47.16592" lon="-1.54305">
        <ele>43.6</ele>
        <time>2015-01-11T07:41:13Z</time>
      </trkpt>
      <trkpt lat="47.16592" lon="-1.54279">
        <ele>43.6</ele>
        <time>2015-01-11T07:41:17Z</time>
      </trkpt>
      <trkpt lat="47.16596" lon="-1.54256">
        <ele>43.7</ele>
        <time>2015-01-11T07:41:21Z</time>
      </trkpt>
      <trkpt lat="47.16606" lon="-1.54233">
        <ele>43.9</ele>
        <time>2015-01-11T07:41:25Z</time>
      </trkpt>
      <trkpt lat="47.16609" lon="-1.54213">
        <ele>43.9</ele>
        <time>2015-01-11T07:41:28Z</time>
      </trkpt>
      <trkpt lat="47.16611" lon="-1.54191">
        <ele>43.9</ele>
        <time>2015-01-11T07:41:31Z</time>
      </trkpt>
      <trkpt lat="47.1661" lon="-1.54169">
        <ele>44</ele>
        <time>2015-01-11T07:41:34Z</time>
      </trkpt>
      <trkpt lat="47.16611" lon="-1.54148">
        <ele>44</ele>
        <time>2015-01-11T07:41:37Z</time>
      </trkpt>
      <trkpt lat="47.16613" lon="-1.54126">
        <ele>44</ele>
        <time>2015-01-11T07:41:40Z</time>
      </trkpt>
      <trkpt lat="47.16608" lon="-1.54103">
        <ele>44</ele>
        <time>2015-01-11T07:41:43Z</time>
      </trkpt>
      <trkpt lat="47.16609" lon="-1.5408">
        <ele>44</ele>
        <time>2015-01-11T07:41:46Z</time>
      </trkpt>
      <trkpt lat="47.16611" lon="-1.54051">
        <ele>44</ele>
        <time>2015-01-11T07:41:49Z</time>
      </trkpt>
      <trkpt lat="47.1663" lon="-1.54046">
        <ele>44</ele>
        <time>2015-01-11T07:41:52Z</time>
      </trkpt>
      <trkpt lat="47.16638" lon="-1.54055">
        <ele>43.9</ele>
        <time>2015-01-11T07:41:54Z</time>
      </trkpt>
      <trkpt lat="47.16649" lon="-1.54066">
        <ele>43.9</ele>
        <time>2015-01-11T07:41:57Z</time>
      </trkpt>
      <trkpt lat="47.16662" lon="-1.5408">
        <ele>43.9</ele>
        <time>2015-01-11T07:42:00Z</time>
      </trkpt>
      <trkpt lat="47.16675" lon="-1.54093">
        <ele>43.6</ele>
        <time>2015-01-11T07:42:03Z</time>
      </trkpt>
      <trkpt lat="47.16688" lon="-1.54106">
        <ele>43.5</ele>
        <time>2015-01-11T07:42:07Z</time>
      </trkpt>
      <trkpt lat="47.16703" lon="-1.54122">
        <ele>43.5</ele>
        <time>2015-01-11T07:42:11Z</time>
      </trkpt>
      <trkpt lat="47.16715" lon="-1.54133">
        <ele>43.5</ele>
        <time>2015-01-11T07:42:14Z</time>
      </trkpt>
      <trkpt lat="47.16727" lon="-1.54145">
        <ele>43.5</ele>
        <time>2015-01-11T07:42:18Z</time>
      </trkpt>
      <trkpt lat="47.16738" lon="-1.54126">
        <ele>43.5</ele>
        <time>2015-01-11T07:42:22Z</time>
      </trkpt>
      <trkpt lat="47.16747" lon="-1.54111">
        <ele>43.5</ele>
        <time>2015-01-11T07:42:25Z</time>
      </trkpt>
      <trkpt lat="47.16757" lon="-1.54093">
        <ele>43.4</ele>
        <time>2015-01-11T07:42:28Z</time>
      </trkpt>
      <trkpt lat="47.16768" lon="-1.54072">
        <ele>43.1</ele>
        <time>2015-01-11T07:42:32Z</time>
      </trkpt>
      <trkpt lat="47.16779" lon="-1.54054">
        <ele>43</ele>
        <time>2015-01-11T07:42:35Z</time>
      </trkpt>
      <trkpt lat="47.16789" lon="-1.54036">
        <ele>43.1</ele>
        <time>2015-01-11T07:42:38Z</time>
      </trkpt>
      <trkpt lat="47.16801" lon="-1.5402">
        <ele>43.6</ele>
        <time>2015-01-11T07:42:41Z</time>
      </trkpt>
      <trkpt lat="47.16814" lon="-1.5401">
        <ele>43.9</ele>
        <time>2015-01-11T07:42:43Z</time>
      </trkpt>
      <trkpt lat="47.16825" lon="-1.54003">
        <ele>44.1</ele>
        <time>2015-01-11T07:42:45Z</time>
      </trkpt>
      <trkpt lat="47.16836" lon="-1.53996">
        <ele>44.2</ele>
        <time>2015-01-11T07:42:47Z</time>
      </trkpt>
      <trkpt lat="47.16857" lon="-1.53983">
        <ele>44.6</ele>
        <time>2015-01-11T07:42:51Z</time>
      </trkpt>
      <trkpt lat="47.16874" lon="-1.53973">
        <ele>44.8</ele>
        <time>2015-01-11T07:42:54Z</time>
      </trkpt>
      <trkpt lat="47.16891" lon="-1.53963">
        <ele>45.1</ele>
        <time>2015-01-11T07:42:57Z</time>
      </trkpt>
      <trkpt lat="47.16901" lon="-1.53957">
        <ele>45.3</ele>
        <time>2015-01-11T07:42:59Z</time>
      </trkpt>
      <trkpt lat="47.16917" lon="-1.53947">
        <ele>45.7</ele>
        <time>2015-01-11T07:43:02Z</time>
      </trkpt>
      <trkpt lat="47.1693" lon="-1.5394">
        <ele>45.7</ele>
        <time>2015-01-11T07:43:04Z</time>
      </trkpt>
      <trkpt lat="47.16943" lon="-1.53932">
        <ele>45.9</ele>
        <time>2015-01-11T07:43:06Z</time>
      </trkpt>
      <trkpt lat="47.16955" lon="-1.53925">
        <ele>46</ele>
        <time>2015-01-11T07:43:08Z</time>
      </trkpt>
      <trkpt lat="47.16974" lon="-1.53922">
        <ele>46.1</ele>
        <time>2015-01-11T07:43:11Z</time>
      </trkpt>
      <trkpt lat="47.16989" lon="-1.53904">
        <ele>46.1</ele>
        <time>2015-01-11T07:43:14Z</time>
      </trkpt>
      <trkpt lat="47.17006" lon="-1.53893">
        <ele>46.2</ele>
        <time>2015-01-11T07:43:17Z</time>
      </trkpt>
      <trkpt lat="47.17016" lon="-1.53888">
        <ele>46.5</ele>
        <time>2015-01-11T07:43:19Z</time>
      </trkpt>
      <trkpt lat="47.17021" lon="-1.53884">
        <ele>47.7</ele>
        <time>2015-01-11T07:43:20Z</time>
      </trkpt>
      <trkpt lat="47.17042" lon="-1.53871">
        <ele>47.7</ele>
        <time>2015-01-11T07:43:24Z</time>
      </trkpt>
      <trkpt lat="47.17048" lon="-1.53868">
        <ele>48.5</ele>
        <time>2015-01-11T07:43:25Z</time>
      </trkpt>
      <trkpt lat="47.17068" lon="-1.53854">
        <ele>48.5</ele>
        <time>2015-01-11T07:43:29Z</time>
      </trkpt>
      <trkpt lat="47.17086" lon="-1.53851">
        <ele>48.7</ele>
        <time>2015-01-11T07:43:32Z</time>
      </trkpt>
      <trkpt lat="47.17097" lon="-1.53836">
        <ele>48.7</ele>
        <time>2015-01-11T07:43:35Z</time>
      </trkpt>
      <trkpt lat="47.17108" lon="-1.53818">
        <ele>48.7</ele>
        <time>2015-01-11T07:43:38Z</time>
      </trkpt>
      <trkpt lat="47.17123" lon="-1.53802">
        <ele>48.7</ele>
        <time>2015-01-11T07:43:41Z</time>
      </trkpt>
      <trkpt lat="47.17137" lon="-1.53784">
        <ele>48.7</ele>
        <time>2015-01-11T07:43:44Z</time>
      </trkpt>
      <trkpt lat="47.1715" lon="-1.53763">
        <ele>48.7</ele>
        <time>2015-01-11T07:43:47Z</time>
      </trkpt>
      <trkpt lat="47.17163" lon="-1.53744">
        <ele>48.7</ele>
        <time>2015-01-11T07:43:50Z</time>
      </trkpt>
      <trkpt lat="47.17176" lon="-1.53729">
        <ele>48.7</ele>
        <time>2015-01-11T07:43:53Z</time>
      </trkpt>
      <trkpt lat="47.17188" lon="-1.53711">
        <ele>48.7</ele>
        <time>2015-01-11T07:43:56Z</time>
      </trkpt>
      <trkpt lat="47.17202" lon="-1.53693">
        <ele>48.5</ele>
        <time>2015-01-11T07:43:59Z</time>
      </trkpt>
      <trkpt lat="47.17214" lon="-1.53678">
        <ele>48.1</ele>
        <time>2015-01-11T07:44:02Z</time>
      </trkpt>
      <trkpt lat="47.17223" lon="-1.53658">
        <ele>47.2</ele>
        <time>2015-01-11T07:44:05Z</time>
      </trkpt>
      <trkpt lat="47.17232" lon="-1.53637">
        <ele>46.7</ele>
        <time>2015-01-11T07:44:08Z</time>
      </trkpt>
      <trkpt lat="47.17241" lon="-1.53616">
        <ele>45.3</ele>
        <time>2015-01-11T07:44:11Z</time>
      </trkpt>
      <trkpt lat="47.17249" lon="-1.53591">
        <ele>42.3</ele>
        <time>2015-01-11T07:44:14Z</time>
      </trkpt>
      <trkpt lat="47.17255" lon="-1.5357">
        <ele>40.8</ele>
        <time>2015-01-11T07:44:17Z</time>
      </trkpt>
      <trkpt lat="47.17259" lon="-1.53547">
        <ele>40</ele>
        <time>2015-01-11T07:44:20Z</time>
      </trkpt>
      <trkpt lat="47.17262" lon="-1.53525">
        <ele>39.8</ele>
        <time>2015-01-11T07:44:23Z</time>
      </trkpt>
      <trkpt lat="47.17264" lon="-1.53503">
        <ele>39.7</ele>
        <time>2015-01-11T07:44:26Z</time>
      </trkpt>
      <trkpt lat="47.17263" lon="-1.53478">
        <ele>39.3</ele>
        <time>2015-01-11T07:44:30Z</time>
      </trkpt>
      <trkpt lat="47.17256" lon="-1.53453">
        <ele>38.9</ele>
        <time>2015-01-11T07:44:34Z</time>
      </trkpt>
      <trkpt lat="47.17252" lon="-1.53429">
        <ele>38.7</ele>
        <time>2015-01-11T07:44:38Z</time>
      </trkpt>
      <trkpt lat="47.1726" lon="-1.53408">
        <ele>38.6</ele>
        <time>2015-01-11T07:44:41Z</time>
      </trkpt>
      <trkpt lat="47.17267" lon="-1.53386">
        <ele>38.6</ele>
        <time>2015-01-11T07:44:44Z</time>
      </trkpt>
      <trkpt lat="47.17274" lon="-1.53362">
        <ele>38.6</ele>
        <time>2015-01-11T07:44:47Z</time>
      </trkpt>
      <trkpt lat="47.17281" lon="-1.53342">
        <ele>38.6</ele>
        <time>2015-01-11T07:44:50Z</time>
      </trkpt>
      <trkpt lat="47.17287" lon="-1.53322">
        <ele>38.5</ele>
        <time>2015-01-11T07:44:53Z</time>
      </trkpt>
      <trkpt lat="47.17294" lon="-1.53299">
        <ele>38.4</ele>
        <time>2015-01-11T07:44:56Z</time>
      </trkpt>
      <trkpt lat="47.17302" lon="-1.53276">
        <ele>38.4</ele>
        <time>2015-01-11T07:44:59Z</time>
      </trkpt>
      <trkpt lat="47.17308" lon="-1.53254">
        <ele>38.4</ele>
        <time>2015-01-11T07:45:02Z</time>
      </trkpt>
      <trkpt lat="47.17317" lon="-1.53238">
        <ele>38.3</ele>
        <time>2015-01-11T07:45:05Z</time>
      </trkpt>
      <trkpt lat="47.17327" lon="-1.53216">
        <ele>38.3</ele>
        <time>2015-01-11T07:45:08Z</time>
      </trkpt>
      <trkpt lat="47.17334" lon="-1.53192">
        <ele>38.3</ele>
        <time>2015-01-11T07:45:11Z</time>
      </trkpt>
      <trkpt lat="47.17341" lon="-1.5317">
        <ele>38.2</ele>
        <time>2015-01-11T07:45:14Z</time>
      </trkpt>
      <trkpt lat="47.17352" lon="-1.53153">
        <ele>37.9</ele>
        <time>2015-01-11T07:45:17Z</time>
      </trkpt>
      <trkpt lat="47.17363" lon="-1.53142">
        <ele>37.7</ele>
        <time>2015-01-11T07:45:20Z</time>
      </trkpt>
      <trkpt lat="47.17373" lon="-1.53138">
        <ele>37.3</ele>
        <time>2015-01-11T07:45:23Z</time>
      </trkpt>
      <trkpt lat="47.17386" lon="-1.53126">
        <ele>37.3</ele>
        <time>2015-01-11T07:45:27Z</time>
      </trkpt>
      <trkpt lat="47.17397" lon="-1.53111">
        <ele>37.3</ele>
        <time>2015-01-11T07:45:31Z</time>
      </trkpt>
      <trkpt lat="47.1741" lon="-1.53098">
        <ele>37.1</ele>
        <time>2015-01-11T07:45:35Z</time>
      </trkpt>
      <trkpt lat="47.17423" lon="-1.53084">
        <ele>36.1</ele>
        <time>2015-01-11T07:45:40Z</time>
      </trkpt>
      <trkpt lat="47.17434" lon="-1.53072">
        <ele>35.6</ele>
        <time>2015-01-11T07:45:44Z</time>
      </trkpt>
      <trkpt lat="47.17443" lon="-1.53057">
        <ele>34.9</ele>
        <time>2015-01-11T07:45:48Z</time>
      </trkpt>
      <trkpt lat="47.17457" lon="-1.5307">
        <ele>34.3</ele>
        <time>2015-01-11T07:45:55Z</time>
      </trkpt>
      <trkpt lat="47.17463" lon="-1.53086">
        <ele>33.7</ele>
        <time>2015-01-11T07:45:59Z</time>
      </trkpt>
      <trkpt lat="47.1747" lon="-1.53094">
        <ele>32.9</ele>
        <time>2015-01-11T07:46:02Z</time>
      </trkpt>
      <trkpt lat="47.17478" lon="-1.53104">
        <ele>31.6</ele>
        <time>2015-01-11T07:46:06Z</time>
      </trkpt>
      <trkpt lat="47.17494" lon="-1.53095">
        <ele>30.3</ele>
        <time>2015-01-11T07:46:12Z</time>
      </trkpt>
      <trkpt lat="47.17505" lon="-1.53083">
        <ele>29.9</ele>
        <time>2015-01-11T07:46:16Z</time>
      </trkpt>
      <trkpt lat="47.17517" lon="-1.53073">
        <ele>29.7</ele>
        <time>2015-01-11T07:46:20Z</time>
      </trkpt>
      <trkpt lat="47.17529" lon="-1.53063">
        <ele>29.7</ele>
        <time>2015-01-11T07:46:24Z</time>
      </trkpt>
      <trkpt lat="47.1754" lon="-1.53052">
        <ele>29.6</ele>
        <time>2015-01-11T07:46:29Z</time>
      </trkpt>
      <trkpt lat="47.1755" lon="-1.53043">
        <ele>29.5</ele>
        <time>2015-01-11T07:46:33Z</time>
      </trkpt>
      <trkpt lat="47.17554" lon="-1.53038">
        <ele>29.4</ele>
        <time>2015-01-11T07:46:35Z</time>
      </trkpt>
      <trkpt lat="47.17558" lon="-1.53031">
        <ele>29.4</ele>
        <time>2015-01-11T07:46:37Z</time>
      </trkpt>
      <trkpt lat="47.17565" lon="-1.5302">
        <ele>29.4</ele>
        <time>2015-01-11T07:46:42Z</time>
      </trkpt>
      <trkpt lat="47.17573" lon="-1.53028">
        <ele>29.5</ele>
        <time>2015-01-11T07:46:45Z</time>
      </trkpt>
      <trkpt lat="47.17584" lon="-1.53047">
        <ele>29.6</ele>
        <time>2015-01-11T07:46:49Z</time>
      </trkpt>
      <trkpt lat="47.17595" lon="-1.53068">
        <ele>29.7</ele>
        <time>2015-01-11T07:46:53Z</time>
      </trkpt>
      <trkpt lat="47.17604" lon="-1.53085">
        <ele>29.8</ele>
        <time>2015-01-11T07:46:57Z</time>
      </trkpt>
      <trkpt lat="47.1762" lon="-1.53085">
        <ele>29.8</ele>
        <time>2015-01-11T07:47:01Z</time>
      </trkpt>
      <trkpt lat="47.17629" lon="-1.5308">
        <ele>29.8</ele>
        <time>2015-01-11T07:47:03Z</time>
      </trkpt>
      <trkpt lat="47.17643" lon="-1.53071">
        <ele>29.8</ele>
        <time>2015-01-11T07:47:06Z</time>
      </trkpt>
      <trkpt lat="47.17652" lon="-1.5307">
        <ele>29.7</ele>
        <time>2015-01-11T07:47:08Z</time>
      </trkpt>
      <trkpt lat="47.1767" lon="-1.53069">
        <ele>29.6</ele>
        <time>2015-01-11T07:47:11Z</time>
      </trkpt>
      <trkpt lat="47.17675" lon="-1.53067">
        <ele>29.6</ele>
        <time>2015-01-11T07:47:12Z</time>
      </trkpt>
      <trkpt lat="47.17681" lon="-1.53064">
        <ele>29.6</ele>
        <time>2015-01-11T07:47:13Z</time>
      </trkpt>
      <trkpt lat="47.17687" lon="-1.53061">
        <ele>29.6</ele>
        <time>2015-01-11T07:47:14Z</time>
      </trkpt>
      <trkpt lat="47.17692" lon="-1.53057">
        <ele>29.6</ele>
        <time>2015-01-11T07:47:15Z</time>
      </trkpt>
      <trkpt lat="47.17695" lon="-1.5305">
        <ele>29.6</ele>
        <time>2015-01-11T07:47:16Z</time>
      </trkpt>
      <trkpt lat="47.17698" lon="-1.5304">
        <ele>29.4</ele>
        <time>2015-01-11T07:47:18Z</time>
      </trkpt>
      <trkpt lat="47.17696" lon="-1.53031">
        <ele>29.4</ele>
        <time>2015-01-11T07:47:20Z</time>
      </trkpt>
      <trkpt lat="47.17703" lon="-1.53013">
        <ele>29.4</ele>
        <time>2015-01-11T07:47:24Z</time>
      </trkpt>
      <trkpt lat="47.17715" lon="-1.53004">
        <ele>29.3</ele>
        <time>2015-01-11T07:47:27Z</time>
      </trkpt>
      <trkpt lat="47.1772" lon="-1.53001">
        <ele>29.3</ele>
        <time>2015-01-11T07:47:28Z</time>
      </trkpt>
      <trkpt lat="47.17727" lon="-1.52996">
        <ele>29.3</ele>
        <time>2015-01-11T07:47:30Z</time>
      </trkpt>
      <trkpt lat="47.17735" lon="-1.5299">
        <ele>29.3</ele>
        <time>2015-01-11T07:47:32Z</time>
      </trkpt>
      <trkpt lat="47.17747" lon="-1.52985">
        <ele>29.3</ele>
        <time>2015-01-11T07:47:35Z</time>
      </trkpt>
      <trkpt lat="47.1776" lon="-1.5298">
        <ele>29.3</ele>
        <time>2015-01-11T07:47:38Z</time>
      </trkpt>
      <trkpt lat="47.17772" lon="-1.52972">
        <ele>29.2</ele>
        <time>2015-01-11T07:47:41Z</time>
      </trkpt>
      <trkpt lat="47.17778" lon="-1.52968">
        <ele>28.9</ele>
        <time>2015-01-11T07:47:43Z</time>
      </trkpt>
      <trkpt lat="47.17781" lon="-1.52963">
        <ele>28.9</ele>
        <time>2015-01-11T07:47:45Z</time>
      </trkpt>
      <trkpt lat="47.17796" lon="-1.52954">
        <ele>28.8</ele>
        <time>2015-01-11T07:47:49Z</time>
      </trkpt>
      <trkpt lat="47.17805" lon="-1.52957">
        <ele>28.6</ele>
        <time>2015-01-11T07:47:51Z</time>
      </trkpt>
      <trkpt lat="47.17814" lon="-1.52961">
        <ele>28.3</ele>
        <time>2015-01-11T07:47:54Z</time>
      </trkpt>
      <trkpt lat="47.17828" lon="-1.52956">
        <ele>28.2</ele>
        <time>2015-01-11T07:47:58Z</time>
      </trkpt>
      <trkpt lat="47.1784" lon="-1.52941">
        <ele>28.1</ele>
        <time>2015-01-11T07:48:01Z</time>
      </trkpt>
      <trkpt lat="47.17852" lon="-1.52925">
        <ele>28</ele>
        <time>2015-01-11T07:48:04Z</time>
      </trkpt>
      <trkpt lat="47.17866" lon="-1.52908">
        <ele>27.9</ele>
        <time>2015-01-11T07:48:07Z</time>
      </trkpt>
      <trkpt lat="47.1788" lon="-1.5289">
        <ele>27.7</ele>
        <time>2015-01-11T07:48:10Z</time>
      </trkpt>
      <trkpt lat="47.17889" lon="-1.52873">
        <ele>27.7</ele>
        <time>2015-01-11T07:48:12Z</time>
      </trkpt>
      <trkpt lat="47.17901" lon="-1.52851">
        <ele>27.7</ele>
        <time>2015-01-11T07:48:15Z</time>
      </trkpt>
      <trkpt lat="47.17911" lon="-1.52837">
        <ele>27.7</ele>
        <time>2015-01-11T07:48:17Z</time>
      </trkpt>
      <trkpt lat="47.17922" lon="-1.52824">
        <ele>27.6</ele>
        <time>2015-01-11T07:48:19Z</time>
      </trkpt>
      <trkpt lat="47.17938" lon="-1.52806">
        <ele>27.4</ele>
        <time>2015-01-11T07:48:22Z</time>
      </trkpt>
      <trkpt lat="47.17944" lon="-1.52787">
        <ele>26.8</ele>
        <time>2015-01-11T07:48:24Z</time>
      </trkpt>
      <trkpt lat="47.17952" lon="-1.5277">
        <ele>26.6</ele>
        <time>2015-01-11T07:48:26Z</time>
      </trkpt>
      <trkpt lat="47.17964" lon="-1.5275">
        <ele>26.2</ele>
        <time>2015-01-11T07:48:29Z</time>
      </trkpt>
      <trkpt lat="47.17972" lon="-1.52728">
        <ele>25.9</ele>
        <time>2015-01-11T07:48:32Z</time>
      </trkpt>
      <trkpt lat="47.17985" lon="-1.52715">
        <ele>25.6</ele>
        <time>2015-01-11T07:48:35Z</time>
      </trkpt>
      <trkpt lat="47.17996" lon="-1.52696">
        <ele>25.3</ele>
        <time>2015-01-11T07:48:38Z</time>
      </trkpt>
      <trkpt lat="47.18007" lon="-1.52683">
        <ele>25.1</ele>
        <time>2015-01-11T07:48:41Z</time>
      </trkpt>
      <trkpt lat="47.18019" lon="-1.52671">
        <ele>24.7</ele>
        <time>2015-01-11T07:48:45Z</time>
      </trkpt>
      <trkpt lat="47.18032" lon="-1.52663">
        <ele>23.5</ele>
        <time>2015-01-11T07:48:50Z</time>
      </trkpt>
      <trkpt lat="47.18045" lon="-1.52662">
        <ele>21.8</ele>
        <time>2015-01-11T07:48:53Z</time>
      </trkpt>
      <trkpt lat="47.18056" lon="-1.52664">
        <ele>21.1</ele>
        <time>2015-01-11T07:48:56Z</time>
      </trkpt>
      <trkpt lat="47.18074" lon="-1.52668">
        <ele>20.6</ele>
        <time>2015-01-11T07:49:00Z</time>
      </trkpt>
      <trkpt lat="47.18086" lon="-1.5268">
        <ele>20</ele>
        <time>2015-01-11T07:49:03Z</time>
      </trkpt>
      <trkpt lat="47.18099" lon="-1.52697">
        <ele>19.3</ele>
        <time>2015-01-11T07:49:07Z</time>
      </trkpt>
      <trkpt lat="47.18109" lon="-1.52712">
        <ele>19.1</ele>
        <time>2015-01-11T07:49:10Z</time>
      </trkpt>
      <trkpt lat="47.18119" lon="-1.52727">
        <ele>18.3</ele>
        <time>2015-01-11T07:49:14Z</time>
      </trkpt>
      <trkpt lat="47.1813" lon="-1.52741">
        <ele>18.1</ele>
        <time>2015-01-11T07:49:18Z</time>
      </trkpt>
      <trkpt lat="47.18139" lon="-1.52752">
        <ele>17.5</ele>
        <time>2015-01-11T07:49:22Z</time>
      </trkpt>
      <trkpt lat="47.18164" lon="-1.5278">
        <ele>16.7</ele>
        <time>2015-01-11T07:49:30Z</time>
      </trkpt>
      <trkpt lat="47.18171" lon="-1.52797">
        <ele>16.5</ele>
        <time>2015-01-11T07:49:33Z</time>
      </trkpt>
      <trkpt lat="47.18177" lon="-1.52817">
        <ele>16.1</ele>
        <time>2015-01-11T07:49:36Z</time>
      </trkpt>
      <trkpt lat="47.18186" lon="-1.52837">
        <ele>15.3</ele>
        <time>2015-01-11T07:49:40Z</time>
      </trkpt>
      <trkpt lat="47.18192" lon="-1.52855">
        <ele>14.8</ele>
        <time>2015-01-11T07:49:43Z</time>
      </trkpt>
      <trkpt lat="47.18199" lon="-1.52876">
        <ele>13.9</ele>
        <time>2015-01-11T07:49:47Z</time>
      </trkpt>
      <trkpt lat="47.18206" lon="-1.52896">
        <ele>13.7</ele>
        <time>2015-01-11T07:49:51Z</time>
      </trkpt>
      <trkpt lat="47.18213" lon="-1.52916">
        <ele>13.4</ele>
        <time>2015-01-11T07:49:55Z</time>
      </trkpt>
      <trkpt lat="47.1822" lon="-1.52937">
        <ele>13.1</ele>
        <time>2015-01-11T07:49:59Z</time>
      </trkpt>
      <trkpt lat="47.18227" lon="-1.52956">
        <ele>12.8</ele>
        <time>2015-01-11T07:50:02Z</time>
      </trkpt>
      <trkpt lat="47.18235" lon="-1.52976">
        <ele>12.5</ele>
        <time>2015-01-11T07:50:06Z</time>
      </trkpt>
      <trkpt lat="47.18242" lon="-1.52999">
        <ele>12.1</ele>
        <time>2015-01-11T07:50:10Z</time>
      </trkpt>
      <trkpt lat="47.18249" lon="-1.53017">
        <ele>10.1</ele>
        <time>2015-01-11T07:50:13Z</time>
      </trkpt>
      <trkpt lat="47.18256" lon="-1.53036">
        <ele>9.2</ele>
        <time>2015-01-11T07:50:16Z</time>
      </trkpt>
      <trkpt lat="47.18262" lon="-1.53061">
        <ele>8.8</ele>
        <time>2015-01-11T07:50:20Z</time>
      </trkpt>
      <trkpt lat="47.18269" lon="-1.53079">
        <ele>8.2</ele>
        <time>2015-01-11T07:50:23Z</time>
      </trkpt>
      <trkpt lat="47.18272" lon="-1.53099">
        <ele>7.9</ele>
        <time>2015-01-11T07:50:26Z</time>
      </trkpt>
      <trkpt lat="47.18267" lon="-1.5312">
        <ele>7.3</ele>
        <time>2015-01-11T07:50:30Z</time>
      </trkpt>
      <trkpt lat="47.18261" lon="-1.53142">
        <ele>7.1</ele>
        <time>2015-01-11T07:50:34Z</time>
      </trkpt>
      <trkpt lat="47.18258" lon="-1.53157">
        <ele>7.1</ele>
        <time>2015-01-11T07:50:37Z</time>
      </trkpt>
      <trkpt lat="47.18269" lon="-1.53159">
        <ele>7.1</ele>
        <time>2015-01-11T07:50:41Z</time>
      </trkpt>
      <trkpt lat="47.18276" lon="-1.5314">
        <ele>7.1</ele>
        <time>2015-01-11T07:50:44Z</time>
      </trkpt>
      <trkpt lat="47.18287" lon="-1.53131">
        <ele>7.1</ele>
        <time>2015-01-11T07:50:47Z</time>
      </trkpt>
      <trkpt lat="47.18296" lon="-1.53124">
        <ele>7.1</ele>
        <time>2015-01-11T07:50:50Z</time>
      </trkpt>
      <trkpt lat="47.18313" lon="-1.5311">
        <ele>7.1</ele>
        <time>2015-01-11T07:50:55Z</time>
      </trkpt>
      <trkpt lat="47.18323" lon="-1.53102">
        <ele>7.2</ele>
        <time>2015-01-11T07:50:58Z</time>
      </trkpt>
      <trkpt lat="47.18341" lon="-1.53086">
        <ele>7.9</ele>
        <time>2015-01-11T07:51:03Z</time>
      </trkpt>
      <trkpt lat="47.18354" lon="-1.53071">
        <ele>8.6</ele>
        <time>2015-01-11T07:51:06Z</time>
      </trkpt>
      <trkpt lat="47.18365" lon="-1.53058">
        <ele>8.7</ele>
        <time>2015-01-11T07:51:09Z</time>
      </trkpt>
      <trkpt lat="47.18374" lon="-1.53042">
        <ele>8.7</ele>
        <time>2015-01-11T07:51:14Z</time>
      </trkpt>
      <trkpt lat="47.18358" lon="-1.5304">
        <ele>8.7</ele>
        <time>2015-01-11T07:51:19Z</time>
      </trkpt>
      <trkpt lat="47.18344" lon="-1.53033">
        <ele>8.7</ele>
        <time>2015-01-11T07:51:23Z</time>
      </trkpt>
      <trkpt lat="47.18334" lon="-1.53021">
        <ele>8.7</ele>
        <time>2015-01-11T07:51:25Z</time>
      </trkpt>
      <trkpt lat="47.18328" lon="-1.53001">
        <ele>8.9</ele>
        <time>2015-01-11T07:51:28Z</time>
      </trkpt>
      <trkpt lat="47.18318" lon="-1.52983">
        <ele>9</ele>
        <time>2015-01-11T07:51:31Z</time>
      </trkpt>
      <trkpt lat="47.18313" lon="-1.52962">
        <ele>9.2</ele>
        <time>2015-01-11T07:51:34Z</time>
      </trkpt>
      <trkpt lat="47.18304" lon="-1.52944">
        <ele>9.4</ele>
        <time>2015-01-11T07:51:37Z</time>
      </trkpt>
      <trkpt lat="47.18293" lon="-1.52923">
        <ele>8.6</ele>
        <time>2015-01-11T07:51:40Z</time>
      </trkpt>
      <trkpt lat="47.18286" lon="-1.52906">
        <ele>8.2</ele>
        <time>2015-01-11T07:51:43Z</time>
      </trkpt>
      <trkpt lat="47.18279" lon="-1.52884">
        <ele>8</ele>
        <time>2015-01-11T07:51:46Z</time>
      </trkpt>
      <trkpt lat="47.18276" lon="-1.52861">
        <ele>8</ele>
        <time>2015-01-11T07:51:49Z</time>
      </trkpt>
      <trkpt lat="47.18274" lon="-1.52841">
        <ele>8</ele>
        <time>2015-01-11T07:51:52Z</time>
      </trkpt>
      <trkpt lat="47.1827" lon="-1.52821">
        <ele>8</ele>
        <time>2015-01-11T07:51:55Z</time>
      </trkpt>
      <trkpt lat="47.18261" lon="-1.52799">
        <ele>8</ele>
        <time>2015-01-11T07:51:58Z</time>
      </trkpt>
      <trkpt lat="47.18254" lon="-1.52778">
        <ele>8</ele>
        <time>2015-01-11T07:52:01Z</time>
      </trkpt>
      <trkpt lat="47.18248" lon="-1.5277">
        <ele>8.2</ele>
        <time>2015-01-11T07:52:03Z</time>
      </trkpt>
      <trkpt lat="47.18246" lon="-1.52763">
        <ele>8.2</ele>
        <time>2015-01-11T07:52:05Z</time>
      </trkpt>
      <trkpt lat="47.18248" lon="-1.52755">
        <ele>8.2</ele>
        <time>2015-01-11T07:52:07Z</time>
      </trkpt>
      <trkpt lat="47.18243" lon="-1.52744">
        <ele>8.2</ele>
        <time>2015-01-11T07:52:13Z</time>
      </trkpt>
      <trkpt lat="47.18239" lon="-1.52718">
        <ele>8.3</ele>
        <time>2015-01-11T07:52:17Z</time>
      </trkpt>
      <trkpt lat="47.1824" lon="-1.52693">
        <ele>8.9</ele>
        <time>2015-01-11T07:52:20Z</time>
      </trkpt>
      <trkpt lat="47.18245" lon="-1.52669">
        <ele>9</ele>
        <time>2015-01-11T07:52:23Z</time>
      </trkpt>
      <trkpt lat="47.18248" lon="-1.52644">
        <ele>9</ele>
        <time>2015-01-11T07:52:27Z</time>
      </trkpt>
      <trkpt lat="47.18249" lon="-1.52637">
        <ele>9</ele>
        <time>2015-01-11T07:52:28Z</time>
      </trkpt>
      <trkpt lat="47.18248" lon="-1.5263">
        <ele>9</ele>
        <time>2015-01-11T07:52:30Z</time>
      </trkpt>
      <trkpt lat="47.18245" lon="-1.52622">
        <ele>9</ele>
        <time>2015-01-11T07:52:32Z</time>
      </trkpt>
      <trkpt lat="47.18236" lon="-1.52606">
        <ele>8.2</ele>
        <time>2015-01-11T07:52:36Z</time>
      </trkpt>
      <trkpt lat="47.18226" lon="-1.52588">
        <ele>7.4</ele>
        <time>2015-01-11T07:52:40Z</time>
      </trkpt>
      <trkpt lat="47.18218" lon="-1.52568">
        <ele>7.3</ele>
        <time>2015-01-11T07:52:43Z</time>
      </trkpt>
      <trkpt lat="47.18209" lon="-1.52544">
        <ele>6.9</ele>
        <time>2015-01-11T07:52:47Z</time>
      </trkpt>
      <trkpt lat="47.18202" lon="-1.52524">
        <ele>6.5</ele>
        <time>2015-01-11T07:52:50Z</time>
      </trkpt>
      <trkpt lat="47.18197" lon="-1.52504">
        <ele>5.9</ele>
        <time>2015-01-11T07:52:53Z</time>
      </trkpt>
      <trkpt lat="47.18199" lon="-1.52481">
        <ele>5.2</ele>
        <time>2015-01-11T07:52:56Z</time>
      </trkpt>
      <trkpt lat="47.18203" lon="-1.5246">
        <ele>4.7</ele>
        <time>2015-01-11T07:53:00Z</time>
      </trkpt>
      <trkpt lat="47.18203" lon="-1.5244">
        <ele>4.2</ele>
        <time>2015-01-11T07:53:04Z</time>
      </trkpt>
      <trkpt lat="47.18194" lon="-1.52419">
        <ele>3.9</ele>
        <time>2015-01-11T07:53:08Z</time>
      </trkpt>
      <trkpt lat="47.18192" lon="-1.524">
        <ele>4</ele>
        <time>2015-01-11T07:53:11Z</time>
      </trkpt>
      <trkpt lat="47.1819" lon="-1.52374">
        <ele>4.3</ele>
        <time>2015-01-11T07:53:15Z</time>
      </trkpt>
      <trkpt lat="47.18189" lon="-1.52351">
        <ele>4.1</ele>
        <time>2015-01-11T07:53:19Z</time>
      </trkpt>
      <trkpt lat="47.18193" lon="-1.52326">
        <ele>3.9</ele>
        <time>2015-01-11T07:53:23Z</time>
      </trkpt>
      <trkpt lat="47.18197" lon="-1.52304">
        <ele>3.9</ele>
        <time>2015-01-11T07:53:26Z</time>
      </trkpt>
      <trkpt lat="47.18199" lon="-1.52284">
        <ele>3.9</ele>
        <time>2015-01-11T07:53:29Z</time>
      </trkpt>
      <trkpt lat="47.18199" lon="-1.5226">
        <ele>3.9</ele>
        <time>2015-01-11T07:53:32Z</time>
      </trkpt>
      <trkpt lat="47.18196" lon="-1.52236">
        <ele>3.9</ele>
        <time>2015-01-11T07:53:36Z</time>
      </trkpt>
      <trkpt lat="47.18186" lon="-1.52221">
        <ele>3.9</ele>
        <time>2015-01-11T07:53:40Z</time>
      </trkpt>
      <trkpt lat="47.18177" lon="-1.52204">
        <ele>4.1</ele>
        <time>2015-01-11T07:53:43Z</time>
      </trkpt>
      <trkpt lat="47.18171" lon="-1.52185">
        <ele>4.3</ele>
        <time>2015-01-11T07:53:46Z</time>
      </trkpt>
      <trkpt lat="47.18166" lon="-1.52163">
        <ele>4.5</ele>
        <time>2015-01-11T07:53:50Z</time>
      </trkpt>
      <trkpt lat="47.18159" lon="-1.52139">
        <ele>4.6</ele>
        <time>2015-01-11T07:53:54Z</time>
      </trkpt>
      <trkpt lat="47.1815" lon="-1.52121">
        <ele>4.7</ele>
        <time>2015-01-11T07:53:57Z</time>
      </trkpt>
      <trkpt lat="47.18139" lon="-1.52105">
        <ele>4.8</ele>
        <time>2015-01-11T07:54:00Z</time>
      </trkpt>
      <trkpt lat="47.18134" lon="-1.52083">
        <ele>4.9</ele>
        <time>2015-01-11T07:54:04Z</time>
      </trkpt>
      <trkpt lat="47.18132" lon="-1.52062">
        <ele>5.2</ele>
        <time>2015-01-11T07:54:07Z</time>
      </trkpt>
      <trkpt lat="47.18129" lon="-1.52041">
        <ele>5.3</ele>
        <time>2015-01-11T07:54:10Z</time>
      </trkpt>
      <trkpt lat="47.18125" lon="-1.52017">
        <ele>5.3</ele>
        <time>2015-01-11T07:54:14Z</time>
      </trkpt>
      <trkpt lat="47.18123" lon="-1.5199">
        <ele>5.4</ele>
        <time>2015-01-11T07:54:18Z</time>
      </trkpt>
      <trkpt lat="47.18123" lon="-1.51963">
        <ele>5.4</ele>
        <time>2015-01-11T07:54:22Z</time>
      </trkpt>
      <trkpt lat="47.18122" lon="-1.51938">
        <ele>5.4</ele>
        <time>2015-01-11T07:54:25Z</time>
      </trkpt>
      <trkpt lat="47.18118" lon="-1.51916">
        <ele>5.8</ele>
        <time>2015-01-11T07:54:30Z</time>
      </trkpt>
      <trkpt lat="47.18114" lon="-1.51894">
        <ele>6</ele>
        <time>2015-01-11T07:54:39Z</time>
      </trkpt>
      <trkpt lat="47.18115" lon="-1.51873">
        <ele>6</ele>
        <time>2015-01-11T07:54:43Z</time>
      </trkpt>
      <trkpt lat="47.18116" lon="-1.51851">
        <ele>6</ele>
        <time>2015-01-11T07:54:46Z</time>
      </trkpt>
      <trkpt lat="47.18121" lon="-1.51829">
        <ele>5.7</ele>
        <time>2015-01-11T07:54:49Z</time>
      </trkpt>
      <trkpt lat="47.18125" lon="-1.51808">
        <ele>5.5</ele>
        <time>2015-01-11T07:54:52Z</time>
      </trkpt>
      <trkpt lat="47.18136" lon="-1.51788">
        <ele>5.2</ele>
        <time>2015-01-11T07:54:56Z</time>
      </trkpt>
      <trkpt lat="47.18146" lon="-1.51774">
        <ele>4.7</ele>
        <time>2015-01-11T07:55:00Z</time>
      </trkpt>
      <trkpt lat="47.18154" lon="-1.51757">
        <ele>4.2</ele>
        <time>2015-01-11T07:55:04Z</time>
      </trkpt>
      <trkpt lat="47.18159" lon="-1.51735">
        <ele>3.7</ele>
        <time>2015-01-11T07:55:08Z</time>
      </trkpt>
      <trkpt lat="47.18157" lon="-1.51714">
        <ele>3.5</ele>
        <time>2015-01-11T07:55:12Z</time>
      </trkpt>
      <trkpt lat="47.18155" lon="-1.51691">
        <ele>3.2</ele>
        <time>2015-01-11T07:55:16Z</time>
      </trkpt>
      <trkpt lat="47.18154" lon="-1.51666">
        <ele>3.1</ele>
        <time>2015-01-11T07:55:20Z</time>
      </trkpt>
      <trkpt lat="47.1815" lon="-1.5164">
        <ele>2.9</ele>
        <time>2015-01-11T07:55:24Z</time>
      </trkpt>
      <trkpt lat="47.18148" lon="-1.5162">
        <ele>2.7</ele>
        <time>2015-01-11T07:55:27Z</time>
      </trkpt>
      <trkpt lat="47.18146" lon="-1.51595">
        <ele>2.6</ele>
        <time>2015-01-11T07:55:31Z</time>
      </trkpt>
      <trkpt lat="47.18142" lon="-1.51569">
        <ele>2.7</ele>
        <time>2015-01-11T07:55:35Z</time>
      </trkpt>
      <trkpt lat="47.18139" lon="-1.51547">
        <ele>2.8</ele>
        <time>2015-01-11T07:55:39Z</time>
      </trkpt>
      <trkpt lat="47.18135" lon="-1.51524">
        <ele>2.9</ele>
        <time>2015-01-11T07:55:43Z</time>
      </trkpt>
      <trkpt lat="47.18129" lon="-1.51505">
        <ele>3.1</ele>
        <time>2015-01-11T07:55:47Z</time>
      </trkpt>
      <trkpt lat="47.1812" lon="-1.51489">
        <ele>2.9</ele>
        <time>2015-01-11T07:55:51Z</time>
      </trkpt>
      <trkpt lat="47.18111" lon="-1.51469">
        <ele>2.8</ele>
        <time>2015-01-11T07:55:54Z</time>
      </trkpt>
      <trkpt lat="47.18108" lon="-1.51449">
        <ele>2.8</ele>
        <time>2015-01-11T07:55:58Z</time>
      </trkpt>
      <trkpt lat="47.18103" lon="-1.51429">
        <ele>2.8</ele>
        <time>2015-01-11T07:56:01Z</time>
      </trkpt>
      <trkpt lat="47.18092" lon="-1.51398">
        <ele>2.7</ele>
        <time>2015-01-11T07:56:05Z</time>
      </trkpt>
      <trkpt lat="47.18084" lon="-1.51381">
        <ele>2.8</ele>
        <time>2015-01-11T07:56:10Z</time>
      </trkpt>
      <trkpt lat="47.18076" lon="-1.51359">
        <ele>2.8</ele>
        <time>2015-01-11T07:56:14Z</time>
      </trkpt>
      <trkpt lat="47.18069" lon="-1.51335">
        <ele>2.9</ele>
        <time>2015-01-11T07:56:18Z</time>
      </trkpt>
      <trkpt lat="47.18064" lon="-1.51311">
        <ele>3.1</ele>
        <time>2015-01-11T07:56:22Z</time>
      </trkpt>
      <trkpt lat="47.1806" lon="-1.51289">
        <ele>3.7</ele>
        <time>2015-01-11T07:56:26Z</time>
      </trkpt>
      <trkpt lat="47.18059" lon="-1.51268">
        <ele>4.2</ele>
        <time>2015-01-11T07:56:29Z</time>
      </trkpt>
      <trkpt lat="47.18058" lon="-1.51248">
        <ele>4.9</ele>
        <time>2015-01-11T07:56:32Z</time>
      </trkpt>
      <trkpt lat="47.18056" lon="-1.51228">
        <ele>5.3</ele>
        <time>2015-01-11T07:56:35Z</time>
      </trkpt>
      <trkpt lat="47.18054" lon="-1.51205">
        <ele>5.6</ele>
        <time>2015-01-11T07:56:39Z</time>
      </trkpt>
      <trkpt lat="47.18054" lon="-1.51182">
        <ele>5.9</ele>
        <time>2015-01-11T07:56:43Z</time>
      </trkpt>
      <trkpt lat="47.18053" lon="-1.51158">
        <ele>6.5</ele>
        <time>2015-01-11T07:56:48Z</time>
      </trkpt>
      <trkpt lat="47.18041" lon="-1.51153">
        <ele>7.1</ele>
        <time>2015-01-11T07:56:53Z</time>
      </trkpt>
      <trkpt lat="47.18025" lon="-1.51149">
        <ele>7.1</ele>
        <time>2015-01-11T07:56:57Z</time>
      </trkpt>
      <trkpt lat="47.18003" lon="-1.51143">
        <ele>7.2</ele>
        <time>2015-01-11T07:57:02Z</time>
      </trkpt>
      <trkpt lat="47.17997" lon="-1.51141">
        <ele>7.2</ele>
        <time>2015-01-11T07:57:03Z</time>
      </trkpt>
      <trkpt lat="47.17989" lon="-1.51136">
        <ele>7.3</ele>
        <time>2015-01-11T07:57:05Z</time>
      </trkpt>
      <trkpt lat="47.17963" lon="-1.51105">
        <ele>7.5</ele>
        <time>2015-01-11T07:57:11Z</time>
      </trkpt>
      <trkpt lat="47.17948" lon="-1.51086">
        <ele>7.6</ele>
        <time>2015-01-11T07:57:15Z</time>
      </trkpt>
      <trkpt lat="47.17939" lon="-1.51071">
        <ele>7.6</ele>
        <time>2015-01-11T07:57:18Z</time>
      </trkpt>
      <trkpt lat="47.17929" lon="-1.51058">
        <ele>7.8</ele>
        <time>2015-01-11T07:57:21Z</time>
      </trkpt>
      <trkpt lat="47.17918" lon="-1.51043">
        <ele>7.9</ele>
        <time>2015-01-11T07:57:24Z</time>
      </trkpt>
      <trkpt lat="47.17905" lon="-1.51029">
        <ele>7.8</ele>
        <time>2015-01-11T07:57:27Z</time>
      </trkpt>
      <trkpt lat="47.17892" lon="-1.51013">
        <ele>7.7</ele>
        <time>2015-01-11T07:57:30Z</time>
      </trkpt>
      <trkpt lat="47.1788" lon="-1.50995">
        <ele>7.7</ele>
        <time>2015-01-11T07:57:34Z</time>
      </trkpt>
      <trkpt lat="47.17867" lon="-1.5098">
        <ele>7.7</ele>
        <time>2015-01-11T07:57:37Z</time>
      </trkpt>
      <trkpt lat="47.17854" lon="-1.50961">
        <ele>7.5</ele>
        <time>2015-01-11T07:57:40Z</time>
      </trkpt>
      <trkpt lat="47.17844" lon="-1.50947">
        <ele>7.3</ele>
        <time>2015-01-11T07:57:43Z</time>
      </trkpt>
      <trkpt lat="47.17831" lon="-1.50932">
        <ele>7.2</ele>
        <time>2015-01-11T07:57:46Z</time>
      </trkpt>
      <trkpt lat="47.17815" lon="-1.50917">
        <ele>6.9</ele>
        <time>2015-01-11T07:57:50Z</time>
      </trkpt>
      <trkpt lat="47.17801" lon="-1.50904">
        <ele>6.9</ele>
        <time>2015-01-11T07:57:53Z</time>
      </trkpt>
      <trkpt lat="47.1779" lon="-1.50889">
        <ele>6.9</ele>
        <time>2015-01-11T07:57:56Z</time>
      </trkpt>
      <trkpt lat="47.17778" lon="-1.50872">
        <ele>6.9</ele>
        <time>2015-01-11T07:57:59Z</time>
      </trkpt>
      <trkpt lat="47.17767" lon="-1.50859">
        <ele>6.6</ele>
        <time>2015-01-11T07:58:02Z</time>
      </trkpt>
      <trkpt lat="47.17753" lon="-1.50848">
        <ele>6.3</ele>
        <time>2015-01-11T07:58:05Z</time>
      </trkpt>
      <trkpt lat="47.17742" lon="-1.50836">
        <ele>5.9</ele>
        <time>2015-01-11T07:58:08Z</time>
      </trkpt>
      <trkpt lat="47.17729" lon="-1.50821">
        <ele>4.7</ele>
        <time>2015-01-11T07:58:12Z</time>
      </trkpt>
      <trkpt lat="47.1772" lon="-1.50806">
        <ele>4.1</ele>
        <time>2015-01-11T07:58:16Z</time>
      </trkpt>
      <trkpt lat="47.17707" lon="-1.50796">
        <ele>4.1</ele>
        <time>2015-01-11T07:58:20Z</time>
      </trkpt>
      <trkpt lat="47.17697" lon="-1.50801">
        <ele>4</ele>
        <time>2015-01-11T07:58:23Z</time>
      </trkpt>
      <trkpt lat="47.17682" lon="-1.50816">
        <ele>4</ele>
        <time>2015-01-11T07:58:26Z</time>
      </trkpt>
      <trkpt lat="47.17666" lon="-1.50817">
        <ele>4</ele>
        <time>2015-01-11T07:58:30Z</time>
      </trkpt>
      <trkpt lat="47.17655" lon="-1.50804">
        <ele>4</ele>
        <time>2015-01-11T07:58:34Z</time>
      </trkpt>
      <trkpt lat="47.17647" lon="-1.50798">
        <ele>4.3</ele>
        <time>2015-01-11T07:58:36Z</time>
      </trkpt>
      <trkpt lat="47.17643" lon="-1.50795">
        <ele>4.3</ele>
        <time>2015-01-11T07:58:37Z</time>
      </trkpt>
      <trkpt lat="47.17639" lon="-1.5079">
        <ele>4.3</ele>
        <time>2015-01-11T07:58:38Z</time>
      </trkpt>
      <trkpt lat="47.17635" lon="-1.50785">
        <ele>4.3</ele>
        <time>2015-01-11T07:58:39Z</time>
      </trkpt>
      <trkpt lat="47.17633" lon="-1.50778">
        <ele>4.3</ele>
        <time>2015-01-11T07:58:40Z</time>
      </trkpt>
      <trkpt lat="47.17637" lon="-1.50755">
        <ele>4.3</ele>
        <time>2015-01-11T07:58:43Z</time>
      </trkpt>
      <trkpt lat="47.17645" lon="-1.50739">
        <ele>3.9</ele>
        <time>2015-01-11T07:58:46Z</time>
      </trkpt>
      <trkpt lat="47.17651" lon="-1.50714">
        <ele>3.9</ele>
        <time>2015-01-11T07:58:50Z</time>
      </trkpt>
      <trkpt lat="47.17642" lon="-1.50691">
        <ele>3.9</ele>
        <time>2015-01-11T07:58:54Z</time>
      </trkpt>
      <trkpt lat="47.17628" lon="-1.50681">
        <ele>4.3</ele>
        <time>2015-01-11T07:58:58Z</time>
      </trkpt>
      <trkpt lat="47.1762" lon="-1.50663">
        <ele>4.8</ele>
        <time>2015-01-11T07:59:01Z</time>
      </trkpt>
      <trkpt lat="47.17617" lon="-1.50639">
        <ele>5.4</ele>
        <time>2015-01-11T07:59:04Z</time>
      </trkpt>
      <trkpt lat="47.17618" lon="-1.50617">
        <ele>7</ele>
        <time>2015-01-11T07:59:09Z</time>
      </trkpt>
      <trkpt lat="47.17617" lon="-1.50603">
        <ele>7.3</ele>
        <time>2015-01-11T07:59:13Z</time>
      </trkpt>
      <trkpt lat="47.17617" lon="-1.50589">
        <ele>7.7</ele>
        <time>2015-01-11T07:59:17Z</time>
      </trkpt>
      <trkpt lat="47.17617" lon="-1.5058">
        <ele>7.7</ele>
        <time>2015-01-11T07:59:20Z</time>
      </trkpt>
      <trkpt lat="47.17616" lon="-1.50573">
        <ele>7.7</ele>
        <time>2015-01-11T07:59:22Z</time>
      </trkpt>
      <trkpt lat="47.17612" lon="-1.5056">
        <ele>7.8</ele>
        <time>2015-01-11T07:59:26Z</time>
      </trkpt>
      <trkpt lat="47.1761" lon="-1.50553">
        <ele>8.2</ele>
        <time>2015-01-11T07:59:31Z</time>
      </trkpt>
      <trkpt lat="47.1761" lon="-1.50546">
        <ele>9.2</ele>
        <time>2015-01-11T07:59:35Z</time>
      </trkpt>
      <trkpt lat="47.1761" lon="-1.50537">
        <ele>10.3</ele>
        <time>2015-01-11T07:59:41Z</time>
      </trkpt>
      <trkpt lat="47.17607" lon="-1.5053">
        <ele>10.3</ele>
        <time>2015-01-11T07:59:45Z</time>
      </trkpt>
      <trkpt lat="47.17596" lon="-1.50519">
        <ele>10.8</ele>
        <time>2015-01-11T07:59:49Z</time>
      </trkpt>
      <trkpt lat="47.17587" lon="-1.5051">
        <ele>11.4</ele>
        <time>2015-01-11T07:59:52Z</time>
      </trkpt>
      <trkpt lat="47.17578" lon="-1.50506">
        <ele>11.7</ele>
        <time>2015-01-11T07:59:55Z</time>
      </trkpt>
      <trkpt lat="47.17571" lon="-1.50506">
        <ele>11.8</ele>
        <time>2015-01-11T07:59:57Z</time>
      </trkpt>
      <trkpt lat="47.17565" lon="-1.50505">
        <ele>11.8</ele>
        <time>2015-01-11T07:59:59Z</time>
      </trkpt>
      <trkpt lat="47.17558" lon="-1.50502">
        <ele>11.8</ele>
        <time>2015-01-11T08:00:01Z</time>
      </trkpt>
      <trkpt lat="47.17546" lon="-1.50491">
        <ele>11.8</ele>
        <time>2015-01-11T08:00:06Z</time>
      </trkpt>
      <trkpt lat="47.17538" lon="-1.50486">
        <ele>11.8</ele>
        <time>2015-01-11T08:00:09Z</time>
      </trkpt>
      <trkpt lat="47.17534" lon="-1.50481">
        <ele>11.8</ele>
        <time>2015-01-11T08:00:11Z</time>
      </trkpt>
      <trkpt lat="47.17529" lon="-1.50474">
        <ele>11.8</ele>
        <time>2015-01-11T08:00:13Z</time>
      </trkpt>
      <trkpt lat="47.17525" lon="-1.50467">
        <ele>11.8</ele>
        <time>2015-01-11T08:00:15Z</time>
      </trkpt>
      <trkpt lat="47.17512" lon="-1.50456">
        <ele>11.7</ele>
        <time>2015-01-11T08:00:19Z</time>
      </trkpt>
      <trkpt lat="47.17506" lon="-1.50454">
        <ele>11.5</ele>
        <time>2015-01-11T08:00:21Z</time>
      </trkpt>
      <trkpt lat="47.17499" lon="-1.50449">
        <ele>11.5</ele>
        <time>2015-01-11T08:00:23Z</time>
      </trkpt>
      <trkpt lat="47.17496" lon="-1.50445">
        <ele>11.5</ele>
        <time>2015-01-11T08:00:24Z</time>
      </trkpt>
      <trkpt lat="47.17492" lon="-1.5044">
        <ele>11.5</ele>
        <time>2015-01-11T08:00:25Z</time>
      </trkpt>
      <trkpt lat="47.17482" lon="-1.50424">
        <ele>11.1</ele>
        <time>2015-01-11T08:00:28Z</time>
      </trkpt>
      <trkpt lat="47.1747" lon="-1.50405">
        <ele>10.8</ele>
        <time>2015-01-11T08:00:32Z</time>
      </trkpt>
      <trkpt lat="47.1746" lon="-1.50387">
        <ele>10.5</ele>
        <time>2015-01-11T08:00:36Z</time>
      </trkpt>
      <trkpt lat="47.17449" lon="-1.5037">
        <ele>10.4</ele>
        <time>2015-01-11T08:00:40Z</time>
      </trkpt>
      <trkpt lat="47.17439" lon="-1.50351">
        <ele>9.8</ele>
        <time>2015-01-11T08:00:44Z</time>
      </trkpt>
      <trkpt lat="47.1743" lon="-1.50332">
        <ele>9.6</ele>
        <time>2015-01-11T08:00:48Z</time>
      </trkpt>
      <trkpt lat="47.1742" lon="-1.50312">
        <ele>9.3</ele>
        <time>2015-01-11T08:00:52Z</time>
      </trkpt>
      <trkpt lat="47.17413" lon="-1.50294">
        <ele>9.3</ele>
        <time>2015-01-11T08:00:55Z</time>
      </trkpt>
      <trkpt lat="47.17404" lon="-1.50271">
        <ele>9.2</ele>
        <time>2015-01-11T08:00:59Z</time>
      </trkpt>
      <trkpt lat="47.17396" lon="-1.50255">
        <ele>9.2</ele>
        <time>2015-01-11T08:01:02Z</time>
      </trkpt>
      <trkpt lat="47.17387" lon="-1.50238">
        <ele>9.2</ele>
        <time>2015-01-11T08:01:05Z</time>
      </trkpt>
      <trkpt lat="47.1738" lon="-1.5022">
        <ele>9.2</ele>
        <time>2015-01-11T08:01:08Z</time>
      </trkpt>
      <trkpt lat="47.17372" lon="-1.50196">
        <ele>9.2</ele>
        <time>2015-01-11T08:01:12Z</time>
      </trkpt>
      <trkpt lat="47.17366" lon="-1.50179">
        <ele>9.1</ele>
        <time>2015-01-11T08:01:15Z</time>
      </trkpt>
      <trkpt lat="47.17357" lon="-1.50158">
        <ele>9</ele>
        <time>2015-01-11T08:01:19Z</time>
      </trkpt>
      <trkpt lat="47.1735" lon="-1.50137">
        <ele>9</ele>
        <time>2015-01-11T08:01:23Z</time>
      </trkpt>
      <trkpt lat="47.17343" lon="-1.50117">
        <ele>9</ele>
        <time>2015-01-11T08:01:26Z</time>
      </trkpt>
      <trkpt lat="47.17334" lon="-1.50098">
        <ele>9.1</ele>
        <time>2015-01-11T08:01:29Z</time>
      </trkpt>
      <trkpt lat="47.17325" lon="-1.50079">
        <ele>9.3</ele>
        <time>2015-01-11T08:01:33Z</time>
      </trkpt>
      <trkpt lat="47.17317" lon="-1.50061">
        <ele>9.6</ele>
        <time>2015-01-11T08:01:36Z</time>
      </trkpt>
      <trkpt lat="47.17306" lon="-1.50045">
        <ele>9.7</ele>
        <time>2015-01-11T08:01:39Z</time>
      </trkpt>
      <trkpt lat="47.17294" lon="-1.5003">
        <ele>9.7</ele>
        <time>2015-01-11T08:01:42Z</time>
      </trkpt>
      <trkpt lat="47.17285" lon="-1.50013">
        <ele>9.8</ele>
        <time>2015-01-11T08:01:45Z</time>
      </trkpt>
      <trkpt lat="47.17278" lon="-1.49995">
        <ele>9.8</ele>
        <time>2015-01-11T08:01:48Z</time>
      </trkpt>
      <trkpt lat="47.17269" lon="-1.49978">
        <ele>9.8</ele>
        <time>2015-01-11T08:01:51Z</time>
      </trkpt>
      <trkpt lat="47.17263" lon="-1.49955">
        <ele>9.9</ele>
        <time>2015-01-11T08:01:55Z</time>
      </trkpt>
      <trkpt lat="47.17258" lon="-1.49931">
        <ele>9.8</ele>
        <time>2015-01-11T08:01:59Z</time>
      </trkpt>
      <trkpt lat="47.1725" lon="-1.4991">
        <ele>9.8</ele>
        <time>2015-01-11T08:02:03Z</time>
      </trkpt>
      <trkpt lat="47.17241" lon="-1.49887">
        <ele>9.8</ele>
        <time>2015-01-11T08:02:07Z</time>
      </trkpt>
      <trkpt lat="47.17234" lon="-1.49869">
        <ele>9.8</ele>
        <time>2015-01-11T08:02:10Z</time>
      </trkpt>
      <trkpt lat="47.17226" lon="-1.49846">
        <ele>9.8</ele>
        <time>2015-01-11T08:02:14Z</time>
      </trkpt>
      <trkpt lat="47.17216" lon="-1.49824">
        <ele>9.9</ele>
        <time>2015-01-11T08:02:18Z</time>
      </trkpt>
      <trkpt lat="47.17211" lon="-1.49806">
        <ele>10.1</ele>
        <time>2015-01-11T08:02:21Z</time>
      </trkpt>
      <trkpt lat="47.17205" lon="-1.49783">
        <ele>10.4</ele>
        <time>2015-01-11T08:02:25Z</time>
      </trkpt>
      <trkpt lat="47.17199" lon="-1.49764">
        <ele>10.5</ele>
        <time>2015-01-11T08:02:29Z</time>
      </trkpt>
      <trkpt lat="47.17197" lon="-1.49755">
        <ele>10.2</ele>
        <time>2015-01-11T08:02:31Z</time>
      </trkpt>
      <trkpt lat="47.17201" lon="-1.4975">
        <ele>10.2</ele>
        <time>2015-01-11T08:02:34Z</time>
      </trkpt>
      <trkpt lat="47.17215" lon="-1.49738">
        <ele>10.2</ele>
        <time>2015-01-11T08:02:37Z</time>
      </trkpt>
      <trkpt lat="47.17223" lon="-1.49722">
        <ele>10.2</ele>
        <time>2015-01-11T08:02:43Z</time>
      </trkpt>
      <trkpt lat="47.17236" lon="-1.49711">
        <ele>9.8</ele>
        <time>2015-01-11T08:02:47Z</time>
      </trkpt>
      <trkpt lat="47.17245" lon="-1.49703">
        <ele>9.5</ele>
        <time>2015-01-11T08:02:53Z</time>
      </trkpt>
      <trkpt lat="47.17257" lon="-1.49692">
        <ele>8.8</ele>
        <time>2015-01-11T08:03:00Z</time>
      </trkpt>
      <trkpt lat="47.17262" lon="-1.49697">
        <ele>5.6</ele>
        <time>2015-01-11T08:03:04Z</time>
      </trkpt>
      <trkpt lat="47.17264" lon="-1.49707">
        <ele>5.6</ele>
        <time>2015-01-11T08:03:07Z</time>
      </trkpt>
      <trkpt lat="47.17268" lon="-1.49719">
        <ele>4.3</ele>
        <time>2015-01-11T08:03:11Z</time>
      </trkpt>
      <trkpt lat="47.17272" lon="-1.49722">
        <ele>3.9</ele>
        <time>2015-01-11T08:03:13Z</time>
      </trkpt>
      <trkpt lat="47.17277" lon="-1.49721">
        <ele>3.9</ele>
        <time>2015-01-11T08:03:15Z</time>
      </trkpt>
      <trkpt lat="47.17293" lon="-1.49714">
        <ele>3.9</ele>
        <time>2015-01-11T08:03:22Z</time>
      </trkpt>
      <trkpt lat="47.17304" lon="-1.4971">
        <ele>3.9</ele>
        <time>2015-01-11T08:03:27Z</time>
      </trkpt>
      <trkpt lat="47.17309" lon="-1.49706">
        <ele>3.9</ele>
        <time>2015-01-11T08:03:29Z</time>
      </trkpt>
      <trkpt lat="47.17314" lon="-1.49701">
        <ele>3.9</ele>
        <time>2015-01-11T08:03:31Z</time>
      </trkpt>
      <trkpt lat="47.17322" lon="-1.49695">
        <ele>3.9</ele>
        <time>2015-01-11T08:03:34Z</time>
      </trkpt>
      <trkpt lat="47.17335" lon="-1.49684">
        <ele>4.1</ele>
        <time>2015-01-11T08:03:39Z</time>
      </trkpt>
      <trkpt lat="47.17345" lon="-1.49678">
        <ele>4.5</ele>
        <time>2015-01-11T08:03:43Z</time>
      </trkpt>
      <trkpt lat="47.17351" lon="-1.49674">
        <ele>5</ele>
        <time>2015-01-11T08:03:46Z</time>
      </trkpt>
      <trkpt lat="47.17355" lon="-1.4967">
        <ele>5</ele>
        <time>2015-01-11T08:03:48Z</time>
      </trkpt>
      <trkpt lat="47.17356" lon="-1.49663">
        <ele>5.7</ele>
        <time>2015-01-11T08:03:53Z</time>
      </trkpt>
      <trkpt lat="47.17347" lon="-1.49649">
        <ele>6.9</ele>
        <time>2015-01-11T08:04:00Z</time>
      </trkpt>
      <trkpt lat="47.17341" lon="-1.49634">
        <ele>7.9</ele>
        <time>2015-01-11T08:04:07Z</time>
      </trkpt>
      <trkpt lat="47.1734" lon="-1.49627">
        <ele>9.4</ele>
        <time>2015-01-11T08:04:10Z</time>
      </trkpt>
      <trkpt lat="47.17337" lon="-1.4962">
        <ele>10.9</ele>
        <time>2015-01-11T08:04:14Z</time>
      </trkpt>
      <trkpt lat="47.17334" lon="-1.49614">
        <ele>13.2</ele>
        <time>2015-01-11T08:04:20Z</time>
      </trkpt>
      <trkpt lat="47.17331" lon="-1.49609">
        <ele>15.3</ele>
        <time>2015-01-11T08:04:26Z</time>
      </trkpt>
      <trkpt lat="47.17327" lon="-1.49604">
        <ele>17.3</ele>
        <time>2015-01-11T08:04:30Z</time>
      </trkpt>
      <trkpt lat="47.17324" lon="-1.4959">
        <ele>18.1</ele>
        <time>2015-01-11T08:04:36Z</time>
      </trkpt>
      <trkpt lat="47.17318" lon="-1.49571">
        <ele>18.5</ele>
        <time>2015-01-11T08:04:41Z</time>
      </trkpt>
      <trkpt lat="47.17314" lon="-1.49558">
        <ele>19.3</ele>
        <time>2015-01-11T08:04:44Z</time>
      </trkpt>
      <trkpt lat="47.17311" lon="-1.49549">
        <ele>19.3</ele>
        <time>2015-01-11T08:04:46Z</time>
      </trkpt>
      <trkpt lat="47.17309" lon="-1.4954">
        <ele>20.6</ele>
        <time>2015-01-11T08:04:48Z</time>
      </trkpt>
      <trkpt lat="47.17306" lon="-1.49532">
        <ele>20.6</ele>
        <time>2015-01-11T08:04:50Z</time>
      </trkpt>
      <trkpt lat="47.17303" lon="-1.49524">
        <ele>22.4</ele>
        <time>2015-01-11T08:04:52Z</time>
      </trkpt>
      <trkpt lat="47.17302" lon="-1.49516">
        <ele>22.4</ele>
        <time>2015-01-11T08:04:54Z</time>
      </trkpt>
      <trkpt lat="47.173" lon="-1.49507">
        <ele>22.4</ele>
        <time>2015-01-11T08:04:56Z</time>
      </trkpt>
      <trkpt lat="47.17295" lon="-1.49487">
        <ele>24.2</ele>
        <time>2015-01-11T08:05:01Z</time>
      </trkpt>
      <trkpt lat="47.1729" lon="-1.49472">
        <ele>26</ele>
        <time>2015-01-11T08:05:05Z</time>
      </trkpt>
      <trkpt lat="47.1728" lon="-1.49455">
        <ele>26.3</ele>
        <time>2015-01-11T08:05:10Z</time>
      </trkpt>
      <trkpt lat="47.1727" lon="-1.49439">
        <ele>26.3</ele>
        <time>2015-01-11T08:05:14Z</time>
      </trkpt>
      <trkpt lat="47.17262" lon="-1.49423">
        <ele>26.4</ele>
        <time>2015-01-11T08:05:17Z</time>
      </trkpt>
      <trkpt lat="47.17255" lon="-1.49406">
        <ele>26.4</ele>
        <time>2015-01-11T08:05:20Z</time>
      </trkpt>
      <trkpt lat="47.17247" lon="-1.49388">
        <ele>26.4</ele>
        <time>2015-01-11T08:05:23Z</time>
      </trkpt>
      <trkpt lat="47.1724" lon="-1.49368">
        <ele>26.4</ele>
        <time>2015-01-11T08:05:26Z</time>
      </trkpt>
      <trkpt lat="47.17235" lon="-1.49349">
        <ele>26.4</ele>
        <time>2015-01-11T08:05:28Z</time>
      </trkpt>
      <trkpt lat="47.17239" lon="-1.4933">
        <ele>26.4</ele>
        <time>2015-01-11T08:05:31Z</time>
      </trkpt>
      <trkpt lat="47.17242" lon="-1.49306">
        <ele>26.3</ele>
        <time>2015-01-11T08:05:33Z</time>
      </trkpt>
      <trkpt lat="47.17243" lon="-1.49282">
        <ele>26.3</ele>
        <time>2015-01-11T08:05:36Z</time>
      </trkpt>
      <trkpt lat="47.17243" lon="-1.49258">
        <ele>26.2</ele>
        <time>2015-01-11T08:05:39Z</time>
      </trkpt>
      <trkpt lat="47.17252" lon="-1.49239">
        <ele>26.1</ele>
        <time>2015-01-11T08:05:42Z</time>
      </trkpt>
      <trkpt lat="47.17256" lon="-1.49219">
        <ele>25.8</ele>
        <time>2015-01-11T08:05:45Z</time>
      </trkpt>
      <trkpt lat="47.17261" lon="-1.49196">
        <ele>25.3</ele>
        <time>2015-01-11T08:05:49Z</time>
      </trkpt>
      <trkpt lat="47.17266" lon="-1.49177">
        <ele>25.3</ele>
        <time>2015-01-11T08:05:52Z</time>
      </trkpt>
      <trkpt lat="47.17276" lon="-1.4916">
        <ele>25.3</ele>
        <time>2015-01-11T08:05:56Z</time>
      </trkpt>
      <trkpt lat="47.17288" lon="-1.49144">
        <ele>25.3</ele>
        <time>2015-01-11T08:06:00Z</time>
      </trkpt>
      <trkpt lat="47.17303" lon="-1.49133">
        <ele>25.3</ele>
        <time>2015-01-11T08:06:04Z</time>
      </trkpt>
      <trkpt lat="47.17318" lon="-1.49121">
        <ele>25.3</ele>
        <time>2015-01-11T08:06:08Z</time>
      </trkpt>
      <trkpt lat="47.17332" lon="-1.49108">
        <ele>25.3</ele>
        <time>2015-01-11T08:06:12Z</time>
      </trkpt>
      <trkpt lat="47.17346" lon="-1.49095">
        <ele>25.3</ele>
        <time>2015-01-11T08:06:16Z</time>
      </trkpt>
      <trkpt lat="47.17358" lon="-1.49083">
        <ele>25.3</ele>
        <time>2015-01-11T08:06:19Z</time>
      </trkpt>
      <trkpt lat="47.17373" lon="-1.49071">
        <ele>25.6</ele>
        <time>2015-01-11T08:06:22Z</time>
      </trkpt>
      <trkpt lat="47.17383" lon="-1.49057">
        <ele>26.4</ele>
        <time>2015-01-11T08:06:25Z</time>
      </trkpt>
      <trkpt lat="47.17399" lon="-1.49044">
        <ele>27.2</ele>
        <time>2015-01-11T08:06:28Z</time>
      </trkpt>
      <trkpt lat="47.17411" lon="-1.49035">
        <ele>27.4</ele>
        <time>2015-01-11T08:06:30Z</time>
      </trkpt>
      <trkpt lat="47.17421" lon="-1.49027">
        <ele>27.7</ele>
        <time>2015-01-11T08:06:33Z</time>
      </trkpt>
      <trkpt lat="47.17438" lon="-1.49014">
        <ele>27.8</ele>
        <time>2015-01-11T08:06:35Z</time>
      </trkpt>
      <trkpt lat="47.17449" lon="-1.49006">
        <ele>27.8</ele>
        <time>2015-01-11T08:06:37Z</time>
      </trkpt>
      <trkpt lat="47.17458" lon="-1.48999">
        <ele>27.9</ele>
        <time>2015-01-11T08:06:39Z</time>
      </trkpt>
      <trkpt lat="47.17467" lon="-1.48987">
        <ele>27.9</ele>
        <time>2015-01-11T08:06:42Z</time>
      </trkpt>
      <trkpt lat="47.17485" lon="-1.4898">
        <ele>27.9</ele>
        <time>2015-01-11T08:06:46Z</time>
      </trkpt>
      <trkpt lat="47.17501" lon="-1.48968">
        <ele>27.9</ele>
        <time>2015-01-11T08:06:49Z</time>
      </trkpt>
      <trkpt lat="47.17512" lon="-1.4896">
        <ele>27.9</ele>
        <time>2015-01-11T08:06:51Z</time>
      </trkpt>
      <trkpt lat="47.17537" lon="-1.48943">
        <ele>27.9</ele>
        <time>2015-01-11T08:06:55Z</time>
      </trkpt>
      <trkpt lat="47.17549" lon="-1.48934">
        <ele>27.8</ele>
        <time>2015-01-11T08:06:57Z</time>
      </trkpt>
      <trkpt lat="47.17577" lon="-1.48905">
        <ele>27.8</ele>
        <time>2015-01-11T08:07:02Z</time>
      </trkpt>
      <trkpt lat="47.17595" lon="-1.48881">
        <ele>27.5</ele>
        <time>2015-01-11T08:07:06Z</time>
      </trkpt>
      <trkpt lat="47.1761" lon="-1.48861">
        <ele>27.1</ele>
        <time>2015-01-11T08:07:09Z</time>
      </trkpt>
      <trkpt lat="47.17623" lon="-1.48844">
        <ele>26.8</ele>
        <time>2015-01-11T08:07:12Z</time>
      </trkpt>
      <trkpt lat="47.17635" lon="-1.48827">
        <ele>25.9</ele>
        <time>2015-01-11T08:07:15Z</time>
      </trkpt>
      <trkpt lat="47.17647" lon="-1.48811">
        <ele>24.6</ele>
        <time>2015-01-11T08:07:18Z</time>
      </trkpt>
      <trkpt lat="47.17654" lon="-1.48801">
        <ele>24</ele>
        <time>2015-01-11T08:07:23Z</time>
      </trkpt>
      <trkpt lat="47.17669" lon="-1.48783">
        <ele>24</ele>
        <time>2015-01-11T08:07:24Z</time>
      </trkpt>
      <trkpt lat="47.17678" lon="-1.48768">
        <ele>23.7</ele>
        <time>2015-01-11T08:07:27Z</time>
      </trkpt>
      <trkpt lat="47.17688" lon="-1.48752">
        <ele>23.5</ele>
        <time>2015-01-11T08:07:31Z</time>
      </trkpt>
      <trkpt lat="47.17698" lon="-1.48734">
        <ele>23.4</ele>
        <time>2015-01-11T08:07:35Z</time>
      </trkpt>
      <trkpt lat="47.17709" lon="-1.48716">
        <ele>23.3</ele>
        <time>2015-01-11T08:07:39Z</time>
      </trkpt>
      <trkpt lat="47.17718" lon="-1.48696">
        <ele>23.3</ele>
        <time>2015-01-11T08:07:43Z</time>
      </trkpt>
      <trkpt lat="47.17724" lon="-1.48671">
        <ele>23.3</ele>
        <time>2015-01-11T08:07:47Z</time>
      </trkpt>
      <trkpt lat="47.17729" lon="-1.48646">
        <ele>23</ele>
        <time>2015-01-11T08:07:50Z</time>
      </trkpt>
      <trkpt lat="47.17736" lon="-1.48626">
        <ele>22.8</ele>
        <time>2015-01-11T08:07:53Z</time>
      </trkpt>
      <trkpt lat="47.1775" lon="-1.48604">
        <ele>22.6</ele>
        <time>2015-01-11T08:07:56Z</time>
      </trkpt>
      <trkpt lat="47.17763" lon="-1.48589">
        <ele>22.4</ele>
        <time>2015-01-11T08:07:59Z</time>
      </trkpt>
      <trkpt lat="47.17776" lon="-1.48575">
        <ele>22.4</ele>
        <time>2015-01-11T08:08:02Z</time>
      </trkpt>
      <trkpt lat="47.17795" lon="-1.48565">
        <ele>22.7</ele>
        <time>2015-01-11T08:08:06Z</time>
      </trkpt>
      <trkpt lat="47.17807" lon="-1.48559">
        <ele>22.9</ele>
        <time>2015-01-11T08:08:10Z</time>
      </trkpt>
      <trkpt lat="47.17823" lon="-1.48549">
        <ele>23.2</ele>
        <time>2015-01-11T08:08:13Z</time>
      </trkpt>
      <trkpt lat="47.17836" lon="-1.4854">
        <ele>23.3</ele>
        <time>2015-01-11T08:08:16Z</time>
      </trkpt>
      <trkpt lat="47.17844" lon="-1.48534">
        <ele>23.5</ele>
        <time>2015-01-11T08:08:18Z</time>
      </trkpt>
      <trkpt lat="47.17857" lon="-1.48524">
        <ele>23.6</ele>
        <time>2015-01-11T08:08:21Z</time>
      </trkpt>
      <trkpt lat="47.17861" lon="-1.48518">
        <ele>23.4</ele>
        <time>2015-01-11T08:08:23Z</time>
      </trkpt>
      <trkpt lat="47.17865" lon="-1.48511">
        <ele>23.4</ele>
        <time>2015-01-11T08:08:26Z</time>
      </trkpt>
      <trkpt lat="47.17871" lon="-1.485">
        <ele>23.6</ele>
        <time>2015-01-11T08:08:31Z</time>
      </trkpt>
      <trkpt lat="47.17872" lon="-1.485">
        <ele>23.7</ele>
        <time>2015-01-11T08:08:38Z</time>
      </trkpt>
      <trkpt lat="47.17871" lon="-1.485">
        <ele>26.8</ele>
        <time>2015-01-11T08:08:42Z</time>
      </trkpt>
      <trkpt lat="47.17871" lon="-1.485">
        <ele>21</ele>
        <time>2015-01-11T08:08:42Z</time>
      </trkpt>
      <trkpt lat="47.17871" lon="-1.485">
        <ele>21</ele>
        <time>2015-01-11T08:08:48Z</time>
      </trkpt>
      <trkpt lat="47.17878" lon="-1.48482">
        <ele>24.6</ele>
        <time>2015-01-11T08:08:49Z</time>
      </trkpt>
      <trkpt lat="47.17879" lon="-1.48462">
        <ele>24.6</ele>
        <time>2015-01-11T08:08:53Z</time>
      </trkpt>
      <trkpt lat="47.17876" lon="-1.48435">
        <ele>24.6</ele>
        <time>2015-01-11T08:08:57Z</time>
      </trkpt>
      <trkpt lat="47.1787" lon="-1.48413">
        <ele>24.6</ele>
        <time>2015-01-11T08:09:00Z</time>
      </trkpt>
      <trkpt lat="47.17865" lon="-1.4839">
        <ele>24.6</ele>
        <time>2015-01-11T08:09:03Z</time>
      </trkpt>
      <trkpt lat="47.1786" lon="-1.48367">
        <ele>24.5</ele>
        <time>2015-01-11T08:09:06Z</time>
      </trkpt>
      <trkpt lat="47.17855" lon="-1.48344">
        <ele>24.3</ele>
        <time>2015-01-11T08:09:09Z</time>
      </trkpt>
      <trkpt lat="47.17849" lon="-1.48319">
        <ele>24.1</ele>
        <time>2015-01-11T08:09:12Z</time>
      </trkpt>
      <trkpt lat="47.17843" lon="-1.48293">
        <ele>23.9</ele>
        <time>2015-01-11T08:09:15Z</time>
      </trkpt>
      <trkpt lat="47.17837" lon="-1.48269">
        <ele>23.8</ele>
        <time>2015-01-11T08:09:18Z</time>
      </trkpt>
      <trkpt lat="47.17831" lon="-1.48243">
        <ele>23.6</ele>
        <time>2015-01-11T08:09:21Z</time>
      </trkpt>
      <trkpt lat="47.17825" lon="-1.48219">
        <ele>23.5</ele>
        <time>2015-01-11T08:09:24Z</time>
      </trkpt>
      <trkpt lat="47.1782" lon="-1.48194">
        <ele>23.5</ele>
        <time>2015-01-11T08:09:27Z</time>
      </trkpt>
      <trkpt lat="47.17816" lon="-1.48169">
        <ele>23</ele>
        <time>2015-01-11T08:09:31Z</time>
      </trkpt>
      <trkpt lat="47.17816" lon="-1.48162">
        <ele>20.1</ele>
        <time>2015-01-11T08:09:37Z</time>
      </trkpt>
      <trkpt lat="47.1784" lon="-1.48127">
        <ele>19.8</ele>
        <time>2015-01-11T08:09:38Z</time>
      </trkpt>
      <trkpt lat="47.17841" lon="-1.48105">
        <ele>17.3</ele>
        <time>2015-01-11T08:09:41Z</time>
      </trkpt>
      <trkpt lat="47.17835" lon="-1.48087">
        <ele>16.6</ele>
        <time>2015-01-11T08:09:44Z</time>
      </trkpt>
      <trkpt lat="47.17826" lon="-1.48068">
        <ele>16.5</ele>
        <time>2015-01-11T08:09:48Z</time>
      </trkpt>
      <trkpt lat="47.17815" lon="-1.48051">
        <ele>16.5</ele>
        <time>2015-01-11T08:09:52Z</time>
      </trkpt>
      <trkpt lat="47.17811" lon="-1.48039">
        <ele>16.5</ele>
        <time>2015-01-11T08:09:55Z</time>
      </trkpt>
      <trkpt lat="47.17803" lon="-1.48026">
        <ele>16.5</ele>
        <time>2015-01-11T08:09:58Z</time>
      </trkpt>
      <trkpt lat="47.17794" lon="-1.48006">
        <ele>16.5</ele>
        <time>2015-01-11T08:10:03Z</time>
      </trkpt>
      <trkpt lat="47.17783" lon="-1.47993">
        <ele>16.5</ele>
        <time>2015-01-11T08:10:07Z</time>
      </trkpt>
      <trkpt lat="47.17778" lon="-1.4799">
        <ele>15.9</ele>
        <time>2015-01-11T08:10:13Z</time>
      </trkpt>
      <trkpt lat="47.17776" lon="-1.47984">
        <ele>16.1</ele>
        <time>2015-01-11T08:10:20Z</time>
      </trkpt>
      <trkpt lat="47.17773" lon="-1.47979">
        <ele>16.2</ele>
        <time>2015-01-11T08:10:22Z</time>
      </trkpt>
      <trkpt lat="47.17768" lon="-1.47973">
        <ele>16.2</ele>
        <time>2015-01-11T08:10:24Z</time>
      </trkpt>
      <trkpt lat="47.17765" lon="-1.47967">
        <ele>16.2</ele>
        <time>2015-01-11T08:10:26Z</time>
      </trkpt>
      <trkpt lat="47.17764" lon="-1.47959">
        <ele>16.2</ele>
        <time>2015-01-11T08:10:28Z</time>
      </trkpt>
      <trkpt lat="47.17762" lon="-1.47949">
        <ele>16.2</ele>
        <time>2015-01-11T08:10:31Z</time>
      </trkpt>
      <trkpt lat="47.17761" lon="-1.47941">
        <ele>16.2</ele>
        <time>2015-01-11T08:10:33Z</time>
      </trkpt>
      <trkpt lat="47.17757" lon="-1.47926">
        <ele>16.7</ele>
        <time>2015-01-11T08:10:38Z</time>
      </trkpt>
      <trkpt lat="47.17752" lon="-1.47922">
        <ele>16.6</ele>
        <time>2015-01-11T08:10:41Z</time>
      </trkpt>
      <trkpt lat="47.1775" lon="-1.47916">
        <ele>16.1</ele>
        <time>2015-01-11T08:10:46Z</time>
      </trkpt>
      <trkpt lat="47.17751" lon="-1.4791">
        <ele>15.5</ele>
        <time>2015-01-11T08:10:48Z</time>
      </trkpt>
      <trkpt lat="47.17755" lon="-1.47902">
        <ele>15.5</ele>
        <time>2015-01-11T08:10:51Z</time>
      </trkpt>
      <trkpt lat="47.17758" lon="-1.47895">
        <ele>15.2</ele>
        <time>2015-01-11T08:10:54Z</time>
      </trkpt>
      <trkpt lat="47.1776" lon="-1.47888">
        <ele>15.2</ele>
        <time>2015-01-11T08:10:56Z</time>
      </trkpt>
      <trkpt lat="47.17762" lon="-1.4788">
        <ele>15.1</ele>
        <time>2015-01-11T08:10:59Z</time>
      </trkpt>
      <trkpt lat="47.17762" lon="-1.47873">
        <ele>15.1</ele>
        <time>2015-01-11T08:11:01Z</time>
      </trkpt>
      <trkpt lat="47.17763" lon="-1.47853">
        <ele>14.7</ele>
        <time>2015-01-11T08:11:07Z</time>
      </trkpt>
      <trkpt lat="47.17763" lon="-1.47853">
        <ele>14.7</ele>
        <time>2015-01-11T08:11:08Z</time>
      </trkpt>
      <trkpt lat="47.17763" lon="-1.47853">
        <ele>8.1</ele>
        <time>2015-01-11T08:11:11Z</time>
      </trkpt>
      <trkpt lat="47.17763" lon="-1.47853">
        <ele>13</ele>
        <time>2015-01-11T08:11:11Z</time>
      </trkpt>
      <trkpt lat="47.17763" lon="-1.47853">
        <ele>13</ele>
        <time>2015-01-11T08:11:30Z</time>
      </trkpt>
      <trkpt lat="47.1776" lon="-1.4783">
        <ele>13.3</ele>
        <time>2015-01-11T08:11:31Z</time>
      </trkpt>
      <trkpt lat="47.17758" lon="-1.47821">
        <ele>9.9</ele>
        <time>2015-01-11T08:11:35Z</time>
      </trkpt>
      <trkpt lat="47.17754" lon="-1.47815">
        <ele>9.9</ele>
        <time>2015-01-11T08:11:38Z</time>
      </trkpt>
      <trkpt lat="47.1775" lon="-1.47808">
        <ele>8.8</ele>
        <time>2015-01-11T08:11:40Z</time>
      </trkpt>
      <trkpt lat="47.17748" lon="-1.47801">
        <ele>8.8</ele>
        <time>2015-01-11T08:11:42Z</time>
      </trkpt>
      <trkpt lat="47.17747" lon="-1.47794">
        <ele>8.8</ele>
        <time>2015-01-11T08:11:44Z</time>
      </trkpt>
      <trkpt lat="47.17746" lon="-1.47778">
        <ele>8.5</ele>
        <time>2015-01-11T08:11:49Z</time>
      </trkpt>
      <trkpt lat="47.1774" lon="-1.47762">
        <ele>8.1</ele>
        <time>2015-01-11T08:11:53Z</time>
      </trkpt>
      <trkpt lat="47.17737" lon="-1.47755">
        <ele>5.7</ele>
        <time>2015-01-11T08:11:55Z</time>
      </trkpt>
      <trkpt lat="47.17735" lon="-1.47747">
        <ele>5.7</ele>
        <time>2015-01-11T08:11:57Z</time>
      </trkpt>
      <trkpt lat="47.17734" lon="-1.47737">
        <ele>5.5</ele>
        <time>2015-01-11T08:12:01Z</time>
      </trkpt>
      <trkpt lat="47.17733" lon="-1.47736">
        <ele>6.1</ele>
        <time>2015-01-11T08:12:05Z</time>
      </trkpt>
      <trkpt lat="47.17733" lon="-1.47736">
        <ele>9.5</ele>
        <time>2015-01-11T08:12:05Z</time>
      </trkpt>
      <trkpt lat="47.17733" lon="-1.47736">
        <ele>9.5</ele>
        <time>2015-01-11T08:12:11Z</time>
      </trkpt>
      <trkpt lat="47.17726" lon="-1.47725">
        <ele>5.3</ele>
        <time>2015-01-11T08:12:12Z</time>
      </trkpt>
      <trkpt lat="47.17724" lon="-1.4771">
        <ele>5</ele>
        <time>2015-01-11T08:12:16Z</time>
      </trkpt>
      <trkpt lat="47.17724" lon="-1.47693">
        <ele>4.8</ele>
        <time>2015-01-11T08:12:21Z</time>
      </trkpt>
      <trkpt lat="47.17719" lon="-1.47684">
        <ele>4.4</ele>
        <time>2015-01-11T08:12:25Z</time>
      </trkpt>
      <trkpt lat="47.17718" lon="-1.47675">
        <ele>4.4</ele>
        <time>2015-01-11T08:12:29Z</time>
      </trkpt>
      <trkpt lat="47.17718" lon="-1.47661">
        <ele>4.1</ele>
        <time>2015-01-11T08:12:35Z</time>
      </trkpt>
      <trkpt lat="47.1772" lon="-1.47653">
        <ele>3.9</ele>
        <time>2015-01-11T08:12:38Z</time>
      </trkpt>
      <trkpt lat="47.17719" lon="-1.47638">
        <ele>3.5</ele>
        <time>2015-01-11T08:12:44Z</time>
      </trkpt>
      <trkpt lat="47.17723" lon="-1.47634">
        <ele>3.3</ele>
        <time>2015-01-11T08:12:47Z</time>
      </trkpt>
      <trkpt lat="47.17729" lon="-1.47631">
        <ele>3.3</ele>
        <time>2015-01-11T08:12:50Z</time>
      </trkpt>
      <trkpt lat="47.17734" lon="-1.4763">
        <ele>3.1</ele>
        <time>2015-01-11T08:12:53Z</time>
      </trkpt>
      <trkpt lat="47.17739" lon="-1.47625">
        <ele>3</ele>
        <time>2015-01-11T08:12:56Z</time>
      </trkpt>
      <trkpt lat="47.17747" lon="-1.47617">
        <ele>2.9</ele>
        <time>2015-01-11T08:13:03Z</time>
      </trkpt>
      <trkpt lat="47.17752" lon="-1.47613">
        <ele>2.8</ele>
        <time>2015-01-11T08:13:06Z</time>
      </trkpt>
      <trkpt lat="47.17757" lon="-1.47615">
        <ele>2.7</ele>
        <time>2015-01-11T08:13:10Z</time>
      </trkpt>
      <trkpt lat="47.17761" lon="-1.47619">
        <ele>2.7</ele>
        <time>2015-01-11T08:13:13Z</time>
      </trkpt>
      <trkpt lat="47.17765" lon="-1.47624">
        <ele>2.2</ele>
        <time>2015-01-11T08:13:16Z</time>
      </trkpt>
      <trkpt lat="47.17767" lon="-1.47633">
        <ele>2.2</ele>
        <time>2015-01-11T08:13:19Z</time>
      </trkpt>
      <trkpt lat="47.1777" lon="-1.47646">
        <ele>1.8</ele>
        <time>2015-01-11T08:13:23Z</time>
      </trkpt>
      <trkpt lat="47.17773" lon="-1.47653">
        <ele>1.7</ele>
        <time>2015-01-11T08:13:26Z</time>
      </trkpt>
      <trkpt lat="47.17775" lon="-1.47658">
        <ele>1.7</ele>
        <time>2015-01-11T08:13:28Z</time>
      </trkpt>
      <trkpt lat="47.17785" lon="-1.47675">
        <ele>1.1</ele>
        <time>2015-01-11T08:13:34Z</time>
      </trkpt>
      <trkpt lat="47.1779" lon="-1.47687">
        <ele>1</ele>
        <time>2015-01-11T08:13:38Z</time>
      </trkpt>
      <trkpt lat="47.17793" lon="-1.47692">
        <ele>0.9</ele>
        <time>2015-01-11T08:13:40Z</time>
      </trkpt>
      <trkpt lat="47.17793" lon="-1.47692">
        <ele>2.6</ele>
        <time>2015-01-11T08:13:44Z</time>
      </trkpt>
      <trkpt lat="47.17793" lon="-1.47692">
        <ele>11.6</ele>
        <time>2015-01-11T08:13:44Z</time>
      </trkpt>
      <trkpt lat="47.17793" lon="-1.47692">
        <ele>11.6</ele>
        <time>2015-01-11T08:14:20Z</time>
      </trkpt>
      <trkpt lat="47.17807" lon="-1.47696">
        <ele>3.4</ele>
        <time>2015-01-11T08:14:21Z</time>
      </trkpt>
      <trkpt lat="47.17815" lon="-1.4769">
        <ele>4.2</ele>
        <time>2015-01-11T08:14:24Z</time>
      </trkpt>
      <trkpt lat="47.17828" lon="-1.47679">
        <ele>4.2</ele>
        <time>2015-01-11T08:14:27Z</time>
      </trkpt>
      <trkpt lat="47.17842" lon="-1.47667">
        <ele>4.2</ele>
        <time>2015-01-11T08:14:29Z</time>
      </trkpt>
      <trkpt lat="47.17851" lon="-1.47652">
        <ele>4.2</ele>
        <time>2015-01-11T08:14:32Z</time>
      </trkpt>
      <trkpt lat="47.17855" lon="-1.47636">
        <ele>4.3</ele>
        <time>2015-01-11T08:14:37Z</time>
      </trkpt>
      <trkpt lat="47.17867" lon="-1.47619">
        <ele>4.3</ele>
        <time>2015-01-11T08:14:41Z</time>
      </trkpt>
      <trkpt lat="47.17879" lon="-1.47606">
        <ele>4.3</ele>
        <time>2015-01-11T08:14:44Z</time>
      </trkpt>
      <trkpt lat="47.17889" lon="-1.47592">
        <ele>4.3</ele>
        <time>2015-01-11T08:14:47Z</time>
      </trkpt>
      <trkpt lat="47.17899" lon="-1.47579">
        <ele>4.3</ele>
        <time>2015-01-11T08:14:50Z</time>
      </trkpt>
      <trkpt lat="47.17911" lon="-1.47566">
        <ele>4.3</ele>
        <time>2015-01-11T08:14:54Z</time>
      </trkpt>
      <trkpt lat="47.17913" lon="-1.47558">
        <ele>4.6</ele>
        <time>2015-01-11T08:14:58Z</time>
      </trkpt>
      <trkpt lat="47.17912" lon="-1.47548">
        <ele>4.9</ele>
        <time>2015-01-11T08:15:01Z</time>
      </trkpt>
      <trkpt lat="47.17911" lon="-1.47542">
        <ele>4.9</ele>
        <time>2015-01-11T08:15:03Z</time>
      </trkpt>
      <trkpt lat="47.17909" lon="-1.47526">
        <ele>5.1</ele>
        <time>2015-01-11T08:15:08Z</time>
      </trkpt>
      <trkpt lat="47.17907" lon="-1.47518">
        <ele>5.3</ele>
        <time>2015-01-11T08:15:10Z</time>
      </trkpt>
      <trkpt lat="47.17904" lon="-1.47512">
        <ele>5.3</ele>
        <time>2015-01-11T08:15:12Z</time>
      </trkpt>
      <trkpt lat="47.179" lon="-1.47506">
        <ele>5.6</ele>
        <time>2015-01-11T08:15:14Z</time>
      </trkpt>
      <trkpt lat="47.17898" lon="-1.47499">
        <ele>5.6</ele>
        <time>2015-01-11T08:15:16Z</time>
      </trkpt>
      <trkpt lat="47.17898" lon="-1.4749">
        <ele>5.6</ele>
        <time>2015-01-11T08:15:18Z</time>
      </trkpt>
      <trkpt lat="47.17904" lon="-1.47471">
        <ele>6.1</ele>
        <time>2015-01-11T08:15:23Z</time>
      </trkpt>
      <trkpt lat="47.17918" lon="-1.47463">
        <ele>6.4</ele>
        <time>2015-01-11T08:15:27Z</time>
      </trkpt>
      <trkpt lat="47.17928" lon="-1.4747">
        <ele>6.4</ele>
        <time>2015-01-11T08:15:30Z</time>
      </trkpt>
      <trkpt lat="47.17938" lon="-1.47488">
        <ele>6.4</ele>
        <time>2015-01-11T08:15:34Z</time>
      </trkpt>
      <trkpt lat="47.17951" lon="-1.47495">
        <ele>6.4</ele>
        <time>2015-01-11T08:15:38Z</time>
      </trkpt>
      <trkpt lat="47.17962" lon="-1.47498">
        <ele>6.4</ele>
        <time>2015-01-11T08:15:41Z</time>
      </trkpt>
      <trkpt lat="47.17976" lon="-1.47501">
        <ele>6.9</ele>
        <time>2015-01-11T08:15:45Z</time>
      </trkpt>
      <trkpt lat="47.17991" lon="-1.47506">
        <ele>7.2</ele>
        <time>2015-01-11T08:15:49Z</time>
      </trkpt>
      <trkpt lat="47.18" lon="-1.47509">
        <ele>7.4</ele>
        <time>2015-01-11T08:15:51Z</time>
      </trkpt>
      <trkpt lat="47.18012" lon="-1.47511">
        <ele>7.6</ele>
        <time>2015-01-11T08:15:54Z</time>
      </trkpt>
      <trkpt lat="47.18024" lon="-1.47513">
        <ele>8.8</ele>
        <time>2015-01-11T08:15:57Z</time>
      </trkpt>
      <trkpt lat="47.18043" lon="-1.47519">
        <ele>9.2</ele>
        <time>2015-01-11T08:16:02Z</time>
      </trkpt>
      <trkpt lat="47.18056" lon="-1.47521">
        <ele>9.3</ele>
        <time>2015-01-11T08:16:05Z</time>
      </trkpt>
      <trkpt lat="47.18075" lon="-1.47528">
        <ele>9.6</ele>
        <time>2015-01-11T08:16:10Z</time>
      </trkpt>
      <trkpt lat="47.18086" lon="-1.4753">
        <ele>10.4</ele>
        <time>2015-01-11T08:16:13Z</time>
      </trkpt>
      <trkpt lat="47.18086" lon="-1.47501">
        <ele>11</ele>
        <time>2015-01-11T08:16:19Z</time>
      </trkpt>
      <trkpt lat="47.18085" lon="-1.47481">
        <ele>11.8</ele>
        <time>2015-01-11T08:16:22Z</time>
      </trkpt>
      <trkpt lat="47.18083" lon="-1.47457">
        <ele>12.5</ele>
        <time>2015-01-11T08:16:26Z</time>
      </trkpt>
      <trkpt lat="47.18081" lon="-1.47434">
        <ele>12.9</ele>
        <time>2015-01-11T08:16:30Z</time>
      </trkpt>
      <trkpt lat="47.18092" lon="-1.47416">
        <ele>13.2</ele>
        <time>2015-01-11T08:16:35Z</time>
      </trkpt>
      <trkpt lat="47.18108" lon="-1.47415">
        <ele>13.2</ele>
        <time>2015-01-11T08:16:39Z</time>
      </trkpt>
      <trkpt lat="47.18119" lon="-1.4741">
        <ele>13.4</ele>
        <time>2015-01-11T08:16:42Z</time>
      </trkpt>
      <trkpt lat="47.18133" lon="-1.47405">
        <ele>13.4</ele>
        <time>2015-01-11T08:16:46Z</time>
      </trkpt>
      <trkpt lat="47.18138" lon="-1.474">
        <ele>13.6</ele>
        <time>2015-01-11T08:16:48Z</time>
      </trkpt>
      <trkpt lat="47.18139" lon="-1.47391">
        <ele>13.6</ele>
        <time>2015-01-11T08:16:50Z</time>
      </trkpt>
      <trkpt lat="47.18135" lon="-1.47369">
        <ele>13.7</ele>
        <time>2015-01-11T08:16:54Z</time>
      </trkpt>
      <trkpt lat="47.18136" lon="-1.47347">
        <ele>13.8</ele>
        <time>2015-01-11T08:16:59Z</time>
      </trkpt>
      <trkpt lat="47.18137" lon="-1.47339">
        <ele>13.7</ele>
        <time>2015-01-11T08:17:02Z</time>
      </trkpt>
      <trkpt lat="47.18135" lon="-1.4733">
        <ele>13.7</ele>
        <time>2015-01-11T08:17:05Z</time>
      </trkpt>
      <trkpt lat="47.18127" lon="-1.47321">
        <ele>13.7</ele>
        <time>2015-01-11T08:17:07Z</time>
      </trkpt>
      <trkpt lat="47.18127" lon="-1.47313">
        <ele>13.7</ele>
        <time>2015-01-11T08:17:10Z</time>
      </trkpt>
      <trkpt lat="47.18127" lon="-1.47305">
        <ele>13.7</ele>
        <time>2015-01-11T08:17:12Z</time>
      </trkpt>
      <trkpt lat="47.18128" lon="-1.47285">
        <ele>13.8</ele>
        <time>2015-01-11T08:17:15Z</time>
      </trkpt>
      <trkpt lat="47.18136" lon="-1.47266">
        <ele>13.8</ele>
        <time>2015-01-11T08:17:19Z</time>
      </trkpt>
      <trkpt lat="47.18145" lon="-1.47251">
        <ele>13.9</ele>
        <time>2015-01-11T08:17:24Z</time>
      </trkpt>
      <trkpt lat="47.18144" lon="-1.47243">
        <ele>14.1</ele>
        <time>2015-01-11T08:17:27Z</time>
      </trkpt>
      <trkpt lat="47.18143" lon="-1.47233">
        <ele>14.1</ele>
        <time>2015-01-11T08:17:29Z</time>
      </trkpt>
      <trkpt lat="47.18142" lon="-1.47214">
        <ele>14.5</ele>
        <time>2015-01-11T08:17:33Z</time>
      </trkpt>
      <trkpt lat="47.18146" lon="-1.47198">
        <ele>14.5</ele>
        <time>2015-01-11T08:17:35Z</time>
      </trkpt>
      <trkpt lat="47.1816" lon="-1.47186">
        <ele>14.8</ele>
        <time>2015-01-11T08:17:39Z</time>
      </trkpt>
      <trkpt lat="47.18168" lon="-1.4718">
        <ele>15</ele>
        <time>2015-01-11T08:17:41Z</time>
      </trkpt>
      <trkpt lat="47.18179" lon="-1.47176">
        <ele>15.3</ele>
        <time>2015-01-11T08:17:44Z</time>
      </trkpt>
      <trkpt lat="47.18198" lon="-1.47188">
        <ele>15.9</ele>
        <time>2015-01-11T08:17:52Z</time>
      </trkpt>
      <trkpt lat="47.18191" lon="-1.47176">
        <ele>16.3</ele>
        <time>2015-01-11T08:17:53Z</time>
      </trkpt>
      <trkpt lat="47.18187" lon="-1.47109">
        <ele>16.5</ele>
        <time>2015-01-11T08:18:01Z</time>
      </trkpt>
      <trkpt lat="47.18182" lon="-1.47089">
        <ele>17.2</ele>
        <time>2015-01-11T08:18:06Z</time>
      </trkpt>
      <trkpt lat="47.18182" lon="-1.47079">
        <ele>18.1</ele>
        <time>2015-01-11T08:18:09Z</time>
      </trkpt>
      <trkpt lat="47.18187" lon="-1.47074">
        <ele>18.1</ele>
        <time>2015-01-11T08:18:11Z</time>
      </trkpt>
      <trkpt lat="47.18196" lon="-1.47066">
        <ele>19.4</ele>
        <time>2015-01-11T08:18:14Z</time>
      </trkpt>
      <trkpt lat="47.18209" lon="-1.47058">
        <ele>22.1</ele>
        <time>2015-01-11T08:18:18Z</time>
      </trkpt>
      <trkpt lat="47.18217" lon="-1.47053">
        <ele>22.4</ele>
        <time>2015-01-11T08:18:21Z</time>
      </trkpt>
      <trkpt lat="47.18226" lon="-1.47048">
        <ele>23.5</ele>
        <time>2015-01-11T08:18:24Z</time>
      </trkpt>
      <trkpt lat="47.18235" lon="-1.47043">
        <ele>25</ele>
        <time>2015-01-11T08:18:30Z</time>
      </trkpt>
      <trkpt lat="47.18238" lon="-1.47037">
        <ele>25.5</ele>
        <time>2015-01-11T08:18:34Z</time>
      </trkpt>
      <trkpt lat="47.18243" lon="-1.47031">
        <ele>25.7</ele>
        <time>2015-01-11T08:18:37Z</time>
      </trkpt>
      <trkpt lat="47.18243" lon="-1.47024">
        <ele>25.7</ele>
        <time>2015-01-11T08:18:39Z</time>
      </trkpt>
      <trkpt lat="47.18244" lon="-1.47016">
        <ele>25.8</ele>
        <time>2015-01-11T08:18:41Z</time>
      </trkpt>
      <trkpt lat="47.18244" lon="-1.47006">
        <ele>25.8</ele>
        <time>2015-01-11T08:18:44Z</time>
      </trkpt>
      <trkpt lat="47.18246" lon="-1.46999">
        <ele>26</ele>
        <time>2015-01-11T08:18:47Z</time>
      </trkpt>
      <trkpt lat="47.1825" lon="-1.46993">
        <ele>26</ele>
        <time>2015-01-11T08:18:50Z</time>
      </trkpt>
      <trkpt lat="47.18255" lon="-1.46981">
        <ele>26</ele>
        <time>2015-01-11T08:18:56Z</time>
      </trkpt>
      <trkpt lat="47.18255" lon="-1.46971">
        <ele>26</ele>
        <time>2015-01-11T08:18:59Z</time>
      </trkpt>
      <trkpt lat="47.18254" lon="-1.46963">
        <ele>26</ele>
        <time>2015-01-11T08:19:01Z</time>
      </trkpt>
      <trkpt lat="47.18252" lon="-1.46954">
        <ele>25.9</ele>
        <time>2015-01-11T08:19:03Z</time>
      </trkpt>
      <trkpt lat="47.1825" lon="-1.46942">
        <ele>25.9</ele>
        <time>2015-01-11T08:19:06Z</time>
      </trkpt>
      <trkpt lat="47.18242" lon="-1.46925">
        <ele>25.5</ele>
        <time>2015-01-11T08:19:11Z</time>
      </trkpt>
      <trkpt lat="47.1824" lon="-1.46917">
        <ele>25.4</ele>
        <time>2015-01-11T08:19:13Z</time>
      </trkpt>
      <trkpt lat="47.18239" lon="-1.4691">
        <ele>25.4</ele>
        <time>2015-01-11T08:19:15Z</time>
      </trkpt>
      <trkpt lat="47.18238" lon="-1.46902">
        <ele>25.4</ele>
        <time>2015-01-11T08:19:17Z</time>
      </trkpt>
      <trkpt lat="47.18231" lon="-1.46881">
        <ele>25.6</ele>
        <time>2015-01-11T08:19:23Z</time>
      </trkpt>
      <trkpt lat="47.18228" lon="-1.46862">
        <ele>26</ele>
        <time>2015-01-11T08:19:27Z</time>
      </trkpt>
      <trkpt lat="47.18225" lon="-1.46839">
        <ele>26</ele>
        <time>2015-01-11T08:19:32Z</time>
      </trkpt>
      <trkpt lat="47.18222" lon="-1.46821">
        <ele>26</ele>
        <time>2015-01-11T08:19:36Z</time>
      </trkpt>
      <trkpt lat="47.18218" lon="-1.46799">
        <ele>26.1</ele>
        <time>2015-01-11T08:19:41Z</time>
      </trkpt>
      <trkpt lat="47.18215" lon="-1.46784">
        <ele>27</ele>
        <time>2015-01-11T08:19:45Z</time>
      </trkpt>
      <trkpt lat="47.18212" lon="-1.46769">
        <ele>29.1</ele>
        <time>2015-01-11T08:19:49Z</time>
      </trkpt>
      <trkpt lat="47.18213" lon="-1.46747">
        <ele>29.7</ele>
        <time>2015-01-11T08:19:54Z</time>
      </trkpt>
      <trkpt lat="47.18211" lon="-1.46724">
        <ele>30.2</ele>
        <time>2015-01-11T08:19:59Z</time>
      </trkpt>
      <trkpt lat="47.18212" lon="-1.46717">
        <ele>31.3</ele>
        <time>2015-01-11T08:20:01Z</time>
      </trkpt>
      <trkpt lat="47.18211" lon="-1.46707">
        <ele>31.3</ele>
        <time>2015-01-11T08:20:03Z</time>
      </trkpt>
      <trkpt lat="47.18211" lon="-1.46697">
        <ele>32.5</ele>
        <time>2015-01-11T08:20:05Z</time>
      </trkpt>
      <trkpt lat="47.18211" lon="-1.46689">
        <ele>32.5</ele>
        <time>2015-01-11T08:20:07Z</time>
      </trkpt>
      <trkpt lat="47.18213" lon="-1.46682">
        <ele>32.5</ele>
        <time>2015-01-11T08:20:09Z</time>
      </trkpt>
      <trkpt lat="47.18215" lon="-1.46668">
        <ele>33.3</ele>
        <time>2015-01-11T08:20:12Z</time>
      </trkpt>
      <trkpt lat="47.18216" lon="-1.46648">
        <ele>33.6</ele>
        <time>2015-01-11T08:20:17Z</time>
      </trkpt>
      <trkpt lat="47.18221" lon="-1.46632">
        <ele>34</ele>
        <time>2015-01-11T08:20:22Z</time>
      </trkpt>
      <trkpt lat="47.1823" lon="-1.46629">
        <ele>34.2</ele>
        <time>2015-01-11T08:20:24Z</time>
      </trkpt>
      <trkpt lat="47.18239" lon="-1.46626">
        <ele>34.5</ele>
        <time>2015-01-11T08:20:26Z</time>
      </trkpt>
      <trkpt lat="47.18244" lon="-1.46624">
        <ele>34.5</ele>
        <time>2015-01-11T08:20:27Z</time>
      </trkpt>
      <trkpt lat="47.18252" lon="-1.46621">
        <ele>34.5</ele>
        <time>2015-01-11T08:20:29Z</time>
      </trkpt>
      <trkpt lat="47.18264" lon="-1.46593">
        <ele>34.5</ele>
        <time>2015-01-11T08:20:30Z</time>
      </trkpt>
      <trkpt lat="47.18273" lon="-1.46583">
        <ele>35.1</ele>
        <time>2015-01-11T08:20:38Z</time>
      </trkpt>
      <trkpt lat="47.1829" lon="-1.46569">
        <ele>37.2</ele>
        <time>2015-01-11T08:20:42Z</time>
      </trkpt>
      <trkpt lat="47.18302" lon="-1.46562">
        <ele>38.7</ele>
        <time>2015-01-11T08:20:45Z</time>
      </trkpt>
      <trkpt lat="47.18312" lon="-1.46558">
        <ele>39.2</ele>
        <time>2015-01-11T08:20:48Z</time>
      </trkpt>
      <trkpt lat="47.18322" lon="-1.46554">
        <ele>39.4</ele>
        <time>2015-01-11T08:20:51Z</time>
      </trkpt>
      <trkpt lat="47.18334" lon="-1.46551">
        <ele>39.5</ele>
        <time>2015-01-11T08:20:54Z</time>
      </trkpt>
      <trkpt lat="47.1836" lon="-1.46546">
        <ele>40.2</ele>
        <time>2015-01-11T08:21:01Z</time>
      </trkpt>
      <trkpt lat="47.18375" lon="-1.46544">
        <ele>40.3</ele>
        <time>2015-01-11T08:21:05Z</time>
      </trkpt>
      <trkpt lat="47.18387" lon="-1.46543">
        <ele>40.4</ele>
        <time>2015-01-11T08:21:08Z</time>
      </trkpt>
      <trkpt lat="47.18401" lon="-1.46544">
        <ele>40.4</ele>
        <time>2015-01-11T08:21:11Z</time>
      </trkpt>
      <trkpt lat="47.1841" lon="-1.46546">
        <ele>40.1</ele>
        <time>2015-01-11T08:21:15Z</time>
      </trkpt>
      <trkpt lat="47.18422" lon="-1.46587">
        <ele>40.1</ele>
        <time>2015-01-11T08:21:18Z</time>
      </trkpt>
      <trkpt lat="47.18422" lon="-1.46567">
        <ele>39.8</ele>
        <time>2015-01-11T08:21:20Z</time>
      </trkpt>
      <trkpt lat="47.18433" lon="-1.46515">
        <ele>39.6</ele>
        <time>2015-01-11T08:21:25Z</time>
      </trkpt>
      <trkpt lat="47.18428" lon="-1.46489">
        <ele>39.4</ele>
        <time>2015-01-11T08:21:29Z</time>
      </trkpt>
      <trkpt lat="47.18423" lon="-1.46464">
        <ele>39.3</ele>
        <time>2015-01-11T08:21:33Z</time>
      </trkpt>
      <trkpt lat="47.18416" lon="-1.46445">
        <ele>39.4</ele>
        <time>2015-01-11T08:21:37Z</time>
      </trkpt>
      <trkpt lat="47.18406" lon="-1.46429">
        <ele>39.4</ele>
        <time>2015-01-11T08:21:40Z</time>
      </trkpt>
      <trkpt lat="47.18399" lon="-1.46411">
        <ele>39.3</ele>
        <time>2015-01-11T08:21:43Z</time>
      </trkpt>
      <trkpt lat="47.18391" lon="-1.46393">
        <ele>39.2</ele>
        <time>2015-01-11T08:21:47Z</time>
      </trkpt>
      <trkpt lat="47.18384" lon="-1.46376">
        <ele>39.2</ele>
        <time>2015-01-11T08:21:51Z</time>
      </trkpt>
      <trkpt lat="47.18374" lon="-1.46354">
        <ele>39.2</ele>
        <time>2015-01-11T08:21:55Z</time>
      </trkpt>
      <trkpt lat="47.18365" lon="-1.46339">
        <ele>39.2</ele>
        <time>2015-01-11T08:21:58Z</time>
      </trkpt>
      <trkpt lat="47.18356" lon="-1.46319">
        <ele>39.2</ele>
        <time>2015-01-11T08:22:01Z</time>
      </trkpt>
      <trkpt lat="47.18351" lon="-1.46299">
        <ele>39.2</ele>
        <time>2015-01-11T08:22:04Z</time>
      </trkpt>
      <trkpt lat="47.18346" lon="-1.4628">
        <ele>39.4</ele>
        <time>2015-01-11T08:22:07Z</time>
      </trkpt>
      <trkpt lat="47.18338" lon="-1.4626">
        <ele>39.4</ele>
        <time>2015-01-11T08:22:10Z</time>
      </trkpt>
      <trkpt lat="47.18323" lon="-1.46243">
        <ele>39.4</ele>
        <time>2015-01-11T08:22:14Z</time>
      </trkpt>
      <trkpt lat="47.18309" lon="-1.46235">
        <ele>39.4</ele>
        <time>2015-01-11T08:22:17Z</time>
      </trkpt>
      <trkpt lat="47.183" lon="-1.46228">
        <ele>39.4</ele>
        <time>2015-01-11T08:22:19Z</time>
      </trkpt>
      <trkpt lat="47.1829" lon="-1.46222">
        <ele>39.4</ele>
        <time>2015-01-11T08:22:21Z</time>
      </trkpt>
      <trkpt lat="47.18278" lon="-1.4621">
        <ele>39.4</ele>
        <time>2015-01-11T08:22:24Z</time>
      </trkpt>
      <trkpt lat="47.18266" lon="-1.46197">
        <ele>39.4</ele>
        <time>2015-01-11T08:22:28Z</time>
      </trkpt>
      <trkpt lat="47.18258" lon="-1.46186">
        <ele>39.4</ele>
        <time>2015-01-11T08:22:30Z</time>
      </trkpt>
      <trkpt lat="47.18248" lon="-1.46172">
        <ele>39.4</ele>
        <time>2015-01-11T08:22:33Z</time>
      </trkpt>
      <trkpt lat="47.18236" lon="-1.46156">
        <ele>39.1</ele>
        <time>2015-01-11T08:22:36Z</time>
      </trkpt>
      <trkpt lat="47.18224" lon="-1.46143">
        <ele>39</ele>
        <time>2015-01-11T08:22:39Z</time>
      </trkpt>
      <trkpt lat="47.18213" lon="-1.46131">
        <ele>38.5</ele>
        <time>2015-01-11T08:22:42Z</time>
      </trkpt>
      <trkpt lat="47.18202" lon="-1.46115">
        <ele>36.3</ele>
        <time>2015-01-11T08:22:45Z</time>
      </trkpt>
      <trkpt lat="47.1819" lon="-1.46102">
        <ele>35.7</ele>
        <time>2015-01-11T08:22:48Z</time>
      </trkpt>
      <trkpt lat="47.18177" lon="-1.46086">
        <ele>35</ele>
        <time>2015-01-11T08:22:52Z</time>
      </trkpt>
      <trkpt lat="47.18164" lon="-1.46066">
        <ele>31.8</ele>
        <time>2015-01-11T08:22:56Z</time>
      </trkpt>
      <trkpt lat="47.18151" lon="-1.46051">
        <ele>30</ele>
        <time>2015-01-11T08:22:59Z</time>
      </trkpt>
      <trkpt lat="47.1814" lon="-1.46036">
        <ele>29.2</ele>
        <time>2015-01-11T08:23:02Z</time>
      </trkpt>
      <trkpt lat="47.18128" lon="-1.46022">
        <ele>28.5</ele>
        <time>2015-01-11T08:23:05Z</time>
      </trkpt>
      <trkpt lat="47.18117" lon="-1.46007">
        <ele>27.9</ele>
        <time>2015-01-11T08:23:08Z</time>
      </trkpt>
      <trkpt lat="47.18106" lon="-1.45989">
        <ele>27.3</ele>
        <time>2015-01-11T08:23:11Z</time>
      </trkpt>
      <trkpt lat="47.18091" lon="-1.45975">
        <ele>26.8</ele>
        <time>2015-01-11T08:23:14Z</time>
      </trkpt>
      <trkpt lat="47.18078" lon="-1.45959">
        <ele>26.5</ele>
        <time>2015-01-11T08:23:17Z</time>
      </trkpt>
      <trkpt lat="47.18066" lon="-1.45942">
        <ele>26.4</ele>
        <time>2015-01-11T08:23:20Z</time>
      </trkpt>
      <trkpt lat="47.18053" lon="-1.45924">
        <ele>26.2</ele>
        <time>2015-01-11T08:23:23Z</time>
      </trkpt>
      <trkpt lat="47.1804" lon="-1.45907">
        <ele>26.2</ele>
        <time>2015-01-11T08:23:26Z</time>
      </trkpt>
      <trkpt lat="47.18028" lon="-1.45891">
        <ele>26.1</ele>
        <time>2015-01-11T08:23:29Z</time>
      </trkpt>
      <trkpt lat="47.18019" lon="-1.45877">
        <ele>25.6</ele>
        <time>2015-01-11T08:23:34Z</time>
      </trkpt>
      <trkpt lat="47.18007" lon="-1.45866">
        <ele>24.9</ele>
        <time>2015-01-11T08:23:39Z</time>
      </trkpt>
      <trkpt lat="47.18003" lon="-1.4586">
        <ele>23.4</ele>
        <time>2015-01-11T08:23:41Z</time>
      </trkpt>
      <trkpt lat="47.18004" lon="-1.45851">
        <ele>23.4</ele>
        <time>2015-01-11T08:23:43Z</time>
      </trkpt>
      <trkpt lat="47.1801" lon="-1.45844">
        <ele>23.4</ele>
        <time>2015-01-11T08:23:45Z</time>
      </trkpt>
      <trkpt lat="47.18015" lon="-1.45839">
        <ele>22.6</ele>
        <time>2015-01-11T08:23:47Z</time>
      </trkpt>
      <trkpt lat="47.1802" lon="-1.45833">
        <ele>22.6</ele>
        <time>2015-01-11T08:23:49Z</time>
      </trkpt>
      <trkpt lat="47.18032" lon="-1.45825">
        <ele>22.3</ele>
        <time>2015-01-11T08:23:53Z</time>
      </trkpt>
      <trkpt lat="47.18044" lon="-1.45814">
        <ele>21.7</ele>
        <time>2015-01-11T08:23:57Z</time>
      </trkpt>
      <trkpt lat="47.18056" lon="-1.45802">
        <ele>21.6</ele>
        <time>2015-01-11T08:24:01Z</time>
      </trkpt>
      <trkpt lat="47.18068" lon="-1.45791">
        <ele>21.6</ele>
        <time>2015-01-11T08:24:05Z</time>
      </trkpt>
      <trkpt lat="47.18081" lon="-1.45778">
        <ele>21.6</ele>
        <time>2015-01-11T08:24:10Z</time>
      </trkpt>
      <trkpt lat="47.18094" lon="-1.45767">
        <ele>21.6</ele>
        <time>2015-01-11T08:24:16Z</time>
      </trkpt>
      <trkpt lat="47.18102" lon="-1.45757">
        <ele>21.6</ele>
        <time>2015-01-11T08:24:20Z</time>
      </trkpt>
      <trkpt lat="47.18088" lon="-1.45713">
        <ele>21.6</ele>
        <time>2015-01-11T08:24:21Z</time>
      </trkpt>
      <trkpt lat="47.18091" lon="-1.45693">
        <ele>21.6</ele>
        <time>2015-01-11T08:24:25Z</time>
      </trkpt>
      <trkpt lat="47.18092" lon="-1.45673">
        <ele>22.3</ele>
        <time>2015-01-11T08:24:29Z</time>
      </trkpt>
      <trkpt lat="47.18093" lon="-1.45665">
        <ele>23.7</ele>
        <time>2015-01-11T08:24:31Z</time>
      </trkpt>
      <trkpt lat="47.18095" lon="-1.45656">
        <ele>23.7</ele>
        <time>2015-01-11T08:24:33Z</time>
      </trkpt>
      <trkpt lat="47.18098" lon="-1.45646">
        <ele>23.7</ele>
        <time>2015-01-11T08:24:35Z</time>
      </trkpt>
      <trkpt lat="47.18105" lon="-1.45628">
        <ele>24.2</ele>
        <time>2015-01-11T08:24:40Z</time>
      </trkpt>
      <trkpt lat="47.18114" lon="-1.45624">
        <ele>24.3</ele>
        <time>2015-01-11T08:24:43Z</time>
      </trkpt>
      <trkpt lat="47.18124" lon="-1.45623">
        <ele>24.3</ele>
        <time>2015-01-11T08:24:46Z</time>
      </trkpt>
      <trkpt lat="47.18129" lon="-1.4562">
        <ele>25</ele>
        <time>2015-01-11T08:24:48Z</time>
      </trkpt>
      <trkpt lat="47.18135" lon="-1.45614">
        <ele>25</ele>
        <time>2015-01-11T08:24:50Z</time>
      </trkpt>
      <trkpt lat="47.18144" lon="-1.45599">
        <ele>25.4</ele>
        <time>2015-01-11T08:24:54Z</time>
      </trkpt>
      <trkpt lat="47.18153" lon="-1.45582">
        <ele>26.2</ele>
        <time>2015-01-11T08:24:58Z</time>
      </trkpt>
      <trkpt lat="47.18164" lon="-1.45565">
        <ele>26.7</ele>
        <time>2015-01-11T08:25:02Z</time>
      </trkpt>
      <trkpt lat="47.18178" lon="-1.45553">
        <ele>26.9</ele>
        <time>2015-01-11T08:25:06Z</time>
      </trkpt>
      <trkpt lat="47.18189" lon="-1.45547">
        <ele>27</ele>
        <time>2015-01-11T08:25:09Z</time>
      </trkpt>
      <trkpt lat="47.18206" lon="-1.45539">
        <ele>27.2</ele>
        <time>2015-01-11T08:25:14Z</time>
      </trkpt>
      <trkpt lat="47.18213" lon="-1.45535">
        <ele>28.1</ele>
        <time>2015-01-11T08:25:16Z</time>
      </trkpt>
      <trkpt lat="47.1822" lon="-1.45528">
        <ele>28.1</ele>
        <time>2015-01-11T08:25:18Z</time>
      </trkpt>
      <trkpt lat="47.1823" lon="-1.45513">
        <ele>28.9</ele>
        <time>2015-01-11T08:25:22Z</time>
      </trkpt>
      <trkpt lat="47.18239" lon="-1.45497">
        <ele>29.1</ele>
        <time>2015-01-11T08:25:26Z</time>
      </trkpt>
      <trkpt lat="47.1825" lon="-1.45482">
        <ele>29.1</ele>
        <time>2015-01-11T08:25:31Z</time>
      </trkpt>
      <trkpt lat="47.18261" lon="-1.45468">
        <ele>29.1</ele>
        <time>2015-01-11T08:25:36Z</time>
      </trkpt>
      <trkpt lat="47.18269" lon="-1.45458">
        <ele>29.1</ele>
        <time>2015-01-11T08:25:40Z</time>
      </trkpt>
      <trkpt lat="47.18274" lon="-1.45453">
        <ele>29.1</ele>
        <time>2015-01-11T08:25:42Z</time>
      </trkpt>
      <trkpt lat="47.18284" lon="-1.45452">
        <ele>29.1</ele>
        <time>2015-01-11T08:25:45Z</time>
      </trkpt>
      <trkpt lat="47.18295" lon="-1.4546">
        <ele>29.1</ele>
        <time>2015-01-11T08:25:48Z</time>
      </trkpt>
      <trkpt lat="47.18307" lon="-1.45469">
        <ele>29.2</ele>
        <time>2015-01-11T08:25:52Z</time>
      </trkpt>
      <trkpt lat="47.18317" lon="-1.45476">
        <ele>29.2</ele>
        <time>2015-01-11T08:25:55Z</time>
      </trkpt>
      <trkpt lat="47.18329" lon="-1.45486">
        <ele>29.2</ele>
        <time>2015-01-11T08:25:59Z</time>
      </trkpt>
      <trkpt lat="47.18344" lon="-1.45496">
        <ele>29.2</ele>
        <time>2015-01-11T08:26:04Z</time>
      </trkpt>
      <trkpt lat="47.18356" lon="-1.45505">
        <ele>29.2</ele>
        <time>2015-01-11T08:26:08Z</time>
      </trkpt>
      <trkpt lat="47.18362" lon="-1.45508">
        <ele>29.2</ele>
        <time>2015-01-11T08:26:10Z</time>
      </trkpt>
      <trkpt lat="47.18369" lon="-1.45509">
        <ele>29.2</ele>
        <time>2015-01-11T08:26:12Z</time>
      </trkpt>
      <trkpt lat="47.18381" lon="-1.45507">
        <ele>29.5</ele>
        <time>2015-01-11T08:26:16Z</time>
      </trkpt>
      <trkpt lat="47.18391" lon="-1.45509">
        <ele>30.8</ele>
        <time>2015-01-11T08:26:20Z</time>
      </trkpt>
      <trkpt lat="47.184" lon="-1.45527">
        <ele>32.4</ele>
        <time>2015-01-11T08:26:25Z</time>
      </trkpt>
      <trkpt lat="47.18405" lon="-1.45532">
        <ele>33.1</ele>
        <time>2015-01-11T08:26:27Z</time>
      </trkpt>
      <trkpt lat="47.18412" lon="-1.45531">
        <ele>33.1</ele>
        <time>2015-01-11T08:26:29Z</time>
      </trkpt>
      <trkpt lat="47.18426" lon="-1.45525">
        <ele>33.2</ele>
        <time>2015-01-11T08:26:33Z</time>
      </trkpt>
      <trkpt lat="47.18436" lon="-1.45521">
        <ele>33.3</ele>
        <time>2015-01-11T08:26:36Z</time>
      </trkpt>
      <trkpt lat="47.18446" lon="-1.45518">
        <ele>33.5</ele>
        <time>2015-01-11T08:26:39Z</time>
      </trkpt>
      <trkpt lat="47.18457" lon="-1.45515">
        <ele>33.6</ele>
        <time>2015-01-11T08:26:42Z</time>
      </trkpt>
      <trkpt lat="47.18471" lon="-1.45512">
        <ele>34.2</ele>
        <time>2015-01-11T08:26:46Z</time>
      </trkpt>
      <trkpt lat="47.18486" lon="-1.45509">
        <ele>35.2</ele>
        <time>2015-01-11T08:26:51Z</time>
      </trkpt>
      <trkpt lat="47.18493" lon="-1.45508">
        <ele>35.6</ele>
        <time>2015-01-11T08:26:53Z</time>
      </trkpt>
      <trkpt lat="47.18503" lon="-1.45505">
        <ele>35.6</ele>
        <time>2015-01-11T08:26:56Z</time>
      </trkpt>
      <trkpt lat="47.18509" lon="-1.45503">
        <ele>36</ele>
        <time>2015-01-11T08:26:58Z</time>
      </trkpt>
      <trkpt lat="47.18519" lon="-1.45499">
        <ele>36</ele>
        <time>2015-01-11T08:27:01Z</time>
      </trkpt>
      <trkpt lat="47.18525" lon="-1.45496">
        <ele>36.1</ele>
        <time>2015-01-11T08:27:03Z</time>
      </trkpt>
      <trkpt lat="47.18529" lon="-1.4549">
        <ele>36.1</ele>
        <time>2015-01-11T08:27:05Z</time>
      </trkpt>
      <trkpt lat="47.18539" lon="-1.45474">
        <ele>36.3</ele>
        <time>2015-01-11T08:27:09Z</time>
      </trkpt>
      <trkpt lat="47.18549" lon="-1.45471">
        <ele>36.9</ele>
        <time>2015-01-11T08:27:12Z</time>
      </trkpt>
      <trkpt lat="47.18559" lon="-1.45476">
        <ele>37.9</ele>
        <time>2015-01-11T08:27:15Z</time>
      </trkpt>
      <trkpt lat="47.1857" lon="-1.45488">
        <ele>39.6</ele>
        <time>2015-01-11T08:27:19Z</time>
      </trkpt>
      <trkpt lat="47.18583" lon="-1.45495">
        <ele>40.4</ele>
        <time>2015-01-11T08:27:23Z</time>
      </trkpt>
      <trkpt lat="47.18593" lon="-1.45497">
        <ele>42.5</ele>
        <time>2015-01-11T08:27:26Z</time>
      </trkpt>
      <trkpt lat="47.186" lon="-1.45497">
        <ele>42.5</ele>
        <time>2015-01-11T08:27:28Z</time>
      </trkpt>
      <trkpt lat="47.18607" lon="-1.45496">
        <ele>44.2</ele>
        <time>2015-01-11T08:27:30Z</time>
      </trkpt>
      <trkpt lat="47.18619" lon="-1.45494">
        <ele>44.2</ele>
        <time>2015-01-11T08:27:33Z</time>
      </trkpt>
      <trkpt lat="47.18632" lon="-1.45492">
        <ele>45.3</ele>
        <time>2015-01-11T08:27:37Z</time>
      </trkpt>
      <trkpt lat="47.18643" lon="-1.4549">
        <ele>46.3</ele>
        <time>2015-01-11T08:27:41Z</time>
      </trkpt>
      <trkpt lat="47.18652" lon="-1.45488">
        <ele>46.4</ele>
        <time>2015-01-11T08:27:44Z</time>
      </trkpt>
      <trkpt lat="47.18663" lon="-1.45489">
        <ele>46.6</ele>
        <time>2015-01-11T08:27:47Z</time>
      </trkpt>
      <trkpt lat="47.18677" lon="-1.45488">
        <ele>47.2</ele>
        <time>2015-01-11T08:27:51Z</time>
      </trkpt>
      <trkpt lat="47.18691" lon="-1.45489">
        <ele>47.7</ele>
        <time>2015-01-11T08:27:55Z</time>
      </trkpt>
      <trkpt lat="47.18705" lon="-1.45488">
        <ele>48.2</ele>
        <time>2015-01-11T08:27:59Z</time>
      </trkpt>
      <trkpt lat="47.18712" lon="-1.45487">
        <ele>49.7</ele>
        <time>2015-01-11T08:28:01Z</time>
      </trkpt>
      <trkpt lat="47.18722" lon="-1.45483">
        <ele>49.7</ele>
        <time>2015-01-11T08:28:04Z</time>
      </trkpt>
      <trkpt lat="47.18737" lon="-1.45479">
        <ele>50.4</ele>
        <time>2015-01-11T08:28:08Z</time>
      </trkpt>
      <trkpt lat="47.18746" lon="-1.45476">
        <ele>50.5</ele>
        <time>2015-01-11T08:28:11Z</time>
      </trkpt>
      <trkpt lat="47.18761" lon="-1.45471">
        <ele>50.7</ele>
        <time>2015-01-11T08:28:15Z</time>
      </trkpt>
      <trkpt lat="47.18771" lon="-1.45464">
        <ele>50.8</ele>
        <time>2015-01-11T08:28:18Z</time>
      </trkpt>
      <trkpt lat="47.18782" lon="-1.45458">
        <ele>50.9</ele>
        <time>2015-01-11T08:28:22Z</time>
      </trkpt>
      <trkpt lat="47.18792" lon="-1.4545">
        <ele>51</ele>
        <time>2015-01-11T08:28:26Z</time>
      </trkpt>
      <trkpt lat="47.18806" lon="-1.45441">
        <ele>51</ele>
        <time>2015-01-11T08:28:31Z</time>
      </trkpt>
      <trkpt lat="47.18823" lon="-1.4543">
        <ele>51</ele>
        <time>2015-01-11T08:28:36Z</time>
      </trkpt>
      <trkpt lat="47.18841" lon="-1.45418">
        <ele>51.1</ele>
        <time>2015-01-11T08:28:41Z</time>
      </trkpt>
      <trkpt lat="47.18856" lon="-1.45407">
        <ele>51.1</ele>
        <time>2015-01-11T08:28:45Z</time>
      </trkpt>
      <trkpt lat="47.18873" lon="-1.45394">
        <ele>51.2</ele>
        <time>2015-01-11T08:28:50Z</time>
      </trkpt>
      <trkpt lat="47.18882" lon="-1.45388">
        <ele>51.4</ele>
        <time>2015-01-11T08:28:53Z</time>
      </trkpt>
      <trkpt lat="47.18893" lon="-1.4538">
        <ele>51.5</ele>
        <time>2015-01-11T08:28:56Z</time>
      </trkpt>
      <trkpt lat="47.18904" lon="-1.45372">
        <ele>51.5</ele>
        <time>2015-01-11T08:28:59Z</time>
      </trkpt>
      <trkpt lat="47.18912" lon="-1.45367">
        <ele>51.5</ele>
        <time>2015-01-11T08:29:01Z</time>
      </trkpt>
      <trkpt lat="47.18922" lon="-1.45358">
        <ele>51.5</ele>
        <time>2015-01-11T08:29:04Z</time>
      </trkpt>
      <trkpt lat="47.18934" lon="-1.45349">
        <ele>51.5</ele>
        <time>2015-01-11T08:29:08Z</time>
      </trkpt>
      <trkpt lat="47.18946" lon="-1.45341">
        <ele>51.6</ele>
        <time>2015-01-11T08:29:12Z</time>
      </trkpt>
      <trkpt lat="47.18957" lon="-1.45336">
        <ele>51.4</ele>
        <time>2015-01-11T08:29:15Z</time>
      </trkpt>
      <trkpt lat="47.1897" lon="-1.4533">
        <ele>51.3</ele>
        <time>2015-01-11T08:29:18Z</time>
      </trkpt>
      <trkpt lat="47.18979" lon="-1.45326">
        <ele>51.3</ele>
        <time>2015-01-11T08:29:20Z</time>
      </trkpt>
      <trkpt lat="47.1899" lon="-1.45334">
        <ele>51</ele>
        <time>2015-01-11T08:29:24Z</time>
      </trkpt>
      <trkpt lat="47.1899" lon="-1.45355">
        <ele>50.8</ele>
        <time>2015-01-11T08:29:28Z</time>
      </trkpt>
      <trkpt lat="47.18987" lon="-1.45378">
        <ele>50.8</ele>
        <time>2015-01-11T08:29:32Z</time>
      </trkpt>
      <trkpt lat="47.18981" lon="-1.45403">
        <ele>50.8</ele>
        <time>2015-01-11T08:29:36Z</time>
      </trkpt>
      <trkpt lat="47.18976" lon="-1.45423">
        <ele>50.7</ele>
        <time>2015-01-11T08:29:40Z</time>
      </trkpt>
      <trkpt lat="47.18973" lon="-1.45435">
        <ele>49</ele>
        <time>2015-01-11T08:29:43Z</time>
      </trkpt>
      <trkpt lat="47.1897" lon="-1.45453">
        <ele>47.5</ele>
        <time>2015-01-11T08:29:48Z</time>
      </trkpt>
      <trkpt lat="47.18968" lon="-1.45473">
        <ele>46.9</ele>
        <time>2015-01-11T08:29:51Z</time>
      </trkpt>
      <trkpt lat="47.18969" lon="-1.45495">
        <ele>46.8</ele>
        <time>2015-01-11T08:29:55Z</time>
      </trkpt>
      <trkpt lat="47.1897" lon="-1.45517">
        <ele>46.8</ele>
        <time>2015-01-11T08:29:59Z</time>
      </trkpt>
      <trkpt lat="47.18977" lon="-1.45537">
        <ele>46.7</ele>
        <time>2015-01-11T08:30:03Z</time>
      </trkpt>
      <trkpt lat="47.18983" lon="-1.45555">
        <ele>46.6</ele>
        <time>2015-01-11T08:30:08Z</time>
      </trkpt>
      <trkpt lat="47.18991" lon="-1.45573">
        <ele>46.5</ele>
        <time>2015-01-11T08:30:12Z</time>
      </trkpt>
      <trkpt lat="47.19" lon="-1.4559">
        <ele>46.4</ele>
        <time>2015-01-11T08:30:15Z</time>
      </trkpt>
      <trkpt lat="47.19008" lon="-1.45613">
        <ele>46.3</ele>
        <time>2015-01-11T08:30:19Z</time>
      </trkpt>
      <trkpt lat="47.19019" lon="-1.45633">
        <ele>46.3</ele>
        <time>2015-01-11T08:30:22Z</time>
      </trkpt>
      <trkpt lat="47.19028" lon="-1.45654">
        <ele>46.3</ele>
        <time>2015-01-11T08:30:26Z</time>
      </trkpt>
      <trkpt lat="47.19036" lon="-1.4567">
        <ele>46.3</ele>
        <time>2015-01-11T08:30:29Z</time>
      </trkpt>
      <trkpt lat="47.19045" lon="-1.45687">
        <ele>46.3</ele>
        <time>2015-01-11T08:30:32Z</time>
      </trkpt>
      <trkpt lat="47.19054" lon="-1.45705">
        <ele>46.2</ele>
        <time>2015-01-11T08:30:36Z</time>
      </trkpt>
      <trkpt lat="47.19064" lon="-1.45725">
        <ele>46.1</ele>
        <time>2015-01-11T08:30:40Z</time>
      </trkpt>
      <trkpt lat="47.19068" lon="-1.45747">
        <ele>45.7</ele>
        <time>2015-01-11T08:30:43Z</time>
      </trkpt>
      <trkpt lat="47.19074" lon="-1.45768">
        <ele>45.5</ele>
        <time>2015-01-11T08:30:46Z</time>
      </trkpt>
      <trkpt lat="47.19081" lon="-1.4579">
        <ele>44.6</ele>
        <time>2015-01-11T08:30:50Z</time>
      </trkpt>
      <trkpt lat="47.19085" lon="-1.45809">
        <ele>42.7</ele>
        <time>2015-01-11T08:30:53Z</time>
      </trkpt>
      <trkpt lat="47.19091" lon="-1.45827">
        <ele>42</ele>
        <time>2015-01-11T08:30:57Z</time>
      </trkpt>
      <trkpt lat="47.19096" lon="-1.45832">
        <ele>41.7</ele>
        <time>2015-01-11T08:30:59Z</time>
      </trkpt>
      <trkpt lat="47.19103" lon="-1.45832">
        <ele>41.7</ele>
        <time>2015-01-11T08:31:01Z</time>
      </trkpt>
      <trkpt lat="47.19109" lon="-1.45813">
        <ele>41.5</ele>
        <time>2015-01-11T08:31:04Z</time>
      </trkpt>
      <trkpt lat="47.1912" lon="-1.458">
        <ele>41.2</ele>
        <time>2015-01-11T08:31:07Z</time>
      </trkpt>
      <trkpt lat="47.19133" lon="-1.45786">
        <ele>40.9</ele>
        <time>2015-01-11T08:31:11Z</time>
      </trkpt>
      <trkpt lat="47.19149" lon="-1.45763">
        <ele>40.7</ele>
        <time>2015-01-11T08:31:16Z</time>
      </trkpt>
      <trkpt lat="47.1916" lon="-1.45748">
        <ele>40.6</ele>
        <time>2015-01-11T08:31:19Z</time>
      </trkpt>
      <trkpt lat="47.1917" lon="-1.45734">
        <ele>40.4</ele>
        <time>2015-01-11T08:31:22Z</time>
      </trkpt>
      <trkpt lat="47.19182" lon="-1.45719">
        <ele>40.4</ele>
        <time>2015-01-11T08:31:25Z</time>
      </trkpt>
      <trkpt lat="47.19196" lon="-1.45699">
        <ele>40.4</ele>
        <time>2015-01-11T08:31:29Z</time>
      </trkpt>
      <trkpt lat="47.19204" lon="-1.45678">
        <ele>40.2</ele>
        <time>2015-01-11T08:31:33Z</time>
      </trkpt>
      <trkpt lat="47.19212" lon="-1.45659">
        <ele>40</ele>
        <time>2015-01-11T08:31:36Z</time>
      </trkpt>
      <trkpt lat="47.19221" lon="-1.4564">
        <ele>39.5</ele>
        <time>2015-01-11T08:31:39Z</time>
      </trkpt>
      <trkpt lat="47.19229" lon="-1.45624">
        <ele>39</ele>
        <time>2015-01-11T08:31:42Z</time>
      </trkpt>
      <trkpt lat="47.19241" lon="-1.45603">
        <ele>38.2</ele>
        <time>2015-01-11T08:31:46Z</time>
      </trkpt>
      <trkpt lat="47.19252" lon="-1.45586">
        <ele>37.5</ele>
        <time>2015-01-11T08:31:50Z</time>
      </trkpt>
      <trkpt lat="47.19244" lon="-1.45597">
        <ele>35.2</ele>
        <time>2015-01-11T08:32:11Z</time>
      </trkpt>
      <trkpt lat="47.19235" lon="-1.45614">
        <ele>35.2</ele>
        <time>2015-01-11T08:32:16Z</time>
      </trkpt>
      <trkpt lat="47.19226" lon="-1.4563">
        <ele>35.2</ele>
        <time>2015-01-11T08:32:21Z</time>
      </trkpt>
      <trkpt lat="47.19217" lon="-1.45647">
        <ele>35.2</ele>
        <time>2015-01-11T08:32:26Z</time>
      </trkpt>
      <trkpt lat="47.19208" lon="-1.45667">
        <ele>35.2</ele>
        <time>2015-01-11T08:32:31Z</time>
      </trkpt>
      <trkpt lat="47.19201" lon="-1.45687">
        <ele>35.3</ele>
        <time>2015-01-11T08:32:35Z</time>
      </trkpt>
      <trkpt lat="47.19196" lon="-1.457">
        <ele>37.7</ele>
        <time>2015-01-11T08:32:39Z</time>
      </trkpt>
      <trkpt lat="47.19192" lon="-1.45706">
        <ele>37.7</ele>
        <time>2015-01-11T08:32:41Z</time>
      </trkpt>
      <trkpt lat="47.19181" lon="-1.4572">
        <ele>38.5</ele>
        <time>2015-01-11T08:32:45Z</time>
      </trkpt>
      <trkpt lat="47.19171" lon="-1.45733">
        <ele>38.7</ele>
        <time>2015-01-11T08:32:49Z</time>
      </trkpt>
      <trkpt lat="47.19161" lon="-1.45746">
        <ele>39.1</ele>
        <time>2015-01-11T08:32:53Z</time>
      </trkpt>
      <trkpt lat="47.19159" lon="-1.45782">
        <ele>39.4</ele>
        <time>2015-01-11T08:32:56Z</time>
      </trkpt>
      <trkpt lat="47.19168" lon="-1.45797">
        <ele>39.8</ele>
        <time>2015-01-11T08:33:00Z</time>
      </trkpt>
      <trkpt lat="47.19178" lon="-1.45814">
        <ele>40</ele>
        <time>2015-01-11T08:33:04Z</time>
      </trkpt>
      <trkpt lat="47.19188" lon="-1.45832">
        <ele>40</ele>
        <time>2015-01-11T08:33:08Z</time>
      </trkpt>
      <trkpt lat="47.19199" lon="-1.45851">
        <ele>40</ele>
        <time>2015-01-11T08:33:11Z</time>
      </trkpt>
      <trkpt lat="47.19208" lon="-1.45867">
        <ele>40</ele>
        <time>2015-01-11T08:33:14Z</time>
      </trkpt>
      <trkpt lat="47.19217" lon="-1.45884">
        <ele>39.9</ele>
        <time>2015-01-11T08:33:17Z</time>
      </trkpt>
      <trkpt lat="47.19229" lon="-1.45905">
        <ele>39.7</ele>
        <time>2015-01-11T08:33:21Z</time>
      </trkpt>
      <trkpt lat="47.19238" lon="-1.45922">
        <ele>39.7</ele>
        <time>2015-01-11T08:33:24Z</time>
      </trkpt>
      <trkpt lat="47.19247" lon="-1.45937">
        <ele>39.6</ele>
        <time>2015-01-11T08:33:27Z</time>
      </trkpt>
      <trkpt lat="47.19257" lon="-1.45953">
        <ele>39.4</ele>
        <time>2015-01-11T08:33:30Z</time>
      </trkpt>
      <trkpt lat="47.19267" lon="-1.4597">
        <ele>39</ele>
        <time>2015-01-11T08:33:34Z</time>
      </trkpt>
      <trkpt lat="47.19279" lon="-1.45986">
        <ele>38.7</ele>
        <time>2015-01-11T08:33:37Z</time>
      </trkpt>
      <trkpt lat="47.19298" lon="-1.4599">
        <ele>38.6</ele>
        <time>2015-01-11T08:33:41Z</time>
      </trkpt>
      <trkpt lat="47.19304" lon="-1.45988">
        <ele>38</ele>
        <time>2015-01-11T08:33:42Z</time>
      </trkpt>
      <trkpt lat="47.19308" lon="-1.45985">
        <ele>38</ele>
        <time>2015-01-11T08:33:43Z</time>
      </trkpt>
      <trkpt lat="47.19313" lon="-1.45982">
        <ele>38</ele>
        <time>2015-01-11T08:33:44Z</time>
      </trkpt>
      <trkpt lat="47.19321" lon="-1.45977">
        <ele>38</ele>
        <time>2015-01-11T08:33:46Z</time>
      </trkpt>
      <trkpt lat="47.1933" lon="-1.45972">
        <ele>37.8</ele>
        <time>2015-01-11T08:33:48Z</time>
      </trkpt>
      <trkpt lat="47.1934" lon="-1.45966">
        <ele>37.7</ele>
        <time>2015-01-11T08:33:50Z</time>
      </trkpt>
      <trkpt lat="47.19354" lon="-1.45964">
        <ele>37.7</ele>
        <time>2015-01-11T08:33:53Z</time>
      </trkpt>
      <trkpt lat="47.19377" lon="-1.45968">
        <ele>37.7</ele>
        <time>2015-01-11T08:33:57Z</time>
      </trkpt>
      <trkpt lat="47.19382" lon="-1.45969">
        <ele>37.7</ele>
        <time>2015-01-11T08:33:58Z</time>
      </trkpt>
      <trkpt lat="47.1939" lon="-1.4597">
        <ele>37.7</ele>
        <time>2015-01-11T08:34:02Z</time>
      </trkpt>
      <trkpt lat="47.19409" lon="-1.45967">
        <ele>37.7</ele>
        <time>2015-01-11T08:34:03Z</time>
      </trkpt>
      <trkpt lat="47.19415" lon="-1.45965">
        <ele>37.7</ele>
        <time>2015-01-11T08:34:04Z</time>
      </trkpt>
      <trkpt lat="47.19426" lon="-1.45961">
        <ele>37.7</ele>
        <time>2015-01-11T08:34:06Z</time>
      </trkpt>
      <trkpt lat="47.19437" lon="-1.45957">
        <ele>37.7</ele>
        <time>2015-01-11T08:34:08Z</time>
      </trkpt>
      <trkpt lat="47.19449" lon="-1.45954">
        <ele>37.8</ele>
        <time>2015-01-11T08:34:10Z</time>
      </trkpt>
      <trkpt lat="47.19461" lon="-1.45951">
        <ele>37.8</ele>
        <time>2015-01-11T08:34:12Z</time>
      </trkpt>
      <trkpt lat="47.19475" lon="-1.45953">
        <ele>37.8</ele>
        <time>2015-01-11T08:34:15Z</time>
      </trkpt>
      <trkpt lat="47.19486" lon="-1.45962">
        <ele>37.8</ele>
        <time>2015-01-11T08:34:17Z</time>
      </trkpt>
      <trkpt lat="47.19498" lon="-1.45972">
        <ele>37.8</ele>
        <time>2015-01-11T08:34:19Z</time>
      </trkpt>
      <trkpt lat="47.19505" lon="-1.45977">
        <ele>37.8</ele>
        <time>2015-01-11T08:34:21Z</time>
      </trkpt>
      <trkpt lat="47.19511" lon="-1.45979">
        <ele>37.8</ele>
        <time>2015-01-11T08:34:24Z</time>
      </trkpt>
      <trkpt lat="47.19523" lon="-1.45968">
        <ele>37.7</ele>
        <time>2015-01-11T08:34:26Z</time>
      </trkpt>
      <trkpt lat="47.19531" lon="-1.45951">
        <ele>37.6</ele>
        <time>2015-01-11T08:34:29Z</time>
      </trkpt>
      <trkpt lat="47.1954" lon="-1.45934">
        <ele>37.5</ele>
        <time>2015-01-11T08:34:32Z</time>
      </trkpt>
      <trkpt lat="47.19549" lon="-1.45912">
        <ele>37.4</ele>
        <time>2015-01-11T08:34:35Z</time>
      </trkpt>
      <trkpt lat="47.19558" lon="-1.45895">
        <ele>37.2</ele>
        <time>2015-01-11T08:34:38Z</time>
      </trkpt>
      <trkpt lat="47.1957" lon="-1.45872">
        <ele>37</ele>
        <time>2015-01-11T08:34:42Z</time>
      </trkpt>
      <trkpt lat="47.19577" lon="-1.45851">
        <ele>36</ele>
        <time>2015-01-11T08:34:45Z</time>
      </trkpt>
      <trkpt lat="47.19586" lon="-1.45833">
        <ele>35.1</ele>
        <time>2015-01-11T08:34:48Z</time>
      </trkpt>
      <trkpt lat="47.19595" lon="-1.45816">
        <ele>34.5</ele>
        <time>2015-01-11T08:34:51Z</time>
      </trkpt>
      <trkpt lat="47.19604" lon="-1.458">
        <ele>34.3</ele>
        <time>2015-01-11T08:34:54Z</time>
      </trkpt>
      <trkpt lat="47.19616" lon="-1.45782">
        <ele>33.7</ele>
        <time>2015-01-11T08:34:57Z</time>
      </trkpt>
      <trkpt lat="47.19625" lon="-1.45762">
        <ele>33.1</ele>
        <time>2015-01-11T08:35:00Z</time>
      </trkpt>
      <trkpt lat="47.19634" lon="-1.45745">
        <ele>32.8</ele>
        <time>2015-01-11T08:35:03Z</time>
      </trkpt>
      <trkpt lat="47.1964" lon="-1.45726">
        <ele>32.6</ele>
        <time>2015-01-11T08:35:06Z</time>
      </trkpt>
      <trkpt lat="47.19649" lon="-1.45705">
        <ele>32.4</ele>
        <time>2015-01-11T08:35:09Z</time>
      </trkpt>
      <trkpt lat="47.1966" lon="-1.45683">
        <ele>32.2</ele>
        <time>2015-01-11T08:35:13Z</time>
      </trkpt>
      <trkpt lat="47.19668" lon="-1.45666">
        <ele>32.1</ele>
        <time>2015-01-11T08:35:16Z</time>
      </trkpt>
      <trkpt lat="47.19674" lon="-1.45647">
        <ele>32.1</ele>
        <time>2015-01-11T08:35:19Z</time>
      </trkpt>
      <trkpt lat="47.19684" lon="-1.45627">
        <ele>32</ele>
        <time>2015-01-11T08:35:22Z</time>
      </trkpt>
      <trkpt lat="47.19694" lon="-1.4561">
        <ele>31.9</ele>
        <time>2015-01-11T08:35:25Z</time>
      </trkpt>
      <trkpt lat="47.19701" lon="-1.45593">
        <ele>31.8</ele>
        <time>2015-01-11T08:35:28Z</time>
      </trkpt>
      <trkpt lat="47.19709" lon="-1.45575">
        <ele>31.8</ele>
        <time>2015-01-11T08:35:31Z</time>
      </trkpt>
      <trkpt lat="47.19719" lon="-1.45556">
        <ele>31.9</ele>
        <time>2015-01-11T08:35:34Z</time>
      </trkpt>
      <trkpt lat="47.19729" lon="-1.4554">
        <ele>31.9</ele>
        <time>2015-01-11T08:35:37Z</time>
      </trkpt>
      <trkpt lat="47.19736" lon="-1.45521">
        <ele>32.1</ele>
        <time>2015-01-11T08:35:41Z</time>
      </trkpt>
      <trkpt lat="47.19745" lon="-1.45503">
        <ele>32.2</ele>
        <time>2015-01-11T08:35:45Z</time>
      </trkpt>
      <trkpt lat="47.19753" lon="-1.45483">
        <ele>32.2</ele>
        <time>2015-01-11T08:35:49Z</time>
      </trkpt>
      <trkpt lat="47.19763" lon="-1.45464">
        <ele>32.2</ele>
        <time>2015-01-11T08:35:53Z</time>
      </trkpt>
      <trkpt lat="47.19769" lon="-1.45443">
        <ele>32.4</ele>
        <time>2015-01-11T08:35:57Z</time>
      </trkpt>
      <trkpt lat="47.19776" lon="-1.45424">
        <ele>33.5</ele>
        <time>2015-01-11T08:36:01Z</time>
      </trkpt>
      <trkpt lat="47.19781" lon="-1.45401">
        <ele>34</ele>
        <time>2015-01-11T08:36:05Z</time>
      </trkpt>
      <trkpt lat="47.19772" lon="-1.45386">
        <ele>34.7</ele>
        <time>2015-01-11T08:36:09Z</time>
      </trkpt>
      <trkpt lat="47.19756" lon="-1.45377">
        <ele>34.8</ele>
        <time>2015-01-11T08:36:13Z</time>
      </trkpt>
      <trkpt lat="47.19747" lon="-1.45375">
        <ele>34.8</ele>
        <time>2015-01-11T08:36:15Z</time>
      </trkpt>
      <trkpt lat="47.19733" lon="-1.45373">
        <ele>34.8</ele>
        <time>2015-01-11T08:36:18Z</time>
      </trkpt>
      <trkpt lat="47.1972" lon="-1.4537">
        <ele>34.8</ele>
        <time>2015-01-11T08:36:21Z</time>
      </trkpt>
      <trkpt lat="47.19707" lon="-1.45368">
        <ele>34.8</ele>
        <time>2015-01-11T08:36:24Z</time>
      </trkpt>
      <trkpt lat="47.1969" lon="-1.45363">
        <ele>34.8</ele>
        <time>2015-01-11T08:36:28Z</time>
      </trkpt>
      <trkpt lat="47.19676" lon="-1.45359">
        <ele>34.8</ele>
        <time>2015-01-11T08:36:31Z</time>
      </trkpt>
      <trkpt lat="47.19664" lon="-1.45358">
        <ele>34.6</ele>
        <time>2015-01-11T08:36:33Z</time>
      </trkpt>
      <trkpt lat="47.1966" lon="-1.45355">
        <ele>34.6</ele>
        <time>2015-01-11T08:36:34Z</time>
      </trkpt>
      <trkpt lat="47.19656" lon="-1.45351">
        <ele>34.6</ele>
        <time>2015-01-11T08:36:35Z</time>
      </trkpt>
      <trkpt lat="47.19652" lon="-1.45347">
        <ele>34.6</ele>
        <time>2015-01-11T08:36:36Z</time>
      </trkpt>
      <trkpt lat="47.19648" lon="-1.45334">
        <ele>34.6</ele>
        <time>2015-01-11T08:36:38Z</time>
      </trkpt>
      <trkpt lat="47.19645" lon="-1.45311">
        <ele>34.4</ele>
        <time>2015-01-11T08:36:41Z</time>
      </trkpt>
      <trkpt lat="47.19647" lon="-1.45289">
        <ele>33.6</ele>
        <time>2015-01-11T08:36:44Z</time>
      </trkpt>
      <trkpt lat="47.19649" lon="-1.45267">
        <ele>33.4</ele>
        <time>2015-01-11T08:36:47Z</time>
      </trkpt>
      <trkpt lat="47.19652" lon="-1.45245">
        <ele>33.4</ele>
        <time>2015-01-11T08:36:50Z</time>
      </trkpt>
      <trkpt lat="47.19655" lon="-1.45222">
        <ele>33.4</ele>
        <time>2015-01-11T08:36:53Z</time>
      </trkpt>
      <trkpt lat="47.19657" lon="-1.452">
        <ele>33.4</ele>
        <time>2015-01-11T08:36:56Z</time>
      </trkpt>
      <trkpt lat="47.1966" lon="-1.45174">
        <ele>33.4</ele>
        <time>2015-01-11T08:36:59Z</time>
      </trkpt>
      <trkpt lat="47.19663" lon="-1.45151">
        <ele>33.4</ele>
        <time>2015-01-11T08:37:02Z</time>
      </trkpt>
      <trkpt lat="47.19667" lon="-1.4513">
        <ele>33.4</ele>
        <time>2015-01-11T08:37:05Z</time>
      </trkpt>
      <trkpt lat="47.19669" lon="-1.45106">
        <ele>33.4</ele>
        <time>2015-01-11T08:37:08Z</time>
      </trkpt>
      <trkpt lat="47.19672" lon="-1.45079">
        <ele>33.4</ele>
        <time>2015-01-11T08:37:11Z</time>
      </trkpt>
      <trkpt lat="47.19671" lon="-1.45051">
        <ele>33.4</ele>
        <time>2015-01-11T08:37:14Z</time>
      </trkpt>
      <trkpt lat="47.19665" lon="-1.45024">
        <ele>33.4</ele>
        <time>2015-01-11T08:37:17Z</time>
      </trkpt>
      <trkpt lat="47.1966" lon="-1.45004">
        <ele>33.4</ele>
        <time>2015-01-11T08:37:19Z</time>
      </trkpt>
      <trkpt lat="47.19647" lon="-1.44982">
        <ele>33.4</ele>
        <time>2015-01-11T08:37:22Z</time>
      </trkpt>
      <trkpt lat="47.19637" lon="-1.44963">
        <ele>33.4</ele>
        <time>2015-01-11T08:37:24Z</time>
      </trkpt>
      <trkpt lat="47.19631" lon="-1.44945">
        <ele>33.4</ele>
        <time>2015-01-11T08:37:26Z</time>
      </trkpt>
      <trkpt lat="47.19626" lon="-1.44924">
        <ele>33.4</ele>
        <time>2015-01-11T08:37:28Z</time>
      </trkpt>
      <trkpt lat="47.19618" lon="-1.44904">
        <ele>33.4</ele>
        <time>2015-01-11T08:37:30Z</time>
      </trkpt>
      <trkpt lat="47.19611" lon="-1.44887">
        <ele>33.4</ele>
        <time>2015-01-11T08:37:32Z</time>
      </trkpt>
      <trkpt lat="47.19599" lon="-1.44865">
        <ele>33.4</ele>
        <time>2015-01-11T08:37:35Z</time>
      </trkpt>
      <trkpt lat="47.19592" lon="-1.44848">
        <ele>33.4</ele>
        <time>2015-01-11T08:37:37Z</time>
      </trkpt>
      <trkpt lat="47.19581" lon="-1.44825">
        <ele>33</ele>
        <time>2015-01-11T08:37:40Z</time>
      </trkpt>
      <trkpt lat="47.1957" lon="-1.44803">
        <ele>32.2</ele>
        <time>2015-01-11T08:37:43Z</time>
      </trkpt>
      <trkpt lat="47.19558" lon="-1.44781">
        <ele>31.3</ele>
        <time>2015-01-11T08:37:46Z</time>
      </trkpt>
      <trkpt lat="47.19549" lon="-1.44762">
        <ele>30.8</ele>
        <time>2015-01-11T08:37:49Z</time>
      </trkpt>
      <trkpt lat="47.19538" lon="-1.4474">
        <ele>30.3</ele>
        <time>2015-01-11T08:37:52Z</time>
      </trkpt>
      <trkpt lat="47.19528" lon="-1.44722">
        <ele>29.6</ele>
        <time>2015-01-11T08:37:56Z</time>
      </trkpt>
      <trkpt lat="47.1952" lon="-1.44699">
        <ele>28.4</ele>
        <time>2015-01-11T08:38:00Z</time>
      </trkpt>
      <trkpt lat="47.19513" lon="-1.44679">
        <ele>28.1</ele>
        <time>2015-01-11T08:38:04Z</time>
      </trkpt>
      <trkpt lat="47.19505" lon="-1.4466">
        <ele>28.1</ele>
        <time>2015-01-11T08:38:08Z</time>
      </trkpt>
      <trkpt lat="47.19498" lon="-1.4464">
        <ele>28.1</ele>
        <time>2015-01-11T08:38:12Z</time>
      </trkpt>
      <trkpt lat="47.19491" lon="-1.44619">
        <ele>28.1</ele>
        <time>2015-01-11T08:38:16Z</time>
      </trkpt>
      <trkpt lat="47.19484" lon="-1.44598">
        <ele>28.1</ele>
        <time>2015-01-11T08:38:20Z</time>
      </trkpt>
      <trkpt lat="47.19479" lon="-1.44577">
        <ele>28.1</ele>
        <time>2015-01-11T08:38:24Z</time>
      </trkpt>
      <trkpt lat="47.19472" lon="-1.44556">
        <ele>28.2</ele>
        <time>2015-01-11T08:38:28Z</time>
      </trkpt>
      <trkpt lat="47.19464" lon="-1.44539">
        <ele>28.4</ele>
        <time>2015-01-11T08:38:31Z</time>
      </trkpt>
      <trkpt lat="47.19455" lon="-1.44518">
        <ele>29.3</ele>
        <time>2015-01-11T08:38:35Z</time>
      </trkpt>
      <trkpt lat="47.19449" lon="-1.44501">
        <ele>30.3</ele>
        <time>2015-01-11T08:38:39Z</time>
      </trkpt>
      <trkpt lat="47.1944" lon="-1.44483">
        <ele>30.9</ele>
        <time>2015-01-11T08:38:43Z</time>
      </trkpt>
      <trkpt lat="47.19429" lon="-1.44463">
        <ele>31.8</ele>
        <time>2015-01-11T08:38:47Z</time>
      </trkpt>
      <trkpt lat="47.19419" lon="-1.44443">
        <ele>32.4</ele>
        <time>2015-01-11T08:38:51Z</time>
      </trkpt>
      <trkpt lat="47.19408" lon="-1.44424">
        <ele>32.7</ele>
        <time>2015-01-11T08:38:55Z</time>
      </trkpt>
      <trkpt lat="47.19396" lon="-1.44406">
        <ele>32.8</ele>
        <time>2015-01-11T08:38:59Z</time>
      </trkpt>
      <trkpt lat="47.19384" lon="-1.44388">
        <ele>32.8</ele>
        <time>2015-01-11T08:39:03Z</time>
      </trkpt>
      <trkpt lat="47.19373" lon="-1.44369">
        <ele>32.8</ele>
        <time>2015-01-11T08:39:07Z</time>
      </trkpt>
      <trkpt lat="47.1936" lon="-1.44356">
        <ele>32.9</ele>
        <time>2015-01-11T08:39:11Z</time>
      </trkpt>
      <trkpt lat="47.19352" lon="-1.44339">
        <ele>33.2</ele>
        <time>2015-01-11T08:39:15Z</time>
      </trkpt>
      <trkpt lat="47.19343" lon="-1.4432">
        <ele>33.3</ele>
        <time>2015-01-11T08:39:18Z</time>
      </trkpt>
      <trkpt lat="47.19333" lon="-1.44305">
        <ele>33.4</ele>
        <time>2015-01-11T08:39:21Z</time>
      </trkpt>
      <trkpt lat="47.19324" lon="-1.44288">
        <ele>33.4</ele>
        <time>2015-01-11T08:39:24Z</time>
      </trkpt>
      <trkpt lat="47.19313" lon="-1.44268">
        <ele>33.5</ele>
        <time>2015-01-11T08:39:28Z</time>
      </trkpt>
      <trkpt lat="47.19304" lon="-1.44253">
        <ele>33.6</ele>
        <time>2015-01-11T08:39:31Z</time>
      </trkpt>
      <trkpt lat="47.19296" lon="-1.44236">
        <ele>33.7</ele>
        <time>2015-01-11T08:39:34Z</time>
      </trkpt>
      <trkpt lat="47.19287" lon="-1.4422">
        <ele>33.7</ele>
        <time>2015-01-11T08:39:37Z</time>
      </trkpt>
      <trkpt lat="47.19276" lon="-1.44204">
        <ele>33.7</ele>
        <time>2015-01-11T08:39:40Z</time>
      </trkpt>
      <trkpt lat="47.19267" lon="-1.44188">
        <ele>33.8</ele>
        <time>2015-01-11T08:39:43Z</time>
      </trkpt>
      <trkpt lat="47.19256" lon="-1.44173">
        <ele>33.8</ele>
        <time>2015-01-11T08:39:46Z</time>
      </trkpt>
      <trkpt lat="47.19244" lon="-1.44159">
        <ele>33.9</ele>
        <time>2015-01-11T08:39:49Z</time>
      </trkpt>
      <trkpt lat="47.19233" lon="-1.44145">
        <ele>33.9</ele>
        <time>2015-01-11T08:39:52Z</time>
      </trkpt>
      <trkpt lat="47.19221" lon="-1.44132">
        <ele>33.9</ele>
        <time>2015-01-11T08:39:55Z</time>
      </trkpt>
      <trkpt lat="47.19209" lon="-1.4412">
        <ele>33.9</ele>
        <time>2015-01-11T08:39:58Z</time>
      </trkpt>
      <trkpt lat="47.19198" lon="-1.44108">
        <ele>33.9</ele>
        <time>2015-01-11T08:40:01Z</time>
      </trkpt>
      <trkpt lat="47.19192" lon="-1.44089">
        <ele>34</ele>
        <time>2015-01-11T08:40:04Z</time>
      </trkpt>
      <trkpt lat="47.19185" lon="-1.44072">
        <ele>34.1</ele>
        <time>2015-01-11T08:40:07Z</time>
      </trkpt>
      <trkpt lat="47.19179" lon="-1.44048">
        <ele>34.2</ele>
        <time>2015-01-11T08:40:11Z</time>
      </trkpt>
      <trkpt lat="47.19174" lon="-1.44029">
        <ele>34.2</ele>
        <time>2015-01-11T08:40:14Z</time>
      </trkpt>
      <trkpt lat="47.19168" lon="-1.44004">
        <ele>34.2</ele>
        <time>2015-01-11T08:40:18Z</time>
      </trkpt>
      <trkpt lat="47.19162" lon="-1.43979">
        <ele>34.2</ele>
        <time>2015-01-11T08:40:22Z</time>
      </trkpt>
      <trkpt lat="47.19155" lon="-1.43961">
        <ele>34.3</ele>
        <time>2015-01-11T08:40:25Z</time>
      </trkpt>
      <trkpt lat="47.19148" lon="-1.43939">
        <ele>34.3</ele>
        <time>2015-01-11T08:40:29Z</time>
      </trkpt>
      <trkpt lat="47.19142" lon="-1.4392">
        <ele>34.3</ele>
        <time>2015-01-11T08:40:32Z</time>
      </trkpt>
      <trkpt lat="47.19135" lon="-1.43895">
        <ele>34.5</ele>
        <time>2015-01-11T08:40:36Z</time>
      </trkpt>
      <trkpt lat="47.19131" lon="-1.43871">
        <ele>34.7</ele>
        <time>2015-01-11T08:40:40Z</time>
      </trkpt>
      <trkpt lat="47.19127" lon="-1.43846">
        <ele>35</ele>
        <time>2015-01-11T08:40:44Z</time>
      </trkpt>
      <trkpt lat="47.19121" lon="-1.43826">
        <ele>35.2</ele>
        <time>2015-01-11T08:40:47Z</time>
      </trkpt>
      <trkpt lat="47.19115" lon="-1.43803">
        <ele>35.7</ele>
        <time>2015-01-11T08:40:51Z</time>
      </trkpt>
      <trkpt lat="47.1911" lon="-1.43783">
        <ele>36.6</ele>
        <time>2015-01-11T08:40:55Z</time>
      </trkpt>
      <trkpt lat="47.19105" lon="-1.43763">
        <ele>37.1</ele>
        <time>2015-01-11T08:40:59Z</time>
      </trkpt>
      <trkpt lat="47.19095" lon="-1.43741">
        <ele>37.7</ele>
        <time>2015-01-11T08:41:03Z</time>
      </trkpt>
      <trkpt lat="47.19089" lon="-1.4372">
        <ele>38</ele>
        <time>2015-01-11T08:41:07Z</time>
      </trkpt>
      <trkpt lat="47.19081" lon="-1.437">
        <ele>38.2</ele>
        <time>2015-01-11T08:41:11Z</time>
      </trkpt>
      <trkpt lat="47.19072" lon="-1.43678">
        <ele>38.6</ele>
        <time>2015-01-11T08:41:15Z</time>
      </trkpt>
      <trkpt lat="47.19064" lon="-1.43657">
        <ele>39.5</ele>
        <time>2015-01-11T08:41:19Z</time>
      </trkpt>
      <trkpt lat="47.19056" lon="-1.43639">
        <ele>40.1</ele>
        <time>2015-01-11T08:41:23Z</time>
      </trkpt>
      <trkpt lat="47.1905" lon="-1.43621">
        <ele>40.4</ele>
        <time>2015-01-11T08:41:27Z</time>
      </trkpt>
      <trkpt lat="47.19042" lon="-1.43601">
        <ele>40.8</ele>
        <time>2015-01-11T08:41:32Z</time>
      </trkpt>
      <trkpt lat="47.19037" lon="-1.43589">
        <ele>41.1</ele>
        <time>2015-01-11T08:41:35Z</time>
      </trkpt>
      <trkpt lat="47.19029" lon="-1.4357">
        <ele>41.5</ele>
        <time>2015-01-11T08:41:39Z</time>
      </trkpt>
      <trkpt lat="47.19027" lon="-1.43549">
        <ele>42.5</ele>
        <time>2015-01-11T08:41:43Z</time>
      </trkpt>
      <trkpt lat="47.19039" lon="-1.43535">
        <ele>43.4</ele>
        <time>2015-01-11T08:41:47Z</time>
      </trkpt>
      <trkpt lat="47.19054" lon="-1.43537">
        <ele>43.7</ele>
        <time>2015-01-11T08:41:50Z</time>
      </trkpt>
      <trkpt lat="47.19064" lon="-1.43535">
        <ele>44.2</ele>
        <time>2015-01-11T08:41:53Z</time>
      </trkpt>
      <trkpt lat="47.19076" lon="-1.43533">
        <ele>44.8</ele>
        <time>2015-01-11T08:41:56Z</time>
      </trkpt>
      <trkpt lat="47.19088" lon="-1.4353">
        <ele>44.9</ele>
        <time>2015-01-11T08:41:59Z</time>
      </trkpt>
      <trkpt lat="47.19104" lon="-1.43528">
        <ele>45.1</ele>
        <time>2015-01-11T08:42:03Z</time>
      </trkpt>
      <trkpt lat="47.19115" lon="-1.43526">
        <ele>45.2</ele>
        <time>2015-01-11T08:42:06Z</time>
      </trkpt>
      <trkpt lat="47.19126" lon="-1.43524">
        <ele>46</ele>
        <time>2015-01-11T08:42:09Z</time>
      </trkpt>
      <trkpt lat="47.19137" lon="-1.43522">
        <ele>46.6</ele>
        <time>2015-01-11T08:42:12Z</time>
      </trkpt>
      <trkpt lat="47.1915" lon="-1.43518">
        <ele>47.1</ele>
        <time>2015-01-11T08:42:15Z</time>
      </trkpt>
      <trkpt lat="47.19165" lon="-1.43513">
        <ele>47.1</ele>
        <time>2015-01-11T08:42:18Z</time>
      </trkpt>
      <trkpt lat="47.19182" lon="-1.43507">
        <ele>47.3</ele>
        <time>2015-01-11T08:42:22Z</time>
      </trkpt>
      <trkpt lat="47.19197" lon="-1.43499">
        <ele>47.6</ele>
        <time>2015-01-11T08:42:26Z</time>
      </trkpt>
      <trkpt lat="47.19206" lon="-1.43495">
        <ele>47.8</ele>
        <time>2015-01-11T08:42:28Z</time>
      </trkpt>
      <trkpt lat="47.19216" lon="-1.43491">
        <ele>47.9</ele>
        <time>2015-01-11T08:42:30Z</time>
      </trkpt>
      <trkpt lat="47.19225" lon="-1.43488">
        <ele>48.1</ele>
        <time>2015-01-11T08:42:32Z</time>
      </trkpt>
      <trkpt lat="47.19238" lon="-1.4348">
        <ele>48.1</ele>
        <time>2015-01-11T08:42:35Z</time>
      </trkpt>
      <trkpt lat="47.19243" lon="-1.43477">
        <ele>48.3</ele>
        <time>2015-01-11T08:42:36Z</time>
      </trkpt>
      <trkpt lat="47.19248" lon="-1.43474">
        <ele>48.3</ele>
        <time>2015-01-11T08:42:37Z</time>
      </trkpt>
      <trkpt lat="47.19253" lon="-1.4347">
        <ele>48.3</ele>
        <time>2015-01-11T08:42:38Z</time>
      </trkpt>
      <trkpt lat="47.19257" lon="-1.43461">
        <ele>48.3</ele>
        <time>2015-01-11T08:42:40Z</time>
      </trkpt>
      <trkpt lat="47.19257" lon="-1.43437">
        <ele>48.3</ele>
        <time>2015-01-11T08:42:44Z</time>
      </trkpt>
      <trkpt lat="47.1925" lon="-1.43418">
        <ele>48.3</ele>
        <time>2015-01-11T08:42:47Z</time>
      </trkpt>
      <trkpt lat="47.19243" lon="-1.43399">
        <ele>48.3</ele>
        <time>2015-01-11T08:42:50Z</time>
      </trkpt>
      <trkpt lat="47.19236" lon="-1.43375">
        <ele>48.2</ele>
        <time>2015-01-11T08:42:53Z</time>
      </trkpt>
      <trkpt lat="47.19229" lon="-1.43355">
        <ele>48</ele>
        <time>2015-01-11T08:42:56Z</time>
      </trkpt>
      <trkpt lat="47.19224" lon="-1.43337">
        <ele>47.8</ele>
        <time>2015-01-11T08:42:59Z</time>
      </trkpt>
      <trkpt lat="47.19218" lon="-1.43314">
        <ele>47.6</ele>
        <time>2015-01-11T08:43:03Z</time>
      </trkpt>
      <trkpt lat="47.19208" lon="-1.43295">
        <ele>47.4</ele>
        <time>2015-01-11T08:43:06Z</time>
      </trkpt>
      <trkpt lat="47.192" lon="-1.43272">
        <ele>47.4</ele>
        <time>2015-01-11T08:43:10Z</time>
      </trkpt>
      <trkpt lat="47.19191" lon="-1.43254">
        <ele>47.5</ele>
        <time>2015-01-11T08:43:13Z</time>
      </trkpt>
      <trkpt lat="47.19182" lon="-1.43231">
        <ele>47.6</ele>
        <time>2015-01-11T08:43:17Z</time>
      </trkpt>
      <trkpt lat="47.19173" lon="-1.43209">
        <ele>47.6</ele>
        <time>2015-01-11T08:43:21Z</time>
      </trkpt>
      <trkpt lat="47.19166" lon="-1.43191">
        <ele>47.6</ele>
        <time>2015-01-11T08:43:24Z</time>
      </trkpt>
      <trkpt lat="47.19158" lon="-1.4317">
        <ele>47.6</ele>
        <time>2015-01-11T08:43:28Z</time>
      </trkpt>
      <trkpt lat="47.1915" lon="-1.43154">
        <ele>47.6</ele>
        <time>2015-01-11T08:43:31Z</time>
      </trkpt>
      <trkpt lat="47.19142" lon="-1.43137">
        <ele>47.6</ele>
        <time>2015-01-11T08:43:34Z</time>
      </trkpt>
      <trkpt lat="47.19134" lon="-1.43116">
        <ele>47.6</ele>
        <time>2015-01-11T08:43:38Z</time>
      </trkpt>
      <trkpt lat="47.19126" lon="-1.43093">
        <ele>47.6</ele>
        <time>2015-01-11T08:43:42Z</time>
      </trkpt>
      <trkpt lat="47.19117" lon="-1.43075">
        <ele>48</ele>
        <time>2015-01-11T08:43:46Z</time>
      </trkpt>
      <trkpt lat="47.19108" lon="-1.43054">
        <ele>48.3</ele>
        <time>2015-01-11T08:43:50Z</time>
      </trkpt>
      <trkpt lat="47.19116" lon="-1.43032">
        <ele>48.6</ele>
        <time>2015-01-11T08:43:54Z</time>
      </trkpt>
      <trkpt lat="47.1913" lon="-1.43018">
        <ele>49</ele>
        <time>2015-01-11T08:43:58Z</time>
      </trkpt>
      <trkpt lat="47.19144" lon="-1.43008">
        <ele>49.2</ele>
        <time>2015-01-11T08:44:01Z</time>
      </trkpt>
      <trkpt lat="47.19153" lon="-1.43001">
        <ele>49.6</ele>
        <time>2015-01-11T08:44:03Z</time>
      </trkpt>
      <trkpt lat="47.19169" lon="-1.42986">
        <ele>50.4</ele>
        <time>2015-01-11T08:44:07Z</time>
      </trkpt>
      <trkpt lat="47.19184" lon="-1.42974">
        <ele>50.9</ele>
        <time>2015-01-11T08:44:11Z</time>
      </trkpt>
      <trkpt lat="47.192" lon="-1.42961">
        <ele>51.4</ele>
        <time>2015-01-11T08:44:15Z</time>
      </trkpt>
      <trkpt lat="47.19212" lon="-1.42951">
        <ele>52</ele>
        <time>2015-01-11T08:44:18Z</time>
      </trkpt>
      <trkpt lat="47.19225" lon="-1.4294">
        <ele>52.5</ele>
        <time>2015-01-11T08:44:21Z</time>
      </trkpt>
      <trkpt lat="47.19239" lon="-1.42926">
        <ele>52.8</ele>
        <time>2015-01-11T08:44:24Z</time>
      </trkpt>
      <trkpt lat="47.19253" lon="-1.42916">
        <ele>52.9</ele>
        <time>2015-01-11T08:44:27Z</time>
      </trkpt>
      <trkpt lat="47.19263" lon="-1.42908">
        <ele>52.9</ele>
        <time>2015-01-11T08:44:29Z</time>
      </trkpt>
      <trkpt lat="47.19275" lon="-1.42894">
        <ele>52.9</ele>
        <time>2015-01-11T08:44:32Z</time>
      </trkpt>
      <trkpt lat="47.19288" lon="-1.42884">
        <ele>52.9</ele>
        <time>2015-01-11T08:44:35Z</time>
      </trkpt>
      <trkpt lat="47.19306" lon="-1.42874">
        <ele>53</ele>
        <time>2015-01-11T08:44:39Z</time>
      </trkpt>
      <trkpt lat="47.19325" lon="-1.4286">
        <ele>53</ele>
        <time>2015-01-11T08:44:43Z</time>
      </trkpt>
      <trkpt lat="47.19335" lon="-1.42853">
        <ele>53</ele>
        <time>2015-01-11T08:44:45Z</time>
      </trkpt>
      <trkpt lat="47.19349" lon="-1.42845">
        <ele>53</ele>
        <time>2015-01-11T08:44:49Z</time>
      </trkpt>
      <trkpt lat="47.19362" lon="-1.42839">
        <ele>53</ele>
        <time>2015-01-11T08:44:52Z</time>
      </trkpt>
      <trkpt lat="47.19375" lon="-1.42837">
        <ele>52.9</ele>
        <time>2015-01-11T08:44:55Z</time>
      </trkpt>
      <trkpt lat="47.19383" lon="-1.42834">
        <ele>52.2</ele>
        <time>2015-01-11T08:44:57Z</time>
      </trkpt>
      <trkpt lat="47.19388" lon="-1.42827">
        <ele>52.2</ele>
        <time>2015-01-11T08:44:59Z</time>
      </trkpt>
      <trkpt lat="47.19388" lon="-1.42805">
        <ele>51.9</ele>
        <time>2015-01-11T08:45:02Z</time>
      </trkpt>
      <trkpt lat="47.19388" lon="-1.42785">
        <ele>51.5</ele>
        <time>2015-01-11T08:45:05Z</time>
      </trkpt>
      <trkpt lat="47.19385" lon="-1.42765">
        <ele>51</ele>
        <time>2015-01-11T08:45:08Z</time>
      </trkpt>
      <trkpt lat="47.19381" lon="-1.42742">
        <ele>50.6</ele>
        <time>2015-01-11T08:45:12Z</time>
      </trkpt>
      <trkpt lat="47.19378" lon="-1.4272">
        <ele>48.7</ele>
        <time>2015-01-11T08:45:16Z</time>
      </trkpt>
      <trkpt lat="47.19375" lon="-1.42698">
        <ele>47.7</ele>
        <time>2015-01-11T08:45:20Z</time>
      </trkpt>
      <trkpt lat="47.19372" lon="-1.42679">
        <ele>46.8</ele>
        <time>2015-01-11T08:45:24Z</time>
      </trkpt>
      <trkpt lat="47.19369" lon="-1.42656">
        <ele>45.6</ele>
        <time>2015-01-11T08:45:29Z</time>
      </trkpt>
      <trkpt lat="47.19367" lon="-1.42633">
        <ele>45.5</ele>
        <time>2015-01-11T08:45:34Z</time>
      </trkpt>
      <trkpt lat="47.19366" lon="-1.42624">
        <ele>45.1</ele>
        <time>2015-01-11T08:45:36Z</time>
      </trkpt>
      <trkpt lat="47.19366" lon="-1.42615">
        <ele>45.1</ele>
        <time>2015-01-11T08:45:38Z</time>
      </trkpt>
      <trkpt lat="47.19367" lon="-1.42606">
        <ele>45.1</ele>
        <time>2015-01-11T08:45:40Z</time>
      </trkpt>
      <trkpt lat="47.19382" lon="-1.42594">
        <ele>45</ele>
        <time>2015-01-11T08:45:45Z</time>
      </trkpt>
      <trkpt lat="47.19398" lon="-1.42592">
        <ele>44.9</ele>
        <time>2015-01-11T08:45:50Z</time>
      </trkpt>
      <trkpt lat="47.19415" lon="-1.42588">
        <ele>44.8</ele>
        <time>2015-01-11T08:45:55Z</time>
      </trkpt>
      <trkpt lat="47.19422" lon="-1.42586">
        <ele>44.6</ele>
        <time>2015-01-11T08:45:57Z</time>
      </trkpt>
      <trkpt lat="47.19433" lon="-1.42581">
        <ele>44.6</ele>
        <time>2015-01-11T08:46:00Z</time>
      </trkpt>
      <trkpt lat="47.19443" lon="-1.42577">
        <ele>44.6</ele>
        <time>2015-01-11T08:46:03Z</time>
      </trkpt>
      <trkpt lat="47.19454" lon="-1.42574">
        <ele>44.6</ele>
        <time>2015-01-11T08:46:06Z</time>
      </trkpt>
      <trkpt lat="47.1946" lon="-1.42571">
        <ele>44.6</ele>
        <time>2015-01-11T08:46:08Z</time>
      </trkpt>
      <trkpt lat="47.1947" lon="-1.42567">
        <ele>44.6</ele>
        <time>2015-01-11T08:46:11Z</time>
      </trkpt>
      <trkpt lat="47.19485" lon="-1.42562">
        <ele>44.3</ele>
        <time>2015-01-11T08:46:16Z</time>
      </trkpt>
      <trkpt lat="47.19494" lon="-1.42559">
        <ele>44.1</ele>
        <time>2015-01-11T08:46:19Z</time>
      </trkpt>
      <trkpt lat="47.19509" lon="-1.42554">
        <ele>42.8</ele>
        <time>2015-01-11T08:46:24Z</time>
      </trkpt>
      <trkpt lat="47.19515" lon="-1.42553">
        <ele>42.4</ele>
        <time>2015-01-11T08:46:26Z</time>
      </trkpt>
      <trkpt lat="47.19522" lon="-1.4255">
        <ele>42.4</ele>
        <time>2015-01-11T08:46:29Z</time>
      </trkpt>
      <trkpt lat="47.19532" lon="-1.42548">
        <ele>42</ele>
        <time>2015-01-11T08:46:33Z</time>
      </trkpt>
      <trkpt lat="47.19543" lon="-1.42545">
        <ele>42</ele>
        <time>2015-01-11T08:46:37Z</time>
      </trkpt>
      <trkpt lat="47.19549" lon="-1.42544">
        <ele>41.6</ele>
        <time>2015-01-11T08:46:39Z</time>
      </trkpt>
      <trkpt lat="47.19556" lon="-1.42542">
        <ele>41.6</ele>
        <time>2015-01-11T08:46:41Z</time>
      </trkpt>
      <trkpt lat="47.19562" lon="-1.42539">
        <ele>41.4</ele>
        <time>2015-01-11T08:46:43Z</time>
      </trkpt>
      <trkpt lat="47.19568" lon="-1.42536">
        <ele>41.4</ele>
        <time>2015-01-11T08:46:45Z</time>
      </trkpt>
      <trkpt lat="47.19584" lon="-1.42525">
        <ele>41.3</ele>
        <time>2015-01-11T08:46:50Z</time>
      </trkpt>
      <trkpt lat="47.19594" lon="-1.42518">
        <ele>41</ele>
        <time>2015-01-11T08:46:54Z</time>
      </trkpt>
      <trkpt lat="47.19598" lon="-1.42514">
        <ele>40.8</ele>
        <time>2015-01-11T08:46:56Z</time>
      </trkpt>
      <trkpt lat="47.19602" lon="-1.42509">
        <ele>40.8</ele>
        <time>2015-01-11T08:46:58Z</time>
      </trkpt>
      <trkpt lat="47.19602" lon="-1.425">
        <ele>40.7</ele>
        <time>2015-01-11T08:47:01Z</time>
      </trkpt>
      <trkpt lat="47.19598" lon="-1.42495">
        <ele>40.7</ele>
        <time>2015-01-11T08:47:03Z</time>
      </trkpt>
      <trkpt lat="47.19593" lon="-1.4249">
        <ele>40.5</ele>
        <time>2015-01-11T08:47:06Z</time>
      </trkpt>
      <trkpt lat="47.19584" lon="-1.42483">
        <ele>40.2</ele>
        <time>2015-01-11T08:47:12Z</time>
      </trkpt>
      <trkpt lat="47.19595" lon="-1.42498">
        <ele>40</ele>
        <time>2015-01-11T08:47:24Z</time>
      </trkpt>
      <trkpt lat="47.19602" lon="-1.42505">
        <ele>40</ele>
        <time>2015-01-11T08:47:27Z</time>
      </trkpt>
      <trkpt lat="47.19611" lon="-1.42515">
        <ele>40</ele>
        <time>2015-01-11T08:47:30Z</time>
      </trkpt>
      <trkpt lat="47.19618" lon="-1.42524">
        <ele>40</ele>
        <time>2015-01-11T08:47:33Z</time>
      </trkpt>
      <trkpt lat="47.1963" lon="-1.42539">
        <ele>40</ele>
        <time>2015-01-11T08:47:38Z</time>
      </trkpt>
      <trkpt lat="47.19642" lon="-1.42554">
        <ele>40.3</ele>
        <time>2015-01-11T08:47:43Z</time>
      </trkpt>
      <trkpt lat="47.19654" lon="-1.42569">
        <ele>40.4</ele>
        <time>2015-01-11T08:47:47Z</time>
      </trkpt>
      <trkpt lat="47.19665" lon="-1.42586">
        <ele>40.6</ele>
        <time>2015-01-11T08:47:51Z</time>
      </trkpt>
      <trkpt lat="47.19676" lon="-1.42598">
        <ele>40.6</ele>
        <time>2015-01-11T08:47:54Z</time>
      </trkpt>
      <trkpt lat="47.19689" lon="-1.42615">
        <ele>40.7</ele>
        <time>2015-01-11T08:47:58Z</time>
      </trkpt>
      <trkpt lat="47.197" lon="-1.42626">
        <ele>40.8</ele>
        <time>2015-01-11T08:48:01Z</time>
      </trkpt>
      <trkpt lat="47.19713" lon="-1.42636">
        <ele>40.8</ele>
        <time>2015-01-11T08:48:04Z</time>
      </trkpt>
      <trkpt lat="47.19725" lon="-1.42646">
        <ele>40.9</ele>
        <time>2015-01-11T08:48:07Z</time>
      </trkpt>
      <trkpt lat="47.19739" lon="-1.42654">
        <ele>41</ele>
        <time>2015-01-11T08:48:10Z</time>
      </trkpt>
      <trkpt lat="47.19749" lon="-1.42658">
        <ele>41</ele>
        <time>2015-01-11T08:48:12Z</time>
      </trkpt>
      <trkpt lat="47.19767" lon="-1.42664">
        <ele>41</ele>
        <time>2015-01-11T08:48:16Z</time>
      </trkpt>
      <trkpt lat="47.19777" lon="-1.42668">
        <ele>41</ele>
        <time>2015-01-11T08:48:18Z</time>
      </trkpt>
      <trkpt lat="47.1979" lon="-1.42674">
        <ele>41</ele>
        <time>2015-01-11T08:48:21Z</time>
      </trkpt>
      <trkpt lat="47.198" lon="-1.42679">
        <ele>40.9</ele>
        <time>2015-01-11T08:48:23Z</time>
      </trkpt>
      <trkpt lat="47.19811" lon="-1.42688">
        <ele>40.7</ele>
        <time>2015-01-11T08:48:26Z</time>
      </trkpt>
      <trkpt lat="47.1982" lon="-1.42694">
        <ele>40.4</ele>
        <time>2015-01-11T08:48:28Z</time>
      </trkpt>
      <trkpt lat="47.19834" lon="-1.42701">
        <ele>39.9</ele>
        <time>2015-01-11T08:48:32Z</time>
      </trkpt>
      <trkpt lat="47.19843" lon="-1.42686">
        <ele>39.6</ele>
        <time>2015-01-11T08:48:36Z</time>
      </trkpt>
      <trkpt lat="47.19843" lon="-1.42661">
        <ele>38.6</ele>
        <time>2015-01-11T08:48:40Z</time>
      </trkpt>
      <trkpt lat="47.19844" lon="-1.42639">
        <ele>38.1</ele>
        <time>2015-01-11T08:48:43Z</time>
      </trkpt>
      <trkpt lat="47.19842" lon="-1.42615">
        <ele>37.4</ele>
        <time>2015-01-11T08:48:47Z</time>
      </trkpt>
      <trkpt lat="47.1984" lon="-1.42594">
        <ele>36.5</ele>
        <time>2015-01-11T08:48:50Z</time>
      </trkpt>
      <trkpt lat="47.19838" lon="-1.42574">
        <ele>35.4</ele>
        <time>2015-01-11T08:48:53Z</time>
      </trkpt>
      <trkpt lat="47.19836" lon="-1.42553">
        <ele>34.7</ele>
        <time>2015-01-11T08:48:56Z</time>
      </trkpt>
      <trkpt lat="47.19833" lon="-1.42533">
        <ele>34</ele>
        <time>2015-01-11T08:48:59Z</time>
      </trkpt>
      <trkpt lat="47.19832" lon="-1.42511">
        <ele>33.9</ele>
        <time>2015-01-11T08:49:02Z</time>
      </trkpt>
      <trkpt lat="47.19828" lon="-1.42488">
        <ele>33.9</ele>
        <time>2015-01-11T08:49:05Z</time>
      </trkpt>
      <trkpt lat="47.19828" lon="-1.42465">
        <ele>33.7</ele>
        <time>2015-01-11T08:49:08Z</time>
      </trkpt>
      <trkpt lat="47.19828" lon="-1.42444">
        <ele>33.6</ele>
        <time>2015-01-11T08:49:11Z</time>
      </trkpt>
      <trkpt lat="47.19825" lon="-1.42422">
        <ele>33.6</ele>
        <time>2015-01-11T08:49:14Z</time>
      </trkpt>
      <trkpt lat="47.19824" lon="-1.42398">
        <ele>33.6</ele>
        <time>2015-01-11T08:49:17Z</time>
      </trkpt>
      <trkpt lat="47.19823" lon="-1.42369">
        <ele>33.6</ele>
        <time>2015-01-11T08:49:20Z</time>
      </trkpt>
      <trkpt lat="47.19821" lon="-1.42348">
        <ele>33.4</ele>
        <time>2015-01-11T08:49:23Z</time>
      </trkpt>
      <trkpt lat="47.1982" lon="-1.42325">
        <ele>33.1</ele>
        <time>2015-01-11T08:49:26Z</time>
      </trkpt>
      <trkpt lat="47.19822" lon="-1.42304">
        <ele>33</ele>
        <time>2015-01-11T08:49:29Z</time>
      </trkpt>
      <trkpt lat="47.19821" lon="-1.42278">
        <ele>33</ele>
        <time>2015-01-11T08:49:32Z</time>
      </trkpt>
      <trkpt lat="47.19823" lon="-1.42251">
        <ele>32.9</ele>
        <time>2015-01-11T08:49:35Z</time>
      </trkpt>
      <trkpt lat="47.19826" lon="-1.42227">
        <ele>32.8</ele>
        <time>2015-01-11T08:49:38Z</time>
      </trkpt>
      <trkpt lat="47.19828" lon="-1.42203">
        <ele>32.8</ele>
        <time>2015-01-11T08:49:41Z</time>
      </trkpt>
      <trkpt lat="47.1983" lon="-1.42182">
        <ele>32.8</ele>
        <time>2015-01-11T08:49:44Z</time>
      </trkpt>
      <trkpt lat="47.19832" lon="-1.42156">
        <ele>32.8</ele>
        <time>2015-01-11T08:49:47Z</time>
      </trkpt>
      <trkpt lat="47.19833" lon="-1.42131">
        <ele>32.8</ele>
        <time>2015-01-11T08:49:50Z</time>
      </trkpt>
      <trkpt lat="47.19836" lon="-1.42109">
        <ele>32.7</ele>
        <time>2015-01-11T08:49:53Z</time>
      </trkpt>
      <trkpt lat="47.1984" lon="-1.42086">
        <ele>32.5</ele>
        <time>2015-01-11T08:49:57Z</time>
      </trkpt>
      <trkpt lat="47.19857" lon="-1.42079">
        <ele>32.2</ele>
        <time>2015-01-11T08:50:01Z</time>
      </trkpt>
      <trkpt lat="47.19862" lon="-1.42082">
        <ele>31.8</ele>
        <time>2015-01-11T08:50:02Z</time>
      </trkpt>
      <trkpt lat="47.19866" lon="-1.42085">
        <ele>31.8</ele>
        <time>2015-01-11T08:50:03Z</time>
      </trkpt>
      <trkpt lat="47.19872" lon="-1.42087">
        <ele>31.8</ele>
        <time>2015-01-11T08:50:04Z</time>
      </trkpt>
      <trkpt lat="47.19879" lon="-1.4209">
        <ele>31.8</ele>
        <time>2015-01-11T08:50:05Z</time>
      </trkpt>
      <trkpt lat="47.19884" lon="-1.42092">
        <ele>31.8</ele>
        <time>2015-01-11T08:50:06Z</time>
      </trkpt>
      <trkpt lat="47.199" lon="-1.42101">
        <ele>31.6</ele>
        <time>2015-01-11T08:50:09Z</time>
      </trkpt>
      <trkpt lat="47.19911" lon="-1.42106">
        <ele>31.5</ele>
        <time>2015-01-11T08:50:11Z</time>
      </trkpt>
      <trkpt lat="47.19923" lon="-1.4211">
        <ele>31.5</ele>
        <time>2015-01-11T08:50:13Z</time>
      </trkpt>
      <trkpt lat="47.19928" lon="-1.42113">
        <ele>30.9</ele>
        <time>2015-01-11T08:50:14Z</time>
      </trkpt>
      <trkpt lat="47.19934" lon="-1.42115">
        <ele>30.9</ele>
        <time>2015-01-11T08:50:15Z</time>
      </trkpt>
      <trkpt lat="47.1994" lon="-1.42116">
        <ele>30.9</ele>
        <time>2015-01-11T08:50:16Z</time>
      </trkpt>
      <trkpt lat="47.19946" lon="-1.42117">
        <ele>30.9</ele>
        <time>2015-01-11T08:50:17Z</time>
      </trkpt>
      <trkpt lat="47.19952" lon="-1.42118">
        <ele>30.9</ele>
        <time>2015-01-11T08:50:18Z</time>
      </trkpt>
      <trkpt lat="47.1997" lon="-1.42117">
        <ele>30.3</ele>
        <time>2015-01-11T08:50:21Z</time>
      </trkpt>
      <trkpt lat="47.19989" lon="-1.42121">
        <ele>29.5</ele>
        <time>2015-01-11T08:50:24Z</time>
      </trkpt>
      <trkpt lat="47.2" lon="-1.42122">
        <ele>28.9</ele>
        <time>2015-01-11T08:50:26Z</time>
      </trkpt>
      <trkpt lat="47.20017" lon="-1.42124">
        <ele>28.6</ele>
        <time>2015-01-11T08:50:29Z</time>
      </trkpt>
      <trkpt lat="47.20035" lon="-1.42129">
        <ele>28.2</ele>
        <time>2015-01-11T08:50:32Z</time>
      </trkpt>
      <trkpt lat="47.20054" lon="-1.42131">
        <ele>27.3</ele>
        <time>2015-01-11T08:50:35Z</time>
      </trkpt>
      <trkpt lat="47.20066" lon="-1.42117">
        <ele>27.1</ele>
        <time>2015-01-11T08:50:38Z</time>
      </trkpt>
      <trkpt lat="47.20071" lon="-1.42093">
        <ele>27</ele>
        <time>2015-01-11T08:50:41Z</time>
      </trkpt>
      <trkpt lat="47.20077" lon="-1.42068">
        <ele>26.6</ele>
        <time>2015-01-11T08:50:44Z</time>
      </trkpt>
      <trkpt lat="47.20083" lon="-1.42049">
        <ele>26.2</ele>
        <time>2015-01-11T08:50:46Z</time>
      </trkpt>
      <trkpt lat="47.20089" lon="-1.42024">
        <ele>25.7</ele>
        <time>2015-01-11T08:50:49Z</time>
      </trkpt>
      <trkpt lat="47.20094" lon="-1.41997">
        <ele>25.4</ele>
        <time>2015-01-11T08:50:52Z</time>
      </trkpt>
      <trkpt lat="47.20099" lon="-1.41968">
        <ele>24.5</ele>
        <time>2015-01-11T08:50:55Z</time>
      </trkpt>
      <trkpt lat="47.20105" lon="-1.41943">
        <ele>23.4</ele>
        <time>2015-01-11T08:50:58Z</time>
      </trkpt>
      <trkpt lat="47.20108" lon="-1.41923">
        <ele>23.1</ele>
        <time>2015-01-11T08:51:00Z</time>
      </trkpt>
      <trkpt lat="47.20111" lon="-1.41896">
        <ele>22.9</ele>
        <time>2015-01-11T08:51:03Z</time>
      </trkpt>
      <trkpt lat="47.20116" lon="-1.41871">
        <ele>22.7</ele>
        <time>2015-01-11T08:51:06Z</time>
      </trkpt>
      <trkpt lat="47.20119" lon="-1.41846">
        <ele>22.5</ele>
        <time>2015-01-11T08:51:09Z</time>
      </trkpt>
      <trkpt lat="47.20123" lon="-1.41821">
        <ele>22.4</ele>
        <time>2015-01-11T08:51:12Z</time>
      </trkpt>
      <trkpt lat="47.20127" lon="-1.41794">
        <ele>22.2</ele>
        <time>2015-01-11T08:51:15Z</time>
      </trkpt>
      <trkpt lat="47.20129" lon="-1.4177">
        <ele>21.2</ele>
        <time>2015-01-11T08:51:18Z</time>
      </trkpt>
      <trkpt lat="47.20132" lon="-1.41745">
        <ele>20.8</ele>
        <time>2015-01-11T08:51:21Z</time>
      </trkpt>
      <trkpt lat="47.20137" lon="-1.41719">
        <ele>20.6</ele>
        <time>2015-01-11T08:51:24Z</time>
      </trkpt>
      <trkpt lat="47.20142" lon="-1.41694">
        <ele>20.4</ele>
        <time>2015-01-11T08:51:27Z</time>
      </trkpt>
      <trkpt lat="47.20142" lon="-1.41671">
        <ele>20.2</ele>
        <time>2015-01-11T08:51:30Z</time>
      </trkpt>
      <trkpt lat="47.20145" lon="-1.41647">
        <ele>20</ele>
        <time>2015-01-11T08:51:33Z</time>
      </trkpt>
      <trkpt lat="47.20147" lon="-1.41624">
        <ele>19.8</ele>
        <time>2015-01-11T08:51:36Z</time>
      </trkpt>
      <trkpt lat="47.20151" lon="-1.41599">
        <ele>19.7</ele>
        <time>2015-01-11T08:51:39Z</time>
      </trkpt>
      <trkpt lat="47.20154" lon="-1.41572">
        <ele>19.6</ele>
        <time>2015-01-11T08:51:42Z</time>
      </trkpt>
      <trkpt lat="47.20157" lon="-1.41546">
        <ele>19.5</ele>
        <time>2015-01-11T08:51:45Z</time>
      </trkpt>
      <trkpt lat="47.20159" lon="-1.4152">
        <ele>19.5</ele>
        <time>2015-01-11T08:51:48Z</time>
      </trkpt>
      <trkpt lat="47.2016" lon="-1.415">
        <ele>19.2</ele>
        <time>2015-01-11T08:51:50Z</time>
      </trkpt>
      <trkpt lat="47.20158" lon="-1.41471">
        <ele>18.7</ele>
        <time>2015-01-11T08:51:53Z</time>
      </trkpt>
      <trkpt lat="47.20157" lon="-1.41445">
        <ele>18.4</ele>
        <time>2015-01-11T08:51:56Z</time>
      </trkpt>
      <trkpt lat="47.20162" lon="-1.41428">
        <ele>17.6</ele>
        <time>2015-01-11T08:52:00Z</time>
      </trkpt>
      <trkpt lat="47.20163" lon="-1.4141">
        <ele>17.2</ele>
        <time>2015-01-11T08:52:04Z</time>
      </trkpt>
      <trkpt lat="47.2017" lon="-1.4139">
        <ele>16.9</ele>
        <time>2015-01-11T08:52:08Z</time>
      </trkpt>
      <trkpt lat="47.20171" lon="-1.41369">
        <ele>16.5</ele>
        <time>2015-01-11T08:52:12Z</time>
      </trkpt>
      <trkpt lat="47.20173" lon="-1.41347">
        <ele>15</ele>
        <time>2015-01-11T08:52:15Z</time>
      </trkpt>
      <trkpt lat="47.20175" lon="-1.41328">
        <ele>13.9</ele>
        <time>2015-01-11T08:52:18Z</time>
      </trkpt>
      <trkpt lat="47.20177" lon="-1.41304">
        <ele>12.6</ele>
        <time>2015-01-11T08:52:21Z</time>
      </trkpt>
      <trkpt lat="47.2017" lon="-1.41283">
        <ele>11.9</ele>
        <time>2015-01-11T08:52:25Z</time>
      </trkpt>
      <trkpt lat="47.20156" lon="-1.41272">
        <ele>10.4</ele>
        <time>2015-01-11T08:52:29Z</time>
      </trkpt>
      <trkpt lat="47.20145" lon="-1.41256">
        <ele>9.4</ele>
        <time>2015-01-11T08:52:33Z</time>
      </trkpt>
      <trkpt lat="47.20147" lon="-1.41236">
        <ele>9.4</ele>
        <time>2015-01-11T08:52:36Z</time>
      </trkpt>
      <trkpt lat="47.2015" lon="-1.41216">
        <ele>9.3</ele>
        <time>2015-01-11T08:52:39Z</time>
      </trkpt>
      <trkpt lat="47.20155" lon="-1.41196">
        <ele>9.3</ele>
        <time>2015-01-11T08:52:42Z</time>
      </trkpt>
      <trkpt lat="47.2016" lon="-1.41171">
        <ele>9.3</ele>
        <time>2015-01-11T08:52:46Z</time>
      </trkpt>
      <trkpt lat="47.20157" lon="-1.41148">
        <ele>9.3</ele>
        <time>2015-01-11T08:52:49Z</time>
      </trkpt>
      <trkpt lat="47.20154" lon="-1.41124">
        <ele>9.1</ele>
        <time>2015-01-11T08:52:52Z</time>
      </trkpt>
      <trkpt lat="47.20153" lon="-1.41098">
        <ele>9.1</ele>
        <time>2015-01-11T08:52:55Z</time>
      </trkpt>
      <trkpt lat="47.20151" lon="-1.41072">
        <ele>8.9</ele>
        <time>2015-01-11T08:52:58Z</time>
      </trkpt>
      <trkpt lat="47.20154" lon="-1.41044">
        <ele>8.8</ele>
        <time>2015-01-11T08:53:01Z</time>
      </trkpt>
      <trkpt lat="47.20158" lon="-1.41019">
        <ele>8.7</ele>
        <time>2015-01-11T08:53:04Z</time>
      </trkpt>
      <trkpt lat="47.20161" lon="-1.40992">
        <ele>8.4</ele>
        <time>2015-01-11T08:53:07Z</time>
      </trkpt>
      <trkpt lat="47.20162" lon="-1.40963">
        <ele>8.3</ele>
        <time>2015-01-11T08:53:10Z</time>
      </trkpt>
      <trkpt lat="47.20157" lon="-1.40944">
        <ele>8.3</ele>
        <time>2015-01-11T08:53:12Z</time>
      </trkpt>
      <trkpt lat="47.20152" lon="-1.4092">
        <ele>8.3</ele>
        <time>2015-01-11T08:53:15Z</time>
      </trkpt>
      <trkpt lat="47.20142" lon="-1.40903">
        <ele>8.3</ele>
        <time>2015-01-11T08:53:18Z</time>
      </trkpt>
      <trkpt lat="47.20133" lon="-1.40883">
        <ele>8.2</ele>
        <time>2015-01-11T08:53:22Z</time>
      </trkpt>
      <trkpt lat="47.20123" lon="-1.40865">
        <ele>8.1</ele>
        <time>2015-01-11T08:53:25Z</time>
      </trkpt>
      <trkpt lat="47.20119" lon="-1.40843">
        <ele>7.2</ele>
        <time>2015-01-11T08:53:29Z</time>
      </trkpt>
      <trkpt lat="47.20113" lon="-1.40818">
        <ele>5.6</ele>
        <time>2015-01-11T08:53:33Z</time>
      </trkpt>
      <trkpt lat="47.20111" lon="-1.40794">
        <ele>4.9</ele>
        <time>2015-01-11T08:53:37Z</time>
      </trkpt>
      <trkpt lat="47.20107" lon="-1.40771">
        <ele>4.5</ele>
        <time>2015-01-11T08:53:41Z</time>
      </trkpt>
      <trkpt lat="47.20104" lon="-1.40749">
        <ele>4.2</ele>
        <time>2015-01-11T08:53:45Z</time>
      </trkpt>
      <trkpt lat="47.20103" lon="-1.40725">
        <ele>4.1</ele>
        <time>2015-01-11T08:53:49Z</time>
      </trkpt>
      <trkpt lat="47.201" lon="-1.40704">
        <ele>4.1</ele>
        <time>2015-01-11T08:53:53Z</time>
      </trkpt>
      <trkpt lat="47.20096" lon="-1.40689">
        <ele>4.1</ele>
        <time>2015-01-11T08:53:57Z</time>
      </trkpt>
      <trkpt lat="47.20091" lon="-1.40687">
        <ele>4</ele>
        <time>2015-01-11T08:54:01Z</time>
      </trkpt>
      <trkpt lat="47.20082" lon="-1.40697">
        <ele>3.9</ele>
        <time>2015-01-11T08:54:05Z</time>
      </trkpt>
      <trkpt lat="47.2007" lon="-1.40708">
        <ele>4</ele>
        <time>2015-01-11T08:54:09Z</time>
      </trkpt>
      <trkpt lat="47.20062" lon="-1.40719">
        <ele>4.1</ele>
        <time>2015-01-11T08:54:12Z</time>
      </trkpt>
      <trkpt lat="47.2005" lon="-1.40733">
        <ele>4.3</ele>
        <time>2015-01-11T08:54:17Z</time>
      </trkpt>
      <trkpt lat="47.20039" lon="-1.40745">
        <ele>4.5</ele>
        <time>2015-01-11T08:54:21Z</time>
      </trkpt>
      <trkpt lat="47.20029" lon="-1.40758">
        <ele>4.7</ele>
        <time>2015-01-11T08:54:25Z</time>
      </trkpt>
      <trkpt lat="47.20018" lon="-1.40772">
        <ele>4.8</ele>
        <time>2015-01-11T08:54:29Z</time>
      </trkpt>
      <trkpt lat="47.20008" lon="-1.40785">
        <ele>5.1</ele>
        <time>2015-01-11T08:54:33Z</time>
      </trkpt>
      <trkpt lat="47.19993" lon="-1.40798">
        <ele>5.4</ele>
        <time>2015-01-11T08:54:37Z</time>
      </trkpt>
      <trkpt lat="47.1998" lon="-1.40813">
        <ele>5.9</ele>
        <time>2015-01-11T08:54:41Z</time>
      </trkpt>
      <trkpt lat="47.1997" lon="-1.40828">
        <ele>6.1</ele>
        <time>2015-01-11T08:54:45Z</time>
      </trkpt>
      <trkpt lat="47.19959" lon="-1.4084">
        <ele>6.2</ele>
        <time>2015-01-11T08:54:48Z</time>
      </trkpt>
      <trkpt lat="47.19946" lon="-1.40855">
        <ele>6.4</ele>
        <time>2015-01-11T08:54:52Z</time>
      </trkpt>
      <trkpt lat="47.19934" lon="-1.40867">
        <ele>7</ele>
        <time>2015-01-11T08:54:56Z</time>
      </trkpt>
      <trkpt lat="47.19922" lon="-1.4088">
        <ele>7.3</ele>
        <time>2015-01-11T08:55:00Z</time>
      </trkpt>
      <trkpt lat="47.19911" lon="-1.40892">
        <ele>7.8</ele>
        <time>2015-01-11T08:55:04Z</time>
      </trkpt>
      <trkpt lat="47.19898" lon="-1.40908">
        <ele>8.2</ele>
        <time>2015-01-11T08:55:09Z</time>
      </trkpt>
      <trkpt lat="47.19887" lon="-1.40923">
        <ele>8.4</ele>
        <time>2015-01-11T08:55:13Z</time>
      </trkpt>
      <trkpt lat="47.19874" lon="-1.40938">
        <ele>8.7</ele>
        <time>2015-01-11T08:55:17Z</time>
      </trkpt>
      <trkpt lat="47.19863" lon="-1.4095">
        <ele>9</ele>
        <time>2015-01-11T08:55:20Z</time>
      </trkpt>
      <trkpt lat="47.19851" lon="-1.40967">
        <ele>9.2</ele>
        <time>2015-01-11T08:55:24Z</time>
      </trkpt>
      <trkpt lat="47.19838" lon="-1.40982">
        <ele>9.4</ele>
        <time>2015-01-11T08:55:28Z</time>
      </trkpt>
      <trkpt lat="47.19828" lon="-1.40997">
        <ele>9.5</ele>
        <time>2015-01-11T08:55:32Z</time>
      </trkpt>
      <trkpt lat="47.19816" lon="-1.41012">
        <ele>9.6</ele>
        <time>2015-01-11T08:55:36Z</time>
      </trkpt>
      <trkpt lat="47.19803" lon="-1.41026">
        <ele>9.9</ele>
        <time>2015-01-11T08:55:40Z</time>
      </trkpt>
      <trkpt lat="47.1979" lon="-1.41043">
        <ele>10.7</ele>
        <time>2015-01-11T08:55:45Z</time>
      </trkpt>
      <trkpt lat="47.19779" lon="-1.41054">
        <ele>10.9</ele>
        <time>2015-01-11T08:55:48Z</time>
      </trkpt>
      <trkpt lat="47.19765" lon="-1.41071">
        <ele>11.1</ele>
        <time>2015-01-11T08:55:52Z</time>
      </trkpt>
      <trkpt lat="47.19753" lon="-1.41082">
        <ele>11.3</ele>
        <time>2015-01-11T08:55:56Z</time>
      </trkpt>
      <trkpt lat="47.19744" lon="-1.41094">
        <ele>11.8</ele>
        <time>2015-01-11T08:55:59Z</time>
      </trkpt>
      <trkpt lat="47.19731" lon="-1.41109">
        <ele>12.9</ele>
        <time>2015-01-11T08:56:03Z</time>
      </trkpt>
      <trkpt lat="47.1972" lon="-1.41121">
        <ele>13.4</ele>
        <time>2015-01-11T08:56:07Z</time>
      </trkpt>
      <trkpt lat="47.19703" lon="-1.41123">
        <ele>14.2</ele>
        <time>2015-01-11T08:56:12Z</time>
      </trkpt>
      <trkpt lat="47.19691" lon="-1.41111">
        <ele>14.3</ele>
        <time>2015-01-11T08:56:15Z</time>
      </trkpt>
      <trkpt lat="47.1968" lon="-1.411">
        <ele>14.3</ele>
        <time>2015-01-11T08:56:18Z</time>
      </trkpt>
      <trkpt lat="47.19668" lon="-1.4109">
        <ele>14.3</ele>
        <time>2015-01-11T08:56:21Z</time>
      </trkpt>
      <trkpt lat="47.19654" lon="-1.41074">
        <ele>14.3</ele>
        <time>2015-01-11T08:56:25Z</time>
      </trkpt>
      <trkpt lat="47.1964" lon="-1.41063">
        <ele>14.3</ele>
        <time>2015-01-11T08:56:28Z</time>
      </trkpt>
      <trkpt lat="47.19627" lon="-1.41054">
        <ele>14.3</ele>
        <time>2015-01-11T08:56:31Z</time>
      </trkpt>
      <trkpt lat="47.19619" lon="-1.41048">
        <ele>14.3</ele>
        <time>2015-01-11T08:56:33Z</time>
      </trkpt>
      <trkpt lat="47.19607" lon="-1.41036">
        <ele>14.3</ele>
        <time>2015-01-11T08:56:36Z</time>
      </trkpt>
      <trkpt lat="47.19593" lon="-1.41023">
        <ele>14</ele>
        <time>2015-01-11T08:56:39Z</time>
      </trkpt>
      <trkpt lat="47.1958" lon="-1.4101">
        <ele>13.4</ele>
        <time>2015-01-11T08:56:42Z</time>
      </trkpt>
      <trkpt lat="47.1957" lon="-1.40994">
        <ele>12.9</ele>
        <time>2015-01-11T08:56:45Z</time>
      </trkpt>
      <trkpt lat="47.19566" lon="-1.40968">
        <ele>12.6</ele>
        <time>2015-01-11T08:56:49Z</time>
      </trkpt>
      <trkpt lat="47.19568" lon="-1.40948">
        <ele>12.4</ele>
        <time>2015-01-11T08:56:52Z</time>
      </trkpt>
      <trkpt lat="47.19574" lon="-1.40928">
        <ele>11.7</ele>
        <time>2015-01-11T08:56:55Z</time>
      </trkpt>
      <trkpt lat="47.19581" lon="-1.40905">
        <ele>11.5</ele>
        <time>2015-01-11T08:56:58Z</time>
      </trkpt>
      <trkpt lat="47.1959" lon="-1.40884">
        <ele>11.3</ele>
        <time>2015-01-11T08:57:01Z</time>
      </trkpt>
      <trkpt lat="47.19595" lon="-1.40861">
        <ele>11.1</ele>
        <time>2015-01-11T08:57:04Z</time>
      </trkpt>
      <trkpt lat="47.196" lon="-1.40839">
        <ele>10.9</ele>
        <time>2015-01-11T08:57:07Z</time>
      </trkpt>
      <trkpt lat="47.19605" lon="-1.40819">
        <ele>10.7</ele>
        <time>2015-01-11T08:57:10Z</time>
      </trkpt>
      <trkpt lat="47.1961" lon="-1.40798">
        <ele>10.6</ele>
        <time>2015-01-11T08:57:13Z</time>
      </trkpt>
      <trkpt lat="47.19614" lon="-1.40777">
        <ele>10.4</ele>
        <time>2015-01-11T08:57:16Z</time>
      </trkpt>
      <trkpt lat="47.19617" lon="-1.40756">
        <ele>10.3</ele>
        <time>2015-01-11T08:57:19Z</time>
      </trkpt>
      <trkpt lat="47.19624" lon="-1.40737">
        <ele>10</ele>
        <time>2015-01-11T08:57:22Z</time>
      </trkpt>
      <trkpt lat="47.19634" lon="-1.4072">
        <ele>9.7</ele>
        <time>2015-01-11T08:57:25Z</time>
      </trkpt>
      <trkpt lat="47.19642" lon="-1.40702">
        <ele>9.6</ele>
        <time>2015-01-11T08:57:28Z</time>
      </trkpt>
      <trkpt lat="47.19652" lon="-1.40683">
        <ele>9.6</ele>
        <time>2015-01-11T08:57:31Z</time>
      </trkpt>
      <trkpt lat="47.19661" lon="-1.4066">
        <ele>9.6</ele>
        <time>2015-01-11T08:57:34Z</time>
      </trkpt>
      <trkpt lat="47.19671" lon="-1.40636">
        <ele>9.5</ele>
        <time>2015-01-11T08:57:37Z</time>
      </trkpt>
      <trkpt lat="47.19679" lon="-1.4061">
        <ele>9.1</ele>
        <time>2015-01-11T08:57:40Z</time>
      </trkpt>
      <trkpt lat="47.19689" lon="-1.40586">
        <ele>8.9</ele>
        <time>2015-01-11T08:57:43Z</time>
      </trkpt>
      <trkpt lat="47.19695" lon="-1.40569">
        <ele>8.8</ele>
        <time>2015-01-11T08:57:45Z</time>
      </trkpt>
      <trkpt lat="47.19703" lon="-1.40544">
        <ele>8.7</ele>
        <time>2015-01-11T08:57:48Z</time>
      </trkpt>
      <trkpt lat="47.19711" lon="-1.40522">
        <ele>8.7</ele>
        <time>2015-01-11T08:57:51Z</time>
      </trkpt>
      <trkpt lat="47.19719" lon="-1.40502">
        <ele>8.7</ele>
        <time>2015-01-11T08:57:54Z</time>
      </trkpt>
      <trkpt lat="47.19728" lon="-1.40479">
        <ele>8.7</ele>
        <time>2015-01-11T08:57:57Z</time>
      </trkpt>
      <trkpt lat="47.19739" lon="-1.40457">
        <ele>8.7</ele>
        <time>2015-01-11T08:58:00Z</time>
      </trkpt>
      <trkpt lat="47.19746" lon="-1.40435">
        <ele>8.7</ele>
        <time>2015-01-11T08:58:03Z</time>
      </trkpt>
      <trkpt lat="47.19754" lon="-1.40416">
        <ele>8.7</ele>
        <time>2015-01-11T08:58:06Z</time>
      </trkpt>
      <trkpt lat="47.19764" lon="-1.40393">
        <ele>8.7</ele>
        <time>2015-01-11T08:58:09Z</time>
      </trkpt>
      <trkpt lat="47.19774" lon="-1.40375">
        <ele>8.6</ele>
        <time>2015-01-11T08:58:12Z</time>
      </trkpt>
      <trkpt lat="47.1978" lon="-1.40353">
        <ele>8.5</ele>
        <time>2015-01-11T08:58:15Z</time>
      </trkpt>
      <trkpt lat="47.19785" lon="-1.40334">
        <ele>8.3</ele>
        <time>2015-01-11T08:58:18Z</time>
      </trkpt>
      <trkpt lat="47.1978" lon="-1.40313">
        <ele>8.2</ele>
        <time>2015-01-11T08:58:21Z</time>
      </trkpt>
      <trkpt lat="47.19773" lon="-1.40293">
        <ele>8.2</ele>
        <time>2015-01-11T08:58:24Z</time>
      </trkpt>
      <trkpt lat="47.19763" lon="-1.40272">
        <ele>8.2</ele>
        <time>2015-01-11T08:58:28Z</time>
      </trkpt>
      <trkpt lat="47.19752" lon="-1.40259">
        <ele>7.9</ele>
        <time>2015-01-11T08:58:31Z</time>
      </trkpt>
      <trkpt lat="47.19743" lon="-1.40242">
        <ele>7.7</ele>
        <time>2015-01-11T08:58:34Z</time>
      </trkpt>
      <trkpt lat="47.19738" lon="-1.40223">
        <ele>7.7</ele>
        <time>2015-01-11T08:58:37Z</time>
      </trkpt>
      <trkpt lat="47.19731" lon="-1.40204">
        <ele>8.1</ele>
        <time>2015-01-11T08:58:40Z</time>
      </trkpt>
      <trkpt lat="47.19726" lon="-1.4018">
        <ele>8.3</ele>
        <time>2015-01-11T08:58:43Z</time>
      </trkpt>
      <trkpt lat="47.19735" lon="-1.40157">
        <ele>8.3</ele>
        <time>2015-01-11T08:58:46Z</time>
      </trkpt>
      <trkpt lat="47.19742" lon="-1.40132">
        <ele>8.4</ele>
        <time>2015-01-11T08:58:49Z</time>
      </trkpt>
      <trkpt lat="47.19749" lon="-1.40113">
        <ele>8.2</ele>
        <time>2015-01-11T08:58:52Z</time>
      </trkpt>
      <trkpt lat="47.19755" lon="-1.40094">
        <ele>7.5</ele>
        <time>2015-01-11T08:58:55Z</time>
      </trkpt>
      <trkpt lat="47.19762" lon="-1.40075">
        <ele>7</ele>
        <time>2015-01-11T08:58:58Z</time>
      </trkpt>
      <trkpt lat="47.19765" lon="-1.40052">
        <ele>6.5</ele>
        <time>2015-01-11T08:59:01Z</time>
      </trkpt>
      <trkpt lat="47.1977" lon="-1.4003">
        <ele>6.2</ele>
        <time>2015-01-11T08:59:04Z</time>
      </trkpt>
      <trkpt lat="47.19772" lon="-1.40007">
        <ele>6</ele>
        <time>2015-01-11T08:59:08Z</time>
      </trkpt>
      <trkpt lat="47.19776" lon="-1.39983">
        <ele>5.4</ele>
        <time>2015-01-11T08:59:12Z</time>
      </trkpt>
      <trkpt lat="47.19777" lon="-1.39961">
        <ele>5.1</ele>
        <time>2015-01-11T08:59:16Z</time>
      </trkpt>
      <trkpt lat="47.19777" lon="-1.39939">
        <ele>4.3</ele>
        <time>2015-01-11T08:59:20Z</time>
      </trkpt>
      <trkpt lat="47.19778" lon="-1.39918">
        <ele>4</ele>
        <time>2015-01-11T08:59:24Z</time>
      </trkpt>
      <trkpt lat="47.19779" lon="-1.39897">
        <ele>3.9</ele>
        <time>2015-01-11T08:59:28Z</time>
      </trkpt>
      <trkpt lat="47.1978" lon="-1.39875">
        <ele>3.6</ele>
        <time>2015-01-11T08:59:32Z</time>
      </trkpt>
      <trkpt lat="47.1978" lon="-1.39853">
        <ele>1</ele>
        <time>2015-01-11T08:59:36Z</time>
      </trkpt>
      <trkpt lat="47.19779" lon="-1.39832">
        <ele>0.8</ele>
        <time>2015-01-11T08:59:40Z</time>
      </trkpt>
      <trkpt lat="47.19777" lon="-1.39808">
        <ele>0.8</ele>
        <time>2015-01-11T08:59:45Z</time>
      </trkpt>
      <trkpt lat="47.19775" lon="-1.39784">
        <ele>0.8</ele>
        <time>2015-01-11T08:59:50Z</time>
      </trkpt>
      <trkpt lat="47.19773" lon="-1.39764">
        <ele>0.8</ele>
        <time>2015-01-11T08:59:54Z</time>
      </trkpt>
      <trkpt lat="47.19771" lon="-1.39742">
        <ele>0.8</ele>
        <time>2015-01-11T08:59:58Z</time>
      </trkpt>
      <trkpt lat="47.19772" lon="-1.3972">
        <ele>0.8</ele>
        <time>2015-01-11T09:00:02Z</time>
      </trkpt>
      <trkpt lat="47.19773" lon="-1.39699">
        <ele>1.6</ele>
        <time>2015-01-11T09:00:06Z</time>
      </trkpt>
      <trkpt lat="47.19776" lon="-1.39679">
        <ele>3.3</ele>
        <time>2015-01-11T09:00:10Z</time>
      </trkpt>
      <trkpt lat="47.19783" lon="-1.39655">
        <ele>4.2</ele>
        <time>2015-01-11T09:00:14Z</time>
      </trkpt>
      <trkpt lat="47.19788" lon="-1.39634">
        <ele>4.6</ele>
        <time>2015-01-11T09:00:18Z</time>
      </trkpt>
      <trkpt lat="47.19796" lon="-1.39616">
        <ele>4.8</ele>
        <time>2015-01-11T09:00:22Z</time>
      </trkpt>
      <trkpt lat="47.19801" lon="-1.39594">
        <ele>5.1</ele>
        <time>2015-01-11T09:00:26Z</time>
      </trkpt>
      <trkpt lat="47.19808" lon="-1.39573">
        <ele>5.2</ele>
        <time>2015-01-11T09:00:30Z</time>
      </trkpt>
      <trkpt lat="47.19814" lon="-1.39555">
        <ele>5.3</ele>
        <time>2015-01-11T09:00:33Z</time>
      </trkpt>
      <trkpt lat="47.19821" lon="-1.39537">
        <ele>5.4</ele>
        <time>2015-01-11T09:00:37Z</time>
      </trkpt>
      <trkpt lat="47.19828" lon="-1.39515">
        <ele>5.6</ele>
        <time>2015-01-11T09:00:42Z</time>
      </trkpt>
      <trkpt lat="47.19836" lon="-1.39496">
        <ele>5.8</ele>
        <time>2015-01-11T09:00:46Z</time>
      </trkpt>
      <trkpt lat="47.19844" lon="-1.39478">
        <ele>6.1</ele>
        <time>2015-01-11T09:00:50Z</time>
      </trkpt>
      <trkpt lat="47.19851" lon="-1.39464">
        <ele>6.1</ele>
        <time>2015-01-11T09:00:54Z</time>
      </trkpt>
      <trkpt lat="47.19858" lon="-1.3945">
        <ele>6.2</ele>
        <time>2015-01-11T09:00:58Z</time>
      </trkpt>
      <trkpt lat="47.19859" lon="-1.39439">
        <ele>6.2</ele>
        <time>2015-01-11T09:01:00Z</time>
      </trkpt>
      <trkpt lat="47.19858" lon="-1.3943">
        <ele>6.2</ele>
        <time>2015-01-11T09:01:02Z</time>
      </trkpt>
      <trkpt lat="47.19855" lon="-1.39422">
        <ele>6.1</ele>
        <time>2015-01-11T09:01:04Z</time>
      </trkpt>
      <trkpt lat="47.19849" lon="-1.39416">
        <ele>6.1</ele>
        <time>2015-01-11T09:01:06Z</time>
      </trkpt>
      <trkpt lat="47.19844" lon="-1.3941">
        <ele>6.2</ele>
        <time>2015-01-11T09:01:08Z</time>
      </trkpt>
      <trkpt lat="47.1984" lon="-1.39403">
        <ele>6.2</ele>
        <time>2015-01-11T09:01:10Z</time>
      </trkpt>
      <trkpt lat="47.19837" lon="-1.39397">
        <ele>6.2</ele>
        <time>2015-01-11T09:01:12Z</time>
      </trkpt>
      <trkpt lat="47.19834" lon="-1.3939">
        <ele>6.5</ele>
        <time>2015-01-11T09:01:14Z</time>
      </trkpt>
      <trkpt lat="47.19833" lon="-1.39383">
        <ele>6.5</ele>
        <time>2015-01-11T09:01:16Z</time>
      </trkpt>
      <trkpt lat="47.19834" lon="-1.39373">
        <ele>6.8</ele>
        <time>2015-01-11T09:01:19Z</time>
      </trkpt>
      <trkpt lat="47.19836" lon="-1.39367">
        <ele>6.8</ele>
        <time>2015-01-11T09:01:21Z</time>
      </trkpt>
      <trkpt lat="47.19843" lon="-1.39355">
        <ele>7.1</ele>
        <time>2015-01-11T09:01:26Z</time>
      </trkpt>
      <trkpt lat="47.19847" lon="-1.39346">
        <ele>7.4</ele>
        <time>2015-01-11T09:01:29Z</time>
      </trkpt>
      <trkpt lat="47.1985" lon="-1.39338">
        <ele>7.4</ele>
        <time>2015-01-11T09:01:31Z</time>
      </trkpt>
      <trkpt lat="47.19858" lon="-1.3932">
        <ele>7.9</ele>
        <time>2015-01-11T09:01:35Z</time>
      </trkpt>
      <trkpt lat="47.19864" lon="-1.39301">
        <ele>10.1</ele>
        <time>2015-01-11T09:01:41Z</time>
      </trkpt>
      <trkpt lat="47.1987" lon="-1.39283">
        <ele>11.6</ele>
        <time>2015-01-11T09:01:46Z</time>
      </trkpt>
      <trkpt lat="47.19876" lon="-1.39269">
        <ele>12.4</ele>
        <time>2015-01-11T09:01:50Z</time>
      </trkpt>
      <trkpt lat="47.19885" lon="-1.39251">
        <ele>12.7</ele>
        <time>2015-01-11T09:01:54Z</time>
      </trkpt>
      <trkpt lat="47.19894" lon="-1.39234">
        <ele>12.8</ele>
        <time>2015-01-11T09:01:59Z</time>
      </trkpt>
      <trkpt lat="47.19898" lon="-1.39226">
        <ele>12.8</ele>
        <time>2015-01-11T09:02:01Z</time>
      </trkpt>
      <trkpt lat="47.19903" lon="-1.39217">
        <ele>12.8</ele>
        <time>2015-01-11T09:02:04Z</time>
      </trkpt>
      <trkpt lat="47.1991" lon="-1.39206">
        <ele>12.8</ele>
        <time>2015-01-11T09:02:07Z</time>
      </trkpt>
      <trkpt lat="47.19918" lon="-1.39188">
        <ele>12.8</ele>
        <time>2015-01-11T09:02:11Z</time>
      </trkpt>
      <trkpt lat="47.19926" lon="-1.39169">
        <ele>12.8</ele>
        <time>2015-01-11T09:02:15Z</time>
      </trkpt>
      <trkpt lat="47.19933" lon="-1.39151">
        <ele>12.6</ele>
        <time>2015-01-11T09:02:19Z</time>
      </trkpt>
      <trkpt lat="47.19941" lon="-1.39131">
        <ele>12.2</ele>
        <time>2015-01-11T09:02:23Z</time>
      </trkpt>
      <trkpt lat="47.19949" lon="-1.39113">
        <ele>11.2</ele>
        <time>2015-01-11T09:02:27Z</time>
      </trkpt>
      <trkpt lat="47.1996" lon="-1.39092">
        <ele>10.5</ele>
        <time>2015-01-11T09:02:31Z</time>
      </trkpt>
      <trkpt lat="47.1997" lon="-1.39078">
        <ele>10.1</ele>
        <time>2015-01-11T09:02:34Z</time>
      </trkpt>
      <trkpt lat="47.19982" lon="-1.3908">
        <ele>9.9</ele>
        <time>2015-01-11T09:02:38Z</time>
      </trkpt>
      <trkpt lat="47.19987" lon="-1.39086">
        <ele>9.6</ele>
        <time>2015-01-11T09:02:40Z</time>
      </trkpt>
      <trkpt lat="47.19993" lon="-1.3909">
        <ele>9.6</ele>
        <time>2015-01-11T09:02:42Z</time>
      </trkpt>
      <trkpt lat="47.20003" lon="-1.39096">
        <ele>9.5</ele>
        <time>2015-01-11T09:02:45Z</time>
      </trkpt>
      <trkpt lat="47.20021" lon="-1.39106">
        <ele>9.3</ele>
        <time>2015-01-11T09:02:50Z</time>
      </trkpt>
      <trkpt lat="47.2003" lon="-1.39113">
        <ele>9.2</ele>
        <time>2015-01-11T09:02:53Z</time>
      </trkpt>
      <trkpt lat="47.20043" lon="-1.39125">
        <ele>8.9</ele>
        <time>2015-01-11T09:02:57Z</time>
      </trkpt>
      <trkpt lat="47.20056" lon="-1.39134">
        <ele>8.6</ele>
        <time>2015-01-11T09:03:01Z</time>
      </trkpt>
      <trkpt lat="47.2006" lon="-1.3913">
        <ele>8.3</ele>
        <time>2015-01-11T09:03:03Z</time>
      </trkpt>
      <trkpt lat="47.20063" lon="-1.39125">
        <ele>8.3</ele>
        <time>2015-01-11T09:03:05Z</time>
      </trkpt>
      <trkpt lat="47.20069" lon="-1.39111">
        <ele>8.2</ele>
        <time>2015-01-11T09:03:09Z</time>
      </trkpt>
      <trkpt lat="47.20068" lon="-1.39103">
        <ele>8.2</ele>
        <time>2015-01-11T09:03:11Z</time>
      </trkpt>
      <trkpt lat="47.20064" lon="-1.39096">
        <ele>8.2</ele>
        <time>2015-01-11T09:03:13Z</time>
      </trkpt>
      <trkpt lat="47.2006" lon="-1.39089">
        <ele>8.2</ele>
        <time>2015-01-11T09:03:15Z</time>
      </trkpt>
      <trkpt lat="47.20057" lon="-1.39081">
        <ele>8.2</ele>
        <time>2015-01-11T09:03:17Z</time>
      </trkpt>
      <trkpt lat="47.20054" lon="-1.39073">
        <ele>8.2</ele>
        <time>2015-01-11T09:03:19Z</time>
      </trkpt>
      <trkpt lat="47.20046" lon="-1.39053">
        <ele>8.2</ele>
        <time>2015-01-11T09:03:23Z</time>
      </trkpt>
      <trkpt lat="47.2004" lon="-1.39032">
        <ele>8.2</ele>
        <time>2015-01-11T09:03:27Z</time>
      </trkpt>
      <trkpt lat="47.20037" lon="-1.39018">
        <ele>8.2</ele>
        <time>2015-01-11T09:03:30Z</time>
      </trkpt>
      <trkpt lat="47.20028" lon="-1.39008">
        <ele>8.3</ele>
        <time>2015-01-11T09:03:34Z</time>
      </trkpt>
      <trkpt lat="47.20018" lon="-1.38994">
        <ele>8.3</ele>
        <time>2015-01-11T09:03:38Z</time>
      </trkpt>
      <trkpt lat="47.2001" lon="-1.38977">
        <ele>8.4</ele>
        <time>2015-01-11T09:03:42Z</time>
      </trkpt>
      <trkpt lat="47.20007" lon="-1.38968">
        <ele>8.5</ele>
        <time>2015-01-11T09:03:44Z</time>
      </trkpt>
      <trkpt lat="47.20004" lon="-1.3896">
        <ele>8.5</ele>
        <time>2015-01-11T09:03:46Z</time>
      </trkpt>
      <trkpt lat="47.20002" lon="-1.38951">
        <ele>8.5</ele>
        <time>2015-01-11T09:03:48Z</time>
      </trkpt>
      <trkpt lat="47.19993" lon="-1.38931">
        <ele>8.6</ele>
        <time>2015-01-11T09:03:53Z</time>
      </trkpt>
      <trkpt lat="47.19982" lon="-1.38914">
        <ele>8.8</ele>
        <time>2015-01-11T09:03:57Z</time>
      </trkpt>
      <trkpt lat="47.19971" lon="-1.389">
        <ele>9.1</ele>
        <time>2015-01-11T09:04:01Z</time>
      </trkpt>
      <trkpt lat="47.1996" lon="-1.38886">
        <ele>9.3</ele>
        <time>2015-01-11T09:04:05Z</time>
      </trkpt>
      <trkpt lat="47.19964" lon="-1.38867">
        <ele>9.6</ele>
        <time>2015-01-11T09:04:09Z</time>
      </trkpt>
      <trkpt lat="47.19974" lon="-1.38852">
        <ele>10.1</ele>
        <time>2015-01-11T09:04:13Z</time>
      </trkpt>
      <trkpt lat="47.19981" lon="-1.38843">
        <ele>10.5</ele>
        <time>2015-01-11T09:04:16Z</time>
      </trkpt>
      <trkpt lat="47.19991" lon="-1.38825">
        <ele>10.6</ele>
        <time>2015-01-11T09:04:20Z</time>
      </trkpt>
      <trkpt lat="47.20004" lon="-1.38809">
        <ele>10.8</ele>
        <time>2015-01-11T09:04:24Z</time>
      </trkpt>
      <trkpt lat="47.20017" lon="-1.38796">
        <ele>10.8</ele>
        <time>2015-01-11T09:04:28Z</time>
      </trkpt>
      <trkpt lat="47.20032" lon="-1.38784">
        <ele>10.9</ele>
        <time>2015-01-11T09:04:32Z</time>
      </trkpt>
      <trkpt lat="47.20044" lon="-1.38776">
        <ele>11</ele>
        <time>2015-01-11T09:04:35Z</time>
      </trkpt>
      <trkpt lat="47.2006" lon="-1.38768">
        <ele>11</ele>
        <time>2015-01-11T09:04:39Z</time>
      </trkpt>
      <trkpt lat="47.20069" lon="-1.38763">
        <ele>11.1</ele>
        <time>2015-01-11T09:04:41Z</time>
      </trkpt>
      <trkpt lat="47.20081" lon="-1.38758">
        <ele>11.1</ele>
        <time>2015-01-11T09:04:44Z</time>
      </trkpt>
      <trkpt lat="47.20094" lon="-1.3875">
        <ele>11.1</ele>
        <time>2015-01-11T09:04:46Z</time>
      </trkpt>
      <trkpt lat="47.20102" lon="-1.38747">
        <ele>11.1</ele>
        <time>2015-01-11T09:04:48Z</time>
      </trkpt>
      <trkpt lat="47.20108" lon="-1.38758">
        <ele>11.1</ele>
        <time>2015-01-11T09:04:52Z</time>
      </trkpt>
      <trkpt lat="47.20111" lon="-1.38781">
        <ele>11.1</ele>
        <time>2015-01-11T09:04:56Z</time>
      </trkpt>
      <trkpt lat="47.20112" lon="-1.38803">
        <ele>11.1</ele>
        <time>2015-01-11T09:05:00Z</time>
      </trkpt>
      <trkpt lat="47.20113" lon="-1.38811">
        <ele>11.1</ele>
        <time>2015-01-11T09:05:02Z</time>
      </trkpt>
      <trkpt lat="47.20116" lon="-1.38817">
        <ele>11.1</ele>
        <time>2015-01-11T09:05:05Z</time>
      </trkpt>
      <trkpt lat="47.20129" lon="-1.38812">
        <ele>11</ele>
        <time>2015-01-11T09:05:09Z</time>
      </trkpt>
      <trkpt lat="47.2014" lon="-1.38811">
        <ele>10.8</ele>
        <time>2015-01-11T09:05:12Z</time>
      </trkpt>
      <trkpt lat="47.2015" lon="-1.38814">
        <ele>10.6</ele>
        <time>2015-01-11T09:05:15Z</time>
      </trkpt>
      <trkpt lat="47.20159" lon="-1.38814">
        <ele>10.1</ele>
        <time>2015-01-11T09:05:18Z</time>
      </trkpt>
      <trkpt lat="47.2017" lon="-1.38813">
        <ele>10</ele>
        <time>2015-01-11T09:05:22Z</time>
      </trkpt>
      <trkpt lat="47.20186" lon="-1.38815">
        <ele>9.7</ele>
        <time>2015-01-11T09:05:27Z</time>
      </trkpt>
      <trkpt lat="47.20195" lon="-1.3882">
        <ele>9.5</ele>
        <time>2015-01-11T09:05:30Z</time>
      </trkpt>
      <trkpt lat="47.20207" lon="-1.38821">
        <ele>9.4</ele>
        <time>2015-01-11T09:05:34Z</time>
      </trkpt>
      <trkpt lat="47.20217" lon="-1.38822">
        <ele>9.2</ele>
        <time>2015-01-11T09:05:37Z</time>
      </trkpt>
      <trkpt lat="47.20226" lon="-1.38823">
        <ele>9</ele>
        <time>2015-01-11T09:05:41Z</time>
      </trkpt>
      <trkpt lat="47.20236" lon="-1.38827">
        <ele>8.8</ele>
        <time>2015-01-11T09:05:44Z</time>
      </trkpt>
      <trkpt lat="47.20246" lon="-1.38826">
        <ele>8.5</ele>
        <time>2015-01-11T09:05:47Z</time>
      </trkpt>
      <trkpt lat="47.20257" lon="-1.3883">
        <ele>8.4</ele>
        <time>2015-01-11T09:05:50Z</time>
      </trkpt>
      <trkpt lat="47.20262" lon="-1.38851">
        <ele>8.3</ele>
        <time>2015-01-11T09:05:54Z</time>
      </trkpt>
      <trkpt lat="47.20262" lon="-1.38873">
        <ele>7.7</ele>
        <time>2015-01-11T09:05:59Z</time>
      </trkpt>
      <trkpt lat="47.20266" lon="-1.38878">
        <ele>7.4</ele>
        <time>2015-01-11T09:06:01Z</time>
      </trkpt>
      <trkpt lat="47.20273" lon="-1.3888">
        <ele>7.4</ele>
        <time>2015-01-11T09:06:03Z</time>
      </trkpt>
      <trkpt lat="47.20286" lon="-1.38886">
        <ele>7.2</ele>
        <time>2015-01-11T09:06:06Z</time>
      </trkpt>
      <trkpt lat="47.20296" lon="-1.38893">
        <ele>6.8</ele>
        <time>2015-01-11T09:06:09Z</time>
      </trkpt>
      <trkpt lat="47.2031" lon="-1.38902">
        <ele>6.3</ele>
        <time>2015-01-11T09:06:13Z</time>
      </trkpt>
      <trkpt lat="47.20323" lon="-1.38897">
        <ele>6.2</ele>
        <time>2015-01-11T09:06:18Z</time>
      </trkpt>
      <trkpt lat="47.20333" lon="-1.38878">
        <ele>5.9</ele>
        <time>2015-01-11T09:06:22Z</time>
      </trkpt>
      <trkpt lat="47.20346" lon="-1.38863">
        <ele>5.3</ele>
        <time>2015-01-11T09:06:26Z</time>
      </trkpt>
      <trkpt lat="47.20357" lon="-1.3885">
        <ele>5</ele>
        <time>2015-01-11T09:06:30Z</time>
      </trkpt>
      <trkpt lat="47.20361" lon="-1.38846">
        <ele>4.7</ele>
        <time>2015-01-11T09:06:32Z</time>
      </trkpt>
      <trkpt lat="47.20366" lon="-1.38837">
        <ele>4.7</ele>
        <time>2015-01-11T09:06:35Z</time>
      </trkpt>
      <trkpt lat="47.20378" lon="-1.38825">
        <ele>4.3</ele>
        <time>2015-01-11T09:06:41Z</time>
      </trkpt>
      <trkpt lat="47.20389" lon="-1.38811">
        <ele>4.2</ele>
        <time>2015-01-11T09:06:45Z</time>
      </trkpt>
      <trkpt lat="47.20401" lon="-1.38795">
        <ele>3.6</ele>
        <time>2015-01-11T09:06:49Z</time>
      </trkpt>
      <trkpt lat="47.20414" lon="-1.38778">
        <ele>3</ele>
        <time>2015-01-11T09:06:53Z</time>
      </trkpt>
      <trkpt lat="47.20416" lon="-1.3877">
        <ele>2.7</ele>
        <time>2015-01-11T09:06:55Z</time>
      </trkpt>
      <trkpt lat="47.20414" lon="-1.38762">
        <ele>2.7</ele>
        <time>2015-01-11T09:06:58Z</time>
      </trkpt>
      <trkpt lat="47.20404" lon="-1.3876">
        <ele>2.7</ele>
        <time>2015-01-11T09:07:01Z</time>
      </trkpt>
      <trkpt lat="47.20398" lon="-1.38758">
        <ele>2.7</ele>
        <time>2015-01-11T09:07:03Z</time>
      </trkpt>
      <trkpt lat="47.20392" lon="-1.38755">
        <ele>2.7</ele>
        <time>2015-01-11T09:07:05Z</time>
      </trkpt>
      <trkpt lat="47.20386" lon="-1.38752">
        <ele>2.7</ele>
        <time>2015-01-11T09:07:07Z</time>
      </trkpt>
      <trkpt lat="47.20376" lon="-1.38742">
        <ele>2.6</ele>
        <time>2015-01-11T09:07:11Z</time>
      </trkpt>
      <trkpt lat="47.20371" lon="-1.38738">
        <ele>2.6</ele>
        <time>2015-01-11T09:07:13Z</time>
      </trkpt>
      <trkpt lat="47.20368" lon="-1.38731">
        <ele>2.6</ele>
        <time>2015-01-11T09:07:15Z</time>
      </trkpt>
      <trkpt lat="47.20367" lon="-1.38723">
        <ele>2.6</ele>
        <time>2015-01-11T09:07:17Z</time>
      </trkpt>
      <trkpt lat="47.20368" lon="-1.38715">
        <ele>2.6</ele>
        <time>2015-01-11T09:07:19Z</time>
      </trkpt>
      <trkpt lat="47.20369" lon="-1.38708">
        <ele>2.6</ele>
        <time>2015-01-11T09:07:21Z</time>
      </trkpt>
      <trkpt lat="47.20371" lon="-1.38701">
        <ele>2.6</ele>
        <time>2015-01-11T09:07:23Z</time>
      </trkpt>
      <trkpt lat="47.20373" lon="-1.38693">
        <ele>2.5</ele>
        <time>2015-01-11T09:07:25Z</time>
      </trkpt>
      <trkpt lat="47.20373" lon="-1.38685">
        <ele>2.5</ele>
        <time>2015-01-11T09:07:27Z</time>
      </trkpt>
      <trkpt lat="47.20371" lon="-1.38665">
        <ele>2.5</ele>
        <time>2015-01-11T09:07:32Z</time>
      </trkpt>
      <trkpt lat="47.20369" lon="-1.38656">
        <ele>2.5</ele>
        <time>2015-01-11T09:07:34Z</time>
      </trkpt>
      <trkpt lat="47.20366" lon="-1.38648">
        <ele>2.5</ele>
        <time>2015-01-11T09:07:36Z</time>
      </trkpt>
      <trkpt lat="47.2036" lon="-1.38629">
        <ele>2.5</ele>
        <time>2015-01-11T09:07:41Z</time>
      </trkpt>
      <trkpt lat="47.20351" lon="-1.3861">
        <ele>2.3</ele>
        <time>2015-01-11T09:07:46Z</time>
      </trkpt>
      <trkpt lat="47.20348" lon="-1.38603">
        <ele>1.9</ele>
        <time>2015-01-11T09:07:48Z</time>
      </trkpt>
      <trkpt lat="47.20345" lon="-1.38595">
        <ele>1.9</ele>
        <time>2015-01-11T09:07:50Z</time>
      </trkpt>
      <trkpt lat="47.20343" lon="-1.38586">
        <ele>1.9</ele>
        <time>2015-01-11T09:07:52Z</time>
      </trkpt>
      <trkpt lat="47.20341" lon="-1.3858">
        <ele>1.7</ele>
        <time>2015-01-11T09:07:54Z</time>
      </trkpt>
      <trkpt lat="47.20337" lon="-1.38576">
        <ele>1.7</ele>
        <time>2015-01-11T09:07:57Z</time>
      </trkpt>
      <trkpt lat="47.20324" lon="-1.38576">
        <ele>1.7</ele>
        <time>2015-01-11T09:08:04Z</time>
      </trkpt>
      <trkpt lat="47.20324" lon="-1.38575">
        <ele>3.5</ele>
        <time>2015-01-11T09:08:08Z</time>
      </trkpt>
      <trkpt lat="47.20324" lon="-1.38575">
        <ele>6.3</ele>
        <time>2015-01-11T09:08:08Z</time>
      </trkpt>
      <trkpt lat="47.20324" lon="-1.38575">
        <ele>6.3</ele>
        <time>2015-01-11T09:08:26Z</time>
      </trkpt>
      <trkpt lat="47.2033" lon="-1.38561">
        <ele>2.3</ele>
        <time>2015-01-11T09:08:27Z</time>
      </trkpt>
      <trkpt lat="47.2034" lon="-1.38555">
        <ele>2.7</ele>
        <time>2015-01-11T09:08:31Z</time>
      </trkpt>
      <trkpt lat="47.20345" lon="-1.38553">
        <ele>2.8</ele>
        <time>2015-01-11T09:08:33Z</time>
      </trkpt>
      <trkpt lat="47.20352" lon="-1.3855">
        <ele>2.8</ele>
        <time>2015-01-11T09:08:35Z</time>
      </trkpt>
      <trkpt lat="47.20365" lon="-1.38541">
        <ele>2.9</ele>
        <time>2015-01-11T09:08:39Z</time>
      </trkpt>
      <trkpt lat="47.20378" lon="-1.38528">
        <ele>2.9</ele>
        <time>2015-01-11T09:08:43Z</time>
      </trkpt>
      <trkpt lat="47.20392" lon="-1.38515">
        <ele>3</ele>
        <time>2015-01-11T09:08:47Z</time>
      </trkpt>
      <trkpt lat="47.20404" lon="-1.38502">
        <ele>3</ele>
        <time>2015-01-11T09:08:50Z</time>
      </trkpt>
      <trkpt lat="47.20418" lon="-1.38491">
        <ele>3.1</ele>
        <time>2015-01-11T09:08:54Z</time>
      </trkpt>
      <trkpt lat="47.20427" lon="-1.38484">
        <ele>3.1</ele>
        <time>2015-01-11T09:08:57Z</time>
      </trkpt>
      <trkpt lat="47.2044" lon="-1.38471">
        <ele>3.2</ele>
        <time>2015-01-11T09:09:01Z</time>
      </trkpt>
      <trkpt lat="47.20451" lon="-1.38453">
        <ele>3.3</ele>
        <time>2015-01-11T09:09:05Z</time>
      </trkpt>
      <trkpt lat="47.20458" lon="-1.38428">
        <ele>3.3</ele>
        <time>2015-01-11T09:09:09Z</time>
      </trkpt>
      <trkpt lat="47.20465" lon="-1.38409">
        <ele>3.3</ele>
        <time>2015-01-11T09:09:12Z</time>
      </trkpt>
      <trkpt lat="47.20473" lon="-1.38393">
        <ele>3.5</ele>
        <time>2015-01-11T09:09:15Z</time>
      </trkpt>
      <trkpt lat="47.20482" lon="-1.38371">
        <ele>3.5</ele>
        <time>2015-01-11T09:09:19Z</time>
      </trkpt>
      <trkpt lat="47.20489" lon="-1.38353">
        <ele>3.5</ele>
        <time>2015-01-11T09:09:23Z</time>
      </trkpt>
      <trkpt lat="47.20493" lon="-1.38348">
        <ele>3.6</ele>
        <time>2015-01-11T09:09:25Z</time>
      </trkpt>
      <trkpt lat="47.20499" lon="-1.38351">
        <ele>3.6</ele>
        <time>2015-01-11T09:09:28Z</time>
      </trkpt>
      <trkpt lat="47.2051" lon="-1.38357">
        <ele>3.7</ele>
        <time>2015-01-11T09:09:33Z</time>
      </trkpt>
      <trkpt lat="47.20517" lon="-1.38365">
        <ele>4.1</ele>
        <time>2015-01-11T09:09:37Z</time>
      </trkpt>
      <trkpt lat="47.20521" lon="-1.3837">
        <ele>4.5</ele>
        <time>2015-01-11T09:09:39Z</time>
      </trkpt>
      <trkpt lat="47.20525" lon="-1.38373">
        <ele>4.5</ele>
        <time>2015-01-11T09:09:41Z</time>
      </trkpt>
      <trkpt lat="47.20529" lon="-1.38374">
        <ele>4.7</ele>
        <time>2015-01-11T09:09:43Z</time>
      </trkpt>
      <trkpt lat="47.20534" lon="-1.38375">
        <ele>4.7</ele>
        <time>2015-01-11T09:09:45Z</time>
      </trkpt>
      <trkpt lat="47.2055" lon="-1.38373">
        <ele>5</ele>
        <time>2015-01-11T09:09:51Z</time>
      </trkpt>
      <trkpt lat="47.20556" lon="-1.3837">
        <ele>5.7</ele>
        <time>2015-01-11T09:09:53Z</time>
      </trkpt>
      <trkpt lat="47.20561" lon="-1.38365">
        <ele>5.7</ele>
        <time>2015-01-11T09:09:55Z</time>
      </trkpt>
      <trkpt lat="47.20567" lon="-1.38347">
        <ele>5.9</ele>
        <time>2015-01-11T09:09:58Z</time>
      </trkpt>
      <trkpt lat="47.20579" lon="-1.38326">
        <ele>6.2</ele>
        <time>2015-01-11T09:10:02Z</time>
      </trkpt>
      <trkpt lat="47.2059" lon="-1.38308">
        <ele>6.7</ele>
        <time>2015-01-11T09:10:05Z</time>
      </trkpt>
      <trkpt lat="47.20599" lon="-1.38293">
        <ele>7.8</ele>
        <time>2015-01-11T09:10:08Z</time>
      </trkpt>
      <trkpt lat="47.20607" lon="-1.38274">
        <ele>9.5</ele>
        <time>2015-01-11T09:10:11Z</time>
      </trkpt>
      <trkpt lat="47.20617" lon="-1.38252">
        <ele>11.6</ele>
        <time>2015-01-11T09:10:15Z</time>
      </trkpt>
      <trkpt lat="47.20627" lon="-1.38235">
        <ele>12.6</ele>
        <time>2015-01-11T09:10:18Z</time>
      </trkpt>
      <trkpt lat="47.20638" lon="-1.38219">
        <ele>13.4</ele>
        <time>2015-01-11T09:10:22Z</time>
      </trkpt>
      <trkpt lat="47.20649" lon="-1.38207">
        <ele>14.3</ele>
        <time>2015-01-11T09:10:26Z</time>
      </trkpt>
      <trkpt lat="47.2066" lon="-1.38195">
        <ele>14.5</ele>
        <time>2015-01-11T09:10:30Z</time>
      </trkpt>
      <trkpt lat="47.2067" lon="-1.3818">
        <ele>14.6</ele>
        <time>2015-01-11T09:10:34Z</time>
      </trkpt>
      <trkpt lat="47.20682" lon="-1.38166">
        <ele>14.9</ele>
        <time>2015-01-11T09:10:39Z</time>
      </trkpt>
      <trkpt lat="47.20689" lon="-1.38157">
        <ele>15</ele>
        <time>2015-01-11T09:10:42Z</time>
      </trkpt>
      <trkpt lat="47.20694" lon="-1.38152">
        <ele>15.2</ele>
        <time>2015-01-11T09:10:44Z</time>
      </trkpt>
      <trkpt lat="47.20698" lon="-1.38147">
        <ele>15.2</ele>
        <time>2015-01-11T09:10:46Z</time>
      </trkpt>
      <trkpt lat="47.20701" lon="-1.38142">
        <ele>17.6</ele>
        <time>2015-01-11T09:10:48Z</time>
      </trkpt>
      <trkpt lat="47.20705" lon="-1.38137">
        <ele>17.6</ele>
        <time>2015-01-11T09:10:50Z</time>
      </trkpt>
      <trkpt lat="47.20709" lon="-1.38132">
        <ele>17.6</ele>
        <time>2015-01-11T09:10:52Z</time>
      </trkpt>
      <trkpt lat="47.20717" lon="-1.38122">
        <ele>20.3</ele>
        <time>2015-01-11T09:10:56Z</time>
      </trkpt>
      <trkpt lat="47.2072" lon="-1.38117">
        <ele>21.4</ele>
        <time>2015-01-11T09:10:58Z</time>
      </trkpt>
      <trkpt lat="47.20724" lon="-1.38112">
        <ele>21.4</ele>
        <time>2015-01-11T09:11:00Z</time>
      </trkpt>
      <trkpt lat="47.20728" lon="-1.38108">
        <ele>21.4</ele>
        <time>2015-01-11T09:11:02Z</time>
      </trkpt>
      <trkpt lat="47.20738" lon="-1.38096">
        <ele>22.9</ele>
        <time>2015-01-11T09:11:07Z</time>
      </trkpt>
      <trkpt lat="47.20746" lon="-1.38087">
        <ele>25.1</ele>
        <time>2015-01-11T09:11:12Z</time>
      </trkpt>
      <trkpt lat="47.20755" lon="-1.38077">
        <ele>28.6</ele>
        <time>2015-01-11T09:11:18Z</time>
      </trkpt>
      <trkpt lat="47.20769" lon="-1.3807">
        <ele>30.9</ele>
        <time>2015-01-11T09:11:25Z</time>
      </trkpt>
      <trkpt lat="47.20781" lon="-1.38062">
        <ele>33.5</ele>
        <time>2015-01-11T09:11:32Z</time>
      </trkpt>
      <trkpt lat="47.20791" lon="-1.38056">
        <ele>34.7</ele>
        <time>2015-01-11T09:11:37Z</time>
      </trkpt>
      <trkpt lat="47.20805" lon="-1.38045">
        <ele>36</ele>
        <time>2015-01-11T09:11:44Z</time>
      </trkpt>
      <trkpt lat="47.20813" lon="-1.38038">
        <ele>37.1</ele>
        <time>2015-01-11T09:11:48Z</time>
      </trkpt>
      <trkpt lat="47.20819" lon="-1.38033">
        <ele>37.8</ele>
        <time>2015-01-11T09:11:51Z</time>
      </trkpt>
      <trkpt lat="47.20823" lon="-1.38028">
        <ele>38.3</ele>
        <time>2015-01-11T09:11:54Z</time>
      </trkpt>
      <trkpt lat="47.20827" lon="-1.38021">
        <ele>39.1</ele>
        <time>2015-01-11T09:11:57Z</time>
      </trkpt>
      <trkpt lat="47.20828" lon="-1.38019">
        <ele>39.2</ele>
        <time>2015-01-11T09:11:58Z</time>
      </trkpt>
      <trkpt lat="47.2083" lon="-1.38019">
        <ele>41.5</ele>
        <time>2015-01-11T09:12:02Z</time>
      </trkpt>
      <trkpt lat="47.2083" lon="-1.38019">
        <ele>42.4</ele>
        <time>2015-01-11T09:12:02Z</time>
      </trkpt>
      <trkpt lat="47.2083" lon="-1.38019">
        <ele>42.4</ele>
        <time>2015-01-11T09:18:51Z</time>
      </trkpt>
      <trkpt lat="47.20819" lon="-1.38031">
        <ele>42.1</ele>
        <time>2015-01-11T09:18:52Z</time>
      </trkpt>
      <trkpt lat="47.20807" lon="-1.38041">
        <ele>42.1</ele>
        <time>2015-01-11T09:18:56Z</time>
      </trkpt>
      <trkpt lat="47.20792" lon="-1.38053">
        <ele>42.1</ele>
        <time>2015-01-11T09:19:00Z</time>
      </trkpt>
      <trkpt lat="47.20779" lon="-1.38061">
        <ele>42.1</ele>
        <time>2015-01-11T09:19:03Z</time>
      </trkpt>
      <trkpt lat="47.20765" lon="-1.38071">
        <ele>42.1</ele>
        <time>2015-01-11T09:19:06Z</time>
      </trkpt>
      <trkpt lat="47.20749" lon="-1.38083">
        <ele>42.1</ele>
        <time>2015-01-11T09:19:09Z</time>
      </trkpt>
      <trkpt lat="47.20738" lon="-1.38093">
        <ele>42.1</ele>
        <time>2015-01-11T09:19:11Z</time>
      </trkpt>
      <trkpt lat="47.20727" lon="-1.38106">
        <ele>42.1</ele>
        <time>2015-01-11T09:19:13Z</time>
      </trkpt>
      <trkpt lat="47.20714" lon="-1.38124">
        <ele>42.1</ele>
        <time>2015-01-11T09:19:16Z</time>
      </trkpt>
      <trkpt lat="47.20699" lon="-1.38141">
        <ele>42.1</ele>
        <time>2015-01-11T09:19:19Z</time>
      </trkpt>
      <trkpt lat="47.20687" lon="-1.38157">
        <ele>42.1</ele>
        <time>2015-01-11T09:19:22Z</time>
      </trkpt>
      <trkpt lat="47.20676" lon="-1.38171">
        <ele>42.1</ele>
        <time>2015-01-11T09:19:24Z</time>
      </trkpt>
      <trkpt lat="47.20663" lon="-1.38188">
        <ele>42</ele>
        <time>2015-01-11T09:19:26Z</time>
      </trkpt>
      <trkpt lat="47.20651" lon="-1.38205">
        <ele>41.9</ele>
        <time>2015-01-11T09:19:28Z</time>
      </trkpt>
      <trkpt lat="47.20636" lon="-1.38222">
        <ele>41.8</ele>
        <time>2015-01-11T09:19:30Z</time>
      </trkpt>
      <trkpt lat="47.20623" lon="-1.38239">
        <ele>41.8</ele>
        <time>2015-01-11T09:19:32Z</time>
      </trkpt>
      <trkpt lat="47.20612" lon="-1.38255">
        <ele>41.7</ele>
        <time>2015-01-11T09:19:34Z</time>
      </trkpt>
      <trkpt lat="47.20602" lon="-1.3828">
        <ele>40.9</ele>
        <time>2015-01-11T09:19:37Z</time>
      </trkpt>
      <trkpt lat="47.20591" lon="-1.38303">
        <ele>39.6</ele>
        <time>2015-01-11T09:19:40Z</time>
      </trkpt>
      <trkpt lat="47.20583" lon="-1.3832">
        <ele>38.3</ele>
        <time>2015-01-11T09:19:42Z</time>
      </trkpt>
      <trkpt lat="47.20574" lon="-1.38336">
        <ele>36.9</ele>
        <time>2015-01-11T09:19:44Z</time>
      </trkpt>
      <trkpt lat="47.20562" lon="-1.38361">
        <ele>35.7</ele>
        <time>2015-01-11T09:19:47Z</time>
      </trkpt>
      <trkpt lat="47.20546" lon="-1.38375">
        <ele>33.6</ele>
        <time>2015-01-11T09:19:50Z</time>
      </trkpt>
      <trkpt lat="47.20528" lon="-1.38374">
        <ele>29.9</ele>
        <time>2015-01-11T09:19:53Z</time>
      </trkpt>
      <trkpt lat="47.20517" lon="-1.38366">
        <ele>29</ele>
        <time>2015-01-11T09:19:55Z</time>
      </trkpt>
      <trkpt lat="47.20506" lon="-1.38355">
        <ele>25.7</ele>
        <time>2015-01-11T09:19:57Z</time>
      </trkpt>
      <trkpt lat="47.20497" lon="-1.38347">
        <ele>24</ele>
        <time>2015-01-11T09:19:59Z</time>
      </trkpt>
      <trkpt lat="47.20488" lon="-1.38344">
        <ele>22.2</ele>
        <time>2015-01-11T09:20:02Z</time>
      </trkpt>
      <trkpt lat="47.20483" lon="-1.38356">
        <ele>18.8</ele>
        <time>2015-01-11T09:20:06Z</time>
      </trkpt>
      <trkpt lat="47.20474" lon="-1.38372">
        <ele>17.4</ele>
        <time>2015-01-11T09:20:10Z</time>
      </trkpt>
      <trkpt lat="47.20466" lon="-1.38392">
        <ele>15.4</ele>
        <time>2015-01-11T09:20:15Z</time>
      </trkpt>
      <trkpt lat="47.2046" lon="-1.3841">
        <ele>14.8</ele>
        <time>2015-01-11T09:20:19Z</time>
      </trkpt>
      <trkpt lat="47.20454" lon="-1.38432">
        <ele>12.8</ele>
        <time>2015-01-11T09:20:24Z</time>
      </trkpt>
      <trkpt lat="47.20448" lon="-1.38452">
        <ele>10.9</ele>
        <time>2015-01-11T09:20:29Z</time>
      </trkpt>
      <trkpt lat="47.20447" lon="-1.3846">
        <ele>9.3</ele>
        <time>2015-01-11T09:20:31Z</time>
      </trkpt>
      <trkpt lat="47.20445" lon="-1.38467">
        <ele>9.3</ele>
        <time>2015-01-11T09:20:33Z</time>
      </trkpt>
      <trkpt lat="47.20441" lon="-1.38474">
        <ele>9.3</ele>
        <time>2015-01-11T09:20:35Z</time>
      </trkpt>
      <trkpt lat="47.20437" lon="-1.38479">
        <ele>8.6</ele>
        <time>2015-01-11T09:20:37Z</time>
      </trkpt>
      <trkpt lat="47.20431" lon="-1.38483">
        <ele>8.6</ele>
        <time>2015-01-11T09:20:39Z</time>
      </trkpt>
      <trkpt lat="47.20425" lon="-1.38488">
        <ele>8.6</ele>
        <time>2015-01-11T09:20:41Z</time>
      </trkpt>
      <trkpt lat="47.20411" lon="-1.38498">
        <ele>8.5</ele>
        <time>2015-01-11T09:20:45Z</time>
      </trkpt>
      <trkpt lat="47.20398" lon="-1.38511">
        <ele>8.4</ele>
        <time>2015-01-11T09:20:48Z</time>
      </trkpt>
      <trkpt lat="47.20385" lon="-1.38525">
        <ele>8.4</ele>
        <time>2015-01-11T09:20:52Z</time>
      </trkpt>
      <trkpt lat="47.20372" lon="-1.38538">
        <ele>8.4</ele>
        <time>2015-01-11T09:20:55Z</time>
      </trkpt>
      <trkpt lat="47.20356" lon="-1.38552">
        <ele>8.3</ele>
        <time>2015-01-11T09:21:00Z</time>
      </trkpt>
      <trkpt lat="47.20349" lon="-1.38558">
        <ele>8.1</ele>
        <time>2015-01-11T09:21:02Z</time>
      </trkpt>
      <trkpt lat="47.20345" lon="-1.38559">
        <ele>8.1</ele>
        <time>2015-01-11T09:21:04Z</time>
      </trkpt>
      <trkpt lat="47.20339" lon="-1.3856">
        <ele>8.1</ele>
        <time>2015-01-11T09:21:06Z</time>
      </trkpt>
      <trkpt lat="47.20333" lon="-1.38538">
        <ele>8.1</ele>
        <time>2015-01-11T09:21:11Z</time>
      </trkpt>
      <trkpt lat="47.20331" lon="-1.38512">
        <ele>8</ele>
        <time>2015-01-11T09:21:15Z</time>
      </trkpt>
      <trkpt lat="47.20326" lon="-1.38489">
        <ele>6.9</ele>
        <time>2015-01-11T09:21:19Z</time>
      </trkpt>
      <trkpt lat="47.20319" lon="-1.3847">
        <ele>6.6</ele>
        <time>2015-01-11T09:21:23Z</time>
      </trkpt>
      <trkpt lat="47.2031" lon="-1.38451">
        <ele>6.5</ele>
        <time>2015-01-11T09:21:27Z</time>
      </trkpt>
      <trkpt lat="47.20298" lon="-1.38437">
        <ele>6.5</ele>
        <time>2015-01-11T09:21:31Z</time>
      </trkpt>
      <trkpt lat="47.20286" lon="-1.38423">
        <ele>6.4</ele>
        <time>2015-01-11T09:21:35Z</time>
      </trkpt>
      <trkpt lat="47.20276" lon="-1.38417">
        <ele>6.2</ele>
        <time>2015-01-11T09:21:38Z</time>
      </trkpt>
      <trkpt lat="47.20265" lon="-1.38409">
        <ele>6.2</ele>
        <time>2015-01-11T09:21:42Z</time>
      </trkpt>
      <trkpt lat="47.20255" lon="-1.38403">
        <ele>6.2</ele>
        <time>2015-01-11T09:21:45Z</time>
      </trkpt>
      <trkpt lat="47.20247" lon="-1.38397">
        <ele>6.2</ele>
        <time>2015-01-11T09:21:48Z</time>
      </trkpt>
      <trkpt lat="47.20236" lon="-1.38389">
        <ele>6.2</ele>
        <time>2015-01-11T09:21:52Z</time>
      </trkpt>
      <trkpt lat="47.20226" lon="-1.38387">
        <ele>6.2</ele>
        <time>2015-01-11T09:21:57Z</time>
      </trkpt>
      <trkpt lat="47.20219" lon="-1.38399">
        <ele>6.2</ele>
        <time>2015-01-11T09:22:02Z</time>
      </trkpt>
      <trkpt lat="47.20213" lon="-1.38411">
        <ele>6.3</ele>
        <time>2015-01-11T09:22:05Z</time>
      </trkpt>
      <trkpt lat="47.20203" lon="-1.3841">
        <ele>6.4</ele>
        <time>2015-01-11T09:22:09Z</time>
      </trkpt>
      <trkpt lat="47.20191" lon="-1.38408">
        <ele>6.5</ele>
        <time>2015-01-11T09:22:13Z</time>
      </trkpt>
      <trkpt lat="47.20179" lon="-1.38407">
        <ele>6.6</ele>
        <time>2015-01-11T09:22:17Z</time>
      </trkpt>
      <trkpt lat="47.20164" lon="-1.38402">
        <ele>6.7</ele>
        <time>2015-01-11T09:22:22Z</time>
      </trkpt>
      <trkpt lat="47.20155" lon="-1.38402">
        <ele>6.8</ele>
        <time>2015-01-11T09:22:25Z</time>
      </trkpt>
      <trkpt lat="47.20144" lon="-1.384">
        <ele>6.8</ele>
        <time>2015-01-11T09:22:29Z</time>
      </trkpt>
      <trkpt lat="47.20134" lon="-1.38401">
        <ele>6.8</ele>
        <time>2015-01-11T09:22:33Z</time>
      </trkpt>
      <trkpt lat="47.20124" lon="-1.38404">
        <ele>6.8</ele>
        <time>2015-01-11T09:22:37Z</time>
      </trkpt>
      <trkpt lat="47.20112" lon="-1.38409">
        <ele>6.8</ele>
        <time>2015-01-11T09:22:41Z</time>
      </trkpt>
      <trkpt lat="47.20101" lon="-1.38415">
        <ele>6.8</ele>
        <time>2015-01-11T09:22:45Z</time>
      </trkpt>
      <trkpt lat="47.20089" lon="-1.38421">
        <ele>6.8</ele>
        <time>2015-01-11T09:22:50Z</time>
      </trkpt>
      <trkpt lat="47.20079" lon="-1.38428">
        <ele>6.7</ele>
        <time>2015-01-11T09:22:54Z</time>
      </trkpt>
      <trkpt lat="47.20066" lon="-1.38438">
        <ele>6.7</ele>
        <time>2015-01-11T09:22:59Z</time>
      </trkpt>
      <trkpt lat="47.2006" lon="-1.3844">
        <ele>6.7</ele>
        <time>2015-01-11T09:23:01Z</time>
      </trkpt>
      <trkpt lat="47.20052" lon="-1.38444">
        <ele>6.7</ele>
        <time>2015-01-11T09:23:04Z</time>
      </trkpt>
      <trkpt lat="47.20042" lon="-1.38446">
        <ele>6.5</ele>
        <time>2015-01-11T09:23:07Z</time>
      </trkpt>
      <trkpt lat="47.20029" lon="-1.38452">
        <ele>6.3</ele>
        <time>2015-01-11T09:23:12Z</time>
      </trkpt>
      <trkpt lat="47.20019" lon="-1.38459">
        <ele>6.2</ele>
        <time>2015-01-11T09:23:17Z</time>
      </trkpt>
      <trkpt lat="47.20009" lon="-1.38469">
        <ele>6.2</ele>
        <time>2015-01-11T09:23:22Z</time>
      </trkpt>
      <trkpt lat="47.20001" lon="-1.38475">
        <ele>6.2</ele>
        <time>2015-01-11T09:23:26Z</time>
      </trkpt>
      <trkpt lat="47.19988" lon="-1.38482">
        <ele>6.2</ele>
        <time>2015-01-11T09:23:31Z</time>
      </trkpt>
      <trkpt lat="47.19975" lon="-1.38488">
        <ele>6.2</ele>
        <time>2015-01-11T09:23:35Z</time>
      </trkpt>
      <trkpt lat="47.19965" lon="-1.38493">
        <ele>6.2</ele>
        <time>2015-01-11T09:23:38Z</time>
      </trkpt>
      <trkpt lat="47.19949" lon="-1.38502">
        <ele>6.4</ele>
        <time>2015-01-11T09:23:43Z</time>
      </trkpt>
      <trkpt lat="47.19939" lon="-1.38507">
        <ele>6.5</ele>
        <time>2015-01-11T09:23:46Z</time>
      </trkpt>
      <trkpt lat="47.19926" lon="-1.3852">
        <ele>6.7</ele>
        <time>2015-01-11T09:23:50Z</time>
      </trkpt>
      <trkpt lat="47.19919" lon="-1.38524">
        <ele>6.9</ele>
        <time>2015-01-11T09:23:52Z</time>
      </trkpt>
      <trkpt lat="47.19912" lon="-1.38528">
        <ele>6.9</ele>
        <time>2015-01-11T09:23:54Z</time>
      </trkpt>
      <trkpt lat="47.19906" lon="-1.3853">
        <ele>6.9</ele>
        <time>2015-01-11T09:23:56Z</time>
      </trkpt>
      <trkpt lat="47.19894" lon="-1.3852">
        <ele>7.2</ele>
        <time>2015-01-11T09:24:01Z</time>
      </trkpt>
      <trkpt lat="47.19879" lon="-1.38521">
        <ele>7.5</ele>
        <time>2015-01-11T09:24:06Z</time>
      </trkpt>
      <trkpt lat="47.19867" lon="-1.38521">
        <ele>7.6</ele>
        <time>2015-01-11T09:24:10Z</time>
      </trkpt>
      <trkpt lat="47.19857" lon="-1.38522">
        <ele>7.6</ele>
        <time>2015-01-11T09:24:13Z</time>
      </trkpt>
      <trkpt lat="47.19846" lon="-1.38525">
        <ele>7.6</ele>
        <time>2015-01-11T09:24:16Z</time>
      </trkpt>
      <trkpt lat="47.19837" lon="-1.38528">
        <ele>7.6</ele>
        <time>2015-01-11T09:24:19Z</time>
      </trkpt>
      <trkpt lat="47.19828" lon="-1.38533">
        <ele>7.6</ele>
        <time>2015-01-11T09:24:22Z</time>
      </trkpt>
      <trkpt lat="47.19819" lon="-1.38539">
        <ele>7.7</ele>
        <time>2015-01-11T09:24:25Z</time>
      </trkpt>
      <trkpt lat="47.19808" lon="-1.38551">
        <ele>7.7</ele>
        <time>2015-01-11T09:24:29Z</time>
      </trkpt>
      <trkpt lat="47.19795" lon="-1.38564">
        <ele>7.9</ele>
        <time>2015-01-11T09:24:34Z</time>
      </trkpt>
      <trkpt lat="47.19782" lon="-1.38572">
        <ele>8.1</ele>
        <time>2015-01-11T09:24:38Z</time>
      </trkpt>
      <trkpt lat="47.19772" lon="-1.38578">
        <ele>8.2</ele>
        <time>2015-01-11T09:24:41Z</time>
      </trkpt>
      <trkpt lat="47.19765" lon="-1.38588">
        <ele>8.3</ele>
        <time>2015-01-11T09:24:44Z</time>
      </trkpt>
      <trkpt lat="47.1976" lon="-1.38594">
        <ele>8.5</ele>
        <time>2015-01-11T09:24:46Z</time>
      </trkpt>
      <trkpt lat="47.19754" lon="-1.38598">
        <ele>8.5</ele>
        <time>2015-01-11T09:24:48Z</time>
      </trkpt>
      <trkpt lat="47.19749" lon="-1.38602">
        <ele>8.5</ele>
        <time>2015-01-11T09:24:50Z</time>
      </trkpt>
      <trkpt lat="47.1974" lon="-1.3861">
        <ele>8.5</ele>
        <time>2015-01-11T09:24:54Z</time>
      </trkpt>
      <trkpt lat="47.19726" lon="-1.38621">
        <ele>8.5</ele>
        <time>2015-01-11T09:25:02Z</time>
      </trkpt>
      <trkpt lat="47.19717" lon="-1.38631">
        <ele>8.5</ele>
        <time>2015-01-11T09:25:06Z</time>
      </trkpt>
      <trkpt lat="47.19713" lon="-1.38637">
        <ele>8.5</ele>
        <time>2015-01-11T09:25:08Z</time>
      </trkpt>
      <trkpt lat="47.1971" lon="-1.38644">
        <ele>8.5</ele>
        <time>2015-01-11T09:25:10Z</time>
      </trkpt>
      <trkpt lat="47.19708" lon="-1.38651">
        <ele>8.5</ele>
        <time>2015-01-11T09:25:12Z</time>
      </trkpt>
      <trkpt lat="47.19704" lon="-1.38659">
        <ele>8.5</ele>
        <time>2015-01-11T09:25:14Z</time>
      </trkpt>
      <trkpt lat="47.197" lon="-1.38667">
        <ele>8.5</ele>
        <time>2015-01-11T09:25:16Z</time>
      </trkpt>
      <trkpt lat="47.19694" lon="-1.38678">
        <ele>8.5</ele>
        <time>2015-01-11T09:25:19Z</time>
      </trkpt>
      <trkpt lat="47.19689" lon="-1.38689">
        <ele>8.5</ele>
        <time>2015-01-11T09:25:22Z</time>
      </trkpt>
      <trkpt lat="47.19679" lon="-1.38706">
        <ele>8.1</ele>
        <time>2015-01-11T09:25:28Z</time>
      </trkpt>
      <trkpt lat="47.19677" lon="-1.38712">
        <ele>7.2</ele>
        <time>2015-01-11T09:25:30Z</time>
      </trkpt>
      <trkpt lat="47.19675" lon="-1.3872">
        <ele>7</ele>
        <time>2015-01-11T09:25:34Z</time>
      </trkpt>
      <trkpt lat="47.19672" lon="-1.38727">
        <ele>7</ele>
        <time>2015-01-11T09:25:37Z</time>
      </trkpt>
      <trkpt lat="47.19668" lon="-1.38733">
        <ele>6.9</ele>
        <time>2015-01-11T09:25:41Z</time>
      </trkpt>
      <trkpt lat="47.19662" lon="-1.38744">
        <ele>6.8</ele>
        <time>2015-01-11T09:25:46Z</time>
      </trkpt>
      <trkpt lat="47.1965" lon="-1.38758">
        <ele>6.8</ele>
        <time>2015-01-11T09:25:52Z</time>
      </trkpt>
      <trkpt lat="47.19639" lon="-1.3877">
        <ele>6.8</ele>
        <time>2015-01-11T09:25:57Z</time>
      </trkpt>
      <trkpt lat="47.19626" lon="-1.38783">
        <ele>6.9</ele>
        <time>2015-01-11T09:26:03Z</time>
      </trkpt>
      <trkpt lat="47.19622" lon="-1.38788">
        <ele>7</ele>
        <time>2015-01-11T09:26:05Z</time>
      </trkpt>
      <trkpt lat="47.19617" lon="-1.38795">
        <ele>7</ele>
        <time>2015-01-11T09:26:08Z</time>
      </trkpt>
      <trkpt lat="47.19613" lon="-1.38801">
        <ele>7.3</ele>
        <time>2015-01-11T09:26:10Z</time>
      </trkpt>
      <trkpt lat="47.1961" lon="-1.38806">
        <ele>7.3</ele>
        <time>2015-01-11T09:26:12Z</time>
      </trkpt>
      <trkpt lat="47.19605" lon="-1.38811">
        <ele>7.3</ele>
        <time>2015-01-11T09:26:14Z</time>
      </trkpt>
      <trkpt lat="47.19596" lon="-1.38819">
        <ele>7.9</ele>
        <time>2015-01-11T09:26:18Z</time>
      </trkpt>
      <trkpt lat="47.19586" lon="-1.38833">
        <ele>8.3</ele>
        <time>2015-01-11T09:26:24Z</time>
      </trkpt>
      <trkpt lat="47.1958" lon="-1.3884">
        <ele>8.8</ele>
        <time>2015-01-11T09:26:28Z</time>
      </trkpt>
      <trkpt lat="47.19577" lon="-1.38843">
        <ele>8.8</ele>
        <time>2015-01-11T09:26:30Z</time>
      </trkpt>
      <trkpt lat="47.19571" lon="-1.38849">
        <ele>9.4</ele>
        <time>2015-01-11T09:26:33Z</time>
      </trkpt>
      <trkpt lat="47.19566" lon="-1.38855">
        <ele>10.4</ele>
        <time>2015-01-11T09:26:36Z</time>
      </trkpt>
      <trkpt lat="47.19561" lon="-1.38858">
        <ele>10.4</ele>
        <time>2015-01-11T09:26:39Z</time>
      </trkpt>
      <trkpt lat="47.19557" lon="-1.38862">
        <ele>11.8</ele>
        <time>2015-01-11T09:26:42Z</time>
      </trkpt>
      <trkpt lat="47.19548" lon="-1.38872">
        <ele>12.1</ele>
        <time>2015-01-11T09:26:47Z</time>
      </trkpt>
      <trkpt lat="47.19537" lon="-1.38885">
        <ele>12.4</ele>
        <time>2015-01-11T09:26:53Z</time>
      </trkpt>
      <trkpt lat="47.19525" lon="-1.38898">
        <ele>12.5</ele>
        <time>2015-01-11T09:26:59Z</time>
      </trkpt>
      <trkpt lat="47.19516" lon="-1.38913">
        <ele>12.8</ele>
        <time>2015-01-11T09:27:05Z</time>
      </trkpt>
      <trkpt lat="47.19506" lon="-1.38924">
        <ele>13</ele>
        <time>2015-01-11T09:27:10Z</time>
      </trkpt>
      <trkpt lat="47.19494" lon="-1.38939">
        <ele>13.3</ele>
        <time>2015-01-11T09:27:16Z</time>
      </trkpt>
      <trkpt lat="47.19486" lon="-1.38947">
        <ele>13.5</ele>
        <time>2015-01-11T09:27:21Z</time>
      </trkpt>
      <trkpt lat="47.19483" lon="-1.38952">
        <ele>13.9</ele>
        <time>2015-01-11T09:27:25Z</time>
      </trkpt>
      <trkpt lat="47.19482" lon="-1.38952">
        <ele>13.9</ele>
        <time>2015-01-11T09:27:26Z</time>
      </trkpt>
      <trkpt lat="47.19482" lon="-1.38952">
        <ele>15.3</ele>
        <time>2015-01-11T09:27:29Z</time>
      </trkpt>
      <trkpt lat="47.19482" lon="-1.38952">
        <ele>12.1</ele>
        <time>2015-01-11T09:27:29Z</time>
      </trkpt>
      <trkpt lat="47.19482" lon="-1.38952">
        <ele>12.1</ele>
        <time>2015-01-11T09:29:28Z</time>
      </trkpt>
      <trkpt lat="47.19471" lon="-1.38962">
        <ele>15.5</ele>
        <time>2015-01-11T09:29:29Z</time>
      </trkpt>
      <trkpt lat="47.19466" lon="-1.38966">
        <ele>15.5</ele>
        <time>2015-01-11T09:29:31Z</time>
      </trkpt>
      <trkpt lat="47.19461" lon="-1.38969">
        <ele>15.5</ele>
        <time>2015-01-11T09:29:33Z</time>
      </trkpt>
      <trkpt lat="47.19456" lon="-1.38971">
        <ele>15.5</ele>
        <time>2015-01-11T09:29:35Z</time>
      </trkpt>
      <trkpt lat="47.1945" lon="-1.38974">
        <ele>15.4</ele>
        <time>2015-01-11T09:29:37Z</time>
      </trkpt>
      <trkpt lat="47.19445" lon="-1.38971">
        <ele>15.4</ele>
        <time>2015-01-11T09:29:40Z</time>
      </trkpt>
      <trkpt lat="47.19444" lon="-1.38969">
        <ele>15.3</ele>
        <time>2015-01-11T09:29:41Z</time>
      </trkpt>
      <trkpt lat="47.19444" lon="-1.38968">
        <ele>12</ele>
        <time>2015-01-11T09:29:45Z</time>
      </trkpt>
      <trkpt lat="47.19444" lon="-1.38968">
        <ele>11</ele>
        <time>2015-01-11T09:29:45Z</time>
      </trkpt>
      <trkpt lat="47.19444" lon="-1.38968">
        <ele>11</ele>
        <time>2015-01-11T09:30:10Z</time>
      </trkpt>
      <trkpt lat="47.19436" lon="-1.38979">
        <ele>14.6</ele>
        <time>2015-01-11T09:30:11Z</time>
      </trkpt>
      <trkpt lat="47.19421" lon="-1.38969">
        <ele>14.4</ele>
        <time>2015-01-11T09:30:16Z</time>
      </trkpt>
      <trkpt lat="47.19412" lon="-1.38964">
        <ele>14.4</ele>
        <time>2015-01-11T09:30:19Z</time>
      </trkpt>
      <trkpt lat="47.19403" lon="-1.38961">
        <ele>14.4</ele>
        <time>2015-01-11T09:30:22Z</time>
      </trkpt>
      <trkpt lat="47.19392" lon="-1.3896">
        <ele>14.2</ele>
        <time>2015-01-11T09:30:25Z</time>
      </trkpt>
      <trkpt lat="47.19377" lon="-1.38957">
        <ele>14.2</ele>
        <time>2015-01-11T09:30:29Z</time>
      </trkpt>
      <trkpt lat="47.19365" lon="-1.38955">
        <ele>14.1</ele>
        <time>2015-01-11T09:30:32Z</time>
      </trkpt>
      <trkpt lat="47.19347" lon="-1.38952">
        <ele>14</ele>
        <time>2015-01-11T09:30:36Z</time>
      </trkpt>
      <trkpt lat="47.19326" lon="-1.38948">
        <ele>14.1</ele>
        <time>2015-01-11T09:30:41Z</time>
      </trkpt>
      <trkpt lat="47.19317" lon="-1.38946">
        <ele>14.2</ele>
        <time>2015-01-11T09:30:43Z</time>
      </trkpt>
      <trkpt lat="47.19306" lon="-1.38944">
        <ele>14.4</ele>
        <time>2015-01-11T09:30:46Z</time>
      </trkpt>
      <trkpt lat="47.19289" lon="-1.38943">
        <ele>14.6</ele>
        <time>2015-01-11T09:30:50Z</time>
      </trkpt>
      <trkpt lat="47.19279" lon="-1.38943">
        <ele>14.6</ele>
        <time>2015-01-11T09:30:52Z</time>
      </trkpt>
      <trkpt lat="47.1927" lon="-1.38944">
        <ele>14.6</ele>
        <time>2015-01-11T09:30:54Z</time>
      </trkpt>
      <trkpt lat="47.19258" lon="-1.38953">
        <ele>14.6</ele>
        <time>2015-01-11T09:30:57Z</time>
      </trkpt>
      <trkpt lat="47.19248" lon="-1.38968">
        <ele>14.6</ele>
        <time>2015-01-11T09:31:00Z</time>
      </trkpt>
      <trkpt lat="47.19239" lon="-1.38989">
        <ele>14.6</ele>
        <time>2015-01-11T09:31:04Z</time>
      </trkpt>
      <trkpt lat="47.19231" lon="-1.39009">
        <ele>14.6</ele>
        <time>2015-01-11T09:31:08Z</time>
      </trkpt>
      <trkpt lat="47.19224" lon="-1.39026">
        <ele>14.7</ele>
        <time>2015-01-11T09:31:11Z</time>
      </trkpt>
      <trkpt lat="47.19215" lon="-1.39048">
        <ele>14.8</ele>
        <time>2015-01-11T09:31:15Z</time>
      </trkpt>
      <trkpt lat="47.19206" lon="-1.39067">
        <ele>14.8</ele>
        <time>2015-01-11T09:31:19Z</time>
      </trkpt>
      <trkpt lat="47.19197" lon="-1.39087">
        <ele>14.8</ele>
        <time>2015-01-11T09:31:23Z</time>
      </trkpt>
      <trkpt lat="47.19186" lon="-1.39106">
        <ele>15</ele>
        <time>2015-01-11T09:31:27Z</time>
      </trkpt>
      <trkpt lat="47.19177" lon="-1.39122">
        <ele>15.2</ele>
        <time>2015-01-11T09:31:30Z</time>
      </trkpt>
      <trkpt lat="47.19167" lon="-1.39143">
        <ele>15.6</ele>
        <time>2015-01-11T09:31:34Z</time>
      </trkpt>
      <trkpt lat="47.19157" lon="-1.39157">
        <ele>15.7</ele>
        <time>2015-01-11T09:31:37Z</time>
      </trkpt>
      <trkpt lat="47.19148" lon="-1.39173">
        <ele>16</ele>
        <time>2015-01-11T09:31:40Z</time>
      </trkpt>
      <trkpt lat="47.19135" lon="-1.39188">
        <ele>17.6</ele>
        <time>2015-01-11T09:31:44Z</time>
      </trkpt>
      <trkpt lat="47.19124" lon="-1.392">
        <ele>17.8</ele>
        <time>2015-01-11T09:31:47Z</time>
      </trkpt>
      <trkpt lat="47.19111" lon="-1.39216">
        <ele>18.4</ele>
        <time>2015-01-11T09:31:51Z</time>
      </trkpt>
      <trkpt lat="47.19098" lon="-1.39232">
        <ele>18.8</ele>
        <time>2015-01-11T09:31:55Z</time>
      </trkpt>
      <trkpt lat="47.19088" lon="-1.39247">
        <ele>19</ele>
        <time>2015-01-11T09:31:59Z</time>
      </trkpt>
      <trkpt lat="47.19076" lon="-1.39262">
        <ele>19.1</ele>
        <time>2015-01-11T09:32:02Z</time>
      </trkpt>
      <trkpt lat="47.19066" lon="-1.39276">
        <ele>19.3</ele>
        <time>2015-01-11T09:32:05Z</time>
      </trkpt>
      <trkpt lat="47.19054" lon="-1.39291">
        <ele>19.4</ele>
        <time>2015-01-11T09:32:09Z</time>
      </trkpt>
      <trkpt lat="47.19044" lon="-1.39305">
        <ele>19.4</ele>
        <time>2015-01-11T09:32:12Z</time>
      </trkpt>
      <trkpt lat="47.1903" lon="-1.39313">
        <ele>19.4</ele>
        <time>2015-01-11T09:32:15Z</time>
      </trkpt>
      <trkpt lat="47.1902" lon="-1.39318">
        <ele>19.4</ele>
        <time>2015-01-11T09:32:17Z</time>
      </trkpt>
      <trkpt lat="47.1901" lon="-1.39323">
        <ele>19.4</ele>
        <time>2015-01-11T09:32:19Z</time>
      </trkpt>
      <trkpt lat="47.18994" lon="-1.3933">
        <ele>19.4</ele>
        <time>2015-01-11T09:32:23Z</time>
      </trkpt>
      <trkpt lat="47.18985" lon="-1.39334">
        <ele>19.5</ele>
        <time>2015-01-11T09:32:25Z</time>
      </trkpt>
      <trkpt lat="47.18974" lon="-1.3934">
        <ele>19.5</ele>
        <time>2015-01-11T09:32:28Z</time>
      </trkpt>
      <trkpt lat="47.18959" lon="-1.39349">
        <ele>19.6</ele>
        <time>2015-01-11T09:32:32Z</time>
      </trkpt>
      <trkpt lat="47.18945" lon="-1.39363">
        <ele>19.6</ele>
        <time>2015-01-11T09:32:36Z</time>
      </trkpt>
      <trkpt lat="47.18932" lon="-1.39372">
        <ele>19.7</ele>
        <time>2015-01-11T09:32:39Z</time>
      </trkpt>
      <trkpt lat="47.18923" lon="-1.3938">
        <ele>19.9</ele>
        <time>2015-01-11T09:32:41Z</time>
      </trkpt>
      <trkpt lat="47.18915" lon="-1.39387">
        <ele>20</ele>
        <time>2015-01-11T09:32:44Z</time>
      </trkpt>
      <trkpt lat="47.18903" lon="-1.39394">
        <ele>20</ele>
        <time>2015-01-11T09:32:47Z</time>
      </trkpt>
      <trkpt lat="47.18889" lon="-1.39402">
        <ele>20</ele>
        <time>2015-01-11T09:32:50Z</time>
      </trkpt>
      <trkpt lat="47.18881" lon="-1.39408">
        <ele>20</ele>
        <time>2015-01-11T09:32:52Z</time>
      </trkpt>
      <trkpt lat="47.18867" lon="-1.39415">
        <ele>19.8</ele>
        <time>2015-01-11T09:32:55Z</time>
      </trkpt>
      <trkpt lat="47.18857" lon="-1.39422">
        <ele>19.5</ele>
        <time>2015-01-11T09:32:57Z</time>
      </trkpt>
      <trkpt lat="47.18846" lon="-1.39428">
        <ele>19.4</ele>
        <time>2015-01-11T09:33:00Z</time>
      </trkpt>
      <trkpt lat="47.18829" lon="-1.39438">
        <ele>19.4</ele>
        <time>2015-01-11T09:33:03Z</time>
      </trkpt>
      <trkpt lat="47.18804" lon="-1.39455">
        <ele>19.7</ele>
        <time>2015-01-11T09:33:08Z</time>
      </trkpt>
      <trkpt lat="47.18795" lon="-1.39461">
        <ele>19.8</ele>
        <time>2015-01-11T09:33:10Z</time>
      </trkpt>
      <trkpt lat="47.18778" lon="-1.39468">
        <ele>19.8</ele>
        <time>2015-01-11T09:33:14Z</time>
      </trkpt>
      <trkpt lat="47.18768" lon="-1.39473">
        <ele>19.8</ele>
        <time>2015-01-11T09:33:16Z</time>
      </trkpt>
      <trkpt lat="47.18759" lon="-1.3948">
        <ele>19.8</ele>
        <time>2015-01-11T09:33:18Z</time>
      </trkpt>
      <trkpt lat="47.18747" lon="-1.39483">
        <ele>19.8</ele>
        <time>2015-01-11T09:33:21Z</time>
      </trkpt>
      <trkpt lat="47.18732" lon="-1.39496">
        <ele>19.5</ele>
        <time>2015-01-11T09:33:25Z</time>
      </trkpt>
      <trkpt lat="47.18722" lon="-1.39503">
        <ele>19.2</ele>
        <time>2015-01-11T09:33:29Z</time>
      </trkpt>
      <trkpt lat="47.18711" lon="-1.39516">
        <ele>18.7</ele>
        <time>2015-01-11T09:33:34Z</time>
      </trkpt>
      <trkpt lat="47.18705" lon="-1.39517">
        <ele>18</ele>
        <time>2015-01-11T09:33:36Z</time>
      </trkpt>
      <trkpt lat="47.18701" lon="-1.39514">
        <ele>18</ele>
        <time>2015-01-11T09:33:38Z</time>
      </trkpt>
      <trkpt lat="47.18695" lon="-1.39511">
        <ele>18</ele>
        <time>2015-01-11T09:33:40Z</time>
      </trkpt>
      <trkpt lat="47.1869" lon="-1.39507">
        <ele>16.3</ele>
        <time>2015-01-11T09:33:43Z</time>
      </trkpt>
      <trkpt lat="47.18685" lon="-1.39506">
        <ele>16.3</ele>
        <time>2015-01-11T09:33:45Z</time>
      </trkpt>
      <trkpt lat="47.18675" lon="-1.39505">
        <ele>16</ele>
        <time>2015-01-11T09:33:48Z</time>
      </trkpt>
      <trkpt lat="47.18669" lon="-1.39504">
        <ele>15.6</ele>
        <time>2015-01-11T09:33:51Z</time>
      </trkpt>
      <trkpt lat="47.18668" lon="-1.39501">
        <ele>15.6</ele>
        <time>2015-01-11T09:33:53Z</time>
      </trkpt>
      <trkpt lat="47.1867" lon="-1.39501">
        <ele>16.9</ele>
        <time>2015-01-11T09:33:57Z</time>
      </trkpt>
      <trkpt lat="47.1867" lon="-1.39501">
        <ele>9</ele>
        <time>2015-01-11T09:33:57Z</time>
      </trkpt>
      <trkpt lat="47.1867" lon="-1.39501">
        <ele>9</ele>
        <time>2015-01-11T09:34:23Z</time>
      </trkpt>
      <trkpt lat="47.18661" lon="-1.39483">
        <ele>16.6</ele>
        <time>2015-01-11T09:34:25Z</time>
      </trkpt>
      <trkpt lat="47.1865" lon="-1.39475">
        <ele>16.6</ele>
        <time>2015-01-11T09:34:29Z</time>
      </trkpt>
      <trkpt lat="47.18642" lon="-1.39467">
        <ele>16.6</ele>
        <time>2015-01-11T09:34:32Z</time>
      </trkpt>
      <trkpt lat="47.1863" lon="-1.39458">
        <ele>16.6</ele>
        <time>2015-01-11T09:34:37Z</time>
      </trkpt>
      <trkpt lat="47.18616" lon="-1.39448">
        <ele>16.5</ele>
        <time>2015-01-11T09:34:43Z</time>
      </trkpt>
      <trkpt lat="47.18603" lon="-1.39437">
        <ele>16.5</ele>
        <time>2015-01-11T09:34:48Z</time>
      </trkpt>
      <trkpt lat="47.18594" lon="-1.39431">
        <ele>16.4</ele>
        <time>2015-01-11T09:34:51Z</time>
      </trkpt>
      <trkpt lat="47.18581" lon="-1.39422">
        <ele>14</ele>
        <time>2015-01-11T09:34:57Z</time>
      </trkpt>
      <trkpt lat="47.18568" lon="-1.39416">
        <ele>13</ele>
        <time>2015-01-11T09:35:02Z</time>
      </trkpt>
      <trkpt lat="47.18563" lon="-1.39412">
        <ele>12.7</ele>
        <time>2015-01-11T09:35:04Z</time>
      </trkpt>
      <trkpt lat="47.18558" lon="-1.39408">
        <ele>12.7</ele>
        <time>2015-01-11T09:35:06Z</time>
      </trkpt>
      <trkpt lat="47.18553" lon="-1.39403">
        <ele>12.7</ele>
        <time>2015-01-11T09:35:08Z</time>
      </trkpt>
      <trkpt lat="47.18541" lon="-1.39391">
        <ele>12.7</ele>
        <time>2015-01-11T09:35:15Z</time>
      </trkpt>
      <trkpt lat="47.18533" lon="-1.39374">
        <ele>12.7</ele>
        <time>2015-01-11T09:35:21Z</time>
      </trkpt>
      <trkpt lat="47.18527" lon="-1.39365">
        <ele>12.7</ele>
        <time>2015-01-11T09:35:25Z</time>
      </trkpt>
      <trkpt lat="47.18522" lon="-1.3936">
        <ele>12.9</ele>
        <time>2015-01-11T09:35:28Z</time>
      </trkpt>
      <trkpt lat="47.18518" lon="-1.3936">
        <ele>13.2</ele>
        <time>2015-01-11T09:35:32Z</time>
      </trkpt>
      <trkpt lat="47.18515" lon="-1.39361">
        <ele>14.2</ele>
        <time>2015-01-11T09:35:55Z</time>
      </trkpt>
      <trkpt lat="47.18515" lon="-1.3936">
        <ele>16</ele>
        <time>2015-01-11T09:35:59Z</time>
      </trkpt>
      <trkpt lat="47.18515" lon="-1.3936">
        <ele>8</ele>
        <time>2015-01-11T09:35:59Z</time>
      </trkpt>
      <trkpt lat="47.18515" lon="-1.3936">
        <ele>8</ele>
        <time>2015-01-11T09:36:56Z</time>
      </trkpt>
      <trkpt lat="47.18531" lon="-1.39366">
        <ele>17.3</ele>
        <time>2015-01-11T09:36:59Z</time>
      </trkpt>
      <trkpt lat="47.18535" lon="-1.39372">
        <ele>17.3</ele>
        <time>2015-01-11T09:37:01Z</time>
      </trkpt>
      <trkpt lat="47.18542" lon="-1.39385">
        <ele>17.3</ele>
        <time>2015-01-11T09:37:05Z</time>
      </trkpt>
      <trkpt lat="47.18546" lon="-1.39392">
        <ele>17.2</ele>
        <time>2015-01-11T09:37:07Z</time>
      </trkpt>
      <trkpt lat="47.18552" lon="-1.39397">
        <ele>17.2</ele>
        <time>2015-01-11T09:37:09Z</time>
      </trkpt>
      <trkpt lat="47.18564" lon="-1.39409">
        <ele>17.2</ele>
        <time>2015-01-11T09:37:13Z</time>
      </trkpt>
      <trkpt lat="47.18577" lon="-1.39418">
        <ele>16.9</ele>
        <time>2015-01-11T09:37:17Z</time>
      </trkpt>
      <trkpt lat="47.1859" lon="-1.39427">
        <ele>16.8</ele>
        <time>2015-01-11T09:37:21Z</time>
      </trkpt>
      <trkpt lat="47.186" lon="-1.39436">
        <ele>16.7</ele>
        <time>2015-01-11T09:37:24Z</time>
      </trkpt>
      <trkpt lat="47.18605" lon="-1.39441">
        <ele>16.5</ele>
        <time>2015-01-11T09:37:26Z</time>
      </trkpt>
      <trkpt lat="47.18611" lon="-1.39446">
        <ele>16.5</ele>
        <time>2015-01-11T09:37:28Z</time>
      </trkpt>
      <trkpt lat="47.18622" lon="-1.39453">
        <ele>16.4</ele>
        <time>2015-01-11T09:37:31Z</time>
      </trkpt>
      <trkpt lat="47.18636" lon="-1.39463">
        <ele>16.1</ele>
        <time>2015-01-11T09:37:35Z</time>
      </trkpt>
      <trkpt lat="47.18647" lon="-1.3947">
        <ele>15.9</ele>
        <time>2015-01-11T09:37:38Z</time>
      </trkpt>
      <trkpt lat="47.18661" lon="-1.39477">
        <ele>15.3</ele>
        <time>2015-01-11T09:37:42Z</time>
      </trkpt>
      <trkpt lat="47.18671" lon="-1.39483">
        <ele>14.6</ele>
        <time>2015-01-11T09:37:45Z</time>
      </trkpt>
      <trkpt lat="47.18677" lon="-1.39498">
        <ele>14.3</ele>
        <time>2015-01-11T09:37:49Z</time>
      </trkpt>
      <trkpt lat="47.18667" lon="-1.39516">
        <ele>13.9</ele>
        <time>2015-01-11T09:37:53Z</time>
      </trkpt>
      <trkpt lat="47.18657" lon="-1.39531">
        <ele>13.5</ele>
        <time>2015-01-11T09:37:57Z</time>
      </trkpt>
      <trkpt lat="47.18645" lon="-1.39544">
        <ele>12.9</ele>
        <time>2015-01-11T09:38:01Z</time>
      </trkpt>
      <trkpt lat="47.18637" lon="-1.39554">
        <ele>12.8</ele>
        <time>2015-01-11T09:38:04Z</time>
      </trkpt>
      <trkpt lat="47.18628" lon="-1.39565">
        <ele>12.8</ele>
        <time>2015-01-11T09:38:08Z</time>
      </trkpt>
      <trkpt lat="47.18616" lon="-1.39581">
        <ele>12.7</ele>
        <time>2015-01-11T09:38:12Z</time>
      </trkpt>
      <trkpt lat="47.18609" lon="-1.39593">
        <ele>12.5</ele>
        <time>2015-01-11T09:38:24Z</time>
      </trkpt>
      <trkpt lat="47.18611" lon="-1.39587">
        <ele>12.8</ele>
        <time>2015-01-11T09:38:39Z</time>
      </trkpt>
      <trkpt lat="47.18622" lon="-1.39575">
        <ele>14</ele>
        <time>2015-01-11T09:38:54Z</time>
      </trkpt>
      <trkpt lat="47.18618" lon="-1.39569">
        <ele>14.3</ele>
        <time>2015-01-11T09:39:08Z</time>
      </trkpt>
      <trkpt lat="47.18605" lon="-1.39558">
        <ele>14.3</ele>
        <time>2015-01-11T09:39:15Z</time>
      </trkpt>
      <trkpt lat="47.1859" lon="-1.39546">
        <ele>14.4</ele>
        <time>2015-01-11T09:39:20Z</time>
      </trkpt>
      <trkpt lat="47.18576" lon="-1.39535">
        <ele>14.4</ele>
        <time>2015-01-11T09:39:24Z</time>
      </trkpt>
      <trkpt lat="47.18559" lon="-1.39518">
        <ele>14.5</ele>
        <time>2015-01-11T09:39:29Z</time>
      </trkpt>
      <trkpt lat="47.18545" lon="-1.39508">
        <ele>14.5</ele>
        <time>2015-01-11T09:39:33Z</time>
      </trkpt>
      <trkpt lat="47.18537" lon="-1.39503">
        <ele>14.5</ele>
        <time>2015-01-11T09:39:35Z</time>
      </trkpt>
      <trkpt lat="47.18532" lon="-1.39498">
        <ele>14.5</ele>
        <time>2015-01-11T09:39:37Z</time>
      </trkpt>
      <trkpt lat="47.18525" lon="-1.39492">
        <ele>14.5</ele>
        <time>2015-01-11T09:39:39Z</time>
      </trkpt>
      <trkpt lat="47.18511" lon="-1.39481">
        <ele>14.7</ele>
        <time>2015-01-11T09:39:43Z</time>
      </trkpt>
      <trkpt lat="47.18499" lon="-1.39466">
        <ele>15.1</ele>
        <time>2015-01-11T09:39:48Z</time>
      </trkpt>
      <trkpt lat="47.18488" lon="-1.39457">
        <ele>17.1</ele>
        <time>2015-01-11T09:39:52Z</time>
      </trkpt>
      <trkpt lat="47.18479" lon="-1.39453">
        <ele>17.5</ele>
        <time>2015-01-11T09:39:55Z</time>
      </trkpt>
      <trkpt lat="47.18469" lon="-1.39444">
        <ele>17.8</ele>
        <time>2015-01-11T09:39:58Z</time>
      </trkpt>
      <trkpt lat="47.18459" lon="-1.39437">
        <ele>18.6</ele>
        <time>2015-01-11T09:40:02Z</time>
      </trkpt>
      <trkpt lat="47.18453" lon="-1.39433">
        <ele>18.7</ele>
        <time>2015-01-11T09:40:05Z</time>
      </trkpt>
      <trkpt lat="47.18449" lon="-1.39436">
        <ele>18.7</ele>
        <time>2015-01-11T09:40:08Z</time>
      </trkpt>
      <trkpt lat="47.18441" lon="-1.39451">
        <ele>18.7</ele>
        <time>2015-01-11T09:40:14Z</time>
      </trkpt>
      <trkpt lat="47.18429" lon="-1.39463">
        <ele>18.7</ele>
        <time>2015-01-11T09:40:21Z</time>
      </trkpt>
      <trkpt lat="47.18422" lon="-1.39473">
        <ele>18.1</ele>
        <time>2015-01-11T09:40:24Z</time>
      </trkpt>
      <trkpt lat="47.18413" lon="-1.39489">
        <ele>17.6</ele>
        <time>2015-01-11T09:40:28Z</time>
      </trkpt>
      <trkpt lat="47.18406" lon="-1.39503">
        <ele>17.1</ele>
        <time>2015-01-11T09:40:32Z</time>
      </trkpt>
      <trkpt lat="47.18395" lon="-1.39521">
        <ele>16.7</ele>
        <time>2015-01-11T09:40:36Z</time>
      </trkpt>
      <trkpt lat="47.18385" lon="-1.3954">
        <ele>16.2</ele>
        <time>2015-01-11T09:40:40Z</time>
      </trkpt>
      <trkpt lat="47.18375" lon="-1.39558">
        <ele>16</ele>
        <time>2015-01-11T09:40:44Z</time>
      </trkpt>
      <trkpt lat="47.18362" lon="-1.39575">
        <ele>15.5</ele>
        <time>2015-01-11T09:40:48Z</time>
      </trkpt>
      <trkpt lat="47.1835" lon="-1.39594">
        <ele>15.4</ele>
        <time>2015-01-11T09:40:52Z</time>
      </trkpt>
      <trkpt lat="47.18339" lon="-1.3961">
        <ele>15.2</ele>
        <time>2015-01-11T09:40:56Z</time>
      </trkpt>
      <trkpt lat="47.18328" lon="-1.39626">
        <ele>14.9</ele>
        <time>2015-01-11T09:41:00Z</time>
      </trkpt>
      <trkpt lat="47.18317" lon="-1.39645">
        <ele>14.5</ele>
        <time>2015-01-11T09:41:04Z</time>
      </trkpt>
      <trkpt lat="47.18305" lon="-1.39663">
        <ele>13.5</ele>
        <time>2015-01-11T09:41:08Z</time>
      </trkpt>
      <trkpt lat="47.18293" lon="-1.39681">
        <ele>12.7</ele>
        <time>2015-01-11T09:41:12Z</time>
      </trkpt>
      <trkpt lat="47.18284" lon="-1.39696">
        <ele>12.4</ele>
        <time>2015-01-11T09:41:15Z</time>
      </trkpt>
      <trkpt lat="47.18272" lon="-1.39713">
        <ele>12.7</ele>
        <time>2015-01-11T09:41:19Z</time>
      </trkpt>
      <trkpt lat="47.18261" lon="-1.3973">
        <ele>13.1</ele>
        <time>2015-01-11T09:41:23Z</time>
      </trkpt>
      <trkpt lat="47.18251" lon="-1.39744">
        <ele>13.3</ele>
        <time>2015-01-11T09:41:26Z</time>
      </trkpt>
      <trkpt lat="47.18241" lon="-1.39761">
        <ele>13.4</ele>
        <time>2015-01-11T09:41:30Z</time>
      </trkpt>
      <trkpt lat="47.1823" lon="-1.39775">
        <ele>13.8</ele>
        <time>2015-01-11T09:41:33Z</time>
      </trkpt>
      <trkpt lat="47.18219" lon="-1.39792">
        <ele>14</ele>
        <time>2015-01-11T09:41:36Z</time>
      </trkpt>
      <trkpt lat="47.1821" lon="-1.39807">
        <ele>14</ele>
        <time>2015-01-11T09:41:39Z</time>
      </trkpt>
      <trkpt lat="47.182" lon="-1.39826">
        <ele>13.8</ele>
        <time>2015-01-11T09:41:43Z</time>
      </trkpt>
      <trkpt lat="47.18191" lon="-1.39841">
        <ele>13.4</ele>
        <time>2015-01-11T09:41:46Z</time>
      </trkpt>
      <trkpt lat="47.18178" lon="-1.39854">
        <ele>13</ele>
        <time>2015-01-11T09:41:51Z</time>
      </trkpt>
      <trkpt lat="47.18172" lon="-1.3986">
        <ele>12.9</ele>
        <time>2015-01-11T09:41:53Z</time>
      </trkpt>
      <trkpt lat="47.1817" lon="-1.39867">
        <ele>12.9</ele>
        <time>2015-01-11T09:41:55Z</time>
      </trkpt>
      <trkpt lat="47.18174" lon="-1.39885">
        <ele>13.1</ele>
        <time>2015-01-11T09:42:01Z</time>
      </trkpt>
      <trkpt lat="47.18175" lon="-1.39885">
        <ele>13.3</ele>
        <time>2015-01-11T09:42:03Z</time>
      </trkpt>
      <trkpt lat="47.18177" lon="-1.39883">
        <ele>13.2</ele>
        <time>2015-01-11T09:42:07Z</time>
      </trkpt>
      <trkpt lat="47.18177" lon="-1.39883">
        <ele>11.8</ele>
        <time>2015-01-11T09:42:07Z</time>
      </trkpt>
      <trkpt lat="47.18177" lon="-1.39883">
        <ele>11.8</ele>
        <time>2015-01-11T09:42:17Z</time>
      </trkpt>
      <trkpt lat="47.18173" lon="-1.39871">
        <ele>13.2</ele>
        <time>2015-01-11T09:42:18Z</time>
      </trkpt>
      <trkpt lat="47.18166" lon="-1.39859">
        <ele>13.2</ele>
        <time>2015-01-11T09:42:24Z</time>
      </trkpt>
      <trkpt lat="47.18161" lon="-1.39855">
        <ele>13.2</ele>
        <time>2015-01-11T09:42:26Z</time>
      </trkpt>
      <trkpt lat="47.18154" lon="-1.39853">
        <ele>13.2</ele>
        <time>2015-01-11T09:42:28Z</time>
      </trkpt>
      <trkpt lat="47.18148" lon="-1.39851">
        <ele>13.2</ele>
        <time>2015-01-11T09:42:30Z</time>
      </trkpt>
      <trkpt lat="47.18141" lon="-1.39846">
        <ele>13.2</ele>
        <time>2015-01-11T09:42:32Z</time>
      </trkpt>
      <trkpt lat="47.18134" lon="-1.3984">
        <ele>13.2</ele>
        <time>2015-01-11T09:42:34Z</time>
      </trkpt>
      <trkpt lat="47.18119" lon="-1.39829">
        <ele>13.2</ele>
        <time>2015-01-11T09:42:38Z</time>
      </trkpt>
      <trkpt lat="47.18104" lon="-1.39816">
        <ele>13.5</ele>
        <time>2015-01-11T09:42:42Z</time>
      </trkpt>
      <trkpt lat="47.18096" lon="-1.39809">
        <ele>13.6</ele>
        <time>2015-01-11T09:42:44Z</time>
      </trkpt>
      <trkpt lat="47.18081" lon="-1.39795">
        <ele>13.9</ele>
        <time>2015-01-11T09:42:48Z</time>
      </trkpt>
      <trkpt lat="47.18066" lon="-1.39781">
        <ele>14.7</ele>
        <time>2015-01-11T09:42:52Z</time>
      </trkpt>
      <trkpt lat="47.18051" lon="-1.39768">
        <ele>15.3</ele>
        <time>2015-01-11T09:42:56Z</time>
      </trkpt>
      <trkpt lat="47.1804" lon="-1.39762">
        <ele>16.1</ele>
        <time>2015-01-11T09:42:59Z</time>
      </trkpt>
      <trkpt lat="47.18031" lon="-1.39772">
        <ele>16.6</ele>
        <time>2015-01-11T09:43:02Z</time>
      </trkpt>
      <trkpt lat="47.18019" lon="-1.39791">
        <ele>17.3</ele>
        <time>2015-01-11T09:43:06Z</time>
      </trkpt>
      <trkpt lat="47.1801" lon="-1.39806">
        <ele>17.5</ele>
        <time>2015-01-11T09:43:09Z</time>
      </trkpt>
      <trkpt lat="47.18002" lon="-1.39821">
        <ele>17.9</ele>
        <time>2015-01-11T09:43:13Z</time>
      </trkpt>
      <trkpt lat="47.17992" lon="-1.39838">
        <ele>18</ele>
        <time>2015-01-11T09:43:17Z</time>
      </trkpt>
      <trkpt lat="47.17986" lon="-1.39858">
        <ele>18.7</ele>
        <time>2015-01-11T09:43:21Z</time>
      </trkpt>
      <trkpt lat="47.17983" lon="-1.39883">
        <ele>19.1</ele>
        <time>2015-01-11T09:43:25Z</time>
      </trkpt>
      <trkpt lat="47.17988" lon="-1.399">
        <ele>19.2</ele>
        <time>2015-01-11T09:43:29Z</time>
      </trkpt>
      <trkpt lat="47.17992" lon="-1.39914">
        <ele>19.2</ele>
        <time>2015-01-11T09:43:33Z</time>
      </trkpt>
      <trkpt lat="47.17995" lon="-1.39921">
        <ele>19.2</ele>
        <time>2015-01-11T09:43:35Z</time>
      </trkpt>
      <trkpt lat="47.18001" lon="-1.39933">
        <ele>19.2</ele>
        <time>2015-01-11T09:43:38Z</time>
      </trkpt>
      <trkpt lat="47.18011" lon="-1.39948">
        <ele>19.2</ele>
        <time>2015-01-11T09:43:42Z</time>
      </trkpt>
      <trkpt lat="47.18021" lon="-1.39965">
        <ele>19.2</ele>
        <time>2015-01-11T09:43:46Z</time>
      </trkpt>
      <trkpt lat="47.18026" lon="-1.39973">
        <ele>19.1</ele>
        <time>2015-01-11T09:43:48Z</time>
      </trkpt>
      <trkpt lat="47.18031" lon="-1.3998">
        <ele>19.1</ele>
        <time>2015-01-11T09:43:51Z</time>
      </trkpt>
      <trkpt lat="47.18041" lon="-1.39998">
        <ele>19</ele>
        <time>2015-01-11T09:43:56Z</time>
      </trkpt>
      <trkpt lat="47.18051" lon="-1.40014">
        <ele>19</ele>
        <time>2015-01-11T09:44:00Z</time>
      </trkpt>
      <trkpt lat="47.18059" lon="-1.40031">
        <ele>19</ele>
        <time>2015-01-11T09:44:04Z</time>
      </trkpt>
      <trkpt lat="47.18062" lon="-1.40053">
        <ele>19.1</ele>
        <time>2015-01-11T09:44:09Z</time>
      </trkpt>
      <trkpt lat="47.18048" lon="-1.40063">
        <ele>19.3</ele>
        <time>2015-01-11T09:44:13Z</time>
      </trkpt>
      <trkpt lat="47.18034" lon="-1.40068">
        <ele>19.4</ele>
        <time>2015-01-11T09:44:17Z</time>
      </trkpt>
      <trkpt lat="47.18027" lon="-1.4007">
        <ele>19.4</ele>
        <time>2015-01-11T09:44:19Z</time>
      </trkpt>
      <trkpt lat="47.1802" lon="-1.40071">
        <ele>19.4</ele>
        <time>2015-01-11T09:44:21Z</time>
      </trkpt>
      <trkpt lat="47.18013" lon="-1.4007">
        <ele>19.4</ele>
        <time>2015-01-11T09:44:23Z</time>
      </trkpt>
      <trkpt lat="47.18006" lon="-1.40069">
        <ele>19.4</ele>
        <time>2015-01-11T09:44:25Z</time>
      </trkpt>
      <trkpt lat="47.17999" lon="-1.40066">
        <ele>19.4</ele>
        <time>2015-01-11T09:44:27Z</time>
      </trkpt>
      <trkpt lat="47.17993" lon="-1.40063">
        <ele>19.4</ele>
        <time>2015-01-11T09:44:29Z</time>
      </trkpt>
      <trkpt lat="47.17984" lon="-1.40058">
        <ele>19.6</ele>
        <time>2015-01-11T09:44:32Z</time>
      </trkpt>
      <trkpt lat="47.17975" lon="-1.40055">
        <ele>19.8</ele>
        <time>2015-01-11T09:44:35Z</time>
      </trkpt>
      <trkpt lat="47.17963" lon="-1.40052">
        <ele>20</ele>
        <time>2015-01-11T09:44:39Z</time>
      </trkpt>
      <trkpt lat="47.17952" lon="-1.40052">
        <ele>20.1</ele>
        <time>2015-01-11T09:44:43Z</time>
      </trkpt>
      <trkpt lat="47.17937" lon="-1.40052">
        <ele>20.3</ele>
        <time>2015-01-11T09:44:49Z</time>
      </trkpt>
      <trkpt lat="47.17932" lon="-1.40052">
        <ele>20.4</ele>
        <time>2015-01-11T09:44:51Z</time>
      </trkpt>
      <trkpt lat="47.17926" lon="-1.4005">
        <ele>20.4</ele>
        <time>2015-01-11T09:44:54Z</time>
      </trkpt>
      <trkpt lat="47.17918" lon="-1.40038">
        <ele>20.5</ele>
        <time>2015-01-11T09:44:59Z</time>
      </trkpt>
      <trkpt lat="47.17912" lon="-1.40039">
        <ele>20.6</ele>
        <time>2015-01-11T09:45:02Z</time>
      </trkpt>
      <trkpt lat="47.17907" lon="-1.40043">
        <ele>20.6</ele>
        <time>2015-01-11T09:45:04Z</time>
      </trkpt>
      <trkpt lat="47.17895" lon="-1.40054">
        <ele>20.7</ele>
        <time>2015-01-11T09:45:09Z</time>
      </trkpt>
      <trkpt lat="47.17887" lon="-1.40061">
        <ele>20.8</ele>
        <time>2015-01-11T09:45:13Z</time>
      </trkpt>
      <trkpt lat="47.17879" lon="-1.40068">
        <ele>20.8</ele>
        <time>2015-01-11T09:45:17Z</time>
      </trkpt>
      <trkpt lat="47.17867" lon="-1.4008">
        <ele>20.9</ele>
        <time>2015-01-11T09:45:23Z</time>
      </trkpt>
      <trkpt lat="47.17862" lon="-1.40084">
        <ele>21</ele>
        <time>2015-01-11T09:45:26Z</time>
      </trkpt>
      <trkpt lat="47.17857" lon="-1.40079">
        <ele>21</ele>
        <time>2015-01-11T09:45:29Z</time>
      </trkpt>
      <trkpt lat="47.17853" lon="-1.40061">
        <ele>21.1</ele>
        <time>2015-01-11T09:45:34Z</time>
      </trkpt>
      <trkpt lat="47.1785" lon="-1.40054">
        <ele>21.3</ele>
        <time>2015-01-11T09:45:37Z</time>
      </trkpt>
      <trkpt lat="47.17844" lon="-1.40052">
        <ele>21.5</ele>
        <time>2015-01-11T09:45:40Z</time>
      </trkpt>
      <trkpt lat="47.17839" lon="-1.40055">
        <ele>21.5</ele>
        <time>2015-01-11T09:45:42Z</time>
      </trkpt>
      <trkpt lat="47.17829" lon="-1.40061">
        <ele>21.6</ele>
        <time>2015-01-11T09:45:46Z</time>
      </trkpt>
      <trkpt lat="47.17816" lon="-1.40069">
        <ele>22</ele>
        <time>2015-01-11T09:45:51Z</time>
      </trkpt>
      <trkpt lat="47.17803" lon="-1.40074">
        <ele>22</ele>
        <time>2015-01-11T09:45:55Z</time>
      </trkpt>
      <trkpt lat="47.17793" lon="-1.4008">
        <ele>22</ele>
        <time>2015-01-11T09:45:59Z</time>
      </trkpt>
      <trkpt lat="47.17783" lon="-1.40084">
        <ele>22</ele>
        <time>2015-01-11T09:46:05Z</time>
      </trkpt>
      <trkpt lat="47.17784" lon="-1.40094">
        <ele>22</ele>
        <time>2015-01-11T09:46:08Z</time>
      </trkpt>
      <trkpt lat="47.17785" lon="-1.40101">
        <ele>22</ele>
        <time>2015-01-11T09:46:10Z</time>
      </trkpt>
      <trkpt lat="47.1779" lon="-1.40124">
        <ele>22.3</ele>
        <time>2015-01-11T09:46:16Z</time>
      </trkpt>
      <trkpt lat="47.17795" lon="-1.40144">
        <ele>22.6</ele>
        <time>2015-01-11T09:46:21Z</time>
      </trkpt>
      <trkpt lat="47.17799" lon="-1.40164">
        <ele>23.3</ele>
        <time>2015-01-11T09:46:26Z</time>
      </trkpt>
      <trkpt lat="47.17803" lon="-1.40184">
        <ele>23.7</ele>
        <time>2015-01-11T09:46:31Z</time>
      </trkpt>
      <trkpt lat="47.1781" lon="-1.40206">
        <ele>25.1</ele>
        <time>2015-01-11T09:46:37Z</time>
      </trkpt>
      <trkpt lat="47.17814" lon="-1.40228">
        <ele>25.4</ele>
        <time>2015-01-11T09:46:43Z</time>
      </trkpt>
      <trkpt lat="47.17814" lon="-1.40235">
        <ele>25.8</ele>
        <time>2015-01-11T09:46:45Z</time>
      </trkpt>
      <trkpt lat="47.17812" lon="-1.40241">
        <ele>25.8</ele>
        <time>2015-01-11T09:46:47Z</time>
      </trkpt>
      <trkpt lat="47.17807" lon="-1.40244">
        <ele>25.8</ele>
        <time>2015-01-11T09:46:49Z</time>
      </trkpt>
      <trkpt lat="47.17799" lon="-1.40254">
        <ele>26</ele>
        <time>2015-01-11T09:46:53Z</time>
      </trkpt>
      <trkpt lat="47.17796" lon="-1.40261">
        <ele>26.2</ele>
        <time>2015-01-11T09:46:55Z</time>
      </trkpt>
      <trkpt lat="47.17794" lon="-1.40268">
        <ele>26.2</ele>
        <time>2015-01-11T09:46:57Z</time>
      </trkpt>
      <trkpt lat="47.17791" lon="-1.40275">
        <ele>26.4</ele>
        <time>2015-01-11T09:46:59Z</time>
      </trkpt>
      <trkpt lat="47.17787" lon="-1.40284">
        <ele>26.4</ele>
        <time>2015-01-11T09:47:01Z</time>
      </trkpt>
      <trkpt lat="47.17782" lon="-1.40292">
        <ele>26.4</ele>
        <time>2015-01-11T09:47:03Z</time>
      </trkpt>
      <trkpt lat="47.17776" lon="-1.40298">
        <ele>26.8</ele>
        <time>2015-01-11T09:47:05Z</time>
      </trkpt>
      <trkpt lat="47.17771" lon="-1.40303">
        <ele>26.8</ele>
        <time>2015-01-11T09:47:07Z</time>
      </trkpt>
      <trkpt lat="47.17766" lon="-1.40307">
        <ele>26.8</ele>
        <time>2015-01-11T09:47:09Z</time>
      </trkpt>
      <trkpt lat="47.1776" lon="-1.40308">
        <ele>27.1</ele>
        <time>2015-01-11T09:47:11Z</time>
      </trkpt>
      <trkpt lat="47.17754" lon="-1.40308">
        <ele>27.1</ele>
        <time>2015-01-11T09:47:13Z</time>
      </trkpt>
      <trkpt lat="47.17749" lon="-1.40307">
        <ele>27.1</ele>
        <time>2015-01-11T09:47:15Z</time>
      </trkpt>
      <trkpt lat="47.17742" lon="-1.40306">
        <ele>27.4</ele>
        <time>2015-01-11T09:47:17Z</time>
      </trkpt>
      <trkpt lat="47.17735" lon="-1.40304">
        <ele>27.4</ele>
        <time>2015-01-11T09:47:19Z</time>
      </trkpt>
      <trkpt lat="47.17727" lon="-1.40302">
        <ele>27.4</ele>
        <time>2015-01-11T09:47:21Z</time>
      </trkpt>
      <trkpt lat="47.17717" lon="-1.403">
        <ele>27.5</ele>
        <time>2015-01-11T09:47:24Z</time>
      </trkpt>
      <trkpt lat="47.17706" lon="-1.40298">
        <ele>27.7</ele>
        <time>2015-01-11T09:47:27Z</time>
      </trkpt>
      <trkpt lat="47.17694" lon="-1.40297">
        <ele>27.7</ele>
        <time>2015-01-11T09:47:30Z</time>
      </trkpt>
      <trkpt lat="47.17676" lon="-1.40294">
        <ele>27.7</ele>
        <time>2015-01-11T09:47:34Z</time>
      </trkpt>
      <trkpt lat="47.17671" lon="-1.40292">
        <ele>27.7</ele>
        <time>2015-01-11T09:47:35Z</time>
      </trkpt>
      <trkpt lat="47.17659" lon="-1.4029">
        <ele>27.7</ele>
        <time>2015-01-11T09:47:38Z</time>
      </trkpt>
      <trkpt lat="47.17651" lon="-1.40288">
        <ele>27.8</ele>
        <time>2015-01-11T09:47:40Z</time>
      </trkpt>
      <trkpt lat="47.17633" lon="-1.40281">
        <ele>27.8</ele>
        <time>2015-01-11T09:47:44Z</time>
      </trkpt>
      <trkpt lat="47.1762" lon="-1.40276">
        <ele>27.8</ele>
        <time>2015-01-11T09:47:47Z</time>
      </trkpt>
      <trkpt lat="47.17603" lon="-1.40269">
        <ele>27.9</ele>
        <time>2015-01-11T09:47:51Z</time>
      </trkpt>
      <trkpt lat="47.17596" lon="-1.40265">
        <ele>28.1</ele>
        <time>2015-01-11T09:47:53Z</time>
      </trkpt>
      <trkpt lat="47.1758" lon="-1.40255">
        <ele>28.1</ele>
        <time>2015-01-11T09:47:57Z</time>
      </trkpt>
      <trkpt lat="47.17567" lon="-1.40255">
        <ele>28.1</ele>
        <time>2015-01-11T09:48:00Z</time>
      </trkpt>
      <trkpt lat="47.17558" lon="-1.40244">
        <ele>28.1</ele>
        <time>2015-01-11T09:48:02Z</time>
      </trkpt>
      <trkpt lat="47.17545" lon="-1.40234">
        <ele>28.1</ele>
        <time>2015-01-11T09:48:05Z</time>
      </trkpt>
      <trkpt lat="47.1753" lon="-1.40219">
        <ele>28.1</ele>
        <time>2015-01-11T09:48:09Z</time>
      </trkpt>
      <trkpt lat="47.17515" lon="-1.40206">
        <ele>28.2</ele>
        <time>2015-01-11T09:48:13Z</time>
      </trkpt>
      <trkpt lat="47.17505" lon="-1.4019">
        <ele>28.7</ele>
        <time>2015-01-11T09:48:17Z</time>
      </trkpt>
      <trkpt lat="47.17493" lon="-1.40179">
        <ele>29</ele>
        <time>2015-01-11T09:48:20Z</time>
      </trkpt>
      <trkpt lat="47.1748" lon="-1.40165">
        <ele>29.2</ele>
        <time>2015-01-11T09:48:24Z</time>
      </trkpt>
      <trkpt lat="47.17466" lon="-1.40152">
        <ele>29.5</ele>
        <time>2015-01-11T09:48:28Z</time>
      </trkpt>
      <trkpt lat="47.1745" lon="-1.40135">
        <ele>32.5</ele>
        <time>2015-01-11T09:48:33Z</time>
      </trkpt>
      <trkpt lat="47.17438" lon="-1.40122">
        <ele>33.5</ele>
        <time>2015-01-11T09:48:37Z</time>
      </trkpt>
      <trkpt lat="47.17427" lon="-1.40108">
        <ele>33.7</ele>
        <time>2015-01-11T09:48:41Z</time>
      </trkpt>
      <trkpt lat="47.17415" lon="-1.40096">
        <ele>33.7</ele>
        <time>2015-01-11T09:48:45Z</time>
      </trkpt>
      <trkpt lat="47.17402" lon="-1.40081">
        <ele>33.7</ele>
        <time>2015-01-11T09:48:49Z</time>
      </trkpt>
      <trkpt lat="47.17392" lon="-1.40065">
        <ele>33.7</ele>
        <time>2015-01-11T09:48:53Z</time>
      </trkpt>
      <trkpt lat="47.1738" lon="-1.40049">
        <ele>33.7</ele>
        <time>2015-01-11T09:48:57Z</time>
      </trkpt>
      <trkpt lat="47.17366" lon="-1.40032">
        <ele>33.7</ele>
        <time>2015-01-11T09:49:01Z</time>
      </trkpt>
      <trkpt lat="47.17354" lon="-1.40016">
        <ele>33.6</ele>
        <time>2015-01-11T09:49:05Z</time>
      </trkpt>
      <trkpt lat="47.1734" lon="-1.4">
        <ele>32.9</ele>
        <time>2015-01-11T09:49:09Z</time>
      </trkpt>
      <trkpt lat="47.17328" lon="-1.39983">
        <ele>32.2</ele>
        <time>2015-01-11T09:49:13Z</time>
      </trkpt>
      <trkpt lat="47.17315" lon="-1.39967">
        <ele>31.8</ele>
        <time>2015-01-11T09:49:17Z</time>
      </trkpt>
      <trkpt lat="47.17304" lon="-1.39955">
        <ele>31.6</ele>
        <time>2015-01-11T09:49:20Z</time>
      </trkpt>
      <trkpt lat="47.17294" lon="-1.3994">
        <ele>31.4</ele>
        <time>2015-01-11T09:49:23Z</time>
      </trkpt>
      <trkpt lat="47.17283" lon="-1.39926">
        <ele>31.3</ele>
        <time>2015-01-11T09:49:26Z</time>
      </trkpt>
      <trkpt lat="47.1727" lon="-1.39909">
        <ele>31.1</ele>
        <time>2015-01-11T09:49:30Z</time>
      </trkpt>
      <trkpt lat="47.17259" lon="-1.39895">
        <ele>30.9</ele>
        <time>2015-01-11T09:49:33Z</time>
      </trkpt>
      <trkpt lat="47.17247" lon="-1.39879">
        <ele>30.7</ele>
        <time>2015-01-11T09:49:36Z</time>
      </trkpt>
      <trkpt lat="47.17235" lon="-1.39864">
        <ele>30.6</ele>
        <time>2015-01-11T09:49:39Z</time>
      </trkpt>
      <trkpt lat="47.17224" lon="-1.39849">
        <ele>30.5</ele>
        <time>2015-01-11T09:49:42Z</time>
      </trkpt>
      <trkpt lat="47.17213" lon="-1.39833">
        <ele>30.2</ele>
        <time>2015-01-11T09:49:45Z</time>
      </trkpt>
      <trkpt lat="47.17201" lon="-1.3982">
        <ele>30</ele>
        <time>2015-01-11T09:49:48Z</time>
      </trkpt>
      <trkpt lat="47.17185" lon="-1.39811">
        <ele>29.1</ele>
        <time>2015-01-11T09:49:52Z</time>
      </trkpt>
      <trkpt lat="47.17176" lon="-1.39812">
        <ele>28.4</ele>
        <time>2015-01-11T09:49:54Z</time>
      </trkpt>
      <trkpt lat="47.1716" lon="-1.39809">
        <ele>27.6</ele>
        <time>2015-01-11T09:49:58Z</time>
      </trkpt>
      <trkpt lat="47.17152" lon="-1.39821">
        <ele>27.1</ele>
        <time>2015-01-11T09:50:01Z</time>
      </trkpt>
      <trkpt lat="47.17156" lon="-1.39828">
        <ele>26.4</ele>
        <time>2015-01-11T09:50:05Z</time>
      </trkpt>
      <trkpt lat="47.17166" lon="-1.39837">
        <ele>26.3</ele>
        <time>2015-01-11T09:50:09Z</time>
      </trkpt>
      <trkpt lat="47.1717" lon="-1.39844">
        <ele>26</ele>
        <time>2015-01-11T09:50:11Z</time>
      </trkpt>
      <trkpt lat="47.17174" lon="-1.39851">
        <ele>26</ele>
        <time>2015-01-11T09:50:13Z</time>
      </trkpt>
      <trkpt lat="47.17179" lon="-1.39858">
        <ele>25.7</ele>
        <time>2015-01-11T09:50:15Z</time>
      </trkpt>
      <trkpt lat="47.17183" lon="-1.39864">
        <ele>25.7</ele>
        <time>2015-01-11T09:50:17Z</time>
      </trkpt>
      <trkpt lat="47.17187" lon="-1.39871">
        <ele>25.7</ele>
        <time>2015-01-11T09:50:19Z</time>
      </trkpt>
      <trkpt lat="47.17195" lon="-1.39889">
        <ele>25.6</ele>
        <time>2015-01-11T09:50:24Z</time>
      </trkpt>
      <trkpt lat="47.172" lon="-1.39911">
        <ele>25.6</ele>
        <time>2015-01-11T09:50:30Z</time>
      </trkpt>
      <trkpt lat="47.172" lon="-1.3992">
        <ele>25.6</ele>
        <time>2015-01-11T09:50:33Z</time>
      </trkpt>
      <trkpt lat="47.17195" lon="-1.39926">
        <ele>25.6</ele>
        <time>2015-01-11T09:50:36Z</time>
      </trkpt>
      <trkpt lat="47.17187" lon="-1.39935">
        <ele>25.7</ele>
        <time>2015-01-11T09:50:40Z</time>
      </trkpt>
      <trkpt lat="47.17176" lon="-1.3995">
        <ele>26</ele>
        <time>2015-01-11T09:50:45Z</time>
      </trkpt>
      <trkpt lat="47.17164" lon="-1.39964">
        <ele>26.2</ele>
        <time>2015-01-11T09:50:50Z</time>
      </trkpt>
      <trkpt lat="47.17159" lon="-1.3997">
        <ele>26.2</ele>
        <time>2015-01-11T09:50:52Z</time>
      </trkpt>
      <trkpt lat="47.17155" lon="-1.39977">
        <ele>26.2</ele>
        <time>2015-01-11T09:50:54Z</time>
      </trkpt>
      <trkpt lat="47.17145" lon="-1.39993">
        <ele>26.7</ele>
        <time>2015-01-11T09:50:59Z</time>
      </trkpt>
      <trkpt lat="47.17135" lon="-1.40007">
        <ele>27.6</ele>
        <time>2015-01-11T09:51:03Z</time>
      </trkpt>
      <trkpt lat="47.17123" lon="-1.40023">
        <ele>28.3</ele>
        <time>2015-01-11T09:51:08Z</time>
      </trkpt>
      <trkpt lat="47.17111" lon="-1.40039">
        <ele>28.3</ele>
        <time>2015-01-11T09:51:13Z</time>
      </trkpt>
      <trkpt lat="47.171" lon="-1.40056">
        <ele>28.3</ele>
        <time>2015-01-11T09:51:18Z</time>
      </trkpt>
      <trkpt lat="47.17089" lon="-1.40071">
        <ele>28.3</ele>
        <time>2015-01-11T09:51:23Z</time>
      </trkpt>
      <trkpt lat="47.17079" lon="-1.40085">
        <ele>28.3</ele>
        <time>2015-01-11T09:51:27Z</time>
      </trkpt>
      <trkpt lat="47.17069" lon="-1.40099">
        <ele>28.3</ele>
        <time>2015-01-11T09:51:31Z</time>
      </trkpt>
      <trkpt lat="47.17059" lon="-1.40112">
        <ele>28.3</ele>
        <time>2015-01-11T09:51:35Z</time>
      </trkpt>
      <trkpt lat="47.17047" lon="-1.40129">
        <ele>28.2</ele>
        <time>2015-01-11T09:51:40Z</time>
      </trkpt>
      <trkpt lat="47.17037" lon="-1.40143">
        <ele>28.2</ele>
        <time>2015-01-11T09:51:44Z</time>
      </trkpt>
      <trkpt lat="47.17031" lon="-1.40149">
        <ele>28.2</ele>
        <time>2015-01-11T09:51:46Z</time>
      </trkpt>
      <trkpt lat="47.17023" lon="-1.40157">
        <ele>28.2</ele>
        <time>2015-01-11T09:51:49Z</time>
      </trkpt>
      <trkpt lat="47.17014" lon="-1.40162">
        <ele>28.2</ele>
        <time>2015-01-11T09:51:52Z</time>
      </trkpt>
      <trkpt lat="47.17008" lon="-1.40166">
        <ele>28.2</ele>
        <time>2015-01-11T09:51:54Z</time>
      </trkpt>
      <trkpt lat="47.17002" lon="-1.4017">
        <ele>28.2</ele>
        <time>2015-01-11T09:51:56Z</time>
      </trkpt>
      <trkpt lat="47.16996" lon="-1.40172">
        <ele>28.2</ele>
        <time>2015-01-11T09:51:58Z</time>
      </trkpt>
      <trkpt lat="47.16983" lon="-1.40179">
        <ele>28.2</ele>
        <time>2015-01-11T09:52:02Z</time>
      </trkpt>
      <trkpt lat="47.16977" lon="-1.4018">
        <ele>28.2</ele>
        <time>2015-01-11T09:52:04Z</time>
      </trkpt>
      <trkpt lat="47.16967" lon="-1.4018">
        <ele>28.7</ele>
        <time>2015-01-11T09:52:07Z</time>
      </trkpt>
      <trkpt lat="47.16957" lon="-1.40181">
        <ele>30.6</ele>
        <time>2015-01-11T09:52:10Z</time>
      </trkpt>
      <trkpt lat="47.16948" lon="-1.40185">
        <ele>31.1</ele>
        <time>2015-01-11T09:52:13Z</time>
      </trkpt>
      <trkpt lat="47.1694" lon="-1.40197">
        <ele>31.4</ele>
        <time>2015-01-11T09:52:17Z</time>
      </trkpt>
      <trkpt lat="47.16935" lon="-1.40202">
        <ele>32</ele>
        <time>2015-01-11T09:52:19Z</time>
      </trkpt>
      <trkpt lat="47.16929" lon="-1.40205">
        <ele>32</ele>
        <time>2015-01-11T09:52:21Z</time>
      </trkpt>
      <trkpt lat="47.16924" lon="-1.40207">
        <ele>32</ele>
        <time>2015-01-11T09:52:23Z</time>
      </trkpt>
      <trkpt lat="47.16919" lon="-1.40207">
        <ele>32.7</ele>
        <time>2015-01-11T09:52:26Z</time>
      </trkpt>
      <trkpt lat="47.16915" lon="-1.40204">
        <ele>32.7</ele>
        <time>2015-01-11T09:52:28Z</time>
      </trkpt>
      <trkpt lat="47.16908" lon="-1.40193">
        <ele>33.9</ele>
        <time>2015-01-11T09:52:32Z</time>
      </trkpt>
      <trkpt lat="47.16903" lon="-1.4019">
        <ele>34.2</ele>
        <time>2015-01-11T09:52:34Z</time>
      </trkpt>
      <trkpt lat="47.16898" lon="-1.40189">
        <ele>34.2</ele>
        <time>2015-01-11T09:52:36Z</time>
      </trkpt>
      <trkpt lat="47.16889" lon="-1.40188">
        <ele>34.8</ele>
        <time>2015-01-11T09:52:41Z</time>
      </trkpt>
      <trkpt lat="47.16884" lon="-1.40189">
        <ele>35</ele>
        <time>2015-01-11T09:52:44Z</time>
      </trkpt>
      <trkpt lat="47.16879" lon="-1.40191">
        <ele>35</ele>
        <time>2015-01-11T09:52:46Z</time>
      </trkpt>
      <trkpt lat="47.1687" lon="-1.40197">
        <ele>35</ele>
        <time>2015-01-11T09:52:50Z</time>
      </trkpt>
      <trkpt lat="47.16866" lon="-1.40202">
        <ele>35</ele>
        <time>2015-01-11T09:52:53Z</time>
      </trkpt>
      <trkpt lat="47.16866" lon="-1.40204">
        <ele>35</ele>
        <time>2015-01-11T09:52:54Z</time>
      </trkpt>
      <trkpt lat="47.16866" lon="-1.40204">
        <ele>35.5</ele>
        <time>2015-01-11T09:52:57Z</time>
      </trkpt>
      <trkpt lat="47.16866" lon="-1.40204">
        <ele>32.9</ele>
        <time>2015-01-11T09:52:57Z</time>
      </trkpt>
      <trkpt lat="47.16866" lon="-1.40204">
        <ele>32.9</ele>
        <time>2015-01-11T09:53:15Z</time>
      </trkpt>
      <trkpt lat="47.16852" lon="-1.40202">
        <ele>35.7</ele>
        <time>2015-01-11T09:53:16Z</time>
      </trkpt>
      <trkpt lat="47.16842" lon="-1.40197">
        <ele>35.8</ele>
        <time>2015-01-11T09:53:19Z</time>
      </trkpt>
      <trkpt lat="47.16831" lon="-1.40194">
        <ele>35.8</ele>
        <time>2015-01-11T09:53:22Z</time>
      </trkpt>
      <trkpt lat="47.16819" lon="-1.40192">
        <ele>35.8</ele>
        <time>2015-01-11T09:53:25Z</time>
      </trkpt>
      <trkpt lat="47.16806" lon="-1.40191">
        <ele>35.8</ele>
        <time>2015-01-11T09:53:28Z</time>
      </trkpt>
      <trkpt lat="47.16793" lon="-1.40191">
        <ele>35.8</ele>
        <time>2015-01-11T09:53:31Z</time>
      </trkpt>
      <trkpt lat="47.16784" lon="-1.40192">
        <ele>35.8</ele>
        <time>2015-01-11T09:53:33Z</time>
      </trkpt>
      <trkpt lat="47.1677" lon="-1.40193">
        <ele>35.8</ele>
        <time>2015-01-11T09:53:36Z</time>
      </trkpt>
      <trkpt lat="47.16755" lon="-1.40193">
        <ele>35.9</ele>
        <time>2015-01-11T09:53:39Z</time>
      </trkpt>
      <trkpt lat="47.16746" lon="-1.40191">
        <ele>36.4</ele>
        <time>2015-01-11T09:53:41Z</time>
      </trkpt>
      <trkpt lat="47.16741" lon="-1.40189">
        <ele>36.4</ele>
        <time>2015-01-11T09:53:42Z</time>
      </trkpt>
      <trkpt lat="47.16736" lon="-1.40187">
        <ele>36.4</ele>
        <time>2015-01-11T09:53:43Z</time>
      </trkpt>
      <trkpt lat="47.16731" lon="-1.40184">
        <ele>36.4</ele>
        <time>2015-01-11T09:53:44Z</time>
      </trkpt>
      <trkpt lat="47.16726" lon="-1.40181">
        <ele>36.4</ele>
        <time>2015-01-11T09:53:45Z</time>
      </trkpt>
      <trkpt lat="47.16701" lon="-1.40164">
        <ele>37.4</ele>
        <time>2015-01-11T09:53:49Z</time>
      </trkpt>
      <trkpt lat="47.16688" lon="-1.40163">
        <ele>37.7</ele>
        <time>2015-01-11T09:53:51Z</time>
      </trkpt>
      <trkpt lat="47.16675" lon="-1.40173">
        <ele>38.4</ele>
        <time>2015-01-11T09:53:53Z</time>
      </trkpt>
      <trkpt lat="47.16669" lon="-1.40177">
        <ele>38.4</ele>
        <time>2015-01-11T09:53:54Z</time>
      </trkpt>
      <trkpt lat="47.16662" lon="-1.4018">
        <ele>38.4</ele>
        <time>2015-01-11T09:53:55Z</time>
      </trkpt>
      <trkpt lat="47.16656" lon="-1.40184">
        <ele>38.4</ele>
        <time>2015-01-11T09:53:56Z</time>
      </trkpt>
      <trkpt lat="47.16651" lon="-1.40186">
        <ele>38.4</ele>
        <time>2015-01-11T09:53:57Z</time>
      </trkpt>
      <trkpt lat="47.16634" lon="-1.40187">
        <ele>38.5</ele>
        <time>2015-01-11T09:54:00Z</time>
      </trkpt>
      <trkpt lat="47.16621" lon="-1.40183">
        <ele>38.5</ele>
        <time>2015-01-11T09:54:02Z</time>
      </trkpt>
      <trkpt lat="47.16607" lon="-1.40186">
        <ele>38.5</ele>
        <time>2015-01-11T09:54:04Z</time>
      </trkpt>
      <trkpt lat="47.16596" lon="-1.40195">
        <ele>38.5</ele>
        <time>2015-01-11T09:54:06Z</time>
      </trkpt>
      <trkpt lat="47.16586" lon="-1.40208">
        <ele>38.5</ele>
        <time>2015-01-11T09:54:08Z</time>
      </trkpt>
      <trkpt lat="47.16571" lon="-1.40226">
        <ele>38.5</ele>
        <time>2015-01-11T09:54:11Z</time>
      </trkpt>
      <trkpt lat="47.16557" lon="-1.40235">
        <ele>38.5</ele>
        <time>2015-01-11T09:54:14Z</time>
      </trkpt>
      <trkpt lat="47.16546" lon="-1.40232">
        <ele>38.5</ele>
        <time>2015-01-11T09:54:16Z</time>
      </trkpt>
      <trkpt lat="47.16542" lon="-1.40226">
        <ele>38.5</ele>
        <time>2015-01-11T09:54:17Z</time>
      </trkpt>
      <trkpt lat="47.16539" lon="-1.4022">
        <ele>38.5</ele>
        <time>2015-01-11T09:54:18Z</time>
      </trkpt>
      <trkpt lat="47.16536" lon="-1.40212">
        <ele>38.5</ele>
        <time>2015-01-11T09:54:19Z</time>
      </trkpt>
      <trkpt lat="47.16533" lon="-1.40206">
        <ele>38.5</ele>
        <time>2015-01-11T09:54:20Z</time>
      </trkpt>
      <trkpt lat="47.16522" lon="-1.4019">
        <ele>38.4</ele>
        <time>2015-01-11T09:54:23Z</time>
      </trkpt>
      <trkpt lat="47.16512" lon="-1.40174">
        <ele>38.1</ele>
        <time>2015-01-11T09:54:27Z</time>
      </trkpt>
      <trkpt lat="47.16501" lon="-1.40157">
        <ele>37.7</ele>
        <time>2015-01-11T09:54:31Z</time>
      </trkpt>
      <trkpt lat="47.16493" lon="-1.40139">
        <ele>36.1</ele>
        <time>2015-01-11T09:54:35Z</time>
      </trkpt>
      <trkpt lat="47.16483" lon="-1.40123">
        <ele>34.6</ele>
        <time>2015-01-11T09:54:39Z</time>
      </trkpt>
      <trkpt lat="47.16473" lon="-1.40107">
        <ele>33.6</ele>
        <time>2015-01-11T09:54:43Z</time>
      </trkpt>
      <trkpt lat="47.16464" lon="-1.40092">
        <ele>33</ele>
        <time>2015-01-11T09:54:47Z</time>
      </trkpt>
      <trkpt lat="47.16452" lon="-1.40077">
        <ele>32.5</ele>
        <time>2015-01-11T09:54:51Z</time>
      </trkpt>
      <trkpt lat="47.16438" lon="-1.40066">
        <ele>31.9</ele>
        <time>2015-01-11T09:54:55Z</time>
      </trkpt>
      <trkpt lat="47.16426" lon="-1.40061">
        <ele>31.8</ele>
        <time>2015-01-11T09:54:58Z</time>
      </trkpt>
      <trkpt lat="47.16411" lon="-1.40056">
        <ele>31.8</ele>
        <time>2015-01-11T09:55:02Z</time>
      </trkpt>
      <trkpt lat="47.16397" lon="-1.40051">
        <ele>31.8</ele>
        <time>2015-01-11T09:55:06Z</time>
      </trkpt>
      <trkpt lat="47.16385" lon="-1.40047">
        <ele>31.8</ele>
        <time>2015-01-11T09:55:09Z</time>
      </trkpt>
      <trkpt lat="47.1637" lon="-1.4004">
        <ele>31.8</ele>
        <time>2015-01-11T09:55:13Z</time>
      </trkpt>
      <trkpt lat="47.16362" lon="-1.40037">
        <ele>31.8</ele>
        <time>2015-01-11T09:55:15Z</time>
      </trkpt>
      <trkpt lat="47.16355" lon="-1.40032">
        <ele>31.8</ele>
        <time>2015-01-11T09:55:17Z</time>
      </trkpt>
      <trkpt lat="47.16348" lon="-1.40026">
        <ele>31.8</ele>
        <time>2015-01-11T09:55:19Z</time>
      </trkpt>
      <trkpt lat="47.16336" lon="-1.40012">
        <ele>32</ele>
        <time>2015-01-11T09:55:23Z</time>
      </trkpt>
      <trkpt lat="47.16324" lon="-1.39999">
        <ele>32.3</ele>
        <time>2015-01-11T09:55:27Z</time>
      </trkpt>
      <trkpt lat="47.16313" lon="-1.39985">
        <ele>33.6</ele>
        <time>2015-01-11T09:55:31Z</time>
      </trkpt>
      <trkpt lat="47.16301" lon="-1.39974">
        <ele>34.2</ele>
        <time>2015-01-11T09:55:35Z</time>
      </trkpt>
      <trkpt lat="47.16289" lon="-1.39961">
        <ele>34.3</ele>
        <time>2015-01-11T09:55:39Z</time>
      </trkpt>
      <trkpt lat="47.16277" lon="-1.39947">
        <ele>34.7</ele>
        <time>2015-01-11T09:55:43Z</time>
      </trkpt>
      <trkpt lat="47.16267" lon="-1.39933">
        <ele>35.1</ele>
        <time>2015-01-11T09:55:47Z</time>
      </trkpt>
      <trkpt lat="47.16256" lon="-1.39919">
        <ele>35.5</ele>
        <time>2015-01-11T09:55:51Z</time>
      </trkpt>
      <trkpt lat="47.16252" lon="-1.39912">
        <ele>35.8</ele>
        <time>2015-01-11T09:55:53Z</time>
      </trkpt>
      <trkpt lat="47.16244" lon="-1.39903">
        <ele>35.8</ele>
        <time>2015-01-11T09:55:56Z</time>
      </trkpt>
      <trkpt lat="47.16234" lon="-1.3989">
        <ele>36.1</ele>
        <time>2015-01-11T09:56:00Z</time>
      </trkpt>
      <trkpt lat="47.16223" lon="-1.39876">
        <ele>36.3</ele>
        <time>2015-01-11T09:56:04Z</time>
      </trkpt>
      <trkpt lat="47.1621" lon="-1.39859">
        <ele>36.5</ele>
        <time>2015-01-11T09:56:09Z</time>
      </trkpt>
      <trkpt lat="47.16198" lon="-1.39843">
        <ele>36.6</ele>
        <time>2015-01-11T09:56:13Z</time>
      </trkpt>
      <trkpt lat="47.16188" lon="-1.39825">
        <ele>36.7</ele>
        <time>2015-01-11T09:56:17Z</time>
      </trkpt>
      <trkpt lat="47.1618" lon="-1.39804">
        <ele>37</ele>
        <time>2015-01-11T09:56:21Z</time>
      </trkpt>
      <trkpt lat="47.16175" lon="-1.39785">
        <ele>37.3</ele>
        <time>2015-01-11T09:56:24Z</time>
      </trkpt>
      <trkpt lat="47.16164" lon="-1.39769">
        <ele>37.3</ele>
        <time>2015-01-11T09:56:28Z</time>
      </trkpt>
      <trkpt lat="47.16151" lon="-1.39766">
        <ele>37.3</ele>
        <time>2015-01-11T09:56:31Z</time>
      </trkpt>
      <trkpt lat="47.16135" lon="-1.39766">
        <ele>37.4</ele>
        <time>2015-01-11T09:56:35Z</time>
      </trkpt>
      <trkpt lat="47.16117" lon="-1.39769">
        <ele>37.5</ele>
        <time>2015-01-11T09:56:40Z</time>
      </trkpt>
      <trkpt lat="47.1611" lon="-1.3977">
        <ele>37.5</ele>
        <time>2015-01-11T09:56:42Z</time>
      </trkpt>
      <trkpt lat="47.16103" lon="-1.39769">
        <ele>37.5</ele>
        <time>2015-01-11T09:56:44Z</time>
      </trkpt>
      <trkpt lat="47.16097" lon="-1.39767">
        <ele>37.5</ele>
        <time>2015-01-11T09:56:46Z</time>
      </trkpt>
      <trkpt lat="47.16084" lon="-1.3976">
        <ele>37.5</ele>
        <time>2015-01-11T09:56:50Z</time>
      </trkpt>
      <trkpt lat="47.16072" lon="-1.39752">
        <ele>37.5</ele>
        <time>2015-01-11T09:56:54Z</time>
      </trkpt>
      <trkpt lat="47.16056" lon="-1.39739">
        <ele>37.3</ele>
        <time>2015-01-11T09:56:59Z</time>
      </trkpt>
      <trkpt lat="47.16044" lon="-1.39729">
        <ele>37</ele>
        <time>2015-01-11T09:57:03Z</time>
      </trkpt>
      <trkpt lat="47.16031" lon="-1.39717">
        <ele>36.8</ele>
        <time>2015-01-11T09:57:07Z</time>
      </trkpt>
      <trkpt lat="47.16018" lon="-1.39703">
        <ele>36.8</ele>
        <time>2015-01-11T09:57:11Z</time>
      </trkpt>
      <trkpt lat="47.16005" lon="-1.39688">
        <ele>36.8</ele>
        <time>2015-01-11T09:57:15Z</time>
      </trkpt>
      <trkpt lat="47.15993" lon="-1.39672">
        <ele>36.8</ele>
        <time>2015-01-11T09:57:19Z</time>
      </trkpt>
      <trkpt lat="47.1598" lon="-1.39658">
        <ele>36.8</ele>
        <time>2015-01-11T09:57:23Z</time>
      </trkpt>
      <trkpt lat="47.15975" lon="-1.39652">
        <ele>36.9</ele>
        <time>2015-01-11T09:57:25Z</time>
      </trkpt>
      <trkpt lat="47.15969" lon="-1.39649">
        <ele>36.9</ele>
        <time>2015-01-11T09:57:27Z</time>
      </trkpt>
      <trkpt lat="47.1596" lon="-1.39653">
        <ele>37.1</ele>
        <time>2015-01-11T09:57:31Z</time>
      </trkpt>
      <trkpt lat="47.15951" lon="-1.39652">
        <ele>38.3</ele>
        <time>2015-01-11T09:57:37Z</time>
      </trkpt>
      <trkpt lat="47.15943" lon="-1.39635">
        <ele>38.8</ele>
        <time>2015-01-11T09:57:41Z</time>
      </trkpt>
      <trkpt lat="47.1593" lon="-1.39621">
        <ele>39.1</ele>
        <time>2015-01-11T09:57:45Z</time>
      </trkpt>
      <trkpt lat="47.15918" lon="-1.39608">
        <ele>39.5</ele>
        <time>2015-01-11T09:57:49Z</time>
      </trkpt>
      <trkpt lat="47.15906" lon="-1.39591">
        <ele>39.7</ele>
        <time>2015-01-11T09:57:53Z</time>
      </trkpt>
      <trkpt lat="47.15896" lon="-1.39571">
        <ele>39.7</ele>
        <time>2015-01-11T09:57:57Z</time>
      </trkpt>
      <trkpt lat="47.15887" lon="-1.3955">
        <ele>39.8</ele>
        <time>2015-01-11T09:58:01Z</time>
      </trkpt>
      <trkpt lat="47.15879" lon="-1.39528">
        <ele>40</ele>
        <time>2015-01-11T09:58:05Z</time>
      </trkpt>
      <trkpt lat="47.15873" lon="-1.39509">
        <ele>40.1</ele>
        <time>2015-01-11T09:58:08Z</time>
      </trkpt>
      <trkpt lat="47.15866" lon="-1.3949">
        <ele>40.2</ele>
        <time>2015-01-11T09:58:11Z</time>
      </trkpt>
      <trkpt lat="47.15858" lon="-1.39472">
        <ele>40.4</ele>
        <time>2015-01-11T09:58:14Z</time>
      </trkpt>
      <trkpt lat="47.1585" lon="-1.39455">
        <ele>40.6</ele>
        <time>2015-01-11T09:58:17Z</time>
      </trkpt>
      <trkpt lat="47.15842" lon="-1.39438">
        <ele>40.9</ele>
        <time>2015-01-11T09:58:20Z</time>
      </trkpt>
      <trkpt lat="47.15833" lon="-1.39419">
        <ele>41.1</ele>
        <time>2015-01-11T09:58:23Z</time>
      </trkpt>
      <trkpt lat="47.15826" lon="-1.394">
        <ele>41.2</ele>
        <time>2015-01-11T09:58:26Z</time>
      </trkpt>
      <trkpt lat="47.15819" lon="-1.39381">
        <ele>41.3</ele>
        <time>2015-01-11T09:58:29Z</time>
      </trkpt>
      <trkpt lat="47.15812" lon="-1.3936">
        <ele>41.4</ele>
        <time>2015-01-11T09:58:32Z</time>
      </trkpt>
      <trkpt lat="47.15806" lon="-1.3934">
        <ele>41.8</ele>
        <time>2015-01-11T09:58:35Z</time>
      </trkpt>
      <trkpt lat="47.15798" lon="-1.39319">
        <ele>42.2</ele>
        <time>2015-01-11T09:58:38Z</time>
      </trkpt>
      <trkpt lat="47.15788" lon="-1.39297">
        <ele>42.5</ele>
        <time>2015-01-11T09:58:42Z</time>
      </trkpt>
      <trkpt lat="47.15781" lon="-1.39277">
        <ele>42.7</ele>
        <time>2015-01-11T09:58:45Z</time>
      </trkpt>
      <trkpt lat="47.15772" lon="-1.3926">
        <ele>43</ele>
        <time>2015-01-11T09:58:49Z</time>
      </trkpt>
      <trkpt lat="47.15759" lon="-1.39269">
        <ele>43.4</ele>
        <time>2015-01-11T09:58:55Z</time>
      </trkpt>
      <trkpt lat="47.15742" lon="-1.39276">
        <ele>43.6</ele>
        <time>2015-01-11T09:59:00Z</time>
      </trkpt>
      <trkpt lat="47.15734" lon="-1.3928">
        <ele>44</ele>
        <time>2015-01-11T09:59:02Z</time>
      </trkpt>
      <trkpt lat="47.15727" lon="-1.39283">
        <ele>44</ele>
        <time>2015-01-11T09:59:04Z</time>
      </trkpt>
      <trkpt lat="47.15719" lon="-1.39286">
        <ele>44</ele>
        <time>2015-01-11T09:59:06Z</time>
      </trkpt>
      <trkpt lat="47.15706" lon="-1.39289">
        <ele>44.1</ele>
        <time>2015-01-11T09:59:09Z</time>
      </trkpt>
      <trkpt lat="47.15694" lon="-1.39293">
        <ele>44.9</ele>
        <time>2015-01-11T09:59:12Z</time>
      </trkpt>
      <trkpt lat="47.15682" lon="-1.39297">
        <ele>45.4</ele>
        <time>2015-01-11T09:59:15Z</time>
      </trkpt>
      <trkpt lat="47.15664" lon="-1.39303">
        <ele>46.1</ele>
        <time>2015-01-11T09:59:20Z</time>
      </trkpt>
      <trkpt lat="47.15659" lon="-1.39302">
        <ele>46.6</ele>
        <time>2015-01-11T09:59:22Z</time>
      </trkpt>
      <trkpt lat="47.15655" lon="-1.39296">
        <ele>46.6</ele>
        <time>2015-01-11T09:59:24Z</time>
      </trkpt>
      <trkpt lat="47.15652" lon="-1.39287">
        <ele>46.6</ele>
        <time>2015-01-11T09:59:26Z</time>
      </trkpt>
      <trkpt lat="47.15649" lon="-1.39279">
        <ele>48.4</ele>
        <time>2015-01-11T09:59:28Z</time>
      </trkpt>
      <trkpt lat="47.15645" lon="-1.39272">
        <ele>48.4</ele>
        <time>2015-01-11T09:59:30Z</time>
      </trkpt>
      <trkpt lat="47.15636" lon="-1.39259">
        <ele>50.4</ele>
        <time>2015-01-11T09:59:35Z</time>
      </trkpt>
      <trkpt lat="47.15632" lon="-1.39254">
        <ele>52</ele>
        <time>2015-01-11T09:59:37Z</time>
      </trkpt>
      <trkpt lat="47.15628" lon="-1.39248">
        <ele>52</ele>
        <time>2015-01-11T09:59:39Z</time>
      </trkpt>
      <trkpt lat="47.15625" lon="-1.39241">
        <ele>52</ele>
        <time>2015-01-11T09:59:41Z</time>
      </trkpt>
      <trkpt lat="47.15617" lon="-1.39223">
        <ele>53.5</ele>
        <time>2015-01-11T09:59:46Z</time>
      </trkpt>
      <trkpt lat="47.15607" lon="-1.39203">
        <ele>54</ele>
        <time>2015-01-11T09:59:51Z</time>
      </trkpt>
      <trkpt lat="47.156" lon="-1.39186">
        <ele>54.3</ele>
        <time>2015-01-11T09:59:55Z</time>
      </trkpt>
      <trkpt lat="47.15592" lon="-1.3917">
        <ele>55.2</ele>
        <time>2015-01-11T09:59:59Z</time>
      </trkpt>
      <trkpt lat="47.15583" lon="-1.3915">
        <ele>55.5</ele>
        <time>2015-01-11T10:00:04Z</time>
      </trkpt>
      <trkpt lat="47.15579" lon="-1.39146">
        <ele>56.4</ele>
        <time>2015-01-11T10:00:06Z</time>
      </trkpt>
      <trkpt lat="47.15573" lon="-1.39149">
        <ele>56.4</ele>
        <time>2015-01-11T10:00:08Z</time>
      </trkpt>
      <trkpt lat="47.15568" lon="-1.39154">
        <ele>58.2</ele>
        <time>2015-01-11T10:00:10Z</time>
      </trkpt>
      <trkpt lat="47.15562" lon="-1.39159">
        <ele>58.2</ele>
        <time>2015-01-11T10:00:12Z</time>
      </trkpt>
      <trkpt lat="47.15556" lon="-1.39164">
        <ele>58.2</ele>
        <time>2015-01-11T10:00:14Z</time>
      </trkpt>
      <trkpt lat="47.15548" lon="-1.39169">
        <ele>58.7</ele>
        <time>2015-01-11T10:00:17Z</time>
      </trkpt>
      <trkpt lat="47.15532" lon="-1.39179">
        <ele>59.3</ele>
        <time>2015-01-11T10:00:22Z</time>
      </trkpt>
      <trkpt lat="47.15519" lon="-1.39187">
        <ele>59.3</ele>
        <time>2015-01-11T10:00:26Z</time>
      </trkpt>
      <trkpt lat="47.15506" lon="-1.39196">
        <ele>59.3</ele>
        <time>2015-01-11T10:00:30Z</time>
      </trkpt>
      <trkpt lat="47.15493" lon="-1.39203">
        <ele>59.3</ele>
        <time>2015-01-11T10:00:34Z</time>
      </trkpt>
      <trkpt lat="47.15483" lon="-1.3921">
        <ele>59.3</ele>
        <time>2015-01-11T10:00:38Z</time>
      </trkpt>
      <trkpt lat="47.15479" lon="-1.39216">
        <ele>59.3</ele>
        <time>2015-01-11T10:00:41Z</time>
      </trkpt>
      <trkpt lat="47.15477" lon="-1.39219">
        <ele>59.3</ele>
        <time>2015-01-11T10:00:43Z</time>
      </trkpt>
      <trkpt lat="47.15476" lon="-1.39219">
        <ele>56.4</ele>
        <time>2015-01-11T10:00:47Z</time>
      </trkpt>
      <trkpt lat="47.15476" lon="-1.39219">
        <ele>54.2</ele>
        <time>2015-01-11T10:00:47Z</time>
      </trkpt>
      <trkpt lat="47.15476" lon="-1.39219">
        <ele>54.2</ele>
        <time>2015-01-11T10:03:35Z</time>
      </trkpt>
      <trkpt lat="47.15473" lon="-1.39242">
        <ele>55.6</ele>
        <time>2015-01-11T10:03:37Z</time>
      </trkpt>
      <trkpt lat="47.1547" lon="-1.39264">
        <ele>56.4</ele>
        <time>2015-01-11T10:03:41Z</time>
      </trkpt>
      <trkpt lat="47.15467" lon="-1.39288">
        <ele>56.8</ele>
        <time>2015-01-11T10:03:45Z</time>
      </trkpt>
      <trkpt lat="47.15464" lon="-1.39308">
        <ele>56.9</ele>
        <time>2015-01-11T10:03:48Z</time>
      </trkpt>
      <trkpt lat="47.1546" lon="-1.39331">
        <ele>56.9</ele>
        <time>2015-01-11T10:03:51Z</time>
      </trkpt>
      <trkpt lat="47.15458" lon="-1.39357">
        <ele>56.9</ele>
        <time>2015-01-11T10:03:54Z</time>
      </trkpt>
      <trkpt lat="47.15457" lon="-1.39386">
        <ele>56.9</ele>
        <time>2015-01-11T10:03:57Z</time>
      </trkpt>
      <trkpt lat="47.15453" lon="-1.39415">
        <ele>56.9</ele>
        <time>2015-01-11T10:04:00Z</time>
      </trkpt>
      <trkpt lat="47.1545" lon="-1.39439">
        <ele>56.9</ele>
        <time>2015-01-11T10:04:03Z</time>
      </trkpt>
      <trkpt lat="47.15447" lon="-1.39464">
        <ele>56.9</ele>
        <time>2015-01-11T10:04:06Z</time>
      </trkpt>
      <trkpt lat="47.15444" lon="-1.39491">
        <ele>56.9</ele>
        <time>2015-01-11T10:04:09Z</time>
      </trkpt>
      <trkpt lat="47.15441" lon="-1.39517">
        <ele>56.9</ele>
        <time>2015-01-11T10:04:12Z</time>
      </trkpt>
      <trkpt lat="47.15439" lon="-1.39545">
        <ele>56.9</ele>
        <time>2015-01-11T10:04:15Z</time>
      </trkpt>
      <trkpt lat="47.15437" lon="-1.39572">
        <ele>56.2</ele>
        <time>2015-01-11T10:04:18Z</time>
      </trkpt>
      <trkpt lat="47.15435" lon="-1.39599">
        <ele>54.8</ele>
        <time>2015-01-11T10:04:21Z</time>
      </trkpt>
      <trkpt lat="47.15431" lon="-1.39624">
        <ele>52.7</ele>
        <time>2015-01-11T10:04:24Z</time>
      </trkpt>
      <trkpt lat="47.1543" lon="-1.39649">
        <ele>51.8</ele>
        <time>2015-01-11T10:04:27Z</time>
      </trkpt>
      <trkpt lat="47.15427" lon="-1.39672">
        <ele>51.1</ele>
        <time>2015-01-11T10:04:30Z</time>
      </trkpt>
      <trkpt lat="47.15424" lon="-1.39694">
        <ele>50.5</ele>
        <time>2015-01-11T10:04:33Z</time>
      </trkpt>
      <trkpt lat="47.15421" lon="-1.3972">
        <ele>49.6</ele>
        <time>2015-01-11T10:04:37Z</time>
      </trkpt>
      <trkpt lat="47.15419" lon="-1.39742">
        <ele>49.3</ele>
        <time>2015-01-11T10:04:40Z</time>
      </trkpt>
      <trkpt lat="47.15416" lon="-1.39763">
        <ele>49.2</ele>
        <time>2015-01-11T10:04:43Z</time>
      </trkpt>
      <trkpt lat="47.15414" lon="-1.39805">
        <ele>49.1</ele>
        <time>2015-01-11T10:04:49Z</time>
      </trkpt>
      <trkpt lat="47.15421" lon="-1.39826">
        <ele>49</ele>
        <time>2015-01-11T10:04:52Z</time>
      </trkpt>
      <trkpt lat="47.15429" lon="-1.39851">
        <ele>48.9</ele>
        <time>2015-01-11T10:04:55Z</time>
      </trkpt>
      <trkpt lat="47.15435" lon="-1.39878">
        <ele>48.9</ele>
        <time>2015-01-11T10:04:58Z</time>
      </trkpt>
      <trkpt lat="47.15443" lon="-1.39902">
        <ele>48.8</ele>
        <time>2015-01-11T10:05:01Z</time>
      </trkpt>
      <trkpt lat="47.15449" lon="-1.39921">
        <ele>48.7</ele>
        <time>2015-01-11T10:05:04Z</time>
      </trkpt>
      <trkpt lat="47.15456" lon="-1.39945">
        <ele>48.5</ele>
        <time>2015-01-11T10:05:08Z</time>
      </trkpt>
      <trkpt lat="47.15465" lon="-1.39963">
        <ele>48.3</ele>
        <time>2015-01-11T10:05:11Z</time>
      </trkpt>
      <trkpt lat="47.15468" lon="-1.39982">
        <ele>44.7</ele>
        <time>2015-01-11T10:05:18Z</time>
      </trkpt>
      <trkpt lat="47.1546" lon="-1.39989">
        <ele>40.9</ele>
        <time>2015-01-11T10:05:23Z</time>
      </trkpt>
      <trkpt lat="47.15444" lon="-1.39993">
        <ele>40.1</ele>
        <time>2015-01-11T10:05:27Z</time>
      </trkpt>
      <trkpt lat="47.15433" lon="-1.39997">
        <ele>39.1</ele>
        <time>2015-01-11T10:05:31Z</time>
      </trkpt>
      <trkpt lat="47.15422" lon="-1.4">
        <ele>38.4</ele>
        <time>2015-01-11T10:05:34Z</time>
      </trkpt>
      <trkpt lat="47.15411" lon="-1.40004">
        <ele>37.8</ele>
        <time>2015-01-11T10:05:37Z</time>
      </trkpt>
      <trkpt lat="47.15405" lon="-1.40006">
        <ele>37.1</ele>
        <time>2015-01-11T10:05:39Z</time>
      </trkpt>
      <trkpt lat="47.15391" lon="-1.40017">
        <ele>36.7</ele>
        <time>2015-01-11T10:05:43Z</time>
      </trkpt>
      <trkpt lat="47.15381" lon="-1.40025">
        <ele>35.9</ele>
        <time>2015-01-11T10:05:46Z</time>
      </trkpt>
      <trkpt lat="47.15367" lon="-1.40032">
        <ele>35.3</ele>
        <time>2015-01-11T10:05:50Z</time>
      </trkpt>
      <trkpt lat="47.15356" lon="-1.40036">
        <ele>34.9</ele>
        <time>2015-01-11T10:05:53Z</time>
      </trkpt>
      <trkpt lat="47.1534" lon="-1.40044">
        <ele>34.6</ele>
        <time>2015-01-11T10:05:58Z</time>
      </trkpt>
      <trkpt lat="47.15324" lon="-1.40054">
        <ele>34.4</ele>
        <time>2015-01-11T10:06:02Z</time>
      </trkpt>
      <trkpt lat="47.15309" lon="-1.40062">
        <ele>34.3</ele>
        <time>2015-01-11T10:06:06Z</time>
      </trkpt>
      <trkpt lat="47.15298" lon="-1.40067">
        <ele>34</ele>
        <time>2015-01-11T10:06:09Z</time>
      </trkpt>
      <trkpt lat="47.15285" lon="-1.40078">
        <ele>33.7</ele>
        <time>2015-01-11T10:06:14Z</time>
      </trkpt>
      <trkpt lat="47.15272" lon="-1.40096">
        <ele>33.7</ele>
        <time>2015-01-11T10:06:17Z</time>
      </trkpt>
      <trkpt lat="47.15266" lon="-1.40107">
        <ele>33.7</ele>
        <time>2015-01-11T10:06:20Z</time>
      </trkpt>
      <trkpt lat="47.15257" lon="-1.40125">
        <ele>34</ele>
        <time>2015-01-11T10:06:25Z</time>
      </trkpt>
      <trkpt lat="47.15252" lon="-1.40148">
        <ele>34.3</ele>
        <time>2015-01-11T10:06:30Z</time>
      </trkpt>
      <trkpt lat="47.15247" lon="-1.40169">
        <ele>34.5</ele>
        <time>2015-01-11T10:06:34Z</time>
      </trkpt>
      <trkpt lat="47.15245" lon="-1.40191">
        <ele>34.7</ele>
        <time>2015-01-11T10:06:37Z</time>
      </trkpt>
      <trkpt lat="47.15241" lon="-1.40216">
        <ele>35.3</ele>
        <time>2015-01-11T10:06:41Z</time>
      </trkpt>
      <trkpt lat="47.15237" lon="-1.40237">
        <ele>35.4</ele>
        <time>2015-01-11T10:06:44Z</time>
      </trkpt>
      <trkpt lat="47.15232" lon="-1.4026">
        <ele>35.4</ele>
        <time>2015-01-11T10:06:47Z</time>
      </trkpt>
      <trkpt lat="47.15228" lon="-1.40283">
        <ele>35.5</ele>
        <time>2015-01-11T10:06:50Z</time>
      </trkpt>
      <trkpt lat="47.15221" lon="-1.40309">
        <ele>35.6</ele>
        <time>2015-01-11T10:06:53Z</time>
      </trkpt>
      <trkpt lat="47.15211" lon="-1.40329">
        <ele>35.9</ele>
        <time>2015-01-11T10:06:56Z</time>
      </trkpt>
      <trkpt lat="47.152" lon="-1.40343">
        <ele>36</ele>
        <time>2015-01-11T10:06:58Z</time>
      </trkpt>
      <trkpt lat="47.15182" lon="-1.40354">
        <ele>36.2</ele>
        <time>2015-01-11T10:07:01Z</time>
      </trkpt>
      <trkpt lat="47.15171" lon="-1.40357">
        <ele>36.4</ele>
        <time>2015-01-11T10:07:03Z</time>
      </trkpt>
      <trkpt lat="47.15163" lon="-1.40358">
        <ele>36.4</ele>
        <time>2015-01-11T10:07:04Z</time>
      </trkpt>
      <trkpt lat="47.15157" lon="-1.40358">
        <ele>36.4</ele>
        <time>2015-01-11T10:07:05Z</time>
      </trkpt>
      <trkpt lat="47.15145" lon="-1.40357">
        <ele>36.4</ele>
        <time>2015-01-11T10:07:07Z</time>
      </trkpt>
      <trkpt lat="47.15137" lon="-1.40355">
        <ele>36.4</ele>
        <time>2015-01-11T10:07:09Z</time>
      </trkpt>
      <trkpt lat="47.15127" lon="-1.40351">
        <ele>36.4</ele>
        <time>2015-01-11T10:07:11Z</time>
      </trkpt>
      <trkpt lat="47.15121" lon="-1.40347">
        <ele>36.4</ele>
        <time>2015-01-11T10:07:12Z</time>
      </trkpt>
      <trkpt lat="47.15109" lon="-1.4033">
        <ele>36.4</ele>
        <time>2015-01-11T10:07:16Z</time>
      </trkpt>
      <trkpt lat="47.15095" lon="-1.40302">
        <ele>36.3</ele>
        <time>2015-01-11T10:07:19Z</time>
      </trkpt>
      <trkpt lat="47.15091" lon="-1.40283">
        <ele>36</ele>
        <time>2015-01-11T10:07:22Z</time>
      </trkpt>
      <trkpt lat="47.15087" lon="-1.40264">
        <ele>35.7</ele>
        <time>2015-01-11T10:07:25Z</time>
      </trkpt>
      <trkpt lat="47.15082" lon="-1.40251">
        <ele>35.2</ele>
        <time>2015-01-11T10:07:30Z</time>
      </trkpt>
      <trkpt lat="47.1507" lon="-1.40218">
        <ele>34</ele>
        <time>2015-01-11T10:07:36Z</time>
      </trkpt>
      <trkpt lat="47.15062" lon="-1.40197">
        <ele>32.7</ele>
        <time>2015-01-11T10:07:38Z</time>
      </trkpt>
      <trkpt lat="47.1505" lon="-1.40175">
        <ele>31.7</ele>
        <time>2015-01-11T10:07:40Z</time>
      </trkpt>
      <trkpt lat="47.15039" lon="-1.40155">
        <ele>30.9</ele>
        <time>2015-01-11T10:07:42Z</time>
      </trkpt>
      <trkpt lat="47.15027" lon="-1.40136">
        <ele>29.7</ele>
        <time>2015-01-11T10:07:45Z</time>
      </trkpt>
      <trkpt lat="47.15015" lon="-1.40118">
        <ele>28.3</ele>
        <time>2015-01-11T10:07:49Z</time>
      </trkpt>
      <trkpt lat="47.14975" lon="-1.4013">
        <ele>25.5</ele>
        <time>2015-01-11T10:07:52Z</time>
      </trkpt>
      <trkpt lat="47.14961" lon="-1.40129">
        <ele>24.1</ele>
        <time>2015-01-11T10:07:55Z</time>
      </trkpt>
      <trkpt lat="47.14956" lon="-1.40129">
        <ele>22</ele>
        <time>2015-01-11T10:07:59Z</time>
      </trkpt>
      <trkpt lat="47.14955" lon="-1.40129">
        <ele>10.3</ele>
        <time>2015-01-11T10:08:03Z</time>
      </trkpt>
      <trkpt lat="47.14955" lon="-1.40129">
        <ele>4.6</ele>
        <time>2015-01-11T10:08:03Z</time>
      </trkpt>
      <trkpt lat="47.14955" lon="-1.40129">
        <ele>4.6</ele>
        <time>2015-01-11T10:11:50Z</time>
      </trkpt>
      <trkpt lat="47.1497" lon="-1.40132">
        <ele>13.3</ele>
        <time>2015-01-11T10:11:54Z</time>
      </trkpt>
      <trkpt lat="47.14975" lon="-1.40131">
        <ele>13.3</ele>
        <time>2015-01-11T10:11:59Z</time>
      </trkpt>
      <trkpt lat="47.14981" lon="-1.40129">
        <ele>13.3</ele>
        <time>2015-01-11T10:12:04Z</time>
      </trkpt>
      <trkpt lat="47.14986" lon="-1.40124">
        <ele>13.3</ele>
        <time>2015-01-11T10:12:08Z</time>
      </trkpt>
      <trkpt lat="47.14991" lon="-1.40113">
        <ele>13.4</ele>
        <time>2015-01-11T10:12:13Z</time>
      </trkpt>
      <trkpt lat="47.14994" lon="-1.40104">
        <ele>13.4</ele>
        <time>2015-01-11T10:12:18Z</time>
      </trkpt>
      <trkpt lat="47.14996" lon="-1.40089">
        <ele>13.4</ele>
        <time>2015-01-11T10:12:23Z</time>
      </trkpt>
      <trkpt lat="47.15002" lon="-1.40069">
        <ele>13.4</ele>
        <time>2015-01-11T10:12:30Z</time>
      </trkpt>
      <trkpt lat="47.15004" lon="-1.4005">
        <ele>13.7</ele>
        <time>2015-01-11T10:12:35Z</time>
      </trkpt>
      <trkpt lat="47.15005" lon="-1.40028">
        <ele>15.6</ele>
        <time>2015-01-11T10:12:41Z</time>
      </trkpt>
      <trkpt lat="47.15005" lon="-1.40007">
        <ele>16.2</ele>
        <time>2015-01-11T10:12:47Z</time>
      </trkpt>
      <trkpt lat="47.15006" lon="-1.39991">
        <ele>18.1</ele>
        <time>2015-01-11T10:12:52Z</time>
      </trkpt>
      <trkpt lat="47.15003" lon="-1.39984">
        <ele>18.9</ele>
        <time>2015-01-11T10:12:54Z</time>
      </trkpt>
      <trkpt lat="47.14998" lon="-1.39978">
        <ele>18.9</ele>
        <time>2015-01-11T10:12:56Z</time>
      </trkpt>
      <trkpt lat="47.14984" lon="-1.39969">
        <ele>18.9</ele>
        <time>2015-01-11T10:13:00Z</time>
      </trkpt>
      <trkpt lat="47.14972" lon="-1.39967">
        <ele>18.9</ele>
        <time>2015-01-11T10:13:03Z</time>
      </trkpt>
      <trkpt lat="47.14957" lon="-1.39964">
        <ele>19.2</ele>
        <time>2015-01-11T10:13:07Z</time>
      </trkpt>
      <trkpt lat="47.14946" lon="-1.39961">
        <ele>19.2</ele>
        <time>2015-01-11T10:13:10Z</time>
      </trkpt>
      <trkpt lat="47.14931" lon="-1.39958">
        <ele>19.2</ele>
        <time>2015-01-11T10:13:14Z</time>
      </trkpt>
      <trkpt lat="47.1492" lon="-1.39956">
        <ele>19.2</ele>
        <time>2015-01-11T10:13:17Z</time>
      </trkpt>
      <trkpt lat="47.14901" lon="-1.39952">
        <ele>19.2</ele>
        <time>2015-01-11T10:13:22Z</time>
      </trkpt>
      <trkpt lat="47.14885" lon="-1.3995">
        <ele>19</ele>
        <time>2015-01-11T10:13:26Z</time>
      </trkpt>
      <trkpt lat="47.14873" lon="-1.39952">
        <ele>18.9</ele>
        <time>2015-01-11T10:13:29Z</time>
      </trkpt>
      <trkpt lat="47.14861" lon="-1.39956">
        <ele>18.8</ele>
        <time>2015-01-11T10:13:32Z</time>
      </trkpt>
      <trkpt lat="47.14851" lon="-1.39963">
        <ele>18.3</ele>
        <time>2015-01-11T10:13:35Z</time>
      </trkpt>
      <trkpt lat="47.14842" lon="-1.39972">
        <ele>17.9</ele>
        <time>2015-01-11T10:13:38Z</time>
      </trkpt>
      <trkpt lat="47.14839" lon="-1.39977">
        <ele>17.3</ele>
        <time>2015-01-11T10:13:40Z</time>
      </trkpt>
      <trkpt lat="47.14837" lon="-1.39986">
        <ele>17.3</ele>
        <time>2015-01-11T10:13:42Z</time>
      </trkpt>
      <trkpt lat="47.14844" lon="-1.4001">
        <ele>16.2</ele>
        <time>2015-01-11T10:13:46Z</time>
      </trkpt>
      <trkpt lat="47.14846" lon="-1.40032">
        <ele>15.6</ele>
        <time>2015-01-11T10:13:49Z</time>
      </trkpt>
      <trkpt lat="47.14846" lon="-1.40053">
        <ele>15.1</ele>
        <time>2015-01-11T10:13:52Z</time>
      </trkpt>
      <trkpt lat="47.14849" lon="-1.4008">
        <ele>14.3</ele>
        <time>2015-01-11T10:13:56Z</time>
      </trkpt>
      <trkpt lat="47.14846" lon="-1.40088">
        <ele>13.6</ele>
        <time>2015-01-11T10:13:58Z</time>
      </trkpt>
      <trkpt lat="47.14841" lon="-1.40092">
        <ele>13.6</ele>
        <time>2015-01-11T10:14:00Z</time>
      </trkpt>
      <trkpt lat="47.14837" lon="-1.40095">
        <ele>13.6</ele>
        <time>2015-01-11T10:14:02Z</time>
      </trkpt>
      <trkpt lat="47.14833" lon="-1.40098">
        <ele>12.6</ele>
        <time>2015-01-11T10:14:04Z</time>
      </trkpt>
      <trkpt lat="47.14827" lon="-1.40101">
        <ele>12.6</ele>
        <time>2015-01-11T10:14:07Z</time>
      </trkpt>
      <trkpt lat="47.14811" lon="-1.40105">
        <ele>11.6</ele>
        <time>2015-01-11T10:14:13Z</time>
      </trkpt>
      <trkpt lat="47.14801" lon="-1.40111">
        <ele>11.3</ele>
        <time>2015-01-11T10:14:17Z</time>
      </trkpt>
      <trkpt lat="47.14797" lon="-1.40117">
        <ele>11.3</ele>
        <time>2015-01-11T10:14:19Z</time>
      </trkpt>
      <trkpt lat="47.14794" lon="-1.40124">
        <ele>11.3</ele>
        <time>2015-01-11T10:14:21Z</time>
      </trkpt>
      <trkpt lat="47.14784" lon="-1.4014">
        <ele>11.3</ele>
        <time>2015-01-11T10:14:27Z</time>
      </trkpt>
      <trkpt lat="47.14783" lon="-1.40147">
        <ele>11.6</ele>
        <time>2015-01-11T10:14:29Z</time>
      </trkpt>
      <trkpt lat="47.14785" lon="-1.40154">
        <ele>11.6</ele>
        <time>2015-01-11T10:14:31Z</time>
      </trkpt>
      <trkpt lat="47.14797" lon="-1.40165">
        <ele>12.1</ele>
        <time>2015-01-11T10:14:36Z</time>
      </trkpt>
      <trkpt lat="47.148" lon="-1.40173">
        <ele>11.8</ele>
        <time>2015-01-11T10:14:39Z</time>
      </trkpt>
      <trkpt lat="47.14795" lon="-1.40171">
        <ele>11.8</ele>
        <time>2015-01-11T10:14:45Z</time>
      </trkpt>
      <trkpt lat="47.1479" lon="-1.40167">
        <ele>11.7</ele>
        <time>2015-01-11T10:14:49Z</time>
      </trkpt>
      <trkpt lat="47.14781" lon="-1.40165">
        <ele>12.2</ele>
        <time>2015-01-11T10:14:55Z</time>
      </trkpt>
      <trkpt lat="47.14774" lon="-1.40164">
        <ele>12.6</ele>
        <time>2015-01-11T10:14:58Z</time>
      </trkpt>
      <trkpt lat="47.14767" lon="-1.40162">
        <ele>12.6</ele>
        <time>2015-01-11T10:15:01Z</time>
      </trkpt>
      <trkpt lat="47.14761" lon="-1.4016">
        <ele>12.8</ele>
        <time>2015-01-11T10:15:04Z</time>
      </trkpt>
      <trkpt lat="47.14751" lon="-1.4016">
        <ele>12.9</ele>
        <time>2015-01-11T10:15:12Z</time>
      </trkpt>
      <trkpt lat="47.14747" lon="-1.40164">
        <ele>13</ele>
        <time>2015-01-11T10:15:15Z</time>
      </trkpt>
      <trkpt lat="47.14744" lon="-1.40177">
        <ele>13.1</ele>
        <time>2015-01-11T10:15:20Z</time>
      </trkpt>
      <trkpt lat="47.14739" lon="-1.4018">
        <ele>13.1</ele>
        <time>2015-01-11T10:15:24Z</time>
      </trkpt>
      <trkpt lat="47.14736" lon="-1.4018">
        <ele>13.1</ele>
        <time>2015-01-11T10:15:26Z</time>
      </trkpt>
      <trkpt lat="47.14735" lon="-1.4018">
        <ele>18.5</ele>
        <time>2015-01-11T10:15:30Z</time>
      </trkpt>
      <trkpt lat="47.14735" lon="-1.4018">
        <ele>20.9</ele>
        <time>2015-01-11T10:15:30Z</time>
      </trkpt>
      <trkpt lat="47.14735" lon="-1.4018">
        <ele>20.9</ele>
        <time>2015-01-11T10:15:53Z</time>
      </trkpt>
      <trkpt lat="47.14725" lon="-1.40202">
        <ele>15.6</ele>
        <time>2015-01-11T10:15:54Z</time>
      </trkpt>
      <trkpt lat="47.14721" lon="-1.40204">
        <ele>15.9</ele>
        <time>2015-01-11T10:15:58Z</time>
      </trkpt>
      <trkpt lat="47.14723" lon="-1.40212">
        <ele>17</ele>
        <time>2015-01-11T10:16:03Z</time>
      </trkpt>
      <trkpt lat="47.14724" lon="-1.40221">
        <ele>17</ele>
        <time>2015-01-11T10:16:07Z</time>
      </trkpt>
      <trkpt lat="47.14724" lon="-1.40241">
        <ele>18.4</ele>
        <time>2015-01-11T10:16:18Z</time>
      </trkpt>
      <trkpt lat="47.14726" lon="-1.4025">
        <ele>19</ele>
        <time>2015-01-11T10:16:21Z</time>
      </trkpt>
      <trkpt lat="47.14731" lon="-1.40262">
        <ele>19.7</ele>
        <time>2015-01-11T10:16:26Z</time>
      </trkpt>
      <trkpt lat="47.14732" lon="-1.40269">
        <ele>20.7</ele>
        <time>2015-01-11T10:16:29Z</time>
      </trkpt>
      <trkpt lat="47.14731" lon="-1.40279">
        <ele>20.7</ele>
        <time>2015-01-11T10:16:32Z</time>
      </trkpt>
      <trkpt lat="47.14729" lon="-1.40301">
        <ele>22.5</ele>
        <time>2015-01-11T10:16:39Z</time>
      </trkpt>
      <trkpt lat="47.14725" lon="-1.40321">
        <ele>23</ele>
        <time>2015-01-11T10:16:45Z</time>
      </trkpt>
      <trkpt lat="47.1472" lon="-1.40341">
        <ele>23.3</ele>
        <time>2015-01-11T10:16:51Z</time>
      </trkpt>
      <trkpt lat="47.14714" lon="-1.40357">
        <ele>24.1</ele>
        <time>2015-01-11T10:16:56Z</time>
      </trkpt>
      <trkpt lat="47.1471" lon="-1.40371">
        <ele>24.5</ele>
        <time>2015-01-11T10:17:01Z</time>
      </trkpt>
      <trkpt lat="47.14707" lon="-1.40379">
        <ele>24.8</ele>
        <time>2015-01-11T10:17:04Z</time>
      </trkpt>
      <trkpt lat="47.14705" lon="-1.40387">
        <ele>25.1</ele>
        <time>2015-01-11T10:17:07Z</time>
      </trkpt>
      <trkpt lat="47.14703" lon="-1.40394">
        <ele>25.1</ele>
        <time>2015-01-11T10:17:10Z</time>
      </trkpt>
      <trkpt lat="47.14699" lon="-1.40407">
        <ele>25.5</ele>
        <time>2015-01-11T10:17:15Z</time>
      </trkpt>
      <trkpt lat="47.14698" lon="-1.40416">
        <ele>26.1</ele>
        <time>2015-01-11T10:17:18Z</time>
      </trkpt>
      <trkpt lat="47.14698" lon="-1.40423">
        <ele>26.1</ele>
        <time>2015-01-11T10:17:20Z</time>
      </trkpt>
      <trkpt lat="47.14698" lon="-1.40436">
        <ele>27.6</ele>
        <time>2015-01-11T10:17:25Z</time>
      </trkpt>
      <trkpt lat="47.14699" lon="-1.40445">
        <ele>29</ele>
        <time>2015-01-11T10:17:28Z</time>
      </trkpt>
      <trkpt lat="47.14699" lon="-1.40454">
        <ele>29</ele>
        <time>2015-01-11T10:17:31Z</time>
      </trkpt>
      <trkpt lat="47.14701" lon="-1.40476">
        <ele>30.5</ele>
        <time>2015-01-11T10:17:40Z</time>
      </trkpt>
      <trkpt lat="47.14701" lon="-1.40493">
        <ele>31.1</ele>
        <time>2015-01-11T10:17:45Z</time>
      </trkpt>
      <trkpt lat="47.14702" lon="-1.40517">
        <ele>31.6</ele>
        <time>2015-01-11T10:17:49Z</time>
      </trkpt>
      <trkpt lat="47.14706" lon="-1.40539">
        <ele>31.9</ele>
        <time>2015-01-11T10:17:52Z</time>
      </trkpt>
      <trkpt lat="47.1471" lon="-1.40562">
        <ele>32.1</ele>
        <time>2015-01-11T10:17:55Z</time>
      </trkpt>
      <trkpt lat="47.14716" lon="-1.40585">
        <ele>32.1</ele>
        <time>2015-01-11T10:17:58Z</time>
      </trkpt>
      <trkpt lat="47.14721" lon="-1.40613">
        <ele>32.6</ele>
        <time>2015-01-11T10:18:01Z</time>
      </trkpt>
      <trkpt lat="47.14726" lon="-1.40636">
        <ele>33.2</ele>
        <time>2015-01-11T10:18:04Z</time>
      </trkpt>
      <trkpt lat="47.1473" lon="-1.40656">
        <ele>33.5</ele>
        <time>2015-01-11T10:18:07Z</time>
      </trkpt>
      <trkpt lat="47.14735" lon="-1.40679">
        <ele>33.8</ele>
        <time>2015-01-11T10:18:10Z</time>
      </trkpt>
      <trkpt lat="47.1474" lon="-1.40702">
        <ele>34.5</ele>
        <time>2015-01-11T10:18:14Z</time>
      </trkpt>
      <trkpt lat="47.14745" lon="-1.40715">
        <ele>36.3</ele>
        <time>2015-01-11T10:18:17Z</time>
      </trkpt>
      <trkpt lat="47.1475" lon="-1.4073">
        <ele>37.1</ele>
        <time>2015-01-11T10:18:21Z</time>
      </trkpt>
      <trkpt lat="47.14756" lon="-1.4075">
        <ele>38.9</ele>
        <time>2015-01-11T10:18:26Z</time>
      </trkpt>
      <trkpt lat="47.14759" lon="-1.40758">
        <ele>39.2</ele>
        <time>2015-01-11T10:18:28Z</time>
      </trkpt>
      <trkpt lat="47.14763" lon="-1.40765">
        <ele>39.2</ele>
        <time>2015-01-11T10:18:30Z</time>
      </trkpt>
      <trkpt lat="47.14773" lon="-1.40781">
        <ele>39.6</ele>
        <time>2015-01-11T10:18:35Z</time>
      </trkpt>
      <trkpt lat="47.14779" lon="-1.40799">
        <ele>40</ele>
        <time>2015-01-11T10:18:40Z</time>
      </trkpt>
      <trkpt lat="47.14785" lon="-1.40812">
        <ele>40.5</ele>
        <time>2015-01-11T10:18:45Z</time>
      </trkpt>
      <trkpt lat="47.14795" lon="-1.40829">
        <ele>40.7</ele>
        <time>2015-01-11T10:18:51Z</time>
      </trkpt>
      <trkpt lat="47.14799" lon="-1.40835">
        <ele>40.9</ele>
        <time>2015-01-11T10:18:54Z</time>
      </trkpt>
      <trkpt lat="47.14807" lon="-1.40842">
        <ele>41.2</ele>
        <time>2015-01-11T10:18:59Z</time>
      </trkpt>
      <trkpt lat="47.14808" lon="-1.40844">
        <ele>42.8</ele>
        <time>2015-01-11T10:19:00Z</time>
      </trkpt>
      <trkpt lat="47.14809" lon="-1.40844">
        <ele>46.8</ele>
        <time>2015-01-11T10:19:04Z</time>
      </trkpt>
      <trkpt lat="47.14809" lon="-1.40844">
        <ele>43.5</ele>
        <time>2015-01-11T10:19:04Z</time>
      </trkpt>
      <trkpt lat="47.14809" lon="-1.40844">
        <ele>43.5</ele>
        <time>2015-01-11T10:20:42Z</time>
      </trkpt>
      <trkpt lat="47.148" lon="-1.40851">
        <ele>50.5</ele>
        <time>2015-01-11T10:20:43Z</time>
      </trkpt>
      <trkpt lat="47.14789" lon="-1.40857">
        <ele>50.4</ele>
        <time>2015-01-11T10:20:46Z</time>
      </trkpt>
      <trkpt lat="47.1478" lon="-1.40862">
        <ele>50.2</ele>
        <time>2015-01-11T10:20:49Z</time>
      </trkpt>
      <trkpt lat="47.14771" lon="-1.40867">
        <ele>50.1</ele>
        <time>2015-01-11T10:20:52Z</time>
      </trkpt>
      <trkpt lat="47.14762" lon="-1.40873">
        <ele>49.9</ele>
        <time>2015-01-11T10:20:55Z</time>
      </trkpt>
      <trkpt lat="47.14753" lon="-1.40878">
        <ele>49.6</ele>
        <time>2015-01-11T10:20:58Z</time>
      </trkpt>
      <trkpt lat="47.14744" lon="-1.40883">
        <ele>49.4</ele>
        <time>2015-01-11T10:21:01Z</time>
      </trkpt>
      <trkpt lat="47.14732" lon="-1.40891">
        <ele>49.2</ele>
        <time>2015-01-11T10:21:05Z</time>
      </trkpt>
      <trkpt lat="47.1472" lon="-1.40899">
        <ele>48.5</ele>
        <time>2015-01-11T10:21:11Z</time>
      </trkpt>
      <trkpt lat="47.14706" lon="-1.40906">
        <ele>48.4</ele>
        <time>2015-01-11T10:21:17Z</time>
      </trkpt>
      <trkpt lat="47.14694" lon="-1.40911">
        <ele>48.4</ele>
        <time>2015-01-11T10:21:21Z</time>
      </trkpt>
      <trkpt lat="47.14687" lon="-1.40912">
        <ele>48.4</ele>
        <time>2015-01-11T10:21:23Z</time>
      </trkpt>
      <trkpt lat="47.14677" lon="-1.4091">
        <ele>48.4</ele>
        <time>2015-01-11T10:21:25Z</time>
      </trkpt>
      <trkpt lat="47.14669" lon="-1.40907">
        <ele>48.4</ele>
        <time>2015-01-11T10:21:27Z</time>
      </trkpt>
      <trkpt lat="47.14664" lon="-1.40905">
        <ele>48.4</ele>
        <time>2015-01-11T10:21:28Z</time>
      </trkpt>
      <trkpt lat="47.1466" lon="-1.40903">
        <ele>48.4</ele>
        <time>2015-01-11T10:21:29Z</time>
      </trkpt>
      <trkpt lat="47.14643" lon="-1.40896">
        <ele>47.8</ele>
        <time>2015-01-11T10:21:33Z</time>
      </trkpt>
      <trkpt lat="47.14631" lon="-1.4089">
        <ele>47.7</ele>
        <time>2015-01-11T10:21:36Z</time>
      </trkpt>
      <trkpt lat="47.14616" lon="-1.40884">
        <ele>47.5</ele>
        <time>2015-01-11T10:21:40Z</time>
      </trkpt>
      <trkpt lat="47.14607" lon="-1.40881">
        <ele>47.3</ele>
        <time>2015-01-11T10:21:42Z</time>
      </trkpt>
      <trkpt lat="47.14596" lon="-1.40878">
        <ele>47.2</ele>
        <time>2015-01-11T10:21:44Z</time>
      </trkpt>
      <trkpt lat="47.14583" lon="-1.40879">
        <ele>47.1</ele>
        <time>2015-01-11T10:21:47Z</time>
      </trkpt>
      <trkpt lat="47.14573" lon="-1.40884">
        <ele>47.1</ele>
        <time>2015-01-11T10:21:49Z</time>
      </trkpt>
      <trkpt lat="47.14564" lon="-1.40889">
        <ele>46.7</ele>
        <time>2015-01-11T10:21:51Z</time>
      </trkpt>
      <trkpt lat="47.14555" lon="-1.40895">
        <ele>46.5</ele>
        <time>2015-01-11T10:21:53Z</time>
      </trkpt>
      <trkpt lat="47.14543" lon="-1.40907">
        <ele>46.2</ele>
        <time>2015-01-11T10:21:56Z</time>
      </trkpt>
      <trkpt lat="47.14534" lon="-1.40925">
        <ele>45.8</ele>
        <time>2015-01-11T10:21:59Z</time>
      </trkpt>
      <trkpt lat="47.14527" lon="-1.40945">
        <ele>45.6</ele>
        <time>2015-01-11T10:22:02Z</time>
      </trkpt>
      <trkpt lat="47.14519" lon="-1.40968">
        <ele>45.6</ele>
        <time>2015-01-11T10:22:06Z</time>
      </trkpt>
      <trkpt lat="47.14509" lon="-1.40983">
        <ele>45.6</ele>
        <time>2015-01-11T10:22:09Z</time>
      </trkpt>
      <trkpt lat="47.14496" lon="-1.40996">
        <ele>45.6</ele>
        <time>2015-01-11T10:22:12Z</time>
      </trkpt>
      <trkpt lat="47.14483" lon="-1.41008">
        <ele>45.6</ele>
        <time>2015-01-11T10:22:15Z</time>
      </trkpt>
      <trkpt lat="47.14471" lon="-1.41016">
        <ele>45.6</ele>
        <time>2015-01-11T10:22:18Z</time>
      </trkpt>
      <trkpt lat="47.14463" lon="-1.41019">
        <ele>45.6</ele>
        <time>2015-01-11T10:22:20Z</time>
      </trkpt>
      <trkpt lat="47.14445" lon="-1.41024">
        <ele>45.6</ele>
        <time>2015-01-11T10:22:24Z</time>
      </trkpt>
      <trkpt lat="47.14434" lon="-1.41026">
        <ele>45.6</ele>
        <time>2015-01-11T10:22:27Z</time>
      </trkpt>
      <trkpt lat="47.14414" lon="-1.4104">
        <ele>46</ele>
        <time>2015-01-11T10:22:33Z</time>
      </trkpt>
      <trkpt lat="47.14412" lon="-1.41062">
        <ele>47.5</ele>
        <time>2015-01-11T10:22:37Z</time>
      </trkpt>
      <trkpt lat="47.1441" lon="-1.41087">
        <ele>47.9</ele>
        <time>2015-01-11T10:22:41Z</time>
      </trkpt>
      <trkpt lat="47.14408" lon="-1.41111">
        <ele>48.2</ele>
        <time>2015-01-11T10:22:45Z</time>
      </trkpt>
      <trkpt lat="47.14407" lon="-1.41135">
        <ele>48.4</ele>
        <time>2015-01-11T10:22:49Z</time>
      </trkpt>
      <trkpt lat="47.14406" lon="-1.41161">
        <ele>48.5</ele>
        <time>2015-01-11T10:22:53Z</time>
      </trkpt>
      <trkpt lat="47.14404" lon="-1.41182">
        <ele>48.6</ele>
        <time>2015-01-11T10:22:56Z</time>
      </trkpt>
      <trkpt lat="47.14405" lon="-1.41208">
        <ele>48.6</ele>
        <time>2015-01-11T10:23:00Z</time>
      </trkpt>
      <trkpt lat="47.14403" lon="-1.4123">
        <ele>48.6</ele>
        <time>2015-01-11T10:23:04Z</time>
      </trkpt>
      <trkpt lat="47.14402" lon="-1.4125">
        <ele>48.6</ele>
        <time>2015-01-11T10:23:07Z</time>
      </trkpt>
      <trkpt lat="47.144" lon="-1.41271">
        <ele>48.6</ele>
        <time>2015-01-11T10:23:11Z</time>
      </trkpt>
      <trkpt lat="47.14399" lon="-1.41294">
        <ele>48.5</ele>
        <time>2015-01-11T10:23:14Z</time>
      </trkpt>
      <trkpt lat="47.14398" lon="-1.41318">
        <ele>48.5</ele>
        <time>2015-01-11T10:23:18Z</time>
      </trkpt>
      <trkpt lat="47.14396" lon="-1.41341">
        <ele>48.3</ele>
        <time>2015-01-11T10:23:22Z</time>
      </trkpt>
      <trkpt lat="47.14395" lon="-1.41364">
        <ele>48.3</ele>
        <time>2015-01-11T10:23:26Z</time>
      </trkpt>
      <trkpt lat="47.14395" lon="-1.41388">
        <ele>48.3</ele>
        <time>2015-01-11T10:23:30Z</time>
      </trkpt>
      <trkpt lat="47.14397" lon="-1.41411">
        <ele>48.4</ele>
        <time>2015-01-11T10:23:34Z</time>
      </trkpt>
      <trkpt lat="47.14398" lon="-1.4144">
        <ele>48.4</ele>
        <time>2015-01-11T10:23:39Z</time>
      </trkpt>
      <trkpt lat="47.14399" lon="-1.41462">
        <ele>48.4</ele>
        <time>2015-01-11T10:23:43Z</time>
      </trkpt>
      <trkpt lat="47.14399" lon="-1.41484">
        <ele>48.7</ele>
        <time>2015-01-11T10:23:47Z</time>
      </trkpt>
      <trkpt lat="47.144" lon="-1.41508">
        <ele>48.9</ele>
        <time>2015-01-11T10:23:51Z</time>
      </trkpt>
      <trkpt lat="47.144" lon="-1.41539">
        <ele>49.1</ele>
        <time>2015-01-11T10:23:56Z</time>
      </trkpt>
      <trkpt lat="47.144" lon="-1.41562">
        <ele>49.3</ele>
        <time>2015-01-11T10:24:00Z</time>
      </trkpt>
      <trkpt lat="47.14399" lon="-1.41584">
        <ele>49.6</ele>
        <time>2015-01-11T10:24:04Z</time>
      </trkpt>
      <trkpt lat="47.14394" lon="-1.41606">
        <ele>50.6</ele>
        <time>2015-01-11T10:24:08Z</time>
      </trkpt>
      <trkpt lat="47.14389" lon="-1.41628">
        <ele>51.4</ele>
        <time>2015-01-11T10:24:11Z</time>
      </trkpt>
      <trkpt lat="47.14386" lon="-1.41653">
        <ele>52.7</ele>
        <time>2015-01-11T10:24:15Z</time>
      </trkpt>
      <trkpt lat="47.14386" lon="-1.41677">
        <ele>53</ele>
        <time>2015-01-11T10:24:19Z</time>
      </trkpt>
      <trkpt lat="47.14391" lon="-1.41701">
        <ele>53.3</ele>
        <time>2015-01-11T10:24:23Z</time>
      </trkpt>
      <trkpt lat="47.14398" lon="-1.41719">
        <ele>53.4</ele>
        <time>2015-01-11T10:24:26Z</time>
      </trkpt>
      <trkpt lat="47.14404" lon="-1.41741">
        <ele>53.4</ele>
        <time>2015-01-11T10:24:29Z</time>
      </trkpt>
      <trkpt lat="47.14406" lon="-1.41764">
        <ele>53.4</ele>
        <time>2015-01-11T10:24:32Z</time>
      </trkpt>
      <trkpt lat="47.14409" lon="-1.41788">
        <ele>53.4</ele>
        <time>2015-01-11T10:24:35Z</time>
      </trkpt>
      <trkpt lat="47.14407" lon="-1.41815">
        <ele>53.4</ele>
        <time>2015-01-11T10:24:38Z</time>
      </trkpt>
      <trkpt lat="47.1441" lon="-1.41836">
        <ele>53.4</ele>
        <time>2015-01-11T10:24:40Z</time>
      </trkpt>
      <trkpt lat="47.14415" lon="-1.41861">
        <ele>53.4</ele>
        <time>2015-01-11T10:24:43Z</time>
      </trkpt>
      <trkpt lat="47.1442" lon="-1.41886">
        <ele>53.2</ele>
        <time>2015-01-11T10:24:46Z</time>
      </trkpt>
      <trkpt lat="47.14426" lon="-1.41912">
        <ele>53</ele>
        <time>2015-01-11T10:24:49Z</time>
      </trkpt>
      <trkpt lat="47.14433" lon="-1.41939">
        <ele>52.6</ele>
        <time>2015-01-11T10:24:52Z</time>
      </trkpt>
      <trkpt lat="47.14438" lon="-1.41959">
        <ele>52.2</ele>
        <time>2015-01-11T10:24:54Z</time>
      </trkpt>
      <trkpt lat="47.14443" lon="-1.41985">
        <ele>51.5</ele>
        <time>2015-01-11T10:24:57Z</time>
      </trkpt>
      <trkpt lat="47.14449" lon="-1.42005">
        <ele>51.1</ele>
        <time>2015-01-11T10:24:59Z</time>
      </trkpt>
      <trkpt lat="47.14453" lon="-1.42026">
        <ele>49.9</ele>
        <time>2015-01-11T10:25:01Z</time>
      </trkpt>
      <trkpt lat="47.14459" lon="-1.42047">
        <ele>48.9</ele>
        <time>2015-01-11T10:25:03Z</time>
      </trkpt>
      <trkpt lat="47.14467" lon="-1.42068">
        <ele>48.3</ele>
        <time>2015-01-11T10:25:05Z</time>
      </trkpt>
      <trkpt lat="47.14476" lon="-1.42089">
        <ele>47.8</ele>
        <time>2015-01-11T10:25:07Z</time>
      </trkpt>
      <trkpt lat="47.14485" lon="-1.42111">
        <ele>47.6</ele>
        <time>2015-01-11T10:25:09Z</time>
      </trkpt>
      <trkpt lat="47.14494" lon="-1.42131">
        <ele>46.1</ele>
        <time>2015-01-11T10:25:11Z</time>
      </trkpt>
      <trkpt lat="47.14503" lon="-1.42152">
        <ele>43.4</ele>
        <time>2015-01-11T10:25:13Z</time>
      </trkpt>
      <trkpt lat="47.14511" lon="-1.42172">
        <ele>41</ele>
        <time>2015-01-11T10:25:15Z</time>
      </trkpt>
      <trkpt lat="47.14518" lon="-1.42193">
        <ele>38.3</ele>
        <time>2015-01-11T10:25:17Z</time>
      </trkpt>
      <trkpt lat="47.14525" lon="-1.42213">
        <ele>37.2</ele>
        <time>2015-01-11T10:25:19Z</time>
      </trkpt>
      <trkpt lat="47.14532" lon="-1.42233">
        <ele>36.9</ele>
        <time>2015-01-11T10:25:21Z</time>
      </trkpt>
      <trkpt lat="47.14539" lon="-1.42251">
        <ele>36.7</ele>
        <time>2015-01-11T10:25:23Z</time>
      </trkpt>
      <trkpt lat="47.14547" lon="-1.42267">
        <ele>36.5</ele>
        <time>2015-01-11T10:25:25Z</time>
      </trkpt>
      <trkpt lat="47.14556" lon="-1.42287">
        <ele>36.2</ele>
        <time>2015-01-11T10:25:28Z</time>
      </trkpt>
      <trkpt lat="47.14567" lon="-1.42311">
        <ele>36</ele>
        <time>2015-01-11T10:25:31Z</time>
      </trkpt>
      <trkpt lat="47.14576" lon="-1.42327">
        <ele>35.8</ele>
        <time>2015-01-11T10:25:34Z</time>
      </trkpt>
      <trkpt lat="47.14588" lon="-1.42341">
        <ele>35.4</ele>
        <time>2015-01-11T10:25:37Z</time>
      </trkpt>
      <trkpt lat="47.14602" lon="-1.42354">
        <ele>35</ele>
        <time>2015-01-11T10:25:41Z</time>
      </trkpt>
      <trkpt lat="47.14613" lon="-1.42365">
        <ele>34.6</ele>
        <time>2015-01-11T10:25:44Z</time>
      </trkpt>
      <trkpt lat="47.14627" lon="-1.42378">
        <ele>33.7</ele>
        <time>2015-01-11T10:25:48Z</time>
      </trkpt>
      <trkpt lat="47.14642" lon="-1.42393">
        <ele>33</ele>
        <time>2015-01-11T10:25:52Z</time>
      </trkpt>
      <trkpt lat="47.14652" lon="-1.42402">
        <ele>32.6</ele>
        <time>2015-01-11T10:25:55Z</time>
      </trkpt>
      <trkpt lat="47.1466" lon="-1.4241">
        <ele>32.5</ele>
        <time>2015-01-11T10:25:58Z</time>
      </trkpt>
      <trkpt lat="47.1467" lon="-1.42419">
        <ele>32.5</ele>
        <time>2015-01-11T10:26:02Z</time>
      </trkpt>
      <trkpt lat="47.14682" lon="-1.42432">
        <ele>32.5</ele>
        <time>2015-01-11T10:26:07Z</time>
      </trkpt>
      <trkpt lat="47.14696" lon="-1.42445">
        <ele>32.5</ele>
        <time>2015-01-11T10:26:13Z</time>
      </trkpt>
      <trkpt lat="47.14707" lon="-1.42457">
        <ele>32.7</ele>
        <time>2015-01-11T10:26:18Z</time>
      </trkpt>
      <trkpt lat="47.14712" lon="-1.42463">
        <ele>32.9</ele>
        <time>2015-01-11T10:26:20Z</time>
      </trkpt>
      <trkpt lat="47.1472" lon="-1.4247">
        <ele>32.9</ele>
        <time>2015-01-11T10:26:23Z</time>
      </trkpt>
      <trkpt lat="47.14728" lon="-1.42477">
        <ele>32.9</ele>
        <time>2015-01-11T10:26:26Z</time>
      </trkpt>
      <trkpt lat="47.14736" lon="-1.42485">
        <ele>32.9</ele>
        <time>2015-01-11T10:26:29Z</time>
      </trkpt>
      <trkpt lat="47.14746" lon="-1.42496">
        <ele>33.2</ele>
        <time>2015-01-11T10:26:33Z</time>
      </trkpt>
      <trkpt lat="47.14759" lon="-1.42508">
        <ele>33.5</ele>
        <time>2015-01-11T10:26:38Z</time>
      </trkpt>
      <trkpt lat="47.14773" lon="-1.42521">
        <ele>33.6</ele>
        <time>2015-01-11T10:26:43Z</time>
      </trkpt>
      <trkpt lat="47.14786" lon="-1.42534">
        <ele>33.6</ele>
        <time>2015-01-11T10:26:48Z</time>
      </trkpt>
      <trkpt lat="47.14795" lon="-1.42544">
        <ele>33.6</ele>
        <time>2015-01-11T10:26:52Z</time>
      </trkpt>
      <trkpt lat="47.14808" lon="-1.42561">
        <ele>33.7</ele>
        <time>2015-01-11T10:26:57Z</time>
      </trkpt>
      <trkpt lat="47.1482" lon="-1.42575">
        <ele>33.8</ele>
        <time>2015-01-11T10:27:01Z</time>
      </trkpt>
      <trkpt lat="47.1483" lon="-1.42588">
        <ele>33.8</ele>
        <time>2015-01-11T10:27:06Z</time>
      </trkpt>
      <trkpt lat="47.14834" lon="-1.42593">
        <ele>33.8</ele>
        <time>2015-01-11T10:27:08Z</time>
      </trkpt>
      <trkpt lat="47.1484" lon="-1.426">
        <ele>33.8</ele>
        <time>2015-01-11T10:27:11Z</time>
      </trkpt>
      <trkpt lat="47.14851" lon="-1.42616">
        <ele>33.9</ele>
        <time>2015-01-11T10:27:15Z</time>
      </trkpt>
      <trkpt lat="47.14863" lon="-1.42632">
        <ele>34.1</ele>
        <time>2015-01-11T10:27:19Z</time>
      </trkpt>
      <trkpt lat="47.14874" lon="-1.42647">
        <ele>34.3</ele>
        <time>2015-01-11T10:27:22Z</time>
      </trkpt>
      <trkpt lat="47.14885" lon="-1.42661">
        <ele>34.3</ele>
        <time>2015-01-11T10:27:25Z</time>
      </trkpt>
      <trkpt lat="47.14896" lon="-1.42679">
        <ele>35.3</ele>
        <time>2015-01-11T10:27:28Z</time>
      </trkpt>
      <trkpt lat="47.14906" lon="-1.42694">
        <ele>36.1</ele>
        <time>2015-01-11T10:27:31Z</time>
      </trkpt>
      <trkpt lat="47.14917" lon="-1.4271">
        <ele>36.6</ele>
        <time>2015-01-11T10:27:34Z</time>
      </trkpt>
      <trkpt lat="47.14929" lon="-1.42727">
        <ele>36.7</ele>
        <time>2015-01-11T10:27:37Z</time>
      </trkpt>
      <trkpt lat="47.1494" lon="-1.42744">
        <ele>36.7</ele>
        <time>2015-01-11T10:27:40Z</time>
      </trkpt>
      <trkpt lat="47.1495" lon="-1.42759">
        <ele>36.7</ele>
        <time>2015-01-11T10:27:43Z</time>
      </trkpt>
      <trkpt lat="47.14962" lon="-1.42777">
        <ele>36.7</ele>
        <time>2015-01-11T10:27:46Z</time>
      </trkpt>
      <trkpt lat="47.14973" lon="-1.42796">
        <ele>36.7</ele>
        <time>2015-01-11T10:27:49Z</time>
      </trkpt>
      <trkpt lat="47.14984" lon="-1.42813">
        <ele>36.7</ele>
        <time>2015-01-11T10:27:52Z</time>
      </trkpt>
      <trkpt lat="47.14997" lon="-1.42833">
        <ele>36.7</ele>
        <time>2015-01-11T10:27:55Z</time>
      </trkpt>
      <trkpt lat="47.1501" lon="-1.42849">
        <ele>36.7</ele>
        <time>2015-01-11T10:27:58Z</time>
      </trkpt>
      <trkpt lat="47.15024" lon="-1.4286">
        <ele>36.7</ele>
        <time>2015-01-11T10:28:01Z</time>
      </trkpt>
      <trkpt lat="47.15039" lon="-1.42872">
        <ele>36.4</ele>
        <time>2015-01-11T10:28:04Z</time>
      </trkpt>
      <trkpt lat="47.15054" lon="-1.42878">
        <ele>35.7</ele>
        <time>2015-01-11T10:28:07Z</time>
      </trkpt>
      <trkpt lat="47.15066" lon="-1.42881">
        <ele>34.5</ele>
        <time>2015-01-11T10:28:10Z</time>
      </trkpt>
      <trkpt lat="47.15076" lon="-1.42884">
        <ele>33.8</ele>
        <time>2015-01-11T10:28:12Z</time>
      </trkpt>
      <trkpt lat="47.15092" lon="-1.42888">
        <ele>33.5</ele>
        <time>2015-01-11T10:28:14Z</time>
      </trkpt>
      <trkpt lat="47.15111" lon="-1.42893">
        <ele>33.3</ele>
        <time>2015-01-11T10:28:17Z</time>
      </trkpt>
      <trkpt lat="47.15122" lon="-1.42896">
        <ele>33.1</ele>
        <time>2015-01-11T10:28:19Z</time>
      </trkpt>
      <trkpt lat="47.15134" lon="-1.42901">
        <ele>33</ele>
        <time>2015-01-11T10:28:21Z</time>
      </trkpt>
      <trkpt lat="47.15145" lon="-1.42908">
        <ele>32.8</ele>
        <time>2015-01-11T10:28:23Z</time>
      </trkpt>
      <trkpt lat="47.15162" lon="-1.42918">
        <ele>32.6</ele>
        <time>2015-01-11T10:28:26Z</time>
      </trkpt>
      <trkpt lat="47.15175" lon="-1.42926">
        <ele>32.3</ele>
        <time>2015-01-11T10:28:29Z</time>
      </trkpt>
      <trkpt lat="47.15188" lon="-1.42937">
        <ele>31.9</ele>
        <time>2015-01-11T10:28:31Z</time>
      </trkpt>
      <trkpt lat="47.15207" lon="-1.4296">
        <ele>31.2</ele>
        <time>2015-01-11T10:28:35Z</time>
      </trkpt>
      <trkpt lat="47.15221" lon="-1.42984">
        <ele>30.7</ele>
        <time>2015-01-11T10:28:38Z</time>
      </trkpt>
      <trkpt lat="47.15229" lon="-1.42999">
        <ele>30.5</ele>
        <time>2015-01-11T10:28:40Z</time>
      </trkpt>
      <trkpt lat="47.15236" lon="-1.43017">
        <ele>30.3</ele>
        <time>2015-01-11T10:28:42Z</time>
      </trkpt>
      <trkpt lat="47.15243" lon="-1.43035">
        <ele>30.2</ele>
        <time>2015-01-11T10:28:44Z</time>
      </trkpt>
      <trkpt lat="47.15248" lon="-1.43055">
        <ele>30</ele>
        <time>2015-01-11T10:28:46Z</time>
      </trkpt>
      <trkpt lat="47.15253" lon="-1.43076">
        <ele>29.9</ele>
        <time>2015-01-11T10:28:48Z</time>
      </trkpt>
      <trkpt lat="47.15254" lon="-1.431">
        <ele>29.8</ele>
        <time>2015-01-11T10:28:50Z</time>
      </trkpt>
      <trkpt lat="47.15253" lon="-1.43124">
        <ele>29.7</ele>
        <time>2015-01-11T10:28:52Z</time>
      </trkpt>
      <trkpt lat="47.15251" lon="-1.43149">
        <ele>29.6</ele>
        <time>2015-01-11T10:28:54Z</time>
      </trkpt>
      <trkpt lat="47.15251" lon="-1.43178">
        <ele>29.4</ele>
        <time>2015-01-11T10:28:56Z</time>
      </trkpt>
      <trkpt lat="47.15252" lon="-1.43205">
        <ele>29.3</ele>
        <time>2015-01-11T10:28:58Z</time>
      </trkpt>
      <trkpt lat="47.15254" lon="-1.43231">
        <ele>29.1</ele>
        <time>2015-01-11T10:29:00Z</time>
      </trkpt>
      <trkpt lat="47.15253" lon="-1.4326">
        <ele>28.8</ele>
        <time>2015-01-11T10:29:02Z</time>
      </trkpt>
      <trkpt lat="47.15253" lon="-1.43288">
        <ele>28.5</ele>
        <time>2015-01-11T10:29:04Z</time>
      </trkpt>
      <trkpt lat="47.15253" lon="-1.43317">
        <ele>28.4</ele>
        <time>2015-01-11T10:29:06Z</time>
      </trkpt>
      <trkpt lat="47.15255" lon="-1.43344">
        <ele>28</ele>
        <time>2015-01-11T10:29:08Z</time>
      </trkpt>
      <trkpt lat="47.15254" lon="-1.43371">
        <ele>27.9</ele>
        <time>2015-01-11T10:29:10Z</time>
      </trkpt>
      <trkpt lat="47.15256" lon="-1.43397">
        <ele>27.7</ele>
        <time>2015-01-11T10:29:12Z</time>
      </trkpt>
      <trkpt lat="47.15258" lon="-1.43419">
        <ele>27.4</ele>
        <time>2015-01-11T10:29:14Z</time>
      </trkpt>
      <trkpt lat="47.15264" lon="-1.43442">
        <ele>27.3</ele>
        <time>2015-01-11T10:29:16Z</time>
      </trkpt>
      <trkpt lat="47.15268" lon="-1.43466">
        <ele>27.1</ele>
        <time>2015-01-11T10:29:18Z</time>
      </trkpt>
      <trkpt lat="47.15269" lon="-1.43488">
        <ele>26.8</ele>
        <time>2015-01-11T10:29:20Z</time>
      </trkpt>
      <trkpt lat="47.15272" lon="-1.43512">
        <ele>26.3</ele>
        <time>2015-01-11T10:29:22Z</time>
      </trkpt>
      <trkpt lat="47.15272" lon="-1.43532">
        <ele>26</ele>
        <time>2015-01-11T10:29:24Z</time>
      </trkpt>
      <trkpt lat="47.15271" lon="-1.4356">
        <ele>25.9</ele>
        <time>2015-01-11T10:29:27Z</time>
      </trkpt>
      <trkpt lat="47.15272" lon="-1.43587">
        <ele>25.6</ele>
        <time>2015-01-11T10:29:30Z</time>
      </trkpt>
      <trkpt lat="47.15274" lon="-1.4361">
        <ele>25.4</ele>
        <time>2015-01-11T10:29:32Z</time>
      </trkpt>
      <trkpt lat="47.15276" lon="-1.4364">
        <ele>24.8</ele>
        <time>2015-01-11T10:29:35Z</time>
      </trkpt>
      <trkpt lat="47.15279" lon="-1.43668">
        <ele>23.8</ele>
        <time>2015-01-11T10:29:38Z</time>
      </trkpt>
      <trkpt lat="47.15279" lon="-1.43695">
        <ele>22</ele>
        <time>2015-01-11T10:29:41Z</time>
      </trkpt>
      <trkpt lat="47.15281" lon="-1.43726">
        <ele>19.6</ele>
        <time>2015-01-11T10:29:44Z</time>
      </trkpt>
      <trkpt lat="47.1528" lon="-1.43753">
        <ele>18.1</ele>
        <time>2015-01-11T10:29:47Z</time>
      </trkpt>
      <trkpt lat="47.15279" lon="-1.43776">
        <ele>16.9</ele>
        <time>2015-01-11T10:29:49Z</time>
      </trkpt>
      <trkpt lat="47.15277" lon="-1.43797">
        <ele>16.3</ele>
        <time>2015-01-11T10:29:51Z</time>
      </trkpt>
      <trkpt lat="47.15276" lon="-1.43818">
        <ele>16.1</ele>
        <time>2015-01-11T10:29:53Z</time>
      </trkpt>
      <trkpt lat="47.15276" lon="-1.43846">
        <ele>15.4</ele>
        <time>2015-01-11T10:29:56Z</time>
      </trkpt>
      <trkpt lat="47.15277" lon="-1.43866">
        <ele>14.9</ele>
        <time>2015-01-11T10:29:58Z</time>
      </trkpt>
      <trkpt lat="47.15289" lon="-1.43898">
        <ele>14.2</ele>
        <time>2015-01-11T10:30:02Z</time>
      </trkpt>
      <trkpt lat="47.15297" lon="-1.43915">
        <ele>14.1</ele>
        <time>2015-01-11T10:30:04Z</time>
      </trkpt>
      <trkpt lat="47.15306" lon="-1.43932">
        <ele>13.9</ele>
        <time>2015-01-11T10:30:06Z</time>
      </trkpt>
      <trkpt lat="47.15319" lon="-1.4395">
        <ele>13.7</ele>
        <time>2015-01-11T10:30:09Z</time>
      </trkpt>
      <trkpt lat="47.15332" lon="-1.43968">
        <ele>13.6</ele>
        <time>2015-01-11T10:30:12Z</time>
      </trkpt>
      <trkpt lat="47.15345" lon="-1.43989">
        <ele>13.5</ele>
        <time>2015-01-11T10:30:15Z</time>
      </trkpt>
      <trkpt lat="47.15358" lon="-1.44009">
        <ele>13.6</ele>
        <time>2015-01-11T10:30:18Z</time>
      </trkpt>
      <trkpt lat="47.15371" lon="-1.44028">
        <ele>13.8</ele>
        <time>2015-01-11T10:30:21Z</time>
      </trkpt>
      <trkpt lat="47.15381" lon="-1.44047">
        <ele>14</ele>
        <time>2015-01-11T10:30:24Z</time>
      </trkpt>
      <trkpt lat="47.15385" lon="-1.44067">
        <ele>14.2</ele>
        <time>2015-01-11T10:30:26Z</time>
      </trkpt>
      <trkpt lat="47.15384" lon="-1.4409">
        <ele>14.4</ele>
        <time>2015-01-11T10:30:29Z</time>
      </trkpt>
      <trkpt lat="47.1538" lon="-1.44112">
        <ele>14.6</ele>
        <time>2015-01-11T10:30:31Z</time>
      </trkpt>
      <trkpt lat="47.15376" lon="-1.44126">
        <ele>14.4</ele>
        <time>2015-01-11T10:30:33Z</time>
      </trkpt>
      <trkpt lat="47.1537" lon="-1.44125">
        <ele>14.2</ele>
        <time>2015-01-11T10:30:39Z</time>
      </trkpt>
      <trkpt lat="47.1537" lon="-1.44104">
        <ele>13.7</ele>
        <time>2015-01-11T10:30:44Z</time>
      </trkpt>
      <trkpt lat="47.15376" lon="-1.44083">
        <ele>13.2</ele>
        <time>2015-01-11T10:30:48Z</time>
      </trkpt>
      <trkpt lat="47.15375" lon="-1.44062">
        <ele>13.1</ele>
        <time>2015-01-11T10:30:51Z</time>
      </trkpt>
      <trkpt lat="47.15366" lon="-1.44039">
        <ele>12.5</ele>
        <time>2015-01-11T10:30:55Z</time>
      </trkpt>
      <trkpt lat="47.15384" lon="-1.44048">
        <ele>12.4</ele>
        <time>2015-01-11T10:30:59Z</time>
      </trkpt>
      <trkpt lat="47.1535" lon="-1.44056">
        <ele>12.4</ele>
        <time>2015-01-11T10:31:02Z</time>
      </trkpt>
      <trkpt lat="47.15343" lon="-1.44072">
        <ele>12.4</ele>
        <time>2015-01-11T10:31:05Z</time>
      </trkpt>
      <trkpt lat="47.15332" lon="-1.44087">
        <ele>10.3</ele>
        <time>2015-01-11T10:31:09Z</time>
      </trkpt>
      <trkpt lat="47.15325" lon="-1.44105">
        <ele>8.1</ele>
        <time>2015-01-11T10:31:14Z</time>
      </trkpt>
      <trkpt lat="47.15313" lon="-1.4412">
        <ele>7</ele>
        <time>2015-01-11T10:31:18Z</time>
      </trkpt>
      <trkpt lat="47.15302" lon="-1.44136">
        <ele>6.8</ele>
        <time>2015-01-11T10:31:22Z</time>
      </trkpt>
      <trkpt lat="47.15292" lon="-1.44149">
        <ele>6.8</ele>
        <time>2015-01-11T10:31:25Z</time>
      </trkpt>
      <trkpt lat="47.1528" lon="-1.44164">
        <ele>6.6</ele>
        <time>2015-01-11T10:31:28Z</time>
      </trkpt>
      <trkpt lat="47.15268" lon="-1.44183">
        <ele>6</ele>
        <time>2015-01-11T10:31:32Z</time>
      </trkpt>
      <trkpt lat="47.15257" lon="-1.44201">
        <ele>5.6</ele>
        <time>2015-01-11T10:31:36Z</time>
      </trkpt>
      <trkpt lat="47.15247" lon="-1.44221">
        <ele>5.5</ele>
        <time>2015-01-11T10:31:40Z</time>
      </trkpt>
      <trkpt lat="47.15239" lon="-1.44237">
        <ele>5.5</ele>
        <time>2015-01-11T10:31:44Z</time>
      </trkpt>
      <trkpt lat="47.1523" lon="-1.44252">
        <ele>5.7</ele>
        <time>2015-01-11T10:31:47Z</time>
      </trkpt>
      <trkpt lat="47.15222" lon="-1.4427">
        <ele>6</ele>
        <time>2015-01-11T10:31:50Z</time>
      </trkpt>
      <trkpt lat="47.15222" lon="-1.44292">
        <ele>6.1</ele>
        <time>2015-01-11T10:31:54Z</time>
      </trkpt>
      <trkpt lat="47.15231" lon="-1.44312">
        <ele>6.6</ele>
        <time>2015-01-11T10:31:58Z</time>
      </trkpt>
      <trkpt lat="47.15241" lon="-1.44332">
        <ele>7.1</ele>
        <time>2015-01-11T10:32:02Z</time>
      </trkpt>
      <trkpt lat="47.15248" lon="-1.44352">
        <ele>7.6</ele>
        <time>2015-01-11T10:32:06Z</time>
      </trkpt>
      <trkpt lat="47.15255" lon="-1.44375">
        <ele>8</ele>
        <time>2015-01-11T10:32:10Z</time>
      </trkpt>
      <trkpt lat="47.15264" lon="-1.44395">
        <ele>8.9</ele>
        <time>2015-01-11T10:32:14Z</time>
      </trkpt>
      <trkpt lat="47.15273" lon="-1.44416">
        <ele>9.5</ele>
        <time>2015-01-11T10:32:18Z</time>
      </trkpt>
      <trkpt lat="47.15279" lon="-1.44434">
        <ele>9.6</ele>
        <time>2015-01-11T10:32:22Z</time>
      </trkpt>
      <trkpt lat="47.15285" lon="-1.44454">
        <ele>10.1</ele>
        <time>2015-01-11T10:32:26Z</time>
      </trkpt>
      <trkpt lat="47.15292" lon="-1.44474">
        <ele>10.4</ele>
        <time>2015-01-11T10:32:30Z</time>
      </trkpt>
      <trkpt lat="47.15302" lon="-1.44493">
        <ele>10.4</ele>
        <time>2015-01-11T10:32:34Z</time>
      </trkpt>
      <trkpt lat="47.15311" lon="-1.44511">
        <ele>10.4</ele>
        <time>2015-01-11T10:32:38Z</time>
      </trkpt>
      <trkpt lat="47.15321" lon="-1.44528">
        <ele>10.4</ele>
        <time>2015-01-11T10:32:42Z</time>
      </trkpt>
      <trkpt lat="47.15333" lon="-1.44545">
        <ele>10.4</ele>
        <time>2015-01-11T10:32:46Z</time>
      </trkpt>
      <trkpt lat="47.15344" lon="-1.44565">
        <ele>10</ele>
        <time>2015-01-11T10:32:50Z</time>
      </trkpt>
      <trkpt lat="47.15353" lon="-1.44584">
        <ele>9.9</ele>
        <time>2015-01-11T10:32:54Z</time>
      </trkpt>
      <trkpt lat="47.15363" lon="-1.44598">
        <ele>9.9</ele>
        <time>2015-01-11T10:32:58Z</time>
      </trkpt>
      <trkpt lat="47.15368" lon="-1.44602">
        <ele>9.5</ele>
        <time>2015-01-11T10:33:00Z</time>
      </trkpt>
      <trkpt lat="47.15373" lon="-1.44604">
        <ele>9.5</ele>
        <time>2015-01-11T10:33:02Z</time>
      </trkpt>
      <trkpt lat="47.15379" lon="-1.44606">
        <ele>7.6</ele>
        <time>2015-01-11T10:33:05Z</time>
      </trkpt>
      <trkpt lat="47.15385" lon="-1.4461">
        <ele>7.6</ele>
        <time>2015-01-11T10:33:08Z</time>
      </trkpt>
      <trkpt lat="47.154" lon="-1.44617">
        <ele>6.5</ele>
        <time>2015-01-11T10:33:14Z</time>
      </trkpt>
      <trkpt lat="47.15409" lon="-1.44624">
        <ele>6.3</ele>
        <time>2015-01-11T10:33:18Z</time>
      </trkpt>
      <trkpt lat="47.15418" lon="-1.44641">
        <ele>6.3</ele>
        <time>2015-01-11T10:33:23Z</time>
      </trkpt>
      <trkpt lat="47.15422" lon="-1.44662">
        <ele>6.1</ele>
        <time>2015-01-11T10:33:27Z</time>
      </trkpt>
      <trkpt lat="47.15423" lon="-1.44672">
        <ele>5.9</ele>
        <time>2015-01-11T10:33:29Z</time>
      </trkpt>
      <trkpt lat="47.15422" lon="-1.4468">
        <ele>5.9</ele>
        <time>2015-01-11T10:33:31Z</time>
      </trkpt>
      <trkpt lat="47.15422" lon="-1.44688">
        <ele>5.9</ele>
        <time>2015-01-11T10:33:33Z</time>
      </trkpt>
      <trkpt lat="47.15423" lon="-1.44697">
        <ele>5.3</ele>
        <time>2015-01-11T10:33:35Z</time>
      </trkpt>
      <trkpt lat="47.15424" lon="-1.44705">
        <ele>5.3</ele>
        <time>2015-01-11T10:33:37Z</time>
      </trkpt>
      <trkpt lat="47.15427" lon="-1.4472">
        <ele>4.5</ele>
        <time>2015-01-11T10:33:41Z</time>
      </trkpt>
      <trkpt lat="47.15428" lon="-1.44726">
        <ele>3.7</ele>
        <time>2015-01-11T10:33:43Z</time>
      </trkpt>
      <trkpt lat="47.15429" lon="-1.44736">
        <ele>3.7</ele>
        <time>2015-01-11T10:33:47Z</time>
      </trkpt>
      <trkpt lat="47.15428" lon="-1.44765">
        <ele>3.6</ele>
        <time>2015-01-11T10:33:53Z</time>
      </trkpt>
      <trkpt lat="47.15431" lon="-1.44787">
        <ele>3.9</ele>
        <time>2015-01-11T10:33:57Z</time>
      </trkpt>
      <trkpt lat="47.15432" lon="-1.44798">
        <ele>3.8</ele>
        <time>2015-01-11T10:34:00Z</time>
      </trkpt>
      <trkpt lat="47.15432" lon="-1.44799">
        <ele>2.1</ele>
        <time>2015-01-11T10:34:04Z</time>
      </trkpt>
      <trkpt lat="47.15432" lon="-1.44799">
        <ele>13.2</ele>
        <time>2015-01-11T10:34:04Z</time>
      </trkpt>
      <trkpt lat="47.15432" lon="-1.44799">
        <ele>13.2</ele>
        <time>2015-01-11T10:34:09Z</time>
      </trkpt>
      <trkpt lat="47.15431" lon="-1.4482">
        <ele>3.4</ele>
        <time>2015-01-11T10:34:10Z</time>
      </trkpt>
      <trkpt lat="47.15434" lon="-1.44842">
        <ele>3</ele>
        <time>2015-01-11T10:34:14Z</time>
      </trkpt>
      <trkpt lat="47.15439" lon="-1.44865">
        <ele>2.8</ele>
        <time>2015-01-11T10:34:18Z</time>
      </trkpt>
      <trkpt lat="47.1544" lon="-1.44874">
        <ele>2.4</ele>
        <time>2015-01-11T10:34:20Z</time>
      </trkpt>
      <trkpt lat="47.15439" lon="-1.44881">
        <ele>2.4</ele>
        <time>2015-01-11T10:34:22Z</time>
      </trkpt>
      <trkpt lat="47.15438" lon="-1.44889">
        <ele>2.4</ele>
        <time>2015-01-11T10:34:24Z</time>
      </trkpt>
      <trkpt lat="47.15433" lon="-1.44909">
        <ele>2.3</ele>
        <time>2015-01-11T10:34:27Z</time>
      </trkpt>
      <trkpt lat="47.15431" lon="-1.44931">
        <ele>2.2</ele>
        <time>2015-01-11T10:34:31Z</time>
      </trkpt>
      <trkpt lat="47.15434" lon="-1.44939">
        <ele>2.1</ele>
        <time>2015-01-11T10:34:33Z</time>
      </trkpt>
      <trkpt lat="47.15436" lon="-1.44946">
        <ele>2.1</ele>
        <time>2015-01-11T10:34:35Z</time>
      </trkpt>
      <trkpt lat="47.15435" lon="-1.44957">
        <ele>1.8</ele>
        <time>2015-01-11T10:34:38Z</time>
      </trkpt>
      <trkpt lat="47.15433" lon="-1.44968">
        <ele>1.8</ele>
        <time>2015-01-11T10:34:40Z</time>
      </trkpt>
      <trkpt lat="47.15431" lon="-1.44989">
        <ele>1.6</ele>
        <time>2015-01-11T10:34:44Z</time>
      </trkpt>
      <trkpt lat="47.15427" lon="-1.45011">
        <ele>1.5</ele>
        <time>2015-01-11T10:34:48Z</time>
      </trkpt>
      <trkpt lat="47.15425" lon="-1.45032">
        <ele>1.5</ele>
        <time>2015-01-11T10:34:52Z</time>
      </trkpt>
      <trkpt lat="47.15421" lon="-1.45054">
        <ele>1.5</ele>
        <time>2015-01-11T10:34:56Z</time>
      </trkpt>
      <trkpt lat="47.15419" lon="-1.45074">
        <ele>1.5</ele>
        <time>2015-01-11T10:35:00Z</time>
      </trkpt>
      <trkpt lat="47.15421" lon="-1.45098">
        <ele>1.5</ele>
        <time>2015-01-11T10:35:04Z</time>
      </trkpt>
      <trkpt lat="47.15425" lon="-1.45121">
        <ele>1.5</ele>
        <time>2015-01-11T10:35:08Z</time>
      </trkpt>
      <trkpt lat="47.15431" lon="-1.45141">
        <ele>1.6</ele>
        <time>2015-01-11T10:35:12Z</time>
      </trkpt>
      <trkpt lat="47.15437" lon="-1.45162">
        <ele>1.8</ele>
        <time>2015-01-11T10:35:16Z</time>
      </trkpt>
      <trkpt lat="47.15442" lon="-1.45183">
        <ele>3.3</ele>
        <time>2015-01-11T10:35:21Z</time>
      </trkpt>
      <trkpt lat="47.15448" lon="-1.45204">
        <ele>4.5</ele>
        <time>2015-01-11T10:35:25Z</time>
      </trkpt>
      <trkpt lat="47.15452" lon="-1.45224">
        <ele>5.1</ele>
        <time>2015-01-11T10:35:29Z</time>
      </trkpt>
      <trkpt lat="47.15458" lon="-1.45236">
        <ele>5.6</ele>
        <time>2015-01-11T10:35:34Z</time>
      </trkpt>
      <trkpt lat="47.15464" lon="-1.45238">
        <ele>5.9</ele>
        <time>2015-01-11T10:35:37Z</time>
      </trkpt>
      <trkpt lat="47.1548" lon="-1.45239">
        <ele>6.1</ele>
        <time>2015-01-11T10:35:44Z</time>
      </trkpt>
      <trkpt lat="47.15496" lon="-1.45239">
        <ele>6.8</ele>
        <time>2015-01-11T10:35:50Z</time>
      </trkpt>
      <trkpt lat="47.1551" lon="-1.45244">
        <ele>7.5</ele>
        <time>2015-01-11T10:35:59Z</time>
      </trkpt>
      <trkpt lat="47.15524" lon="-1.45242">
        <ele>7.8</ele>
        <time>2015-01-11T10:36:06Z</time>
      </trkpt>
      <trkpt lat="47.15536" lon="-1.45234">
        <ele>8.1</ele>
        <time>2015-01-11T10:36:12Z</time>
      </trkpt>
      <trkpt lat="47.1554" lon="-1.4523">
        <ele>8.4</ele>
        <time>2015-01-11T10:36:14Z</time>
      </trkpt>
      <trkpt lat="47.15542" lon="-1.45224">
        <ele>8.4</ele>
        <time>2015-01-11T10:36:16Z</time>
      </trkpt>
      <trkpt lat="47.15542" lon="-1.45216">
        <ele>8.8</ele>
        <time>2015-01-11T10:36:20Z</time>
      </trkpt>
      <trkpt lat="47.15544" lon="-1.45209">
        <ele>8.8</ele>
        <time>2015-01-11T10:36:23Z</time>
      </trkpt>
      <trkpt lat="47.15545" lon="-1.452">
        <ele>9</ele>
        <time>2015-01-11T10:36:26Z</time>
      </trkpt>
      <trkpt lat="47.15545" lon="-1.45192">
        <ele>9.2</ele>
        <time>2015-01-11T10:36:30Z</time>
      </trkpt>
      <trkpt lat="47.15544" lon="-1.45183">
        <ele>9.1</ele>
        <time>2015-01-11T10:36:34Z</time>
      </trkpt>
      <trkpt lat="47.15543" lon="-1.45176">
        <ele>9.1</ele>
        <time>2015-01-11T10:36:37Z</time>
      </trkpt>
      <trkpt lat="47.15541" lon="-1.45161">
        <ele>9.1</ele>
        <time>2015-01-11T10:36:42Z</time>
      </trkpt>
      <trkpt lat="47.15538" lon="-1.45152">
        <ele>9.5</ele>
        <time>2015-01-11T10:36:45Z</time>
      </trkpt>
      <trkpt lat="47.15536" lon="-1.45146">
        <ele>9.5</ele>
        <time>2015-01-11T10:36:47Z</time>
      </trkpt>
      <trkpt lat="47.15534" lon="-1.45138">
        <ele>9.9</ele>
        <time>2015-01-11T10:36:50Z</time>
      </trkpt>
      <trkpt lat="47.15532" lon="-1.4513">
        <ele>9.9</ele>
        <time>2015-01-11T10:36:52Z</time>
      </trkpt>
      <trkpt lat="47.15532" lon="-1.45121">
        <ele>10.3</ele>
        <time>2015-01-11T10:36:55Z</time>
      </trkpt>
      <trkpt lat="47.15533" lon="-1.45114">
        <ele>10.3</ele>
        <time>2015-01-11T10:36:58Z</time>
      </trkpt>
      <trkpt lat="47.15545" lon="-1.45101">
        <ele>10.6</ele>
        <time>2015-01-11T10:37:03Z</time>
      </trkpt>
      <trkpt lat="47.15555" lon="-1.45094">
        <ele>11.4</ele>
        <time>2015-01-11T10:37:07Z</time>
      </trkpt>
      <trkpt lat="47.15566" lon="-1.45089">
        <ele>12.9</ele>
        <time>2015-01-11T10:37:11Z</time>
      </trkpt>
      <trkpt lat="47.15575" lon="-1.45084">
        <ele>14.3</ele>
        <time>2015-01-11T10:37:14Z</time>
      </trkpt>
      <trkpt lat="47.15581" lon="-1.45079">
        <ele>14.6</ele>
        <time>2015-01-11T10:37:16Z</time>
      </trkpt>
      <trkpt lat="47.15587" lon="-1.45075">
        <ele>14.6</ele>
        <time>2015-01-11T10:37:18Z</time>
      </trkpt>
      <trkpt lat="47.15595" lon="-1.45066">
        <ele>15.8</ele>
        <time>2015-01-11T10:37:23Z</time>
      </trkpt>
      <trkpt lat="47.156" lon="-1.45064">
        <ele>16.2</ele>
        <time>2015-01-11T10:37:29Z</time>
      </trkpt>
      <trkpt lat="47.15605" lon="-1.45062">
        <ele>16.6</ele>
        <time>2015-01-11T10:37:33Z</time>
      </trkpt>
      <trkpt lat="47.15621" lon="-1.45061">
        <ele>17.1</ele>
        <time>2015-01-11T10:37:41Z</time>
      </trkpt>
      <trkpt lat="47.15632" lon="-1.45058">
        <ele>17.1</ele>
        <time>2015-01-11T10:37:46Z</time>
      </trkpt>
      <trkpt lat="47.15641" lon="-1.45053">
        <ele>17.1</ele>
        <time>2015-01-11T10:37:51Z</time>
      </trkpt>
      <trkpt lat="47.15654" lon="-1.45045">
        <ele>17.1</ele>
        <time>2015-01-11T10:37:58Z</time>
      </trkpt>
      <trkpt lat="47.1566" lon="-1.45042">
        <ele>17.1</ele>
        <time>2015-01-11T10:38:01Z</time>
      </trkpt>
      <trkpt lat="47.1567" lon="-1.45034">
        <ele>17.1</ele>
        <time>2015-01-11T10:38:06Z</time>
      </trkpt>
      <trkpt lat="47.1568" lon="-1.45032">
        <ele>17.1</ele>
        <time>2015-01-11T10:38:12Z</time>
      </trkpt>
      <trkpt lat="47.15688" lon="-1.4504">
        <ele>17.1</ele>
        <time>2015-01-11T10:38:16Z</time>
      </trkpt>
      <trkpt lat="47.15698" lon="-1.45057">
        <ele>17.1</ele>
        <time>2015-01-11T10:38:21Z</time>
      </trkpt>
      <trkpt lat="47.15702" lon="-1.45065">
        <ele>17.3</ele>
        <time>2015-01-11T10:38:23Z</time>
      </trkpt>
      <trkpt lat="47.15706" lon="-1.45071">
        <ele>17.3</ele>
        <time>2015-01-11T10:38:25Z</time>
      </trkpt>
      <trkpt lat="47.1571" lon="-1.45078">
        <ele>17.4</ele>
        <time>2015-01-11T10:38:27Z</time>
      </trkpt>
      <trkpt lat="47.15714" lon="-1.45087">
        <ele>17.4</ele>
        <time>2015-01-11T10:38:29Z</time>
      </trkpt>
      <trkpt lat="47.15716" lon="-1.45094">
        <ele>17.4</ele>
        <time>2015-01-11T10:38:31Z</time>
      </trkpt>
      <trkpt lat="47.15718" lon="-1.451">
        <ele>17.5</ele>
        <time>2015-01-11T10:38:33Z</time>
      </trkpt>
      <trkpt lat="47.15721" lon="-1.45108">
        <ele>17.5</ele>
        <time>2015-01-11T10:38:35Z</time>
      </trkpt>
      <trkpt lat="47.15722" lon="-1.45115">
        <ele>17.5</ele>
        <time>2015-01-11T10:38:37Z</time>
      </trkpt>
      <trkpt lat="47.15723" lon="-1.45137">
        <ele>17.7</ele>
        <time>2015-01-11T10:38:43Z</time>
      </trkpt>
      <trkpt lat="47.15722" lon="-1.45144">
        <ele>17.8</ele>
        <time>2015-01-11T10:38:45Z</time>
      </trkpt>
      <trkpt lat="47.15722" lon="-1.45151">
        <ele>17.8</ele>
        <time>2015-01-11T10:38:47Z</time>
      </trkpt>
      <trkpt lat="47.15727" lon="-1.45173">
        <ele>18.1</ele>
        <time>2015-01-11T10:38:54Z</time>
      </trkpt>
      <trkpt lat="47.15728" lon="-1.4518">
        <ele>18.7</ele>
        <time>2015-01-11T10:38:56Z</time>
      </trkpt>
      <trkpt lat="47.15728" lon="-1.45187">
        <ele>18.7</ele>
        <time>2015-01-11T10:38:58Z</time>
      </trkpt>
      <trkpt lat="47.15728" lon="-1.45194">
        <ele>19.8</ele>
        <time>2015-01-11T10:39:02Z</time>
      </trkpt>
      <trkpt lat="47.15729" lon="-1.45201">
        <ele>20.7</ele>
        <time>2015-01-11T10:39:06Z</time>
      </trkpt>
      <trkpt lat="47.15733" lon="-1.45214">
        <ele>21.9</ele>
        <time>2015-01-11T10:39:12Z</time>
      </trkpt>
      <trkpt lat="47.15739" lon="-1.45234">
        <ele>21.9</ele>
        <time>2015-01-11T10:39:19Z</time>
      </trkpt>
      <trkpt lat="47.15743" lon="-1.4524">
        <ele>22.1</ele>
        <time>2015-01-11T10:39:22Z</time>
      </trkpt>
      <trkpt lat="47.15745" lon="-1.45247">
        <ele>22.1</ele>
        <time>2015-01-11T10:39:25Z</time>
      </trkpt>
      <trkpt lat="47.15748" lon="-1.45255">
        <ele>22.4</ele>
        <time>2015-01-11T10:39:28Z</time>
      </trkpt>
      <trkpt lat="47.15746" lon="-1.45263">
        <ele>22.4</ele>
        <time>2015-01-11T10:39:31Z</time>
      </trkpt>
      <trkpt lat="47.15746" lon="-1.4527">
        <ele>22.5</ele>
        <time>2015-01-11T10:39:33Z</time>
      </trkpt>
      <trkpt lat="47.15748" lon="-1.45277">
        <ele>22.5</ele>
        <time>2015-01-11T10:39:35Z</time>
      </trkpt>
      <trkpt lat="47.15754" lon="-1.45295">
        <ele>22.3</ele>
        <time>2015-01-11T10:39:40Z</time>
      </trkpt>
      <trkpt lat="47.15761" lon="-1.45316">
        <ele>22</ele>
        <time>2015-01-11T10:39:46Z</time>
      </trkpt>
      <trkpt lat="47.15763" lon="-1.45331">
        <ele>21.7</ele>
        <time>2015-01-11T10:39:51Z</time>
      </trkpt>
      <trkpt lat="47.15765" lon="-1.45351">
        <ele>21.8</ele>
        <time>2015-01-11T10:39:57Z</time>
      </trkpt>
      <trkpt lat="47.15768" lon="-1.45367">
        <ele>21.8</ele>
        <time>2015-01-11T10:40:02Z</time>
      </trkpt>
      <trkpt lat="47.15769" lon="-1.45373">
        <ele>21.8</ele>
        <time>2015-01-11T10:40:04Z</time>
      </trkpt>
      <trkpt lat="47.15772" lon="-1.45379">
        <ele>21.8</ele>
        <time>2015-01-11T10:40:06Z</time>
      </trkpt>
      <trkpt lat="47.15778" lon="-1.45382">
        <ele>21.9</ele>
        <time>2015-01-11T10:40:09Z</time>
      </trkpt>
      <trkpt lat="47.15783" lon="-1.45382">
        <ele>21.9</ele>
        <time>2015-01-11T10:40:11Z</time>
      </trkpt>
      <trkpt lat="47.15797" lon="-1.45382">
        <ele>22.7</ele>
        <time>2015-01-11T10:40:17Z</time>
      </trkpt>
      <trkpt lat="47.15806" lon="-1.45384">
        <ele>23.4</ele>
        <time>2015-01-11T10:40:21Z</time>
      </trkpt>
      <trkpt lat="47.15822" lon="-1.45386">
        <ele>24.6</ele>
        <time>2015-01-11T10:40:28Z</time>
      </trkpt>
      <trkpt lat="47.15827" lon="-1.45387">
        <ele>26.6</ele>
        <time>2015-01-11T10:40:31Z</time>
      </trkpt>
      <trkpt lat="47.15829" lon="-1.45388">
        <ele>34</ele>
        <time>2015-01-11T10:40:35Z</time>
      </trkpt>
      <trkpt lat="47.15829" lon="-1.45388">
        <ele>34.9</ele>
        <time>2015-01-11T10:40:35Z</time>
      </trkpt>
      <trkpt lat="47.15829" lon="-1.45388">
        <ele>34.9</ele>
        <time>2015-01-11T10:41:50Z</time>
      </trkpt>
      <trkpt lat="47.15825" lon="-1.45409">
        <ele>32.5</ele>
        <time>2015-01-11T10:41:52Z</time>
      </trkpt>
      <trkpt lat="47.15825" lon="-1.45417">
        <ele>32.5</ele>
        <time>2015-01-11T10:41:54Z</time>
      </trkpt>
      <trkpt lat="47.15825" lon="-1.45432">
        <ele>32.5</ele>
        <time>2015-01-11T10:41:57Z</time>
      </trkpt>
      <trkpt lat="47.15823" lon="-1.45453">
        <ele>32.5</ele>
        <time>2015-01-11T10:42:01Z</time>
      </trkpt>
      <trkpt lat="47.1582" lon="-1.45475">
        <ele>32.5</ele>
        <time>2015-01-11T10:42:05Z</time>
      </trkpt>
      <trkpt lat="47.15816" lon="-1.455">
        <ele>32.5</ele>
        <time>2015-01-11T10:42:09Z</time>
      </trkpt>
      <trkpt lat="47.15814" lon="-1.45525">
        <ele>32.5</ele>
        <time>2015-01-11T10:42:13Z</time>
      </trkpt>
      <trkpt lat="47.15813" lon="-1.45546">
        <ele>32.6</ele>
        <time>2015-01-11T10:42:16Z</time>
      </trkpt>
      <trkpt lat="47.15813" lon="-1.45574">
        <ele>33.7</ele>
        <time>2015-01-11T10:42:20Z</time>
      </trkpt>
      <trkpt lat="47.15811" lon="-1.45599">
        <ele>34.1</ele>
        <time>2015-01-11T10:42:24Z</time>
      </trkpt>
      <trkpt lat="47.15803" lon="-1.45622">
        <ele>34.4</ele>
        <time>2015-01-11T10:42:28Z</time>
      </trkpt>
      <trkpt lat="47.15793" lon="-1.45636">
        <ele>34.6</ele>
        <time>2015-01-11T10:42:31Z</time>
      </trkpt>
      <trkpt lat="47.15783" lon="-1.45649">
        <ele>34.8</ele>
        <time>2015-01-11T10:42:34Z</time>
      </trkpt>
      <trkpt lat="47.15774" lon="-1.45665">
        <ele>34.9</ele>
        <time>2015-01-11T10:42:37Z</time>
      </trkpt>
      <trkpt lat="47.15764" lon="-1.45679">
        <ele>35.1</ele>
        <time>2015-01-11T10:42:40Z</time>
      </trkpt>
      <trkpt lat="47.15754" lon="-1.45696">
        <ele>35.1</ele>
        <time>2015-01-11T10:42:43Z</time>
      </trkpt>
      <trkpt lat="47.1574" lon="-1.45712">
        <ele>35.1</ele>
        <time>2015-01-11T10:42:47Z</time>
      </trkpt>
      <trkpt lat="47.15723" lon="-1.45723">
        <ele>35.1</ele>
        <time>2015-01-11T10:42:51Z</time>
      </trkpt>
      <trkpt lat="47.15716" lon="-1.45733">
        <ele>35.1</ele>
        <time>2015-01-11T10:42:53Z</time>
      </trkpt>
      <trkpt lat="47.15702" lon="-1.45749">
        <ele>35.1</ele>
        <time>2015-01-11T10:42:57Z</time>
      </trkpt>
      <trkpt lat="47.1569" lon="-1.45765">
        <ele>35.1</ele>
        <time>2015-01-11T10:43:01Z</time>
      </trkpt>
      <trkpt lat="47.15678" lon="-1.45775">
        <ele>35</ele>
        <time>2015-01-11T10:43:05Z</time>
      </trkpt>
      <trkpt lat="47.15669" lon="-1.4579">
        <ele>34.8</ele>
        <time>2015-01-11T10:43:09Z</time>
      </trkpt>
      <trkpt lat="47.15677" lon="-1.45807">
        <ele>34.6</ele>
        <time>2015-01-11T10:43:14Z</time>
      </trkpt>
      <trkpt lat="47.15677" lon="-1.4583">
        <ele>34.4</ele>
        <time>2015-01-11T10:43:19Z</time>
      </trkpt>
      <trkpt lat="47.15673" lon="-1.45853">
        <ele>34.3</ele>
        <time>2015-01-11T10:43:23Z</time>
      </trkpt>
      <trkpt lat="47.15666" lon="-1.45873">
        <ele>34.3</ele>
        <time>2015-01-11T10:43:27Z</time>
      </trkpt>
      <trkpt lat="47.15658" lon="-1.45885">
        <ele>34.1</ele>
        <time>2015-01-11T10:43:31Z</time>
      </trkpt>
      <trkpt lat="47.15646" lon="-1.45895">
        <ele>34</ele>
        <time>2015-01-11T10:43:35Z</time>
      </trkpt>
      <trkpt lat="47.15631" lon="-1.45903">
        <ele>33.7</ele>
        <time>2015-01-11T10:43:40Z</time>
      </trkpt>
      <trkpt lat="47.15621" lon="-1.45907">
        <ele>33.4</ele>
        <time>2015-01-11T10:43:44Z</time>
      </trkpt>
      <trkpt lat="47.1561" lon="-1.45917">
        <ele>33</ele>
        <time>2015-01-11T10:43:47Z</time>
      </trkpt>
      <trkpt lat="47.15596" lon="-1.45921">
        <ele>32.7</ele>
        <time>2015-01-11T10:43:51Z</time>
      </trkpt>
      <trkpt lat="47.15587" lon="-1.45928">
        <ele>32.4</ele>
        <time>2015-01-11T10:43:55Z</time>
      </trkpt>
      <trkpt lat="47.15579" lon="-1.45935">
        <ele>31.7</ele>
        <time>2015-01-11T10:43:59Z</time>
      </trkpt>
      <trkpt lat="47.15573" lon="-1.45943">
        <ele>31.1</ele>
        <time>2015-01-11T10:44:02Z</time>
      </trkpt>
      <trkpt lat="47.15567" lon="-1.45948">
        <ele>31.1</ele>
        <time>2015-01-11T10:44:06Z</time>
      </trkpt>
      <trkpt lat="47.15557" lon="-1.45955">
        <ele>28.5</ele>
        <time>2015-01-11T10:44:13Z</time>
      </trkpt>
      <trkpt lat="47.15553" lon="-1.45959">
        <ele>24.8</ele>
        <time>2015-01-11T10:44:15Z</time>
      </trkpt>
      <trkpt lat="47.15544" lon="-1.45965">
        <ele>24.8</ele>
        <time>2015-01-11T10:44:19Z</time>
      </trkpt>
      <trkpt lat="47.15531" lon="-1.45977">
        <ele>23.3</ele>
        <time>2015-01-11T10:44:28Z</time>
      </trkpt>
      <trkpt lat="47.1552" lon="-1.45991">
        <ele>22.7</ele>
        <time>2015-01-11T10:44:34Z</time>
      </trkpt>
      <trkpt lat="47.15516" lon="-1.45995">
        <ele>21.8</ele>
        <time>2015-01-11T10:44:36Z</time>
      </trkpt>
      <trkpt lat="47.1551" lon="-1.46">
        <ele>21.8</ele>
        <time>2015-01-11T10:44:38Z</time>
      </trkpt>
      <trkpt lat="47.15506" lon="-1.46003">
        <ele>21.8</ele>
        <time>2015-01-11T10:44:39Z</time>
      </trkpt>
      <trkpt lat="47.15494" lon="-1.46012">
        <ele>21.5</ele>
        <time>2015-01-11T10:44:42Z</time>
      </trkpt>
      <trkpt lat="47.15483" lon="-1.46021">
        <ele>20.9</ele>
        <time>2015-01-11T10:44:45Z</time>
      </trkpt>
      <trkpt lat="47.15467" lon="-1.46027">
        <ele>19.9</ele>
        <time>2015-01-11T10:44:49Z</time>
      </trkpt>
      <trkpt lat="47.15458" lon="-1.46022">
        <ele>19.7</ele>
        <time>2015-01-11T10:44:51Z</time>
      </trkpt>
      <trkpt lat="47.15454" lon="-1.46018">
        <ele>19.7</ele>
        <time>2015-01-11T10:44:52Z</time>
      </trkpt>
      <trkpt lat="47.1545" lon="-1.46014">
        <ele>19.7</ele>
        <time>2015-01-11T10:44:53Z</time>
      </trkpt>
      <trkpt lat="47.15446" lon="-1.4601">
        <ele>19.7</ele>
        <time>2015-01-11T10:44:54Z</time>
      </trkpt>
      <trkpt lat="47.15442" lon="-1.46007">
        <ele>19.7</ele>
        <time>2015-01-11T10:44:55Z</time>
      </trkpt>
      <trkpt lat="47.15429" lon="-1.45995">
        <ele>19.7</ele>
        <time>2015-01-11T10:44:58Z</time>
      </trkpt>
      <trkpt lat="47.15421" lon="-1.45988">
        <ele>19.5</ele>
        <time>2015-01-11T10:45:01Z</time>
      </trkpt>
      <trkpt lat="47.15412" lon="-1.45996">
        <ele>19.4</ele>
        <time>2015-01-11T10:45:05Z</time>
      </trkpt>
      <trkpt lat="47.154" lon="-1.46013">
        <ele>18.3</ele>
        <time>2015-01-11T10:45:09Z</time>
      </trkpt>
      <trkpt lat="47.15387" lon="-1.46025">
        <ele>17.9</ele>
        <time>2015-01-11T10:45:12Z</time>
      </trkpt>
      <trkpt lat="47.15368" lon="-1.46028">
        <ele>17.8</ele>
        <time>2015-01-11T10:45:15Z</time>
      </trkpt>
      <trkpt lat="47.15354" lon="-1.46045">
        <ele>17.6</ele>
        <time>2015-01-11T10:45:18Z</time>
      </trkpt>
      <trkpt lat="47.1534" lon="-1.46056">
        <ele>17.5</ele>
        <time>2015-01-11T10:45:22Z</time>
      </trkpt>
      <trkpt lat="47.15331" lon="-1.46072">
        <ele>17.3</ele>
        <time>2015-01-11T10:45:25Z</time>
      </trkpt>
      <trkpt lat="47.15325" lon="-1.4609">
        <ele>17</ele>
        <time>2015-01-11T10:45:29Z</time>
      </trkpt>
      <trkpt lat="47.15328" lon="-1.46103">
        <ele>16.4</ele>
        <time>2015-01-11T10:45:33Z</time>
      </trkpt>
      <trkpt lat="47.15329" lon="-1.4611">
        <ele>16.2</ele>
        <time>2015-01-11T10:45:35Z</time>
      </trkpt>
      <trkpt lat="47.15328" lon="-1.46118">
        <ele>16.2</ele>
        <time>2015-01-11T10:45:37Z</time>
      </trkpt>
      <trkpt lat="47.15327" lon="-1.46126">
        <ele>16.2</ele>
        <time>2015-01-11T10:45:39Z</time>
      </trkpt>
      <trkpt lat="47.15325" lon="-1.46146">
        <ele>15.9</ele>
        <time>2015-01-11T10:45:43Z</time>
      </trkpt>
      <trkpt lat="47.15326" lon="-1.46154">
        <ele>15.2</ele>
        <time>2015-01-11T10:45:45Z</time>
      </trkpt>
      <trkpt lat="47.15328" lon="-1.46162">
        <ele>15.2</ele>
        <time>2015-01-11T10:45:47Z</time>
      </trkpt>
      <trkpt lat="47.15333" lon="-1.46182">
        <ele>15.1</ele>
        <time>2015-01-11T10:45:52Z</time>
      </trkpt>
      <trkpt lat="47.15334" lon="-1.46196">
        <ele>14.1</ele>
        <time>2015-01-11T10:45:55Z</time>
      </trkpt>
      <trkpt lat="47.15335" lon="-1.46212">
        <ele>13.2</ele>
        <time>2015-01-11T10:45:59Z</time>
      </trkpt>
      <trkpt lat="47.15329" lon="-1.46232">
        <ele>12.7</ele>
        <time>2015-01-11T10:46:03Z</time>
      </trkpt>
      <trkpt lat="47.15323" lon="-1.46254">
        <ele>10.6</ele>
        <time>2015-01-11T10:46:07Z</time>
      </trkpt>
      <trkpt lat="47.15317" lon="-1.46279">
        <ele>9.8</ele>
        <time>2015-01-11T10:46:11Z</time>
      </trkpt>
      <trkpt lat="47.15317" lon="-1.46301">
        <ele>9.3</ele>
        <time>2015-01-11T10:46:15Z</time>
      </trkpt>
      <trkpt lat="47.15316" lon="-1.46314">
        <ele>8.9</ele>
        <time>2015-01-11T10:46:18Z</time>
      </trkpt>
      <trkpt lat="47.15318" lon="-1.46332">
        <ele>8.2</ele>
        <time>2015-01-11T10:46:22Z</time>
      </trkpt>
      <trkpt lat="47.15323" lon="-1.4635">
        <ele>7.5</ele>
        <time>2015-01-11T10:46:26Z</time>
      </trkpt>
      <trkpt lat="47.1533" lon="-1.4637">
        <ele>6.3</ele>
        <time>2015-01-11T10:46:30Z</time>
      </trkpt>
      <trkpt lat="47.15319" lon="-1.46389">
        <ele>6</ele>
        <time>2015-01-11T10:46:34Z</time>
      </trkpt>
      <trkpt lat="47.15304" lon="-1.46395">
        <ele>5.9</ele>
        <time>2015-01-11T10:46:37Z</time>
      </trkpt>
      <trkpt lat="47.15296" lon="-1.46399">
        <ele>5.9</ele>
        <time>2015-01-11T10:46:39Z</time>
      </trkpt>
      <trkpt lat="47.15287" lon="-1.46406">
        <ele>5.7</ele>
        <time>2015-01-11T10:46:42Z</time>
      </trkpt>
      <trkpt lat="47.15283" lon="-1.46414">
        <ele>5.4</ele>
        <time>2015-01-11T10:46:44Z</time>
      </trkpt>
      <trkpt lat="47.15284" lon="-1.46423">
        <ele>5.4</ele>
        <time>2015-01-11T10:46:46Z</time>
      </trkpt>
      <trkpt lat="47.15287" lon="-1.46433">
        <ele>5.3</ele>
        <time>2015-01-11T10:46:49Z</time>
      </trkpt>
      <trkpt lat="47.15289" lon="-1.4644">
        <ele>5.3</ele>
        <time>2015-01-11T10:46:51Z</time>
      </trkpt>
      <trkpt lat="47.15294" lon="-1.46456">
        <ele>5.3</ele>
        <time>2015-01-11T10:46:56Z</time>
      </trkpt>
      <trkpt lat="47.153" lon="-1.46467">
        <ele>5.3</ele>
        <time>2015-01-11T10:47:00Z</time>
      </trkpt>
      <trkpt lat="47.15311" lon="-1.46484">
        <ele>5</ele>
        <time>2015-01-11T10:47:08Z</time>
      </trkpt>
      <trkpt lat="47.1532" lon="-1.46505">
        <ele>4.8</ele>
        <time>2015-01-11T10:47:13Z</time>
      </trkpt>
      <trkpt lat="47.15326" lon="-1.46523">
        <ele>4.5</ele>
        <time>2015-01-11T10:47:18Z</time>
      </trkpt>
      <trkpt lat="47.15329" lon="-1.46531">
        <ele>4.5</ele>
        <time>2015-01-11T10:47:20Z</time>
      </trkpt>
      <trkpt lat="47.15332" lon="-1.46539">
        <ele>4.5</ele>
        <time>2015-01-11T10:47:22Z</time>
      </trkpt>
      <trkpt lat="47.15332" lon="-1.46548">
        <ele>4.5</ele>
        <time>2015-01-11T10:47:24Z</time>
      </trkpt>
      <trkpt lat="47.15331" lon="-1.46555">
        <ele>4.7</ele>
        <time>2015-01-11T10:47:26Z</time>
      </trkpt>
      <trkpt lat="47.15328" lon="-1.46562">
        <ele>4.7</ele>
        <time>2015-01-11T10:47:28Z</time>
      </trkpt>
      <trkpt lat="47.15325" lon="-1.46567">
        <ele>4.7</ele>
        <time>2015-01-11T10:47:30Z</time>
      </trkpt>
      <trkpt lat="47.15319" lon="-1.4658">
        <ele>4.9</ele>
        <time>2015-01-11T10:47:34Z</time>
      </trkpt>
      <trkpt lat="47.15312" lon="-1.466">
        <ele>4.9</ele>
        <time>2015-01-11T10:47:39Z</time>
      </trkpt>
      <trkpt lat="47.15309" lon="-1.46619">
        <ele>4.9</ele>
        <time>2015-01-11T10:47:43Z</time>
      </trkpt>
      <trkpt lat="47.1531" lon="-1.46639">
        <ele>4.9</ele>
        <time>2015-01-11T10:47:47Z</time>
      </trkpt>
      <trkpt lat="47.15312" lon="-1.46661">
        <ele>4.9</ele>
        <time>2015-01-11T10:47:51Z</time>
      </trkpt>
      <trkpt lat="47.15317" lon="-1.46682">
        <ele>4.9</ele>
        <time>2015-01-11T10:47:55Z</time>
      </trkpt>
      <trkpt lat="47.15323" lon="-1.46702">
        <ele>5.1</ele>
        <time>2015-01-11T10:47:59Z</time>
      </trkpt>
      <trkpt lat="47.15327" lon="-1.46723">
        <ele>6.3</ele>
        <time>2015-01-11T10:48:03Z</time>
      </trkpt>
      <trkpt lat="47.15333" lon="-1.46743">
        <ele>7.4</ele>
        <time>2015-01-11T10:48:07Z</time>
      </trkpt>
      <trkpt lat="47.1534" lon="-1.46763">
        <ele>8.8</ele>
        <time>2015-01-11T10:48:11Z</time>
      </trkpt>
      <trkpt lat="47.15342" lon="-1.46785">
        <ele>9.7</ele>
        <time>2015-01-11T10:48:15Z</time>
      </trkpt>
      <trkpt lat="47.15345" lon="-1.46809">
        <ele>9.9</ele>
        <time>2015-01-11T10:48:19Z</time>
      </trkpt>
      <trkpt lat="47.15348" lon="-1.46833">
        <ele>10.9</ele>
        <time>2015-01-11T10:48:24Z</time>
      </trkpt>
      <trkpt lat="47.15354" lon="-1.46839">
        <ele>11</ele>
        <time>2015-01-11T10:48:28Z</time>
      </trkpt>
      <trkpt lat="47.15358" lon="-1.46842">
        <ele>11</ele>
        <time>2015-01-11T10:48:29Z</time>
      </trkpt>
      <trkpt lat="47.15368" lon="-1.46847">
        <ele>11</ele>
        <time>2015-01-11T10:48:31Z</time>
      </trkpt>
      <trkpt lat="47.15376" lon="-1.46853">
        <ele>11</ele>
        <time>2015-01-11T10:48:33Z</time>
      </trkpt>
      <trkpt lat="47.15384" lon="-1.46863">
        <ele>11</ele>
        <time>2015-01-11T10:48:36Z</time>
      </trkpt>
      <trkpt lat="47.15397" lon="-1.46886">
        <ele>11</ele>
        <time>2015-01-11T10:48:42Z</time>
      </trkpt>
      <trkpt lat="47.15406" lon="-1.46903">
        <ele>11</ele>
        <time>2015-01-11T10:48:46Z</time>
      </trkpt>
      <trkpt lat="47.15417" lon="-1.4692">
        <ele>11</ele>
        <time>2015-01-11T10:48:50Z</time>
      </trkpt>
      <trkpt lat="47.15429" lon="-1.46935">
        <ele>10.9</ele>
        <time>2015-01-11T10:48:54Z</time>
      </trkpt>
      <trkpt lat="47.15442" lon="-1.46949">
        <ele>10.7</ele>
        <time>2015-01-11T10:48:58Z</time>
      </trkpt>
      <trkpt lat="47.15456" lon="-1.46964">
        <ele>10</ele>
        <time>2015-01-11T10:49:02Z</time>
      </trkpt>
      <trkpt lat="47.1547" lon="-1.46977">
        <ele>9.4</ele>
        <time>2015-01-11T10:49:06Z</time>
      </trkpt>
      <trkpt lat="47.15484" lon="-1.4699">
        <ele>8.5</ele>
        <time>2015-01-11T10:49:10Z</time>
      </trkpt>
      <trkpt lat="47.15492" lon="-1.46995">
        <ele>6.8</ele>
        <time>2015-01-11T10:49:12Z</time>
      </trkpt>
      <trkpt lat="47.15503" lon="-1.47001">
        <ele>6.8</ele>
        <time>2015-01-11T10:49:15Z</time>
      </trkpt>
      <trkpt lat="47.15511" lon="-1.47004">
        <ele>3.7</ele>
        <time>2015-01-11T10:49:17Z</time>
      </trkpt>
      <trkpt lat="47.15523" lon="-1.47008">
        <ele>3.7</ele>
        <time>2015-01-11T10:49:20Z</time>
      </trkpt>
      <trkpt lat="47.15534" lon="-1.47012">
        <ele>2.7</ele>
        <time>2015-01-11T10:49:23Z</time>
      </trkpt>
      <trkpt lat="47.1555" lon="-1.47018">
        <ele>2.1</ele>
        <time>2015-01-11T10:49:27Z</time>
      </trkpt>
      <trkpt lat="47.1556" lon="-1.47023">
        <ele>1.3</ele>
        <time>2015-01-11T10:49:30Z</time>
      </trkpt>
      <trkpt lat="47.15578" lon="-1.4703">
        <ele>0.8</ele>
        <time>2015-01-11T10:49:35Z</time>
      </trkpt>
      <trkpt lat="47.15588" lon="-1.47036">
        <ele>0.6</ele>
        <time>2015-01-11T10:49:38Z</time>
      </trkpt>
      <trkpt lat="47.15605" lon="-1.47045">
        <ele>0.5</ele>
        <time>2015-01-11T10:49:42Z</time>
      </trkpt>
      <trkpt lat="47.1562" lon="-1.47043">
        <ele>0.4</ele>
        <time>2015-01-11T10:49:46Z</time>
      </trkpt>
      <trkpt lat="47.15635" lon="-1.47045">
        <ele>0.4</ele>
        <time>2015-01-11T10:49:50Z</time>
      </trkpt>
      <trkpt lat="47.15645" lon="-1.47055">
        <ele>0.4</ele>
        <time>2015-01-11T10:49:53Z</time>
      </trkpt>
      <trkpt lat="47.15655" lon="-1.47074">
        <ele>0.4</ele>
        <time>2015-01-11T10:49:57Z</time>
      </trkpt>
      <trkpt lat="47.15667" lon="-1.4709">
        <ele>0.4</ele>
        <time>2015-01-11T10:50:01Z</time>
      </trkpt>
      <trkpt lat="47.15682" lon="-1.47098">
        <ele>0.4</ele>
        <time>2015-01-11T10:50:05Z</time>
      </trkpt>
      <trkpt lat="47.15694" lon="-1.47107">
        <ele>0.4</ele>
        <time>2015-01-11T10:50:08Z</time>
      </trkpt>
      <trkpt lat="47.15705" lon="-1.47118">
        <ele>0.4</ele>
        <time>2015-01-11T10:50:11Z</time>
      </trkpt>
      <trkpt lat="47.15717" lon="-1.47134">
        <ele>0.3</ele>
        <time>2015-01-11T10:50:15Z</time>
      </trkpt>
      <trkpt lat="47.1573" lon="-1.47151">
        <ele>0.3</ele>
        <time>2015-01-11T10:50:19Z</time>
      </trkpt>
      <trkpt lat="47.15741" lon="-1.47163">
        <ele>0.2</ele>
        <time>2015-01-11T10:50:22Z</time>
      </trkpt>
      <trkpt lat="47.15753" lon="-1.47176">
        <ele>0.2</ele>
        <time>2015-01-11T10:50:25Z</time>
      </trkpt>
      <trkpt lat="47.15765" lon="-1.47187">
        <ele>0.2</ele>
        <time>2015-01-11T10:50:28Z</time>
      </trkpt>
      <trkpt lat="47.15775" lon="-1.47196">
        <ele>0.3</ele>
        <time>2015-01-11T10:50:31Z</time>
      </trkpt>
      <trkpt lat="47.15784" lon="-1.47207">
        <ele>0.3</ele>
        <time>2015-01-11T10:50:35Z</time>
      </trkpt>
      <trkpt lat="47.15796" lon="-1.47223">
        <ele>0.4</ele>
        <time>2015-01-11T10:50:40Z</time>
      </trkpt>
      <trkpt lat="47.15804" lon="-1.4724">
        <ele>0.5</ele>
        <time>2015-01-11T10:50:44Z</time>
      </trkpt>
      <trkpt lat="47.1581" lon="-1.4726">
        <ele>0.5</ele>
        <time>2015-01-11T10:50:48Z</time>
      </trkpt>
      <trkpt lat="47.15817" lon="-1.47278">
        <ele>0.6</ele>
        <time>2015-01-11T10:50:52Z</time>
      </trkpt>
      <trkpt lat="47.15826" lon="-1.47298">
        <ele>0.7</ele>
        <time>2015-01-11T10:50:56Z</time>
      </trkpt>
      <trkpt lat="47.15835" lon="-1.47316">
        <ele>1</ele>
        <time>2015-01-11T10:51:00Z</time>
      </trkpt>
      <trkpt lat="47.15843" lon="-1.47332">
        <ele>1.5</ele>
        <time>2015-01-11T10:51:04Z</time>
      </trkpt>
      <trkpt lat="47.15855" lon="-1.47348">
        <ele>2.1</ele>
        <time>2015-01-11T10:51:08Z</time>
      </trkpt>
      <trkpt lat="47.15866" lon="-1.47364">
        <ele>2.4</ele>
        <time>2015-01-11T10:51:12Z</time>
      </trkpt>
      <trkpt lat="47.15879" lon="-1.47382">
        <ele>2.6</ele>
        <time>2015-01-11T10:51:16Z</time>
      </trkpt>
      <trkpt lat="47.15889" lon="-1.47398">
        <ele>2.8</ele>
        <time>2015-01-11T10:51:20Z</time>
      </trkpt>
      <trkpt lat="47.15897" lon="-1.47419">
        <ele>2.8</ele>
        <time>2015-01-11T10:51:24Z</time>
      </trkpt>
      <trkpt lat="47.159" lon="-1.47425">
        <ele>3</ele>
        <time>2015-01-11T10:51:26Z</time>
      </trkpt>
      <trkpt lat="47.15905" lon="-1.47432">
        <ele>3</ele>
        <time>2015-01-11T10:51:28Z</time>
      </trkpt>
      <trkpt lat="47.15917" lon="-1.47444">
        <ele>3</ele>
        <time>2015-01-11T10:51:32Z</time>
      </trkpt>
      <trkpt lat="47.15926" lon="-1.47452">
        <ele>3</ele>
        <time>2015-01-11T10:51:35Z</time>
      </trkpt>
      <trkpt lat="47.15938" lon="-1.47463">
        <ele>3</ele>
        <time>2015-01-11T10:51:39Z</time>
      </trkpt>
      <trkpt lat="47.15947" lon="-1.4747">
        <ele>3</ele>
        <time>2015-01-11T10:51:42Z</time>
      </trkpt>
      <trkpt lat="47.15957" lon="-1.47484">
        <ele>3</ele>
        <time>2015-01-11T10:51:45Z</time>
      </trkpt>
      <trkpt lat="47.15971" lon="-1.47499">
        <ele>2.7</ele>
        <time>2015-01-11T10:51:49Z</time>
      </trkpt>
      <trkpt lat="47.15985" lon="-1.47514">
        <ele>2.5</ele>
        <time>2015-01-11T10:51:53Z</time>
      </trkpt>
      <trkpt lat="47.15997" lon="-1.47532">
        <ele>2.3</ele>
        <time>2015-01-11T10:51:57Z</time>
      </trkpt>
      <trkpt lat="47.16003" lon="-1.47543">
        <ele>2.3</ele>
        <time>2015-01-11T10:52:00Z</time>
      </trkpt>
      <trkpt lat="47.16014" lon="-1.47557">
        <ele>2.1</ele>
        <time>2015-01-11T10:52:06Z</time>
      </trkpt>
      <trkpt lat="47.16023" lon="-1.47573">
        <ele>1.8</ele>
        <time>2015-01-11T10:52:10Z</time>
      </trkpt>
      <trkpt lat="47.16032" lon="-1.4759">
        <ele>1.6</ele>
        <time>2015-01-11T10:52:14Z</time>
      </trkpt>
      <trkpt lat="47.16044" lon="-1.47605">
        <ele>1.4</ele>
        <time>2015-01-11T10:52:18Z</time>
      </trkpt>
      <trkpt lat="47.16056" lon="-1.47623">
        <ele>1.3</ele>
        <time>2015-01-11T10:52:22Z</time>
      </trkpt>
      <trkpt lat="47.16064" lon="-1.47642">
        <ele>1.1</ele>
        <time>2015-01-11T10:52:26Z</time>
      </trkpt>
      <trkpt lat="47.16075" lon="-1.47661">
        <ele>1</ele>
        <time>2015-01-11T10:52:30Z</time>
      </trkpt>
      <trkpt lat="47.16084" lon="-1.4768">
        <ele>1</ele>
        <time>2015-01-11T10:52:34Z</time>
      </trkpt>
      <trkpt lat="47.16092" lon="-1.47697">
        <ele>0.8</ele>
        <time>2015-01-11T10:52:38Z</time>
      </trkpt>
      <trkpt lat="47.16101" lon="-1.47715">
        <ele>0.8</ele>
        <time>2015-01-11T10:52:42Z</time>
      </trkpt>
      <trkpt lat="47.1611" lon="-1.47734">
        <ele>0.8</ele>
        <time>2015-01-11T10:52:46Z</time>
      </trkpt>
      <trkpt lat="47.16116" lon="-1.47754">
        <ele>0.8</ele>
        <time>2015-01-11T10:52:50Z</time>
      </trkpt>
      <trkpt lat="47.16126" lon="-1.47775">
        <ele>0.9</ele>
        <time>2015-01-11T10:52:54Z</time>
      </trkpt>
      <trkpt lat="47.16136" lon="-1.47793">
        <ele>0.9</ele>
        <time>2015-01-11T10:52:58Z</time>
      </trkpt>
      <trkpt lat="47.16146" lon="-1.47808">
        <ele>1</ele>
        <time>2015-01-11T10:53:02Z</time>
      </trkpt>
      <trkpt lat="47.1615" lon="-1.47814">
        <ele>1.1</ele>
        <time>2015-01-11T10:53:04Z</time>
      </trkpt>
      <trkpt lat="47.16152" lon="-1.47823">
        <ele>1.1</ele>
        <time>2015-01-11T10:53:07Z</time>
      </trkpt>
      <trkpt lat="47.16153" lon="-1.47846">
        <ele>1.2</ele>
        <time>2015-01-11T10:53:11Z</time>
      </trkpt>
      <trkpt lat="47.16159" lon="-1.47869">
        <ele>1.2</ele>
        <time>2015-01-11T10:53:15Z</time>
      </trkpt>
      <trkpt lat="47.16161" lon="-1.47889">
        <ele>1.3</ele>
        <time>2015-01-11T10:53:18Z</time>
      </trkpt>
      <trkpt lat="47.16167" lon="-1.47908">
        <ele>1.5</ele>
        <time>2015-01-11T10:53:21Z</time>
      </trkpt>
      <trkpt lat="47.16174" lon="-1.47932">
        <ele>1.6</ele>
        <time>2015-01-11T10:53:25Z</time>
      </trkpt>
      <trkpt lat="47.16186" lon="-1.47946">
        <ele>1.9</ele>
        <time>2015-01-11T10:53:28Z</time>
      </trkpt>
      <trkpt lat="47.16193" lon="-1.47964">
        <ele>2</ele>
        <time>2015-01-11T10:53:32Z</time>
      </trkpt>
      <trkpt lat="47.16194" lon="-1.4799">
        <ele>2.2</ele>
        <time>2015-01-11T10:53:36Z</time>
      </trkpt>
      <trkpt lat="47.16199" lon="-1.48014">
        <ele>2.2</ele>
        <time>2015-01-11T10:53:40Z</time>
      </trkpt>
      <trkpt lat="47.1621" lon="-1.48034">
        <ele>2.2</ele>
        <time>2015-01-11T10:53:44Z</time>
      </trkpt>
      <trkpt lat="47.16221" lon="-1.48048">
        <ele>2.2</ele>
        <time>2015-01-11T10:53:48Z</time>
      </trkpt>
      <trkpt lat="47.16233" lon="-1.48066">
        <ele>2.2</ele>
        <time>2015-01-11T10:53:52Z</time>
      </trkpt>
      <trkpt lat="47.16245" lon="-1.48084">
        <ele>2.2</ele>
        <time>2015-01-11T10:53:56Z</time>
      </trkpt>
      <trkpt lat="47.16256" lon="-1.48099">
        <ele>2.2</ele>
        <time>2015-01-11T10:54:00Z</time>
      </trkpt>
      <trkpt lat="47.16267" lon="-1.48113">
        <ele>1.6</ele>
        <time>2015-01-11T10:54:04Z</time>
      </trkpt>
      <trkpt lat="47.16278" lon="-1.48123">
        <ele>1.3</ele>
        <time>2015-01-11T10:54:08Z</time>
      </trkpt>
      <trkpt lat="47.16287" lon="-1.48137">
        <ele>1.2</ele>
        <time>2015-01-11T10:54:11Z</time>
      </trkpt>
      <trkpt lat="47.16297" lon="-1.4815">
        <ele>1.1</ele>
        <time>2015-01-11T10:54:13Z</time>
      </trkpt>
      <trkpt lat="47.16311" lon="-1.48165">
        <ele>0.8</ele>
        <time>2015-01-11T10:54:17Z</time>
      </trkpt>
      <trkpt lat="47.16324" lon="-1.48178">
        <ele>0.5</ele>
        <time>2015-01-11T10:54:21Z</time>
      </trkpt>
      <trkpt lat="47.1634" lon="-1.48184">
        <ele>0.5</ele>
        <time>2015-01-11T10:54:25Z</time>
      </trkpt>
      <trkpt lat="47.16352" lon="-1.48187">
        <ele>0.5</ele>
        <time>2015-01-11T10:54:28Z</time>
      </trkpt>
      <trkpt lat="47.1636" lon="-1.4819">
        <ele>0.5</ele>
        <time>2015-01-11T10:54:30Z</time>
      </trkpt>
      <trkpt lat="47.16369" lon="-1.48192">
        <ele>0.5</ele>
        <time>2015-01-11T10:54:32Z</time>
      </trkpt>
      <trkpt lat="47.16381" lon="-1.48193">
        <ele>0.5</ele>
        <time>2015-01-11T10:54:35Z</time>
      </trkpt>
      <trkpt lat="47.16394" lon="-1.48195">
        <ele>0.5</ele>
        <time>2015-01-11T10:54:38Z</time>
      </trkpt>
      <trkpt lat="47.16407" lon="-1.48198">
        <ele>0.5</ele>
        <time>2015-01-11T10:54:41Z</time>
      </trkpt>
      <trkpt lat="47.16422" lon="-1.48203">
        <ele>0.5</ele>
        <time>2015-01-11T10:54:45Z</time>
      </trkpt>
      <trkpt lat="47.16424" lon="-1.48209">
        <ele>3.1</ele>
        <time>2015-01-11T10:54:50Z</time>
      </trkpt>
      <trkpt lat="47.16425" lon="-1.48209">
        <ele>3.2</ele>
        <time>2015-01-11T10:54:51Z</time>
      </trkpt>
      <trkpt lat="47.16425" lon="-1.48209">
        <ele>2.2</ele>
        <time>2015-01-11T10:54:55Z</time>
      </trkpt>
      <trkpt lat="47.16425" lon="-1.48209">
        <ele>3.5</ele>
        <time>2015-01-11T10:54:55Z</time>
      </trkpt>
      <trkpt lat="47.16425" lon="-1.48209">
        <ele>3.5</ele>
        <time>2015-01-11T10:56:09Z</time>
      </trkpt>
      <trkpt lat="47.16435" lon="-1.48215">
        <ele>2.7</ele>
        <time>2015-01-11T10:56:10Z</time>
      </trkpt>
      <trkpt lat="47.16445" lon="-1.48211">
        <ele>2.8</ele>
        <time>2015-01-11T10:56:16Z</time>
      </trkpt>
      <trkpt lat="47.1645" lon="-1.48209">
        <ele>3</ele>
        <time>2015-01-11T10:56:21Z</time>
      </trkpt>
      <trkpt lat="47.1645" lon="-1.48209">
        <ele>1.5</ele>
        <time>2015-01-11T10:56:25Z</time>
      </trkpt>
      <trkpt lat="47.1645" lon="-1.48209">
        <ele>3.4</ele>
        <time>2015-01-11T10:56:25Z</time>
      </trkpt>
      <trkpt lat="47.1645" lon="-1.48209">
        <ele>3.4</ele>
        <time>2015-01-11T10:57:10Z</time>
      </trkpt>
      <trkpt lat="47.1646" lon="-1.48204">
        <ele>4</ele>
        <time>2015-01-11T10:57:11Z</time>
      </trkpt>
      <trkpt lat="47.16468" lon="-1.48197">
        <ele>4.1</ele>
        <time>2015-01-11T10:57:16Z</time>
      </trkpt>
      <trkpt lat="47.16477" lon="-1.48188">
        <ele>4.1</ele>
        <time>2015-01-11T10:57:21Z</time>
      </trkpt>
      <trkpt lat="47.16484" lon="-1.4818">
        <ele>4.4</ele>
        <time>2015-01-11T10:57:28Z</time>
      </trkpt>
      <trkpt lat="47.16484" lon="-1.48173">
        <ele>4.6</ele>
        <time>2015-01-11T10:57:31Z</time>
      </trkpt>
      <trkpt lat="47.16482" lon="-1.48167">
        <ele>4.6</ele>
        <time>2015-01-11T10:57:33Z</time>
      </trkpt>
      <trkpt lat="47.16481" lon="-1.48158">
        <ele>4.7</ele>
        <time>2015-01-11T10:57:35Z</time>
      </trkpt>
      <trkpt lat="47.16481" lon="-1.48148">
        <ele>4.7</ele>
        <time>2015-01-11T10:57:37Z</time>
      </trkpt>
      <trkpt lat="47.16482" lon="-1.48139">
        <ele>4.7</ele>
        <time>2015-01-11T10:57:39Z</time>
      </trkpt>
      <trkpt lat="47.16483" lon="-1.48131">
        <ele>4.7</ele>
        <time>2015-01-11T10:57:41Z</time>
      </trkpt>
      <trkpt lat="47.16486" lon="-1.48125">
        <ele>4.7</ele>
        <time>2015-01-11T10:57:44Z</time>
      </trkpt>
      <trkpt lat="47.16487" lon="-1.48116">
        <ele>4.5</ele>
        <time>2015-01-11T10:57:49Z</time>
      </trkpt>
      <trkpt lat="47.16491" lon="-1.48113">
        <ele>4.5</ele>
        <time>2015-01-11T10:57:53Z</time>
      </trkpt>
      <trkpt lat="47.16493" lon="-1.48122">
        <ele>4.1</ele>
        <time>2015-01-11T10:57:56Z</time>
      </trkpt>
      <trkpt lat="47.16495" lon="-1.48133">
        <ele>4.1</ele>
        <time>2015-01-11T10:57:59Z</time>
      </trkpt>
      <trkpt lat="47.165" lon="-1.4816">
        <ele>3.8</ele>
        <time>2015-01-11T10:58:05Z</time>
      </trkpt>
      <trkpt lat="47.16501" lon="-1.48168">
        <ele>3.4</ele>
        <time>2015-01-11T10:58:07Z</time>
      </trkpt>
      <trkpt lat="47.16504" lon="-1.48178">
        <ele>3.4</ele>
        <time>2015-01-11T10:58:09Z</time>
      </trkpt>
      <trkpt lat="47.16509" lon="-1.48197">
        <ele>3.4</ele>
        <time>2015-01-11T10:58:13Z</time>
      </trkpt>
      <trkpt lat="47.16514" lon="-1.48216">
        <ele>3.7</ele>
        <time>2015-01-11T10:58:17Z</time>
      </trkpt>
      <trkpt lat="47.16519" lon="-1.48237">
        <ele>3.9</ele>
        <time>2015-01-11T10:58:21Z</time>
      </trkpt>
      <trkpt lat="47.16524" lon="-1.48261">
        <ele>3.8</ele>
        <time>2015-01-11T10:58:25Z</time>
      </trkpt>
      <trkpt lat="47.16525" lon="-1.4827">
        <ele>3.9</ele>
        <time>2015-01-11T10:58:27Z</time>
      </trkpt>
      <trkpt lat="47.1653" lon="-1.48271">
        <ele>3.9</ele>
        <time>2015-01-11T10:58:30Z</time>
      </trkpt>
      <trkpt lat="47.16544" lon="-1.48257">
        <ele>3.9</ele>
        <time>2015-01-11T10:58:34Z</time>
      </trkpt>
      <trkpt lat="47.16556" lon="-1.48244">
        <ele>3.9</ele>
        <time>2015-01-11T10:58:37Z</time>
      </trkpt>
      <trkpt lat="47.1657" lon="-1.48228">
        <ele>4</ele>
        <time>2015-01-11T10:58:40Z</time>
      </trkpt>
      <trkpt lat="47.1658" lon="-1.48223">
        <ele>4.1</ele>
        <time>2015-01-11T10:58:42Z</time>
      </trkpt>
      <trkpt lat="47.16592" lon="-1.48218">
        <ele>4.2</ele>
        <time>2015-01-11T10:58:45Z</time>
      </trkpt>
      <trkpt lat="47.16607" lon="-1.4822">
        <ele>4.2</ele>
        <time>2015-01-11T10:58:48Z</time>
      </trkpt>
      <trkpt lat="47.16619" lon="-1.48224">
        <ele>4.4</ele>
        <time>2015-01-11T10:58:51Z</time>
      </trkpt>
      <trkpt lat="47.1663" lon="-1.48229">
        <ele>4.5</ele>
        <time>2015-01-11T10:58:54Z</time>
      </trkpt>
      <trkpt lat="47.16642" lon="-1.48234">
        <ele>4.5</ele>
        <time>2015-01-11T10:58:57Z</time>
      </trkpt>
      <trkpt lat="47.16652" lon="-1.4824">
        <ele>4.5</ele>
        <time>2015-01-11T10:59:00Z</time>
      </trkpt>
      <trkpt lat="47.16664" lon="-1.48246">
        <ele>4.5</ele>
        <time>2015-01-11T10:59:03Z</time>
      </trkpt>
      <trkpt lat="47.16675" lon="-1.48255">
        <ele>4.5</ele>
        <time>2015-01-11T10:59:06Z</time>
      </trkpt>
      <trkpt lat="47.16687" lon="-1.4827">
        <ele>4.5</ele>
        <time>2015-01-11T10:59:10Z</time>
      </trkpt>
      <trkpt lat="47.16694" lon="-1.4829">
        <ele>4.4</ele>
        <time>2015-01-11T10:59:14Z</time>
      </trkpt>
      <trkpt lat="47.16702" lon="-1.48312">
        <ele>3.8</ele>
        <time>2015-01-11T10:59:18Z</time>
      </trkpt>
      <trkpt lat="47.16705" lon="-1.48332">
        <ele>3.5</ele>
        <time>2015-01-11T10:59:22Z</time>
      </trkpt>
      <trkpt lat="47.16706" lon="-1.48357">
        <ele>3.3</ele>
        <time>2015-01-11T10:59:26Z</time>
      </trkpt>
      <trkpt lat="47.16708" lon="-1.4838">
        <ele>3.1</ele>
        <time>2015-01-11T10:59:30Z</time>
      </trkpt>
      <trkpt lat="47.16713" lon="-1.484">
        <ele>2.8</ele>
        <time>2015-01-11T10:59:34Z</time>
      </trkpt>
      <trkpt lat="47.16719" lon="-1.48418">
        <ele>2.5</ele>
        <time>2015-01-11T10:59:37Z</time>
      </trkpt>
      <trkpt lat="47.16723" lon="-1.48441">
        <ele>2.2</ele>
        <time>2015-01-11T10:59:41Z</time>
      </trkpt>
      <trkpt lat="47.1672" lon="-1.48464">
        <ele>1.9</ele>
        <time>2015-01-11T10:59:45Z</time>
      </trkpt>
      <trkpt lat="47.16721" lon="-1.48486">
        <ele>1.4</ele>
        <time>2015-01-11T10:59:49Z</time>
      </trkpt>
      <trkpt lat="47.16727" lon="-1.48507">
        <ele>1.2</ele>
        <time>2015-01-11T10:59:53Z</time>
      </trkpt>
      <trkpt lat="47.16732" lon="-1.48526">
        <ele>1</ele>
        <time>2015-01-11T10:59:57Z</time>
      </trkpt>
      <trkpt lat="47.16737" lon="-1.48546">
        <ele>0.5</ele>
        <time>2015-01-11T11:00:04Z</time>
      </trkpt>
      <trkpt lat="47.16737" lon="-1.48548">
        <ele>-0.3</ele>
        <time>2015-01-11T11:00:06Z</time>
      </trkpt>
      <trkpt lat="47.16737" lon="-1.48549">
        <ele>-2.3</ele>
        <time>2015-01-11T11:00:10Z</time>
      </trkpt>
      <trkpt lat="47.16737" lon="-1.48549">
        <ele>7.5</ele>
        <time>2015-01-11T11:00:10Z</time>
      </trkpt>
      <trkpt lat="47.16737" lon="-1.48549">
        <ele>7.5</ele>
        <time>2015-01-11T11:00:21Z</time>
      </trkpt>
      <trkpt lat="47.16739" lon="-1.48569">
        <ele>-2</ele>
        <time>2015-01-11T11:00:22Z</time>
      </trkpt>
      <trkpt lat="47.16742" lon="-1.48591">
        <ele>-2</ele>
        <time>2015-01-11T11:00:27Z</time>
      </trkpt>
      <trkpt lat="47.16744" lon="-1.48614">
        <ele>-2</ele>
        <time>2015-01-11T11:00:31Z</time>
      </trkpt>
      <trkpt lat="47.16747" lon="-1.48634">
        <ele>-2</ele>
        <time>2015-01-11T11:00:35Z</time>
      </trkpt>
      <trkpt lat="47.16752" lon="-1.48653">
        <ele>-2</ele>
        <time>2015-01-11T11:00:39Z</time>
      </trkpt>
      <trkpt lat="47.16752" lon="-1.48676">
        <ele>-1.9</ele>
        <time>2015-01-11T11:00:43Z</time>
      </trkpt>
      <trkpt lat="47.16749" lon="-1.487">
        <ele>-1.7</ele>
        <time>2015-01-11T11:00:47Z</time>
      </trkpt>
      <trkpt lat="47.16741" lon="-1.48716">
        <ele>-1.5</ele>
        <time>2015-01-11T11:00:51Z</time>
      </trkpt>
      <trkpt lat="47.16729" lon="-1.48732">
        <ele>-1.2</ele>
        <time>2015-01-11T11:00:55Z</time>
      </trkpt>
      <trkpt lat="47.16723" lon="-1.48755">
        <ele>-0.8</ele>
        <time>2015-01-11T11:00:59Z</time>
      </trkpt>
      <trkpt lat="47.16719" lon="-1.48775">
        <ele>-0.4</ele>
        <time>2015-01-11T11:01:02Z</time>
      </trkpt>
      <trkpt lat="47.16712" lon="-1.48798">
        <ele>0.2</ele>
        <time>2015-01-11T11:01:06Z</time>
      </trkpt>
      <trkpt lat="47.16703" lon="-1.48819">
        <ele>0.8</ele>
        <time>2015-01-11T11:01:10Z</time>
      </trkpt>
      <trkpt lat="47.16693" lon="-1.48836">
        <ele>1.2</ele>
        <time>2015-01-11T11:01:14Z</time>
      </trkpt>
      <trkpt lat="47.16687" lon="-1.48846">
        <ele>3.5</ele>
        <time>2015-01-11T11:01:17Z</time>
      </trkpt>
      <trkpt lat="47.16673" lon="-1.48862">
        <ele>4.6</ele>
        <time>2015-01-11T11:01:22Z</time>
      </trkpt>
      <trkpt lat="47.16659" lon="-1.48878">
        <ele>4.7</ele>
        <time>2015-01-11T11:01:26Z</time>
      </trkpt>
      <trkpt lat="47.16646" lon="-1.48893">
        <ele>5</ele>
        <time>2015-01-11T11:01:30Z</time>
      </trkpt>
      <trkpt lat="47.16633" lon="-1.48907">
        <ele>5.1</ele>
        <time>2015-01-11T11:01:34Z</time>
      </trkpt>
      <trkpt lat="47.16623" lon="-1.48921">
        <ele>5.1</ele>
        <time>2015-01-11T11:01:38Z</time>
      </trkpt>
      <trkpt lat="47.16619" lon="-1.48928">
        <ele>5.3</ele>
        <time>2015-01-11T11:01:40Z</time>
      </trkpt>
      <trkpt lat="47.16614" lon="-1.48934">
        <ele>5.3</ele>
        <time>2015-01-11T11:01:42Z</time>
      </trkpt>
      <trkpt lat="47.16608" lon="-1.48939">
        <ele>5.3</ele>
        <time>2015-01-11T11:01:44Z</time>
      </trkpt>
      <trkpt lat="47.16605" lon="-1.48945">
        <ele>5.3</ele>
        <time>2015-01-11T11:01:46Z</time>
      </trkpt>
      <trkpt lat="47.16602" lon="-1.48952">
        <ele>5.3</ele>
        <time>2015-01-11T11:01:48Z</time>
      </trkpt>
      <trkpt lat="47.16601" lon="-1.48959">
        <ele>5.3</ele>
        <time>2015-01-11T11:01:50Z</time>
      </trkpt>
      <trkpt lat="47.166" lon="-1.48967">
        <ele>5.3</ele>
        <time>2015-01-11T11:01:52Z</time>
      </trkpt>
      <trkpt lat="47.16604" lon="-1.48987">
        <ele>5.1</ele>
        <time>2015-01-11T11:01:56Z</time>
      </trkpt>
      <trkpt lat="47.16607" lon="-1.48996">
        <ele>5</ele>
        <time>2015-01-11T11:01:58Z</time>
      </trkpt>
      <trkpt lat="47.16609" lon="-1.49005">
        <ele>5</ele>
        <time>2015-01-11T11:02:00Z</time>
      </trkpt>
      <trkpt lat="47.16611" lon="-1.49015">
        <ele>5</ele>
        <time>2015-01-11T11:02:02Z</time>
      </trkpt>
      <trkpt lat="47.16611" lon="-1.49036">
        <ele>5.2</ele>
        <time>2015-01-11T11:02:06Z</time>
      </trkpt>
      <trkpt lat="47.16609" lon="-1.49045">
        <ele>5.3</ele>
        <time>2015-01-11T11:02:08Z</time>
      </trkpt>
      <trkpt lat="47.16606" lon="-1.49053">
        <ele>5.3</ele>
        <time>2015-01-11T11:02:10Z</time>
      </trkpt>
      <trkpt lat="47.16602" lon="-1.49061">
        <ele>5.3</ele>
        <time>2015-01-11T11:02:12Z</time>
      </trkpt>
      <trkpt lat="47.16599" lon="-1.49069">
        <ele>5.3</ele>
        <time>2015-01-11T11:02:14Z</time>
      </trkpt>
      <trkpt lat="47.16595" lon="-1.49075">
        <ele>5.3</ele>
        <time>2015-01-11T11:02:16Z</time>
      </trkpt>
      <trkpt lat="47.1659" lon="-1.49082">
        <ele>5.3</ele>
        <time>2015-01-11T11:02:18Z</time>
      </trkpt>
      <trkpt lat="47.16581" lon="-1.49097">
        <ele>5.3</ele>
        <time>2015-01-11T11:02:22Z</time>
      </trkpt>
      <trkpt lat="47.16572" lon="-1.49112">
        <ele>5.4</ele>
        <time>2015-01-11T11:02:26Z</time>
      </trkpt>
      <trkpt lat="47.16563" lon="-1.49128">
        <ele>6.7</ele>
        <time>2015-01-11T11:02:30Z</time>
      </trkpt>
      <trkpt lat="47.16554" lon="-1.49145">
        <ele>7.3</ele>
        <time>2015-01-11T11:02:34Z</time>
      </trkpt>
      <trkpt lat="47.16547" lon="-1.49162">
        <ele>7.5</ele>
        <time>2015-01-11T11:02:38Z</time>
      </trkpt>
      <trkpt lat="47.16543" lon="-1.49176">
        <ele>8</ele>
        <time>2015-01-11T11:02:41Z</time>
      </trkpt>
      <trkpt lat="47.16541" lon="-1.49184">
        <ele>8</ele>
        <time>2015-01-11T11:02:43Z</time>
      </trkpt>
      <trkpt lat="47.16538" lon="-1.49192">
        <ele>8.9</ele>
        <time>2015-01-11T11:02:45Z</time>
      </trkpt>
      <trkpt lat="47.16535" lon="-1.49201">
        <ele>8.9</ele>
        <time>2015-01-11T11:02:47Z</time>
      </trkpt>
      <trkpt lat="47.1653" lon="-1.49206">
        <ele>8.9</ele>
        <time>2015-01-11T11:02:49Z</time>
      </trkpt>
      <trkpt lat="47.16514" lon="-1.49198">
        <ele>10.1</ele>
        <time>2015-01-11T11:02:53Z</time>
      </trkpt>
      <trkpt lat="47.16505" lon="-1.49183">
        <ele>11.3</ele>
        <time>2015-01-11T11:02:56Z</time>
      </trkpt>
      <trkpt lat="47.16499" lon="-1.49164">
        <ele>12.2</ele>
        <time>2015-01-11T11:02:59Z</time>
      </trkpt>
      <trkpt lat="47.16489" lon="-1.49144">
        <ele>12.6</ele>
        <time>2015-01-11T11:03:03Z</time>
      </trkpt>
      <trkpt lat="47.16479" lon="-1.49141">
        <ele>12.8</ele>
        <time>2015-01-11T11:03:06Z</time>
      </trkpt>
      <trkpt lat="47.1647" lon="-1.4914">
        <ele>12.8</ele>
        <time>2015-01-11T11:03:09Z</time>
      </trkpt>
      <trkpt lat="47.16462" lon="-1.49151">
        <ele>13</ele>
        <time>2015-01-11T11:03:12Z</time>
      </trkpt>
      <trkpt lat="47.16451" lon="-1.49169">
        <ele>13.1</ele>
        <time>2015-01-11T11:03:16Z</time>
      </trkpt>
      <trkpt lat="47.1644" lon="-1.49182">
        <ele>13.1</ele>
        <time>2015-01-11T11:03:21Z</time>
      </trkpt>
      <trkpt lat="47.16433" lon="-1.49193">
        <ele>13.1</ele>
        <time>2015-01-11T11:03:26Z</time>
      </trkpt>
      <trkpt lat="47.16424" lon="-1.49201">
        <ele>13.1</ele>
        <time>2015-01-11T11:03:30Z</time>
      </trkpt>
      <trkpt lat="47.16414" lon="-1.49213">
        <ele>13</ele>
        <time>2015-01-11T11:03:35Z</time>
      </trkpt>
      <trkpt lat="47.1641" lon="-1.49219">
        <ele>12.4</ele>
        <time>2015-01-11T11:03:37Z</time>
      </trkpt>
      <trkpt lat="47.16402" lon="-1.49228">
        <ele>12.4</ele>
        <time>2015-01-11T11:03:41Z</time>
      </trkpt>
      <trkpt lat="47.16392" lon="-1.49243">
        <ele>11</ele>
        <time>2015-01-11T11:03:46Z</time>
      </trkpt>
      <trkpt lat="47.1638" lon="-1.49257">
        <ele>10.4</ele>
        <time>2015-01-11T11:03:51Z</time>
      </trkpt>
      <trkpt lat="47.16368" lon="-1.4927">
        <ele>10.4</ele>
        <time>2015-01-11T11:03:56Z</time>
      </trkpt>
      <trkpt lat="47.1636" lon="-1.49276">
        <ele>10.3</ele>
        <time>2015-01-11T11:04:00Z</time>
      </trkpt>
      <trkpt lat="47.16355" lon="-1.49279">
        <ele>10.3</ele>
        <time>2015-01-11T11:04:02Z</time>
      </trkpt>
      <trkpt lat="47.16345" lon="-1.49282">
        <ele>10.3</ele>
        <time>2015-01-11T11:04:07Z</time>
      </trkpt>
      <trkpt lat="47.16341" lon="-1.49287">
        <ele>10.3</ele>
        <time>2015-01-11T11:04:10Z</time>
      </trkpt>
      <trkpt lat="47.16337" lon="-1.49292">
        <ele>10.3</ele>
        <time>2015-01-11T11:04:12Z</time>
      </trkpt>
      <trkpt lat="47.16334" lon="-1.49299">
        <ele>10.5</ele>
        <time>2015-01-11T11:04:15Z</time>
      </trkpt>
      <trkpt lat="47.16329" lon="-1.49303">
        <ele>10.5</ele>
        <time>2015-01-11T11:04:18Z</time>
      </trkpt>
      <trkpt lat="47.16319" lon="-1.49305">
        <ele>10.6</ele>
        <time>2015-01-11T11:04:22Z</time>
      </trkpt>
      <trkpt lat="47.16311" lon="-1.4931">
        <ele>10.7</ele>
        <time>2015-01-11T11:04:26Z</time>
      </trkpt>
      <trkpt lat="47.16305" lon="-1.49314">
        <ele>11.2</ele>
        <time>2015-01-11T11:04:29Z</time>
      </trkpt>
      <trkpt lat="47.16301" lon="-1.49319">
        <ele>11.2</ele>
        <time>2015-01-11T11:04:31Z</time>
      </trkpt>
      <trkpt lat="47.16296" lon="-1.49325">
        <ele>11.8</ele>
        <time>2015-01-11T11:04:34Z</time>
      </trkpt>
      <trkpt lat="47.16292" lon="-1.49329">
        <ele>11.8</ele>
        <time>2015-01-11T11:04:36Z</time>
      </trkpt>
      <trkpt lat="47.16287" lon="-1.49333">
        <ele>12.2</ele>
        <time>2015-01-11T11:04:38Z</time>
      </trkpt>
      <trkpt lat="47.16281" lon="-1.49341">
        <ele>12.2</ele>
        <time>2015-01-11T11:04:41Z</time>
      </trkpt>
      <trkpt lat="47.16273" lon="-1.49351">
        <ele>13</ele>
        <time>2015-01-11T11:04:46Z</time>
      </trkpt>
      <trkpt lat="47.1627" lon="-1.49359">
        <ele>14.9</ele>
        <time>2015-01-11T11:04:48Z</time>
      </trkpt>
      <trkpt lat="47.16268" lon="-1.49367">
        <ele>14.9</ele>
        <time>2015-01-11T11:04:50Z</time>
      </trkpt>
      <trkpt lat="47.16265" lon="-1.49379">
        <ele>16.3</ele>
        <time>2015-01-11T11:04:54Z</time>
      </trkpt>
      <trkpt lat="47.16263" lon="-1.49393">
        <ele>16.4</ele>
        <time>2015-01-11T11:04:58Z</time>
      </trkpt>
      <trkpt lat="47.16259" lon="-1.49414">
        <ele>16.8</ele>
        <time>2015-01-11T11:05:03Z</time>
      </trkpt>
      <trkpt lat="47.16257" lon="-1.49422">
        <ele>16.9</ele>
        <time>2015-01-11T11:05:05Z</time>
      </trkpt>
      <trkpt lat="47.16255" lon="-1.49436">
        <ele>16.9</ele>
        <time>2015-01-11T11:05:08Z</time>
      </trkpt>
      <trkpt lat="47.16253" lon="-1.49453">
        <ele>17</ele>
        <time>2015-01-11T11:05:12Z</time>
      </trkpt>
      <trkpt lat="47.16251" lon="-1.49473">
        <ele>17.1</ele>
        <time>2015-01-11T11:05:16Z</time>
      </trkpt>
      <trkpt lat="47.16248" lon="-1.49486">
        <ele>17.5</ele>
        <time>2015-01-11T11:05:19Z</time>
      </trkpt>
      <trkpt lat="47.16248" lon="-1.49501">
        <ele>17.8</ele>
        <time>2015-01-11T11:05:22Z</time>
      </trkpt>
      <trkpt lat="47.16247" lon="-1.49515">
        <ele>17.9</ele>
        <time>2015-01-11T11:05:25Z</time>
      </trkpt>
      <trkpt lat="47.16247" lon="-1.49522">
        <ele>19.2</ele>
        <time>2015-01-11T11:05:27Z</time>
      </trkpt>
      <trkpt lat="47.16246" lon="-1.49532">
        <ele>19.2</ele>
        <time>2015-01-11T11:05:29Z</time>
      </trkpt>
      <trkpt lat="47.16242" lon="-1.49542">
        <ele>19.2</ele>
        <time>2015-01-11T11:05:31Z</time>
      </trkpt>
      <trkpt lat="47.16235" lon="-1.4956">
        <ele>19.8</ele>
        <time>2015-01-11T11:05:35Z</time>
      </trkpt>
      <trkpt lat="47.16226" lon="-1.49581">
        <ele>20.3</ele>
        <time>2015-01-11T11:05:39Z</time>
      </trkpt>
      <trkpt lat="47.16217" lon="-1.49595">
        <ele>20.4</ele>
        <time>2015-01-11T11:05:42Z</time>
      </trkpt>
      <trkpt lat="47.16208" lon="-1.49612">
        <ele>20.5</ele>
        <time>2015-01-11T11:05:46Z</time>
      </trkpt>
      <trkpt lat="47.16204" lon="-1.4962">
        <ele>20.5</ele>
        <time>2015-01-11T11:05:48Z</time>
      </trkpt>
      <trkpt lat="47.16201" lon="-1.49629">
        <ele>20.5</ele>
        <time>2015-01-11T11:05:50Z</time>
      </trkpt>
      <trkpt lat="47.16194" lon="-1.49648">
        <ele>20.5</ele>
        <time>2015-01-11T11:05:54Z</time>
      </trkpt>
      <trkpt lat="47.16185" lon="-1.49666">
        <ele>20.5</ele>
        <time>2015-01-11T11:05:58Z</time>
      </trkpt>
      <trkpt lat="47.16177" lon="-1.49685">
        <ele>21.3</ele>
        <time>2015-01-11T11:06:02Z</time>
      </trkpt>
      <trkpt lat="47.16168" lon="-1.49703">
        <ele>21.9</ele>
        <time>2015-01-11T11:06:06Z</time>
      </trkpt>
      <trkpt lat="47.16159" lon="-1.49722">
        <ele>22.6</ele>
        <time>2015-01-11T11:06:10Z</time>
      </trkpt>
      <trkpt lat="47.16152" lon="-1.49739">
        <ele>23.1</ele>
        <time>2015-01-11T11:06:15Z</time>
      </trkpt>
      <trkpt lat="47.1615" lon="-1.49745">
        <ele>23.1</ele>
        <time>2015-01-11T11:06:17Z</time>
      </trkpt>
      <trkpt lat="47.16148" lon="-1.49753">
        <ele>23.1</ele>
        <time>2015-01-11T11:06:19Z</time>
      </trkpt>
      <trkpt lat="47.16146" lon="-1.49767">
        <ele>23.4</ele>
        <time>2015-01-11T11:06:24Z</time>
      </trkpt>
      <trkpt lat="47.16147" lon="-1.49773">
        <ele>24.4</ele>
        <time>2015-01-11T11:06:27Z</time>
      </trkpt>
      <trkpt lat="47.16147" lon="-1.49783">
        <ele>24.4</ele>
        <time>2015-01-11T11:06:30Z</time>
      </trkpt>
      <trkpt lat="47.16147" lon="-1.4979">
        <ele>25.4</ele>
        <time>2015-01-11T11:06:32Z</time>
      </trkpt>
      <trkpt lat="47.16145" lon="-1.49797">
        <ele>25.4</ele>
        <time>2015-01-11T11:06:34Z</time>
      </trkpt>
      <trkpt lat="47.16144" lon="-1.49804">
        <ele>25.4</ele>
        <time>2015-01-11T11:06:36Z</time>
      </trkpt>
      <trkpt lat="47.16139" lon="-1.49818">
        <ele>25.9</ele>
        <time>2015-01-11T11:06:41Z</time>
      </trkpt>
      <trkpt lat="47.16138" lon="-1.49842">
        <ele>26</ele>
        <time>2015-01-11T11:06:46Z</time>
      </trkpt>
      <trkpt lat="47.16137" lon="-1.49865">
        <ele>26.1</ele>
        <time>2015-01-11T11:06:51Z</time>
      </trkpt>
      <trkpt lat="47.16136" lon="-1.49879">
        <ele>26.3</ele>
        <time>2015-01-11T11:06:54Z</time>
      </trkpt>
      <trkpt lat="47.16136" lon="-1.49899">
        <ele>26.4</ele>
        <time>2015-01-11T11:06:58Z</time>
      </trkpt>
      <trkpt lat="47.16133" lon="-1.49922">
        <ele>26.6</ele>
        <time>2015-01-11T11:07:02Z</time>
      </trkpt>
      <trkpt lat="47.16129" lon="-1.49945">
        <ele>26.7</ele>
        <time>2015-01-11T11:07:06Z</time>
      </trkpt>
      <trkpt lat="47.16126" lon="-1.49966">
        <ele>27</ele>
        <time>2015-01-11T11:07:10Z</time>
      </trkpt>
      <trkpt lat="47.16123" lon="-1.49986">
        <ele>27.2</ele>
        <time>2015-01-11T11:07:14Z</time>
      </trkpt>
      <trkpt lat="47.16119" lon="-1.50006">
        <ele>27.4</ele>
        <time>2015-01-11T11:07:18Z</time>
      </trkpt>
      <trkpt lat="47.16114" lon="-1.50027">
        <ele>27.5</ele>
        <time>2015-01-11T11:07:22Z</time>
      </trkpt>
      <trkpt lat="47.16108" lon="-1.5005">
        <ele>27.9</ele>
        <time>2015-01-11T11:07:26Z</time>
      </trkpt>
      <trkpt lat="47.16101" lon="-1.50071">
        <ele>28.2</ele>
        <time>2015-01-11T11:07:30Z</time>
      </trkpt>
      <trkpt lat="47.16094" lon="-1.50094">
        <ele>28.4</ele>
        <time>2015-01-11T11:07:34Z</time>
      </trkpt>
      <trkpt lat="47.16088" lon="-1.50117">
        <ele>28.3</ele>
        <time>2015-01-11T11:07:38Z</time>
      </trkpt>
      <trkpt lat="47.16079" lon="-1.50133">
        <ele>28.2</ele>
        <time>2015-01-11T11:07:41Z</time>
      </trkpt>
      <trkpt lat="47.16071" lon="-1.50156">
        <ele>28.2</ele>
        <time>2015-01-11T11:07:44Z</time>
      </trkpt>
      <trkpt lat="47.16069" lon="-1.5018">
        <ele>28.2</ele>
        <time>2015-01-11T11:07:48Z</time>
      </trkpt>
      <trkpt lat="47.16075" lon="-1.50191">
        <ele>28.2</ele>
        <time>2015-01-11T11:07:52Z</time>
      </trkpt>
      <trkpt lat="47.16088" lon="-1.50201">
        <ele>28.2</ele>
        <time>2015-01-11T11:07:58Z</time>
      </trkpt>
      <trkpt lat="47.161" lon="-1.50215">
        <ele>28.2</ele>
        <time>2015-01-11T11:08:02Z</time>
      </trkpt>
      <trkpt lat="47.16117" lon="-1.50232">
        <ele>27</ele>
        <time>2015-01-11T11:08:06Z</time>
      </trkpt>
      <trkpt lat="47.16129" lon="-1.50246">
        <ele>26.1</ele>
        <time>2015-01-11T11:08:09Z</time>
      </trkpt>
      <trkpt lat="47.1614" lon="-1.50264">
        <ele>23.9</ele>
        <time>2015-01-11T11:08:13Z</time>
      </trkpt>
      <trkpt lat="47.16152" lon="-1.50277">
        <ele>21.4</ele>
        <time>2015-01-11T11:08:16Z</time>
      </trkpt>
      <trkpt lat="47.16165" lon="-1.5029">
        <ele>20.1</ele>
        <time>2015-01-11T11:08:20Z</time>
      </trkpt>
      <trkpt lat="47.16178" lon="-1.50306">
        <ele>19.3</ele>
        <time>2015-01-11T11:08:24Z</time>
      </trkpt>
      <trkpt lat="47.1619" lon="-1.50318">
        <ele>18.9</ele>
        <time>2015-01-11T11:08:27Z</time>
      </trkpt>
      <trkpt lat="47.16202" lon="-1.50331">
        <ele>18.2</ele>
        <time>2015-01-11T11:08:30Z</time>
      </trkpt>
      <trkpt lat="47.16213" lon="-1.50347">
        <ele>17.1</ele>
        <time>2015-01-11T11:08:33Z</time>
      </trkpt>
      <trkpt lat="47.16224" lon="-1.5036">
        <ele>15.9</ele>
        <time>2015-01-11T11:08:36Z</time>
      </trkpt>
      <trkpt lat="47.16239" lon="-1.50375">
        <ele>15</ele>
        <time>2015-01-11T11:08:40Z</time>
      </trkpt>
      <trkpt lat="47.1625" lon="-1.50391">
        <ele>14.9</ele>
        <time>2015-01-11T11:08:43Z</time>
      </trkpt>
      <trkpt lat="47.16262" lon="-1.50401">
        <ele>14.9</ele>
        <time>2015-01-11T11:08:47Z</time>
      </trkpt>
      <trkpt lat="47.16276" lon="-1.50415">
        <ele>14.9</ele>
        <time>2015-01-11T11:08:51Z</time>
      </trkpt>
      <trkpt lat="47.16287" lon="-1.5043">
        <ele>14.9</ele>
        <time>2015-01-11T11:08:54Z</time>
      </trkpt>
      <trkpt lat="47.16301" lon="-1.50446">
        <ele>14.9</ele>
        <time>2015-01-11T11:08:58Z</time>
      </trkpt>
      <trkpt lat="47.16314" lon="-1.50461">
        <ele>14.9</ele>
        <time>2015-01-11T11:09:01Z</time>
      </trkpt>
      <trkpt lat="47.16327" lon="-1.50479">
        <ele>14.9</ele>
        <time>2015-01-11T11:09:05Z</time>
      </trkpt>
      <trkpt lat="47.16338" lon="-1.50491">
        <ele>15.1</ele>
        <time>2015-01-11T11:09:08Z</time>
      </trkpt>
      <trkpt lat="47.16351" lon="-1.50504">
        <ele>15.2</ele>
        <time>2015-01-11T11:09:12Z</time>
      </trkpt>
      <trkpt lat="47.16358" lon="-1.50517">
        <ele>15.7</ele>
        <time>2015-01-11T11:09:15Z</time>
      </trkpt>
      <trkpt lat="47.16362" lon="-1.5053">
        <ele>15.8</ele>
        <time>2015-01-11T11:09:20Z</time>
      </trkpt>
      <trkpt lat="47.16369" lon="-1.50554">
        <ele>16.1</ele>
        <time>2015-01-11T11:09:25Z</time>
      </trkpt>
      <trkpt lat="47.16374" lon="-1.50574">
        <ele>16.4</ele>
        <time>2015-01-11T11:09:30Z</time>
      </trkpt>
      <trkpt lat="47.16377" lon="-1.50587">
        <ele>16.7</ele>
        <time>2015-01-11T11:09:35Z</time>
      </trkpt>
      <trkpt lat="47.16389" lon="-1.50595">
        <ele>16.9</ele>
        <time>2015-01-11T11:09:40Z</time>
      </trkpt>
      <trkpt lat="47.16397" lon="-1.50601">
        <ele>17.8</ele>
        <time>2015-01-11T11:09:47Z</time>
      </trkpt>
      <trkpt lat="47.1639" lon="-1.50615">
        <ele>18.5</ele>
        <time>2015-01-11T11:09:52Z</time>
      </trkpt>
      <trkpt lat="47.16382" lon="-1.50635">
        <ele>19.2</ele>
        <time>2015-01-11T11:09:57Z</time>
      </trkpt>
      <trkpt lat="47.16374" lon="-1.50653">
        <ele>19.9</ele>
        <time>2015-01-11T11:10:01Z</time>
      </trkpt>
      <trkpt lat="47.16366" lon="-1.50672">
        <ele>20.3</ele>
        <time>2015-01-11T11:10:05Z</time>
      </trkpt>
      <trkpt lat="47.16359" lon="-1.50692">
        <ele>20.5</ele>
        <time>2015-01-11T11:10:09Z</time>
      </trkpt>
      <trkpt lat="47.16355" lon="-1.50712">
        <ele>20.6</ele>
        <time>2015-01-11T11:10:12Z</time>
      </trkpt>
      <trkpt lat="47.16358" lon="-1.50735">
        <ele>20.9</ele>
        <time>2015-01-11T11:10:16Z</time>
      </trkpt>
      <trkpt lat="47.16355" lon="-1.50756">
        <ele>21.6</ele>
        <time>2015-01-11T11:10:23Z</time>
      </trkpt>
      <trkpt lat="47.16344" lon="-1.50744">
        <ele>22.2</ele>
        <time>2015-01-11T11:10:31Z</time>
      </trkpt>
      <trkpt lat="47.16355" lon="-1.50713">
        <ele>22.6</ele>
        <time>2015-01-11T11:10:38Z</time>
      </trkpt>
      <trkpt lat="47.16359" lon="-1.50691">
        <ele>22.6</ele>
        <time>2015-01-11T11:10:42Z</time>
      </trkpt>
      <trkpt lat="47.16367" lon="-1.50671">
        <ele>22.3</ele>
        <time>2015-01-11T11:10:46Z</time>
      </trkpt>
      <trkpt lat="47.16374" lon="-1.50653">
        <ele>22.2</ele>
        <time>2015-01-11T11:10:50Z</time>
      </trkpt>
      <trkpt lat="47.16382" lon="-1.50634">
        <ele>22.4</ele>
        <time>2015-01-11T11:10:55Z</time>
      </trkpt>
      <trkpt lat="47.16392" lon="-1.50613">
        <ele>22.4</ele>
        <time>2015-01-11T11:10:59Z</time>
      </trkpt>
      <trkpt lat="47.16408" lon="-1.50605">
        <ele>22.4</ele>
        <time>2015-01-11T11:11:03Z</time>
      </trkpt>
      <trkpt lat="47.16422" lon="-1.50613">
        <ele>22.3</ele>
        <time>2015-01-11T11:11:08Z</time>
      </trkpt>
      <trkpt lat="47.16432" lon="-1.50617">
        <ele>22.2</ele>
        <time>2015-01-11T11:11:11Z</time>
      </trkpt>
      <trkpt lat="47.16449" lon="-1.50625">
        <ele>22.1</ele>
        <time>2015-01-11T11:11:16Z</time>
      </trkpt>
      <trkpt lat="47.1646" lon="-1.50631">
        <ele>22</ele>
        <time>2015-01-11T11:11:19Z</time>
      </trkpt>
      <trkpt lat="47.16468" lon="-1.50635">
        <ele>22</ele>
        <time>2015-01-11T11:11:21Z</time>
      </trkpt>
      <trkpt lat="47.16478" lon="-1.50639">
        <ele>22</ele>
        <time>2015-01-11T11:11:23Z</time>
      </trkpt>
      <trkpt lat="47.16489" lon="-1.50646">
        <ele>22</ele>
        <time>2015-01-11T11:11:26Z</time>
      </trkpt>
      <trkpt lat="47.16499" lon="-1.50652">
        <ele>22</ele>
        <time>2015-01-11T11:11:29Z</time>
      </trkpt>
      <trkpt lat="47.16511" lon="-1.50659">
        <ele>22</ele>
        <time>2015-01-11T11:11:32Z</time>
      </trkpt>
      <trkpt lat="47.16525" lon="-1.5067">
        <ele>22</ele>
        <time>2015-01-11T11:11:36Z</time>
      </trkpt>
      <trkpt lat="47.16539" lon="-1.50687">
        <ele>22.1</ele>
        <time>2015-01-11T11:11:40Z</time>
      </trkpt>
      <trkpt lat="47.16551" lon="-1.50706">
        <ele>22.4</ele>
        <time>2015-01-11T11:11:44Z</time>
      </trkpt>
      <trkpt lat="47.16563" lon="-1.50739">
        <ele>23.1</ele>
        <time>2015-01-11T11:11:50Z</time>
      </trkpt>
      <trkpt lat="47.16569" lon="-1.50764">
        <ele>23.5</ele>
        <time>2015-01-11T11:11:54Z</time>
      </trkpt>
      <trkpt lat="47.16576" lon="-1.50787">
        <ele>23.6</ele>
        <time>2015-01-11T11:11:58Z</time>
      </trkpt>
      <trkpt lat="47.16582" lon="-1.50811">
        <ele>23.6</ele>
        <time>2015-01-11T11:12:02Z</time>
      </trkpt>
      <trkpt lat="47.1659" lon="-1.50834">
        <ele>23.6</ele>
        <time>2015-01-11T11:12:06Z</time>
      </trkpt>
      <trkpt lat="47.166" lon="-1.50857">
        <ele>23.6</ele>
        <time>2015-01-11T11:12:10Z</time>
      </trkpt>
      <trkpt lat="47.16608" lon="-1.50874">
        <ele>23.6</ele>
        <time>2015-01-11T11:12:14Z</time>
      </trkpt>
      <trkpt lat="47.16618" lon="-1.50892">
        <ele>23.6</ele>
        <time>2015-01-11T11:12:18Z</time>
      </trkpt>
      <trkpt lat="47.1663" lon="-1.50909">
        <ele>23.5</ele>
        <time>2015-01-11T11:12:22Z</time>
      </trkpt>
      <trkpt lat="47.16635" lon="-1.50918">
        <ele>23.4</ele>
        <time>2015-01-11T11:12:27Z</time>
      </trkpt>
      <trkpt lat="47.16645" lon="-1.50934">
        <ele>23.5</ele>
        <time>2015-01-11T11:12:28Z</time>
      </trkpt>
      <trkpt lat="47.16655" lon="-1.5095">
        <ele>23.7</ele>
        <time>2015-01-11T11:12:32Z</time>
      </trkpt>
      <trkpt lat="47.16666" lon="-1.50967">
        <ele>23.6</ele>
        <time>2015-01-11T11:12:36Z</time>
      </trkpt>
      <trkpt lat="47.16677" lon="-1.50984">
        <ele>23.5</ele>
        <time>2015-01-11T11:12:40Z</time>
      </trkpt>
      <trkpt lat="47.16687" lon="-1.50998">
        <ele>23.2</ele>
        <time>2015-01-11T11:12:44Z</time>
      </trkpt>
      <trkpt lat="47.16697" lon="-1.51011">
        <ele>23.1</ele>
        <time>2015-01-11T11:13:02Z</time>
      </trkpt>
      <trkpt lat="47.16702" lon="-1.51018">
        <ele>23.5</ele>
        <time>2015-01-11T11:13:07Z</time>
      </trkpt>
      <trkpt lat="47.16713" lon="-1.51034">
        <ele>23.5</ele>
        <time>2015-01-11T11:13:08Z</time>
      </trkpt>
      <trkpt lat="47.16725" lon="-1.5105">
        <ele>23.8</ele>
        <time>2015-01-11T11:13:12Z</time>
      </trkpt>
      <trkpt lat="47.16737" lon="-1.51067">
        <ele>24</ele>
        <time>2015-01-11T11:13:16Z</time>
      </trkpt>
      <trkpt lat="47.16749" lon="-1.51083">
        <ele>24.4</ele>
        <time>2015-01-11T11:13:20Z</time>
      </trkpt>
      <trkpt lat="47.16762" lon="-1.51099">
        <ele>24.7</ele>
        <time>2015-01-11T11:13:24Z</time>
      </trkpt>
      <trkpt lat="47.16776" lon="-1.51114">
        <ele>24.8</ele>
        <time>2015-01-11T11:13:28Z</time>
      </trkpt>
      <trkpt lat="47.16788" lon="-1.51128">
        <ele>24.9</ele>
        <time>2015-01-11T11:13:32Z</time>
      </trkpt>
      <trkpt lat="47.168" lon="-1.5114">
        <ele>25</ele>
        <time>2015-01-11T11:13:36Z</time>
      </trkpt>
      <trkpt lat="47.16812" lon="-1.5115">
        <ele>25.1</ele>
        <time>2015-01-11T11:13:40Z</time>
      </trkpt>
      <trkpt lat="47.16828" lon="-1.51162">
        <ele>25.5</ele>
        <time>2015-01-11T11:13:45Z</time>
      </trkpt>
      <trkpt lat="47.16835" lon="-1.51166">
        <ele>26.2</ele>
        <time>2015-01-11T11:13:47Z</time>
      </trkpt>
      <trkpt lat="47.16839" lon="-1.51168">
        <ele>26.2</ele>
        <time>2015-01-11T11:13:48Z</time>
      </trkpt>
      <trkpt lat="47.16846" lon="-1.51171">
        <ele>26.2</ele>
        <time>2015-01-11T11:13:50Z</time>
      </trkpt>
      <trkpt lat="47.1685" lon="-1.51172">
        <ele>29</ele>
        <time>2015-01-11T11:13:57Z</time>
      </trkpt>
      <trkpt lat="47.16865" lon="-1.51176">
        <ele>29</ele>
        <time>2015-01-11T11:13:58Z</time>
      </trkpt>
      <trkpt lat="47.16878" lon="-1.51179">
        <ele>29.7</ele>
        <time>2015-01-11T11:14:03Z</time>
      </trkpt>
      <trkpt lat="47.16893" lon="-1.51181">
        <ele>30</ele>
        <time>2015-01-11T11:14:08Z</time>
      </trkpt>
      <trkpt lat="47.16904" lon="-1.51183">
        <ele>30.4</ele>
        <time>2015-01-11T11:14:12Z</time>
      </trkpt>
      <trkpt lat="47.16933" lon="-1.51192">
        <ele>30.4</ele>
        <time>2015-01-11T11:14:13Z</time>
      </trkpt>
      <trkpt lat="47.16941" lon="-1.512">
        <ele>30.6</ele>
        <time>2015-01-11T11:14:26Z</time>
      </trkpt>
      <trkpt lat="47.1695" lon="-1.51207">
        <ele>30.6</ele>
        <time>2015-01-11T11:14:29Z</time>
      </trkpt>
      <trkpt lat="47.16967" lon="-1.51219">
        <ele>30.6</ele>
        <time>2015-01-11T11:14:34Z</time>
      </trkpt>
      <trkpt lat="47.16978" lon="-1.51227">
        <ele>30.6</ele>
        <time>2015-01-11T11:14:37Z</time>
      </trkpt>
      <trkpt lat="47.16997" lon="-1.5124">
        <ele>30.5</ele>
        <time>2015-01-11T11:14:42Z</time>
      </trkpt>
      <trkpt lat="47.17006" lon="-1.51247">
        <ele>30.4</ele>
        <time>2015-01-11T11:14:44Z</time>
      </trkpt>
      <trkpt lat="47.17022" lon="-1.51258">
        <ele>30.4</ele>
        <time>2015-01-11T11:14:48Z</time>
      </trkpt>
      <trkpt lat="47.17033" lon="-1.51267">
        <ele>30.4</ele>
        <time>2015-01-11T11:14:51Z</time>
      </trkpt>
      <trkpt lat="47.17031" lon="-1.51286">
        <ele>30.3</ele>
        <time>2015-01-11T11:14:54Z</time>
      </trkpt>
      <trkpt lat="47.17035" lon="-1.5131">
        <ele>30</ele>
        <time>2015-01-11T11:14:58Z</time>
      </trkpt>
      <trkpt lat="47.17041" lon="-1.51334">
        <ele>29.6</ele>
        <time>2015-01-11T11:15:01Z</time>
      </trkpt>
      <trkpt lat="47.17046" lon="-1.51353">
        <ele>29.4</ele>
        <time>2015-01-11T11:15:03Z</time>
      </trkpt>
      <trkpt lat="47.17053" lon="-1.51379">
        <ele>29.2</ele>
        <time>2015-01-11T11:15:06Z</time>
      </trkpt>
      <trkpt lat="47.17054" lon="-1.514">
        <ele>29.1</ele>
        <time>2015-01-11T11:15:10Z</time>
      </trkpt>
      <trkpt lat="47.17047" lon="-1.51417">
        <ele>28.8</ele>
        <time>2015-01-11T11:15:13Z</time>
      </trkpt>
      <trkpt lat="47.17042" lon="-1.51425">
        <ele>28.8</ele>
        <time>2015-01-11T11:15:15Z</time>
      </trkpt>
      <trkpt lat="47.17052" lon="-1.51466">
        <ele>28.7</ele>
        <time>2015-01-11T11:15:22Z</time>
      </trkpt>
      <trkpt lat="47.17066" lon="-1.51482">
        <ele>28.4</ele>
        <time>2015-01-11T11:15:26Z</time>
      </trkpt>
      <trkpt lat="47.17075" lon="-1.51503">
        <ele>26</ele>
        <time>2015-01-11T11:15:30Z</time>
      </trkpt>
      <trkpt lat="47.17084" lon="-1.51525">
        <ele>24.2</ele>
        <time>2015-01-11T11:15:34Z</time>
      </trkpt>
      <trkpt lat="47.17091" lon="-1.51551">
        <ele>23.3</ele>
        <time>2015-01-11T11:15:38Z</time>
      </trkpt>
      <trkpt lat="47.17096" lon="-1.51574">
        <ele>22.6</ele>
        <time>2015-01-11T11:15:41Z</time>
      </trkpt>
      <trkpt lat="47.17102" lon="-1.51599">
        <ele>20.3</ele>
        <time>2015-01-11T11:15:45Z</time>
      </trkpt>
      <trkpt lat="47.17106" lon="-1.51623">
        <ele>19.8</ele>
        <time>2015-01-11T11:15:49Z</time>
      </trkpt>
      <trkpt lat="47.17109" lon="-1.51643">
        <ele>19.4</ele>
        <time>2015-01-11T11:15:52Z</time>
      </trkpt>
      <trkpt lat="47.17109" lon="-1.51667">
        <ele>18.9</ele>
        <time>2015-01-11T11:15:56Z</time>
      </trkpt>
      <trkpt lat="47.17103" lon="-1.51691">
        <ele>18.3</ele>
        <time>2015-01-11T11:16:00Z</time>
      </trkpt>
      <trkpt lat="47.17093" lon="-1.5171">
        <ele>17.4</ele>
        <time>2015-01-11T11:16:03Z</time>
      </trkpt>
      <trkpt lat="47.17081" lon="-1.5173">
        <ele>16.4</ele>
        <time>2015-01-11T11:16:06Z</time>
      </trkpt>
      <trkpt lat="47.17069" lon="-1.51752">
        <ele>15.7</ele>
        <time>2015-01-11T11:16:09Z</time>
      </trkpt>
      <trkpt lat="47.17058" lon="-1.51776">
        <ele>15.5</ele>
        <time>2015-01-11T11:16:12Z</time>
      </trkpt>
      <trkpt lat="47.17047" lon="-1.51797">
        <ele>15.3</ele>
        <time>2015-01-11T11:16:15Z</time>
      </trkpt>
      <trkpt lat="47.17033" lon="-1.51818">
        <ele>15.1</ele>
        <time>2015-01-11T11:16:18Z</time>
      </trkpt>
      <trkpt lat="47.17018" lon="-1.51836">
        <ele>14.9</ele>
        <time>2015-01-11T11:16:21Z</time>
      </trkpt>
      <trkpt lat="47.17007" lon="-1.51848">
        <ele>14.7</ele>
        <time>2015-01-11T11:16:23Z</time>
      </trkpt>
      <trkpt lat="47.16991" lon="-1.51866">
        <ele>14.5</ele>
        <time>2015-01-11T11:16:26Z</time>
      </trkpt>
      <trkpt lat="47.16978" lon="-1.51881">
        <ele>14.3</ele>
        <time>2015-01-11T11:16:29Z</time>
      </trkpt>
      <trkpt lat="47.16963" lon="-1.51896">
        <ele>13.8</ele>
        <time>2015-01-11T11:16:32Z</time>
      </trkpt>
      <trkpt lat="47.16949" lon="-1.51908">
        <ele>13.1</ele>
        <time>2015-01-11T11:16:35Z</time>
      </trkpt>
      <trkpt lat="47.16934" lon="-1.51919">
        <ele>12.1</ele>
        <time>2015-01-11T11:16:38Z</time>
      </trkpt>
      <trkpt lat="47.16914" lon="-1.51917">
        <ele>10.8</ele>
        <time>2015-01-11T11:16:41Z</time>
      </trkpt>
      <trkpt lat="47.16905" lon="-1.51905">
        <ele>10</ele>
        <time>2015-01-11T11:16:43Z</time>
      </trkpt>
      <trkpt lat="47.16891" lon="-1.51897">
        <ele>9.2</ele>
        <time>2015-01-11T11:16:46Z</time>
      </trkpt>
      <trkpt lat="47.1688" lon="-1.51891">
        <ele>7</ele>
        <time>2015-01-11T11:16:49Z</time>
      </trkpt>
      <trkpt lat="47.16874" lon="-1.5188">
        <ele>7</ele>
        <time>2015-01-11T11:16:51Z</time>
      </trkpt>
      <trkpt lat="47.16867" lon="-1.51863">
        <ele>6.5</ele>
        <time>2015-01-11T11:16:55Z</time>
      </trkpt>
      <trkpt lat="47.16861" lon="-1.51847">
        <ele>5.7</ele>
        <time>2015-01-11T11:16:59Z</time>
      </trkpt>
      <trkpt lat="47.1686" lon="-1.51822">
        <ele>5.4</ele>
        <time>2015-01-11T11:17:03Z</time>
      </trkpt>
      <trkpt lat="47.16852" lon="-1.51806">
        <ele>5.3</ele>
        <time>2015-01-11T11:17:07Z</time>
      </trkpt>
      <trkpt lat="47.16841" lon="-1.51798">
        <ele>5</ele>
        <time>2015-01-11T11:17:10Z</time>
      </trkpt>
      <trkpt lat="47.16831" lon="-1.51799">
        <ele>4.9</ele>
        <time>2015-01-11T11:17:12Z</time>
      </trkpt>
      <trkpt lat="47.16813" lon="-1.518">
        <ele>4.7</ele>
        <time>2015-01-11T11:17:16Z</time>
      </trkpt>
      <trkpt lat="47.16802" lon="-1.51801">
        <ele>4.7</ele>
        <time>2015-01-11T11:17:20Z</time>
      </trkpt>
      <trkpt lat="47.16793" lon="-1.51797">
        <ele>4.7</ele>
        <time>2015-01-11T11:17:23Z</time>
      </trkpt>
      <trkpt lat="47.16776" lon="-1.51794">
        <ele>4.7</ele>
        <time>2015-01-11T11:17:28Z</time>
      </trkpt>
      <trkpt lat="47.16766" lon="-1.51792">
        <ele>4.7</ele>
        <time>2015-01-11T11:17:31Z</time>
      </trkpt>
      <trkpt lat="47.1676" lon="-1.51787">
        <ele>4.7</ele>
        <time>2015-01-11T11:17:34Z</time>
      </trkpt>
      <trkpt lat="47.16761" lon="-1.51784">
        <ele>-0.1</ele>
        <time>2015-01-11T11:17:38Z</time>
      </trkpt>
      <trkpt lat="47.16761" lon="-1.51784">
        <ele>6.1</ele>
        <time>2015-01-11T11:17:38Z</time>
      </trkpt>
      <trkpt lat="47.16761" lon="-1.51784">
        <ele>6.1</ele>
        <time>2015-01-11T11:17:47Z</time>
      </trkpt>
      <trkpt lat="47.16775" lon="-1.51789">
        <ele>4.6</ele>
        <time>2015-01-11T11:17:49Z</time>
      </trkpt>
      <trkpt lat="47.16785" lon="-1.51793">
        <ele>4.6</ele>
        <time>2015-01-11T11:17:53Z</time>
      </trkpt>
      <trkpt lat="47.16789" lon="-1.51796">
        <ele>4.4</ele>
        <time>2015-01-11T11:17:56Z</time>
      </trkpt>
      <trkpt lat="47.16791" lon="-1.51804">
        <ele>3.8</ele>
        <time>2015-01-11T11:18:01Z</time>
      </trkpt>
      <trkpt lat="47.16789" lon="-1.51818">
        <ele>3.6</ele>
        <time>2015-01-11T11:18:05Z</time>
      </trkpt>
      <trkpt lat="47.16787" lon="-1.51835">
        <ele>2.3</ele>
        <time>2015-01-11T11:18:09Z</time>
      </trkpt>
      <trkpt lat="47.16785" lon="-1.51842">
        <ele>1.7</ele>
        <time>2015-01-11T11:18:12Z</time>
      </trkpt>
      <trkpt lat="47.16784" lon="-1.51843">
        <ele>1.1</ele>
        <time>2015-01-11T11:18:13Z</time>
      </trkpt>
      <trkpt lat="47.16783" lon="-1.51843">
        <ele>0.8</ele>
        <time>2015-01-11T11:18:17Z</time>
      </trkpt>
      <trkpt lat="47.16783" lon="-1.51843">
        <ele>3.5</ele>
        <time>2015-01-11T11:18:17Z</time>
      </trkpt>
      <trkpt lat="47.16783" lon="-1.51843">
        <ele>3.5</ele>
        <time>2015-01-11T11:18:30Z</time>
      </trkpt>
      <trkpt lat="47.16774" lon="-1.51838">
        <ele>-0.1</ele>
        <time>2015-01-11T11:18:31Z</time>
      </trkpt>
      <trkpt lat="47.16773" lon="-1.51835">
        <ele>-0.5</ele>
        <time>2015-01-11T11:18:34Z</time>
      </trkpt>
      <trkpt lat="47.16772" lon="-1.51834">
        <ele>-1.1</ele>
        <time>2015-01-11T11:18:38Z</time>
      </trkpt>
      <trkpt lat="47.16772" lon="-1.51834">
        <ele>3.7</ele>
        <time>2015-01-11T11:18:38Z</time>
      </trkpt>
      <trkpt lat="47.16772" lon="-1.51834">
        <ele>3.7</ele>
        <time>2015-01-11T11:19:10Z</time>
      </trkpt>
      <trkpt lat="47.16764" lon="-1.51829">
        <ele>0.6</ele>
        <time>2015-01-11T11:19:11Z</time>
      </trkpt>
      <trkpt lat="47.16755" lon="-1.51824">
        <ele>1.3</ele>
        <time>2015-01-11T11:19:20Z</time>
      </trkpt>
      <trkpt lat="47.16749" lon="-1.51829">
        <ele>1.6</ele>
        <time>2015-01-11T11:19:27Z</time>
      </trkpt>
      <trkpt lat="47.16737" lon="-1.5184">
        <ele>1.9</ele>
        <time>2015-01-11T11:19:39Z</time>
      </trkpt>
      <trkpt lat="47.16729" lon="-1.51854">
        <ele>2.8</ele>
        <time>2015-01-11T11:19:56Z</time>
      </trkpt>
      <trkpt lat="47.16727" lon="-1.5186">
        <ele>3</ele>
        <time>2015-01-11T11:20:02Z</time>
      </trkpt>
      <trkpt lat="47.16724" lon="-1.51865">
        <ele>3.2</ele>
        <time>2015-01-11T11:20:08Z</time>
      </trkpt>
      <trkpt lat="47.16719" lon="-1.51868">
        <ele>3.4</ele>
        <time>2015-01-11T11:20:14Z</time>
      </trkpt>
      <trkpt lat="47.16714" lon="-1.51869">
        <ele>3.6</ele>
        <time>2015-01-11T11:20:19Z</time>
      </trkpt>
      <trkpt lat="47.16709" lon="-1.51871">
        <ele>3.9</ele>
        <time>2015-01-11T11:20:26Z</time>
      </trkpt>
      <trkpt lat="47.16709" lon="-1.51871">
        <ele>4</ele>
        <time>2015-01-11T11:20:27Z</time>
      </trkpt>
      <trkpt lat="47.16707" lon="-1.5187">
        <ele>3.2</ele>
        <time>2015-01-11T11:20:30Z</time>
      </trkpt>
      <trkpt lat="47.16707" lon="-1.5187">
        <ele>4.1</ele>
        <time>2015-01-11T11:20:30Z</time>
      </trkpt>
      <trkpt lat="47.16707" lon="-1.5187">
        <ele>4.1</ele>
        <time>2015-01-11T11:20:46Z</time>
      </trkpt>
      <trkpt lat="47.16701" lon="-1.51861">
        <ele>4.3</ele>
        <time>2015-01-11T11:20:47Z</time>
      </trkpt>
      <trkpt lat="47.16701" lon="-1.51861">
        <ele>4.3</ele>
        <time>2015-01-11T11:20:48Z</time>
      </trkpt>
      <trkpt lat="47.16702" lon="-1.51862">
        <ele>3.2</ele>
        <time>2015-01-11T11:20:52Z</time>
      </trkpt>
      <trkpt lat="47.16702" lon="-1.51862">
        <ele>4.4</ele>
        <time>2015-01-11T11:20:52Z</time>
      </trkpt>
      <trkpt lat="47.16702" lon="-1.51862">
        <ele>4.4</ele>
        <time>2015-01-11T11:21:09Z</time>
      </trkpt>
      <trkpt lat="47.16704" lon="-1.51876">
        <ele>4.3</ele>
        <time>2015-01-11T11:21:10Z</time>
      </trkpt>
      <trkpt lat="47.16708" lon="-1.51888">
        <ele>4.2</ele>
        <time>2015-01-11T11:21:16Z</time>
      </trkpt>
      <trkpt lat="47.16711" lon="-1.51896">
        <ele>4.1</ele>
        <time>2015-01-11T11:21:19Z</time>
      </trkpt>
      <trkpt lat="47.16712" lon="-1.51902">
        <ele>4.1</ele>
        <time>2015-01-11T11:21:21Z</time>
      </trkpt>
      <trkpt lat="47.16716" lon="-1.51915">
        <ele>3.9</ele>
        <time>2015-01-11T11:21:26Z</time>
      </trkpt>
      <trkpt lat="47.16722" lon="-1.51927">
        <ele>3.9</ele>
        <time>2015-01-11T11:21:31Z</time>
      </trkpt>
      <trkpt lat="47.16731" lon="-1.51938">
        <ele>3.8</ele>
        <time>2015-01-11T11:21:36Z</time>
      </trkpt>
      <trkpt lat="47.16739" lon="-1.51946">
        <ele>3.5</ele>
        <time>2015-01-11T11:21:41Z</time>
      </trkpt>
      <trkpt lat="47.16749" lon="-1.51954">
        <ele>3.2</ele>
        <time>2015-01-11T11:21:46Z</time>
      </trkpt>
      <trkpt lat="47.16759" lon="-1.5196">
        <ele>1.4</ele>
        <time>2015-01-11T11:21:52Z</time>
      </trkpt>
      <trkpt lat="47.16762" lon="-1.51966">
        <ele>1.2</ele>
        <time>2015-01-11T11:21:56Z</time>
      </trkpt>
      <trkpt lat="47.16762" lon="-1.51966">
        <ele>1.2</ele>
        <time>2015-01-11T11:21:57Z</time>
      </trkpt>
      <trkpt lat="47.16762" lon="-1.51967">
        <ele>-2.6</ele>
        <time>2015-01-11T11:21:59Z</time>
      </trkpt>
      <trkpt lat="47.16762" lon="-1.51967">
        <ele>3.9</ele>
        <time>2015-01-11T11:21:59Z</time>
      </trkpt>
      <trkpt lat="47.16762" lon="-1.51967">
        <ele>3.9</ele>
        <time>2015-01-11T11:22:19Z</time>
      </trkpt>
      <trkpt lat="47.1675" lon="-1.51958">
        <ele>0.3</ele>
        <time>2015-01-11T11:22:20Z</time>
      </trkpt>
      <trkpt lat="47.16742" lon="-1.51952">
        <ele>-0.7</ele>
        <time>2015-01-11T11:22:23Z</time>
      </trkpt>
      <trkpt lat="47.16737" lon="-1.51947">
        <ele>-0.7</ele>
        <time>2015-01-11T11:22:25Z</time>
      </trkpt>
      <trkpt lat="47.1673" lon="-1.51938">
        <ele>-0.9</ele>
        <time>2015-01-11T11:22:28Z</time>
      </trkpt>
      <trkpt lat="47.1672" lon="-1.51923">
        <ele>-1</ele>
        <time>2015-01-11T11:22:34Z</time>
      </trkpt>
      <trkpt lat="47.16719" lon="-1.51922">
        <ele>-1</ele>
        <time>2015-01-11T11:22:35Z</time>
      </trkpt>
      <trkpt lat="47.16717" lon="-1.51922">
        <ele>-0.5</ele>
        <time>2015-01-11T11:22:39Z</time>
      </trkpt>
      <trkpt lat="47.16717" lon="-1.51922">
        <ele>4</ele>
        <time>2015-01-11T11:22:39Z</time>
      </trkpt>
      <trkpt lat="47.16717" lon="-1.51922">
        <ele>4</ele>
        <time>2015-01-11T11:23:41Z</time>
      </trkpt>
      <trkpt lat="47.16713" lon="-1.51907">
        <ele>2.1</ele>
        <time>2015-01-11T11:23:42Z</time>
      </trkpt>
      <trkpt lat="47.16708" lon="-1.51895">
        <ele>2.2</ele>
        <time>2015-01-11T11:23:46Z</time>
      </trkpt>
      <trkpt lat="47.16705" lon="-1.51888">
        <ele>2.2</ele>
        <time>2015-01-11T11:23:49Z</time>
      </trkpt>
      <trkpt lat="47.16702" lon="-1.51881">
        <ele>2.2</ele>
        <time>2015-01-11T11:23:52Z</time>
      </trkpt>
      <trkpt lat="47.167" lon="-1.51873">
        <ele>2.2</ele>
        <time>2015-01-11T11:23:55Z</time>
      </trkpt>
      <trkpt lat="47.16699" lon="-1.51863">
        <ele>2.2</ele>
        <time>2015-01-11T11:23:58Z</time>
      </trkpt>
      <trkpt lat="47.16695" lon="-1.51848">
        <ele>2.2</ele>
        <time>2015-01-11T11:24:03Z</time>
      </trkpt>
      <trkpt lat="47.16689" lon="-1.51828">
        <ele>2.1</ele>
        <time>2015-01-11T11:24:10Z</time>
      </trkpt>
      <trkpt lat="47.16683" lon="-1.51811">
        <ele>2</ele>
        <time>2015-01-11T11:24:16Z</time>
      </trkpt>
      <trkpt lat="47.16681" lon="-1.51803">
        <ele>1.2</ele>
        <time>2015-01-11T11:24:19Z</time>
      </trkpt>
      <trkpt lat="47.1668" lon="-1.51796">
        <ele>1.2</ele>
        <time>2015-01-11T11:24:21Z</time>
      </trkpt>
      <trkpt lat="47.1668" lon="-1.51781">
        <ele>0.8</ele>
        <time>2015-01-11T11:24:26Z</time>
      </trkpt>
      <trkpt lat="47.16681" lon="-1.51773">
        <ele>0.6</ele>
        <time>2015-01-11T11:24:29Z</time>
      </trkpt>
      <trkpt lat="47.1668" lon="-1.51764">
        <ele>0.6</ele>
        <time>2015-01-11T11:24:32Z</time>
      </trkpt>
      <trkpt lat="47.16676" lon="-1.5176">
        <ele>0.6</ele>
        <time>2015-01-11T11:24:34Z</time>
      </trkpt>
      <trkpt lat="47.16666" lon="-1.51754">
        <ele>0.5</ele>
        <time>2015-01-11T11:24:39Z</time>
      </trkpt>
      <trkpt lat="47.16661" lon="-1.51743">
        <ele>0.5</ele>
        <time>2015-01-11T11:24:44Z</time>
      </trkpt>
      <trkpt lat="47.16659" lon="-1.51741">
        <ele>0.6</ele>
        <time>2015-01-11T11:24:47Z</time>
      </trkpt>
      <trkpt lat="47.16657" lon="-1.51741">
        <ele>1.9</ele>
        <time>2015-01-11T11:24:51Z</time>
      </trkpt>
      <trkpt lat="47.16657" lon="-1.51741">
        <ele>6</ele>
        <time>2015-01-11T11:24:51Z</time>
      </trkpt>
      <trkpt lat="47.16657" lon="-1.51741">
        <ele>6</ele>
        <time>2015-01-11T11:25:22Z</time>
      </trkpt>
      <trkpt lat="47.16645" lon="-1.51748">
        <ele>1.7</ele>
        <time>2015-01-11T11:25:25Z</time>
      </trkpt>
      <trkpt lat="47.16635" lon="-1.51751">
        <ele>1.7</ele>
        <time>2015-01-11T11:25:29Z</time>
      </trkpt>
      <trkpt lat="47.16627" lon="-1.51757">
        <ele>1.7</ele>
        <time>2015-01-11T11:25:33Z</time>
      </trkpt>
      <trkpt lat="47.16616" lon="-1.51765">
        <ele>1.8</ele>
        <time>2015-01-11T11:25:38Z</time>
      </trkpt>
      <trkpt lat="47.16609" lon="-1.51773">
        <ele>2</ele>
        <time>2015-01-11T11:25:42Z</time>
      </trkpt>
      <trkpt lat="47.16602" lon="-1.51775">
        <ele>2.2</ele>
        <time>2015-01-11T11:25:45Z</time>
      </trkpt>
      <trkpt lat="47.16598" lon="-1.51774">
        <ele>2.2</ele>
        <time>2015-01-11T11:25:47Z</time>
      </trkpt>
      <trkpt lat="47.16587" lon="-1.51773">
        <ele>2.2</ele>
        <time>2015-01-11T11:25:52Z</time>
      </trkpt>
      <trkpt lat="47.16582" lon="-1.51773">
        <ele>2.4</ele>
        <time>2015-01-11T11:25:55Z</time>
      </trkpt>
      <trkpt lat="47.16576" lon="-1.51772">
        <ele>2.4</ele>
        <time>2015-01-11T11:25:58Z</time>
      </trkpt>
      <trkpt lat="47.16566" lon="-1.51769">
        <ele>2.4</ele>
        <time>2015-01-11T11:26:03Z</time>
      </trkpt>
      <trkpt lat="47.16557" lon="-1.51767">
        <ele>2.4</ele>
        <time>2015-01-11T11:26:09Z</time>
      </trkpt>
      <trkpt lat="47.16552" lon="-1.51766">
        <ele>2.5</ele>
        <time>2015-01-11T11:26:12Z</time>
      </trkpt>
      <trkpt lat="47.16547" lon="-1.51763">
        <ele>2.5</ele>
        <time>2015-01-11T11:26:15Z</time>
      </trkpt>
      <trkpt lat="47.16538" lon="-1.51758">
        <ele>3.1</ele>
        <time>2015-01-11T11:26:23Z</time>
      </trkpt>
      <trkpt lat="47.16527" lon="-1.51743">
        <ele>4</ele>
        <time>2015-01-11T11:26:31Z</time>
      </trkpt>
      <trkpt lat="47.16517" lon="-1.51738">
        <ele>4.2</ele>
        <time>2015-01-11T11:26:35Z</time>
      </trkpt>
      <trkpt lat="47.16509" lon="-1.51734">
        <ele>4.4</ele>
        <time>2015-01-11T11:26:41Z</time>
      </trkpt>
      <trkpt lat="47.165" lon="-1.51726">
        <ele>4.8</ele>
        <time>2015-01-11T11:26:47Z</time>
      </trkpt>
      <trkpt lat="47.16489" lon="-1.51723">
        <ele>4.9</ele>
        <time>2015-01-11T11:26:51Z</time>
      </trkpt>
      <trkpt lat="47.1648" lon="-1.51722">
        <ele>5.1</ele>
        <time>2015-01-11T11:26:55Z</time>
      </trkpt>
      <trkpt lat="47.16471" lon="-1.51726">
        <ele>5.4</ele>
        <time>2015-01-11T11:26:59Z</time>
      </trkpt>
      <trkpt lat="47.16461" lon="-1.51732">
        <ele>5.6</ele>
        <time>2015-01-11T11:27:04Z</time>
      </trkpt>
      <trkpt lat="47.16457" lon="-1.51735">
        <ele>5.7</ele>
        <time>2015-01-11T11:27:08Z</time>
      </trkpt>
      <trkpt lat="47.16458" lon="-1.51743">
        <ele>5.8</ele>
        <time>2015-01-11T11:27:12Z</time>
      </trkpt>
      <trkpt lat="47.16459" lon="-1.5175">
        <ele>5.8</ele>
        <time>2015-01-11T11:27:15Z</time>
      </trkpt>
      <trkpt lat="47.16456" lon="-1.51764">
        <ele>5.9</ele>
        <time>2015-01-11T11:27:22Z</time>
      </trkpt>
      <trkpt lat="47.16451" lon="-1.51776">
        <ele>5.9</ele>
        <time>2015-01-11T11:27:27Z</time>
      </trkpt>
      <trkpt lat="47.16449" lon="-1.51791">
        <ele>6</ele>
        <time>2015-01-11T11:27:33Z</time>
      </trkpt>
      <trkpt lat="47.16448" lon="-1.51813">
        <ele>6.2</ele>
        <time>2015-01-11T11:27:38Z</time>
      </trkpt>
      <trkpt lat="47.16446" lon="-1.51823">
        <ele>6.4</ele>
        <time>2015-01-11T11:27:41Z</time>
      </trkpt>
      <trkpt lat="47.16445" lon="-1.51831">
        <ele>6.4</ele>
        <time>2015-01-11T11:27:43Z</time>
      </trkpt>
      <trkpt lat="47.1645" lon="-1.51849">
        <ele>6.4</ele>
        <time>2015-01-11T11:27:47Z</time>
      </trkpt>
      <trkpt lat="47.16457" lon="-1.51869">
        <ele>6.4</ele>
        <time>2015-01-11T11:27:51Z</time>
      </trkpt>
      <trkpt lat="47.16463" lon="-1.5189">
        <ele>6.4</ele>
        <time>2015-01-11T11:27:54Z</time>
      </trkpt>
      <trkpt lat="47.16469" lon="-1.51916">
        <ele>6.4</ele>
        <time>2015-01-11T11:27:57Z</time>
      </trkpt>
      <trkpt lat="47.16466" lon="-1.51944">
        <ele>6.4</ele>
        <time>2015-01-11T11:28:00Z</time>
      </trkpt>
      <trkpt lat="47.16466" lon="-1.5197">
        <ele>6.4</ele>
        <time>2015-01-11T11:28:03Z</time>
      </trkpt>
      <trkpt lat="47.16465" lon="-1.51996">
        <ele>6.4</ele>
        <time>2015-01-11T11:28:06Z</time>
      </trkpt>
      <trkpt lat="47.16464" lon="-1.52022">
        <ele>6.4</ele>
        <time>2015-01-11T11:28:09Z</time>
      </trkpt>
      <trkpt lat="47.16463" lon="-1.52051">
        <ele>6.4</ele>
        <time>2015-01-11T11:28:12Z</time>
      </trkpt>
      <trkpt lat="47.16469" lon="-1.52074">
        <ele>6.2</ele>
        <time>2015-01-11T11:28:15Z</time>
      </trkpt>
      <trkpt lat="47.16473" lon="-1.52081">
        <ele>6.2</ele>
        <time>2015-01-11T11:28:17Z</time>
      </trkpt>
      <trkpt lat="47.16478" lon="-1.52085">
        <ele>6.2</ele>
        <time>2015-01-11T11:28:19Z</time>
      </trkpt>
      <trkpt lat="47.16488" lon="-1.52092">
        <ele>6.2</ele>
        <time>2015-01-11T11:28:23Z</time>
      </trkpt>
      <trkpt lat="47.165" lon="-1.52105">
        <ele>6.3</ele>
        <time>2015-01-11T11:28:27Z</time>
      </trkpt>
      <trkpt lat="47.16511" lon="-1.52115">
        <ele>6.4</ele>
        <time>2015-01-11T11:28:31Z</time>
      </trkpt>
      <trkpt lat="47.16524" lon="-1.52132">
        <ele>6.6</ele>
        <time>2015-01-11T11:28:37Z</time>
      </trkpt>
      <trkpt lat="47.16531" lon="-1.52141">
        <ele>6.7</ele>
        <time>2015-01-11T11:28:40Z</time>
      </trkpt>
      <trkpt lat="47.16537" lon="-1.52152">
        <ele>6.7</ele>
        <time>2015-01-11T11:28:43Z</time>
      </trkpt>
      <trkpt lat="47.16546" lon="-1.5217">
        <ele>6.7</ele>
        <time>2015-01-11T11:28:48Z</time>
      </trkpt>
      <trkpt lat="47.16553" lon="-1.52188">
        <ele>6.7</ele>
        <time>2015-01-11T11:28:52Z</time>
      </trkpt>
      <trkpt lat="47.16559" lon="-1.52206">
        <ele>6.7</ele>
        <time>2015-01-11T11:28:57Z</time>
      </trkpt>
      <trkpt lat="47.16561" lon="-1.52214">
        <ele>7.2</ele>
        <time>2015-01-11T11:28:59Z</time>
      </trkpt>
      <trkpt lat="47.16563" lon="-1.52222">
        <ele>7.2</ele>
        <time>2015-01-11T11:29:01Z</time>
      </trkpt>
      <trkpt lat="47.16565" lon="-1.52231">
        <ele>7.2</ele>
        <time>2015-01-11T11:29:03Z</time>
      </trkpt>
      <trkpt lat="47.16566" lon="-1.52239">
        <ele>7.8</ele>
        <time>2015-01-11T11:29:05Z</time>
      </trkpt>
      <trkpt lat="47.16569" lon="-1.52247">
        <ele>7.8</ele>
        <time>2015-01-11T11:29:07Z</time>
      </trkpt>
      <trkpt lat="47.16574" lon="-1.52261">
        <ele>8.2</ele>
        <time>2015-01-11T11:29:12Z</time>
      </trkpt>
      <trkpt lat="47.16576" lon="-1.52267">
        <ele>8.7</ele>
        <time>2015-01-11T11:29:16Z</time>
      </trkpt>
      <trkpt lat="47.16577" lon="-1.52275">
        <ele>8.8</ele>
        <time>2015-01-11T11:29:19Z</time>
      </trkpt>
      <trkpt lat="47.16582" lon="-1.52289">
        <ele>9.4</ele>
        <time>2015-01-11T11:29:25Z</time>
      </trkpt>
      <trkpt lat="47.16589" lon="-1.52307">
        <ele>9.8</ele>
        <time>2015-01-11T11:29:31Z</time>
      </trkpt>
      <trkpt lat="47.16593" lon="-1.52321">
        <ele>10.2</ele>
        <time>2015-01-11T11:29:36Z</time>
      </trkpt>
      <trkpt lat="47.16597" lon="-1.52336">
        <ele>10.5</ele>
        <time>2015-01-11T11:29:41Z</time>
      </trkpt>
      <trkpt lat="47.16601" lon="-1.52349">
        <ele>11.1</ele>
        <time>2015-01-11T11:29:45Z</time>
      </trkpt>
      <trkpt lat="47.16608" lon="-1.52366">
        <ele>11.4</ele>
        <time>2015-01-11T11:29:50Z</time>
      </trkpt>
      <trkpt lat="47.16613" lon="-1.52378">
        <ele>12.3</ele>
        <time>2015-01-11T11:29:53Z</time>
      </trkpt>
      <trkpt lat="47.16616" lon="-1.52387">
        <ele>12.7</ele>
        <time>2015-01-11T11:29:55Z</time>
      </trkpt>
      <trkpt lat="47.16618" lon="-1.52395">
        <ele>12.7</ele>
        <time>2015-01-11T11:29:57Z</time>
      </trkpt>
      <trkpt lat="47.16621" lon="-1.52403">
        <ele>12.7</ele>
        <time>2015-01-11T11:29:59Z</time>
      </trkpt>
      <trkpt lat="47.16627" lon="-1.52421">
        <ele>13.1</ele>
        <time>2015-01-11T11:30:03Z</time>
      </trkpt>
      <trkpt lat="47.16632" lon="-1.52441">
        <ele>13.8</ele>
        <time>2015-01-11T11:30:08Z</time>
      </trkpt>
      <trkpt lat="47.16638" lon="-1.52462">
        <ele>14</ele>
        <time>2015-01-11T11:30:13Z</time>
      </trkpt>
      <trkpt lat="47.1664" lon="-1.5247">
        <ele>14.8</ele>
        <time>2015-01-11T11:30:15Z</time>
      </trkpt>
      <trkpt lat="47.16643" lon="-1.52478">
        <ele>14.8</ele>
        <time>2015-01-11T11:30:17Z</time>
      </trkpt>
      <trkpt lat="47.1665" lon="-1.52495">
        <ele>14.9</ele>
        <time>2015-01-11T11:30:21Z</time>
      </trkpt>
      <trkpt lat="47.16653" lon="-1.52502">
        <ele>14.9</ele>
        <time>2015-01-11T11:30:23Z</time>
      </trkpt>
      <trkpt lat="47.16655" lon="-1.5251">
        <ele>14.9</ele>
        <time>2015-01-11T11:30:25Z</time>
      </trkpt>
      <trkpt lat="47.16658" lon="-1.52518">
        <ele>14.9</ele>
        <time>2015-01-11T11:30:27Z</time>
      </trkpt>
      <trkpt lat="47.1666" lon="-1.52525">
        <ele>14.9</ele>
        <time>2015-01-11T11:30:29Z</time>
      </trkpt>
      <trkpt lat="47.16664" lon="-1.52538">
        <ele>14.9</ele>
        <time>2015-01-11T11:30:32Z</time>
      </trkpt>
      <trkpt lat="47.16667" lon="-1.52546">
        <ele>14.9</ele>
        <time>2015-01-11T11:30:34Z</time>
      </trkpt>
      <trkpt lat="47.16671" lon="-1.52553">
        <ele>14.9</ele>
        <time>2015-01-11T11:30:36Z</time>
      </trkpt>
      <trkpt lat="47.16679" lon="-1.52561">
        <ele>15.2</ele>
        <time>2015-01-11T11:30:39Z</time>
      </trkpt>
      <trkpt lat="47.16688" lon="-1.52572">
        <ele>15.4</ele>
        <time>2015-01-11T11:30:42Z</time>
      </trkpt>
      <trkpt lat="47.16696" lon="-1.52563">
        <ele>15.5</ele>
        <time>2015-01-11T11:30:48Z</time>
      </trkpt>
      <trkpt lat="47.16694" lon="-1.52596">
        <ele>15.7</ele>
        <time>2015-01-11T11:30:55Z</time>
      </trkpt>
      <trkpt lat="47.16687" lon="-1.52616">
        <ele>16.2</ele>
        <time>2015-01-11T11:31:00Z</time>
      </trkpt>
      <trkpt lat="47.16685" lon="-1.52624">
        <ele>16.2</ele>
        <time>2015-01-11T11:31:02Z</time>
      </trkpt>
      <trkpt lat="47.16683" lon="-1.52632">
        <ele>16.2</ele>
        <time>2015-01-11T11:31:04Z</time>
      </trkpt>
      <trkpt lat="47.16679" lon="-1.52649">
        <ele>16.6</ele>
        <time>2015-01-11T11:31:08Z</time>
      </trkpt>
      <trkpt lat="47.16673" lon="-1.52666">
        <ele>16.6</ele>
        <time>2015-01-11T11:31:12Z</time>
      </trkpt>
      <trkpt lat="47.16671" lon="-1.52686">
        <ele>16.6</ele>
        <time>2015-01-11T11:31:17Z</time>
      </trkpt>
      <trkpt lat="47.16667" lon="-1.52708">
        <ele>16.6</ele>
        <time>2015-01-11T11:31:22Z</time>
      </trkpt>
      <trkpt lat="47.16666" lon="-1.52727">
        <ele>16.6</ele>
        <time>2015-01-11T11:31:26Z</time>
      </trkpt>
      <trkpt lat="47.16667" lon="-1.52741">
        <ele>16.6</ele>
        <time>2015-01-11T11:31:29Z</time>
      </trkpt>
      <trkpt lat="47.16667" lon="-1.52748">
        <ele>16.6</ele>
        <time>2015-01-11T11:31:31Z</time>
      </trkpt>
      <trkpt lat="47.16668" lon="-1.52758">
        <ele>16.6</ele>
        <time>2015-01-11T11:31:33Z</time>
      </trkpt>
      <trkpt lat="47.16669" lon="-1.52781">
        <ele>16.6</ele>
        <time>2015-01-11T11:31:38Z</time>
      </trkpt>
      <trkpt lat="47.1667" lon="-1.52795">
        <ele>16.1</ele>
        <time>2015-01-11T11:31:41Z</time>
      </trkpt>
      <trkpt lat="47.16671" lon="-1.52816">
        <ele>15.5</ele>
        <time>2015-01-11T11:31:45Z</time>
      </trkpt>
      <trkpt lat="47.16672" lon="-1.52836">
        <ele>14.7</ele>
        <time>2015-01-11T11:31:49Z</time>
      </trkpt>
      <trkpt lat="47.16673" lon="-1.52849">
        <ele>14.6</ele>
        <time>2015-01-11T11:31:52Z</time>
      </trkpt>
      <trkpt lat="47.16674" lon="-1.5287">
        <ele>14.5</ele>
        <time>2015-01-11T11:31:57Z</time>
      </trkpt>
      <trkpt lat="47.16677" lon="-1.52884">
        <ele>14.4</ele>
        <time>2015-01-11T11:32:00Z</time>
      </trkpt>
      <trkpt lat="47.16682" lon="-1.52904">
        <ele>14.4</ele>
        <time>2015-01-11T11:32:04Z</time>
      </trkpt>
      <trkpt lat="47.16685" lon="-1.52923">
        <ele>14.4</ele>
        <time>2015-01-11T11:32:08Z</time>
      </trkpt>
      <trkpt lat="47.16686" lon="-1.52931">
        <ele>14.2</ele>
        <time>2015-01-11T11:32:10Z</time>
      </trkpt>
      <trkpt lat="47.16689" lon="-1.5294">
        <ele>14.2</ele>
        <time>2015-01-11T11:32:12Z</time>
      </trkpt>
      <trkpt lat="47.1669" lon="-1.52949">
        <ele>14</ele>
        <time>2015-01-11T11:32:14Z</time>
      </trkpt>
      <trkpt lat="47.16691" lon="-1.52958">
        <ele>14</ele>
        <time>2015-01-11T11:32:16Z</time>
      </trkpt>
      <trkpt lat="47.16691" lon="-1.52968">
        <ele>14</ele>
        <time>2015-01-11T11:32:18Z</time>
      </trkpt>
      <trkpt lat="47.16692" lon="-1.52989">
        <ele>14</ele>
        <time>2015-01-11T11:32:23Z</time>
      </trkpt>
      <trkpt lat="47.16692" lon="-1.53003">
        <ele>14</ele>
        <time>2015-01-11T11:32:26Z</time>
      </trkpt>
      <trkpt lat="47.1669" lon="-1.53016">
        <ele>14</ele>
        <time>2015-01-11T11:32:29Z</time>
      </trkpt>
      <trkpt lat="47.16686" lon="-1.53038">
        <ele>14.8</ele>
        <time>2015-01-11T11:32:34Z</time>
      </trkpt>
      <trkpt lat="47.16682" lon="-1.53052">
        <ele>15.2</ele>
        <time>2015-01-11T11:32:38Z</time>
      </trkpt>
      <trkpt lat="47.1668" lon="-1.53061">
        <ele>16</ele>
        <time>2015-01-11T11:32:40Z</time>
      </trkpt>
      <trkpt lat="47.16677" lon="-1.53068">
        <ele>16</ele>
        <time>2015-01-11T11:32:42Z</time>
      </trkpt>
      <trkpt lat="47.16675" lon="-1.53075">
        <ele>16</ele>
        <time>2015-01-11T11:32:44Z</time>
      </trkpt>
      <trkpt lat="47.16667" lon="-1.53093">
        <ele>16.3</ele>
        <time>2015-01-11T11:32:49Z</time>
      </trkpt>
      <trkpt lat="47.16663" lon="-1.53105">
        <ele>18.2</ele>
        <time>2015-01-11T11:32:52Z</time>
      </trkpt>
      <trkpt lat="47.16653" lon="-1.53124">
        <ele>18.5</ele>
        <time>2015-01-11T11:32:57Z</time>
      </trkpt>
      <trkpt lat="47.16646" lon="-1.53141">
        <ele>18.7</ele>
        <time>2015-01-11T11:33:01Z</time>
      </trkpt>
      <trkpt lat="47.16644" lon="-1.53149">
        <ele>19</ele>
        <time>2015-01-11T11:33:03Z</time>
      </trkpt>
      <trkpt lat="47.16638" lon="-1.53164">
        <ele>19</ele>
        <time>2015-01-11T11:33:07Z</time>
      </trkpt>
      <trkpt lat="47.16631" lon="-1.53182">
        <ele>19.4</ele>
        <time>2015-01-11T11:33:11Z</time>
      </trkpt>
      <trkpt lat="47.16626" lon="-1.53195">
        <ele>19.9</ele>
        <time>2015-01-11T11:33:14Z</time>
      </trkpt>
      <trkpt lat="47.16621" lon="-1.53211">
        <ele>20</ele>
        <time>2015-01-11T11:33:18Z</time>
      </trkpt>
      <trkpt lat="47.16614" lon="-1.53232">
        <ele>20.3</ele>
        <time>2015-01-11T11:33:24Z</time>
      </trkpt>
      <trkpt lat="47.16613" lon="-1.53246">
        <ele>21.1</ele>
        <time>2015-01-11T11:33:29Z</time>
      </trkpt>
      <trkpt lat="47.16608" lon="-1.53265">
        <ele>21.6</ele>
        <time>2015-01-11T11:33:34Z</time>
      </trkpt>
      <trkpt lat="47.16602" lon="-1.53282">
        <ele>22.4</ele>
        <time>2015-01-11T11:33:39Z</time>
      </trkpt>
      <trkpt lat="47.16596" lon="-1.53296">
        <ele>23.2</ele>
        <time>2015-01-11T11:33:44Z</time>
      </trkpt>
      <trkpt lat="47.16593" lon="-1.53309">
        <ele>23.2</ele>
        <time>2015-01-11T11:33:47Z</time>
      </trkpt>
      <trkpt lat="47.16587" lon="-1.53327">
        <ele>23.2</ele>
        <time>2015-01-11T11:33:51Z</time>
      </trkpt>
      <trkpt lat="47.16583" lon="-1.53333">
        <ele>23.5</ele>
        <time>2015-01-11T11:33:53Z</time>
      </trkpt>
      <trkpt lat="47.16578" lon="-1.53337">
        <ele>23.5</ele>
        <time>2015-01-11T11:33:55Z</time>
      </trkpt>
      <trkpt lat="47.16573" lon="-1.53341">
        <ele>23.5</ele>
        <time>2015-01-11T11:33:57Z</time>
      </trkpt>
      <trkpt lat="47.16563" lon="-1.53346">
        <ele>23.8</ele>
        <time>2015-01-11T11:34:02Z</time>
      </trkpt>
      <trkpt lat="47.16559" lon="-1.53347">
        <ele>24.1</ele>
        <time>2015-01-11T11:34:05Z</time>
      </trkpt>
      <trkpt lat="47.16554" lon="-1.53348">
        <ele>24.1</ele>
        <time>2015-01-11T11:34:07Z</time>
      </trkpt>
      <trkpt lat="47.16545" lon="-1.53355">
        <ele>24.8</ele>
        <time>2015-01-11T11:34:11Z</time>
      </trkpt>
      <trkpt lat="47.16533" lon="-1.53365">
        <ele>25.2</ele>
        <time>2015-01-11T11:34:15Z</time>
      </trkpt>
      <trkpt lat="47.16522" lon="-1.53377">
        <ele>25.7</ele>
        <time>2015-01-11T11:34:19Z</time>
      </trkpt>
      <trkpt lat="47.16514" lon="-1.53393">
        <ele>27.2</ele>
        <time>2015-01-11T11:34:23Z</time>
      </trkpt>
      <trkpt lat="47.16506" lon="-1.53412">
        <ele>27.6</ele>
        <time>2015-01-11T11:34:28Z</time>
      </trkpt>
      <trkpt lat="47.16502" lon="-1.53424">
        <ele>27.6</ele>
        <time>2015-01-11T11:34:31Z</time>
      </trkpt>
      <trkpt lat="47.16498" lon="-1.53432">
        <ele>27.2</ele>
        <time>2015-01-11T11:34:33Z</time>
      </trkpt>
      <trkpt lat="47.16495" lon="-1.53439">
        <ele>27.2</ele>
        <time>2015-01-11T11:34:35Z</time>
      </trkpt>
      <trkpt lat="47.16491" lon="-1.53447">
        <ele>27.2</ele>
        <time>2015-01-11T11:34:37Z</time>
      </trkpt>
      <trkpt lat="47.1648" lon="-1.53464">
        <ele>26.5</ele>
        <time>2015-01-11T11:34:42Z</time>
      </trkpt>
      <trkpt lat="47.16473" lon="-1.53474">
        <ele>26.7</ele>
        <time>2015-01-11T11:34:45Z</time>
      </trkpt>
      <trkpt lat="47.16466" lon="-1.53483">
        <ele>26.7</ele>
        <time>2015-01-11T11:34:48Z</time>
      </trkpt>
      <trkpt lat="47.1646" lon="-1.53488">
        <ele>27.1</ele>
        <time>2015-01-11T11:34:50Z</time>
      </trkpt>
      <trkpt lat="47.16455" lon="-1.53494">
        <ele>27.1</ele>
        <time>2015-01-11T11:34:52Z</time>
      </trkpt>
      <trkpt lat="47.16441" lon="-1.53508">
        <ele>27.6</ele>
        <time>2015-01-11T11:34:57Z</time>
      </trkpt>
      <trkpt lat="47.16432" lon="-1.53518">
        <ele>27.7</ele>
        <time>2015-01-11T11:35:01Z</time>
      </trkpt>
      <trkpt lat="47.16427" lon="-1.53523">
        <ele>27.7</ele>
        <time>2015-01-11T11:35:03Z</time>
      </trkpt>
      <trkpt lat="47.16421" lon="-1.53529">
        <ele>27.7</ele>
        <time>2015-01-11T11:35:05Z</time>
      </trkpt>
      <trkpt lat="47.16415" lon="-1.53534">
        <ele>27.7</ele>
        <time>2015-01-11T11:35:07Z</time>
      </trkpt>
      <trkpt lat="47.16405" lon="-1.5354">
        <ele>27.7</ele>
        <time>2015-01-11T11:35:10Z</time>
      </trkpt>
      <trkpt lat="47.16396" lon="-1.53547">
        <ele>27.9</ele>
        <time>2015-01-11T11:35:13Z</time>
      </trkpt>
      <trkpt lat="47.16386" lon="-1.53552">
        <ele>27.9</ele>
        <time>2015-01-11T11:35:16Z</time>
      </trkpt>
      <trkpt lat="47.16371" lon="-1.5356">
        <ele>28</ele>
        <time>2015-01-11T11:35:21Z</time>
      </trkpt>
      <trkpt lat="47.16359" lon="-1.53571">
        <ele>28.8</ele>
        <time>2015-01-11T11:35:26Z</time>
      </trkpt>
      <trkpt lat="47.16346" lon="-1.53584">
        <ele>29.8</ele>
        <time>2015-01-11T11:35:31Z</time>
      </trkpt>
      <trkpt lat="47.16335" lon="-1.53596">
        <ele>30.4</ele>
        <time>2015-01-11T11:35:35Z</time>
      </trkpt>
      <trkpt lat="47.16323" lon="-1.53612">
        <ele>30.6</ele>
        <time>2015-01-11T11:35:39Z</time>
      </trkpt>
      <trkpt lat="47.16313" lon="-1.53626">
        <ele>30.7</ele>
        <time>2015-01-11T11:35:43Z</time>
      </trkpt>
      <trkpt lat="47.16304" lon="-1.53645">
        <ele>31.3</ele>
        <time>2015-01-11T11:35:47Z</time>
      </trkpt>
      <trkpt lat="47.16297" lon="-1.53662">
        <ele>31.6</ele>
        <time>2015-01-11T11:35:51Z</time>
      </trkpt>
      <trkpt lat="47.16292" lon="-1.53682">
        <ele>31.9</ele>
        <time>2015-01-11T11:35:55Z</time>
      </trkpt>
      <trkpt lat="47.16288" lon="-1.53701">
        <ele>32.3</ele>
        <time>2015-01-11T11:35:59Z</time>
      </trkpt>
      <trkpt lat="47.16287" lon="-1.53722">
        <ele>32.4</ele>
        <time>2015-01-11T11:36:03Z</time>
      </trkpt>
      <trkpt lat="47.16288" lon="-1.5373">
        <ele>32.4</ele>
        <time>2015-01-11T11:36:05Z</time>
      </trkpt>
      <trkpt lat="47.1629" lon="-1.53738">
        <ele>32.4</ele>
        <time>2015-01-11T11:36:07Z</time>
      </trkpt>
      <trkpt lat="47.16297" lon="-1.53756">
        <ele>32.4</ele>
        <time>2015-01-11T11:36:11Z</time>
      </trkpt>
      <trkpt lat="47.163" lon="-1.53777">
        <ele>32.4</ele>
        <time>2015-01-11T11:36:15Z</time>
      </trkpt>
      <trkpt lat="47.16297" lon="-1.53798">
        <ele>32.4</ele>
        <time>2015-01-11T11:36:19Z</time>
      </trkpt>
      <trkpt lat="47.163" lon="-1.53821">
        <ele>32.4</ele>
        <time>2015-01-11T11:36:23Z</time>
      </trkpt>
      <trkpt lat="47.16301" lon="-1.53844">
        <ele>32.4</ele>
        <time>2015-01-11T11:36:27Z</time>
      </trkpt>
      <trkpt lat="47.16299" lon="-1.53869">
        <ele>32.4</ele>
        <time>2015-01-11T11:36:31Z</time>
      </trkpt>
      <trkpt lat="47.16291" lon="-1.53891">
        <ele>32.4</ele>
        <time>2015-01-11T11:36:35Z</time>
      </trkpt>
      <trkpt lat="47.16282" lon="-1.53908">
        <ele>32.4</ele>
        <time>2015-01-11T11:36:38Z</time>
      </trkpt>
      <trkpt lat="47.16273" lon="-1.53924">
        <ele>32.4</ele>
        <time>2015-01-11T11:36:41Z</time>
      </trkpt>
      <trkpt lat="47.16262" lon="-1.53941">
        <ele>32.6</ele>
        <time>2015-01-11T11:36:45Z</time>
      </trkpt>
      <trkpt lat="47.16254" lon="-1.5395">
        <ele>32.7</ele>
        <time>2015-01-11T11:36:48Z</time>
      </trkpt>
      <trkpt lat="47.16242" lon="-1.53964">
        <ele>32.8</ele>
        <time>2015-01-11T11:36:52Z</time>
      </trkpt>
      <trkpt lat="47.16233" lon="-1.53979">
        <ele>32.8</ele>
        <time>2015-01-11T11:36:56Z</time>
      </trkpt>
      <trkpt lat="47.16223" lon="-1.53994">
        <ele>33</ele>
        <time>2015-01-11T11:37:00Z</time>
      </trkpt>
      <trkpt lat="47.16212" lon="-1.54011">
        <ele>33.4</ele>
        <time>2015-01-11T11:37:03Z</time>
      </trkpt>
      <trkpt lat="47.16201" lon="-1.54025">
        <ele>33.7</ele>
        <time>2015-01-11T11:37:06Z</time>
      </trkpt>
      <trkpt lat="47.16189" lon="-1.54043">
        <ele>33.9</ele>
        <time>2015-01-11T11:37:10Z</time>
      </trkpt>
      <trkpt lat="47.16179" lon="-1.54058">
        <ele>34</ele>
        <time>2015-01-11T11:37:13Z</time>
      </trkpt>
      <trkpt lat="47.16168" lon="-1.54074">
        <ele>33.9</ele>
        <time>2015-01-11T11:37:17Z</time>
      </trkpt>
      <trkpt lat="47.16157" lon="-1.54089">
        <ele>34.4</ele>
        <time>2015-01-11T11:37:20Z</time>
      </trkpt>
      <trkpt lat="47.16147" lon="-1.54106">
        <ele>34.5</ele>
        <time>2015-01-11T11:37:24Z</time>
      </trkpt>
      <trkpt lat="47.16133" lon="-1.54121">
        <ele>34.7</ele>
        <time>2015-01-11T11:37:28Z</time>
      </trkpt>
      <trkpt lat="47.16124" lon="-1.54138">
        <ele>35.1</ele>
        <time>2015-01-11T11:37:32Z</time>
      </trkpt>
      <trkpt lat="47.16111" lon="-1.54158">
        <ele>35.6</ele>
        <time>2015-01-11T11:37:37Z</time>
      </trkpt>
      <trkpt lat="47.16112" lon="-1.54188">
        <ele>35.8</ele>
        <time>2015-01-11T11:37:42Z</time>
      </trkpt>
      <trkpt lat="47.16126" lon="-1.54205">
        <ele>36</ele>
        <time>2015-01-11T11:37:46Z</time>
      </trkpt>
      <trkpt lat="47.16125" lon="-1.54228">
        <ele>36.1</ele>
        <time>2015-01-11T11:37:50Z</time>
      </trkpt>
      <trkpt lat="47.16117" lon="-1.54248">
        <ele>36.2</ele>
        <time>2015-01-11T11:37:54Z</time>
      </trkpt>
      <trkpt lat="47.16104" lon="-1.54263">
        <ele>36.1</ele>
        <time>2015-01-11T11:37:57Z</time>
      </trkpt>
      <trkpt lat="47.16097" lon="-1.54285">
        <ele>36</ele>
        <time>2015-01-11T11:38:01Z</time>
      </trkpt>
      <trkpt lat="47.16086" lon="-1.54303">
        <ele>35.8</ele>
        <time>2015-01-11T11:38:05Z</time>
      </trkpt>
      <trkpt lat="47.16074" lon="-1.54322">
        <ele>35.8</ele>
        <time>2015-01-11T11:38:09Z</time>
      </trkpt>
      <trkpt lat="47.16064" lon="-1.54337">
        <ele>35.8</ele>
        <time>2015-01-11T11:38:12Z</time>
      </trkpt>
      <trkpt lat="47.16053" lon="-1.54354">
        <ele>35.8</ele>
        <time>2015-01-11T11:38:16Z</time>
      </trkpt>
      <trkpt lat="47.16043" lon="-1.54369">
        <ele>35.8</ele>
        <time>2015-01-11T11:38:20Z</time>
      </trkpt>
      <trkpt lat="47.16034" lon="-1.54385">
        <ele>35.8</ele>
        <time>2015-01-11T11:38:24Z</time>
      </trkpt>
      <trkpt lat="47.16032" lon="-1.54409">
        <ele>35.8</ele>
        <time>2015-01-11T11:38:25Z</time>
      </trkpt>
      <trkpt lat="47.16032" lon="-1.54425">
        <ele>35.3</ele>
        <time>2015-01-11T11:38:31Z</time>
      </trkpt>
      <trkpt lat="47.16026" lon="-1.54443">
        <ele>35.3</ele>
        <time>2015-01-11T11:38:33Z</time>
      </trkpt>
      <trkpt lat="47.16012" lon="-1.54452">
        <ele>35.2</ele>
        <time>2015-01-11T11:38:36Z</time>
      </trkpt>
      <trkpt lat="47.16004" lon="-1.54449">
        <ele>34.7</ele>
        <time>2015-01-11T11:38:38Z</time>
      </trkpt>
      <trkpt lat="47.15987" lon="-1.54435">
        <ele>34.7</ele>
        <time>2015-01-11T11:38:42Z</time>
      </trkpt>
      <trkpt lat="47.15983" lon="-1.54449">
        <ele>33.8</ele>
        <time>2015-01-11T11:38:46Z</time>
      </trkpt>
      <trkpt lat="47.15977" lon="-1.54472">
        <ele>33.7</ele>
        <time>2015-01-11T11:38:50Z</time>
      </trkpt>
      <trkpt lat="47.15977" lon="-1.54499">
        <ele>33.7</ele>
        <time>2015-01-11T11:38:54Z</time>
      </trkpt>
      <trkpt lat="47.15974" lon="-1.54521">
        <ele>33.7</ele>
        <time>2015-01-11T11:38:58Z</time>
      </trkpt>
      <trkpt lat="47.15971" lon="-1.54543">
        <ele>33.7</ele>
        <time>2015-01-11T11:39:03Z</time>
      </trkpt>
      <trkpt lat="47.15969" lon="-1.54549">
        <ele>33.7</ele>
        <time>2015-01-11T11:39:05Z</time>
      </trkpt>
      <trkpt lat="47.15967" lon="-1.54557">
        <ele>33.7</ele>
        <time>2015-01-11T11:39:07Z</time>
      </trkpt>
      <trkpt lat="47.15969" lon="-1.54564">
        <ele>33.8</ele>
        <time>2015-01-11T11:39:09Z</time>
      </trkpt>
      <trkpt lat="47.15968" lon="-1.54571">
        <ele>33.8</ele>
        <time>2015-01-11T11:39:12Z</time>
      </trkpt>
      <trkpt lat="47.15968" lon="-1.54573">
        <ele>34.1</ele>
        <time>2015-01-11T11:39:13Z</time>
      </trkpt>
      <trkpt lat="47.15968" lon="-1.54573">
        <ele>34.2</ele>
        <time>2015-01-11T11:39:17Z</time>
      </trkpt>
      <trkpt lat="47.15968" lon="-1.54573">
        <ele>31.3</ele>
        <time>2015-01-11T11:39:17Z</time>
      </trkpt>
      <trkpt lat="47.15968" lon="-1.54573">
        <ele>31.3</ele>
        <time>2015-01-11T11:43:21Z</time>
      </trkpt>
      <trkpt lat="47.15951" lon="-1.5456">
        <ele>28.4</ele>
        <time>2015-01-11T11:43:22Z</time>
      </trkpt>
      <trkpt lat="47.15951" lon="-1.5456">
        <ele>28.4</ele>
        <time>2015-01-11T11:43:23Z</time>
      </trkpt>
      <trkpt lat="47.15953" lon="-1.54562">
        <ele>23.6</ele>
        <time>2015-01-11T11:43:26Z</time>
      </trkpt>
      <trkpt lat="47.15953" lon="-1.54562">
        <ele>31.2</ele>
        <time>2015-01-11T11:43:26Z</time>
      </trkpt>
      <trkpt lat="47.15953" lon="-1.54562">
        <ele>31.2</ele>
        <time>2015-01-11T11:49:04Z</time>
      </trkpt>
      <trkpt lat="47.15949" lon="-1.54579">
        <ele>35.2</ele>
        <time>2015-01-11T11:49:05Z</time>
      </trkpt>
      <trkpt lat="47.15948" lon="-1.54586">
        <ele>35.2</ele>
        <time>2015-01-11T11:49:07Z</time>
      </trkpt>
      <trkpt lat="47.15949" lon="-1.54593">
        <ele>35.2</ele>
        <time>2015-01-11T11:49:09Z</time>
      </trkpt>
      <trkpt lat="47.15952" lon="-1.54599">
        <ele>35.4</ele>
        <time>2015-01-11T11:49:11Z</time>
      </trkpt>
      <trkpt lat="47.15955" lon="-1.54605">
        <ele>35.4</ele>
        <time>2015-01-11T11:49:13Z</time>
      </trkpt>
      <trkpt lat="47.15964" lon="-1.54606">
        <ele>36.7</ele>
        <time>2015-01-11T11:49:17Z</time>
      </trkpt>
      <trkpt lat="47.15967" lon="-1.54625">
        <ele>36.9</ele>
        <time>2015-01-11T11:49:24Z</time>
      </trkpt>
      <trkpt lat="47.15961" lon="-1.54648">
        <ele>36.9</ele>
        <time>2015-01-11T11:49:28Z</time>
      </trkpt>
      <trkpt lat="47.15962" lon="-1.54662">
        <ele>36.9</ele>
        <time>2015-01-11T11:49:31Z</time>
      </trkpt>
      <trkpt lat="47.15963" lon="-1.54678">
        <ele>36.9</ele>
        <time>2015-01-11T11:49:34Z</time>
      </trkpt>
      <trkpt lat="47.15965" lon="-1.54699">
        <ele>36.9</ele>
        <time>2015-01-11T11:49:38Z</time>
      </trkpt>
      <trkpt lat="47.15968" lon="-1.54708">
        <ele>36.9</ele>
        <time>2015-01-11T11:49:40Z</time>
      </trkpt>
      <trkpt lat="47.15972" lon="-1.54715">
        <ele>36.9</ele>
        <time>2015-01-11T11:49:42Z</time>
      </trkpt>
      <trkpt lat="47.15978" lon="-1.54727">
        <ele>36.9</ele>
        <time>2015-01-11T11:49:46Z</time>
      </trkpt>
      <trkpt lat="47.15973" lon="-1.54746">
        <ele>36.8</ele>
        <time>2015-01-11T11:49:49Z</time>
      </trkpt>
      <trkpt lat="47.15977" lon="-1.54769">
        <ele>35.9</ele>
        <time>2015-01-11T11:49:53Z</time>
      </trkpt>
      <trkpt lat="47.15981" lon="-1.54788">
        <ele>35</ele>
        <time>2015-01-11T11:49:56Z</time>
      </trkpt>
      <trkpt lat="47.15985" lon="-1.54808">
        <ele>33.3</ele>
        <time>2015-01-11T11:49:59Z</time>
      </trkpt>
      <trkpt lat="47.15989" lon="-1.54831">
        <ele>31.5</ele>
        <time>2015-01-11T11:50:03Z</time>
      </trkpt>
      <trkpt lat="47.15994" lon="-1.54854">
        <ele>30.6</ele>
        <time>2015-01-11T11:50:07Z</time>
      </trkpt>
      <trkpt lat="47.16001" lon="-1.54877">
        <ele>29.9</ele>
        <time>2015-01-11T11:50:11Z</time>
      </trkpt>
      <trkpt lat="47.16007" lon="-1.549">
        <ele>29.6</ele>
        <time>2015-01-11T11:50:15Z</time>
      </trkpt>
      <trkpt lat="47.16014" lon="-1.54921">
        <ele>29.4</ele>
        <time>2015-01-11T11:50:19Z</time>
      </trkpt>
      <trkpt lat="47.1602" lon="-1.54943">
        <ele>29.4</ele>
        <time>2015-01-11T11:50:23Z</time>
      </trkpt>
      <trkpt lat="47.16028" lon="-1.54962">
        <ele>29.4</ele>
        <time>2015-01-11T11:50:27Z</time>
      </trkpt>
      <trkpt lat="47.16037" lon="-1.54981">
        <ele>29.4</ele>
        <time>2015-01-11T11:50:31Z</time>
      </trkpt>
      <trkpt lat="47.16047" lon="-1.55">
        <ele>29.3</ele>
        <time>2015-01-11T11:50:35Z</time>
      </trkpt>
      <trkpt lat="47.16053" lon="-1.55007">
        <ele>29.3</ele>
        <time>2015-01-11T11:50:37Z</time>
      </trkpt>
      <trkpt lat="47.16058" lon="-1.55012">
        <ele>29.3</ele>
        <time>2015-01-11T11:50:39Z</time>
      </trkpt>
      <trkpt lat="47.16063" lon="-1.55016">
        <ele>29.3</ele>
        <time>2015-01-11T11:50:40Z</time>
      </trkpt>
      <trkpt lat="47.16077" lon="-1.55015">
        <ele>29.4</ele>
        <time>2015-01-11T11:50:44Z</time>
      </trkpt>
      <trkpt lat="47.16093" lon="-1.55007">
        <ele>29.4</ele>
        <time>2015-01-11T11:50:49Z</time>
      </trkpt>
      <trkpt lat="47.16105" lon="-1.54999">
        <ele>29.5</ele>
        <time>2015-01-11T11:50:53Z</time>
      </trkpt>
      <trkpt lat="47.16123" lon="-1.5499">
        <ele>29.5</ele>
        <time>2015-01-11T11:50:58Z</time>
      </trkpt>
      <trkpt lat="47.16138" lon="-1.54982">
        <ele>29.3</ele>
        <time>2015-01-11T11:51:02Z</time>
      </trkpt>
      <trkpt lat="47.16146" lon="-1.54962">
        <ele>29.3</ele>
        <time>2015-01-11T11:51:05Z</time>
      </trkpt>
      <trkpt lat="47.16166" lon="-1.5496">
        <ele>29.2</ele>
        <time>2015-01-11T11:51:12Z</time>
      </trkpt>
      <trkpt lat="47.16176" lon="-1.54975">
        <ele>29.1</ele>
        <time>2015-01-11T11:51:15Z</time>
      </trkpt>
      <trkpt lat="47.16191" lon="-1.54987">
        <ele>29</ele>
        <time>2015-01-11T11:51:19Z</time>
      </trkpt>
      <trkpt lat="47.16209" lon="-1.5499">
        <ele>28.9</ele>
        <time>2015-01-11T11:51:23Z</time>
      </trkpt>
      <trkpt lat="47.16231" lon="-1.54994">
        <ele>28.9</ele>
        <time>2015-01-11T11:51:28Z</time>
      </trkpt>
      <trkpt lat="47.16251" lon="-1.54998">
        <ele>29</ele>
        <time>2015-01-11T11:51:33Z</time>
      </trkpt>
      <trkpt lat="47.16256" lon="-1.54999">
        <ele>29.3</ele>
        <time>2015-01-11T11:51:34Z</time>
      </trkpt>
      <trkpt lat="47.16274" lon="-1.55">
        <ele>29.3</ele>
        <time>2015-01-11T11:51:38Z</time>
      </trkpt>
      <trkpt lat="47.16285" lon="-1.55001">
        <ele>29.5</ele>
        <time>2015-01-11T11:51:41Z</time>
      </trkpt>
      <trkpt lat="47.163" lon="-1.55001">
        <ele>29.8</ele>
        <time>2015-01-11T11:51:44Z</time>
      </trkpt>
      <trkpt lat="47.16316" lon="-1.55">
        <ele>30.1</ele>
        <time>2015-01-11T11:51:47Z</time>
      </trkpt>
      <trkpt lat="47.16332" lon="-1.55">
        <ele>30.3</ele>
        <time>2015-01-11T11:51:51Z</time>
      </trkpt>
      <trkpt lat="47.16347" lon="-1.54999">
        <ele>31.1</ele>
        <time>2015-01-11T11:51:54Z</time>
      </trkpt>
      <trkpt lat="47.16368" lon="-1.54997">
        <ele>31.4</ele>
        <time>2015-01-11T11:51:59Z</time>
      </trkpt>
      <trkpt lat="47.16385" lon="-1.54994">
        <ele>32</ele>
        <time>2015-01-11T11:52:03Z</time>
      </trkpt>
      <trkpt lat="47.16408" lon="-1.5499">
        <ele>33.2</ele>
        <time>2015-01-11T11:52:08Z</time>
      </trkpt>
      <trkpt lat="47.16414" lon="-1.54988">
        <ele>34</ele>
        <time>2015-01-11T11:52:09Z</time>
      </trkpt>
      <trkpt lat="47.16431" lon="-1.54982">
        <ele>34</ele>
        <time>2015-01-11T11:52:13Z</time>
      </trkpt>
      <trkpt lat="47.16453" lon="-1.54973">
        <ele>34.2</ele>
        <time>2015-01-11T11:52:18Z</time>
      </trkpt>
      <trkpt lat="47.16467" lon="-1.54967">
        <ele>34.2</ele>
        <time>2015-01-11T11:52:21Z</time>
      </trkpt>
      <trkpt lat="47.16476" lon="-1.54963">
        <ele>34.3</ele>
        <time>2015-01-11T11:52:23Z</time>
      </trkpt>
      <trkpt lat="47.16486" lon="-1.54961">
        <ele>34.3</ele>
        <time>2015-01-11T11:52:25Z</time>
      </trkpt>
      <trkpt lat="47.16496" lon="-1.54958">
        <ele>34.4</ele>
        <time>2015-01-11T11:52:27Z</time>
      </trkpt>
      <trkpt lat="47.16509" lon="-1.54955">
        <ele>34.5</ele>
        <time>2015-01-11T11:52:30Z</time>
      </trkpt>
      <trkpt lat="47.16522" lon="-1.54952">
        <ele>34.5</ele>
        <time>2015-01-11T11:52:33Z</time>
      </trkpt>
      <trkpt lat="47.16534" lon="-1.54949">
        <ele>34.5</ele>
        <time>2015-01-11T11:52:35Z</time>
      </trkpt>
      <trkpt lat="47.16539" lon="-1.54948">
        <ele>34.7</ele>
        <time>2015-01-11T11:52:36Z</time>
      </trkpt>
      <trkpt lat="47.16557" lon="-1.54945">
        <ele>34.7</ele>
        <time>2015-01-11T11:52:40Z</time>
      </trkpt>
      <trkpt lat="47.16567" lon="-1.54943">
        <ele>34.7</ele>
        <time>2015-01-11T11:52:42Z</time>
      </trkpt>
      <trkpt lat="47.16572" lon="-1.54942">
        <ele>35</ele>
        <time>2015-01-11T11:52:43Z</time>
      </trkpt>
      <trkpt lat="47.16589" lon="-1.54938">
        <ele>35</ele>
        <time>2015-01-11T11:52:47Z</time>
      </trkpt>
      <trkpt lat="47.16607" lon="-1.54935">
        <ele>35.1</ele>
        <time>2015-01-11T11:52:51Z</time>
      </trkpt>
      <trkpt lat="47.16623" lon="-1.54932">
        <ele>35.1</ele>
        <time>2015-01-11T11:52:55Z</time>
      </trkpt>
      <trkpt lat="47.16637" lon="-1.54918">
        <ele>35</ele>
        <time>2015-01-11T11:52:58Z</time>
      </trkpt>
      <trkpt lat="47.16637" lon="-1.54896">
        <ele>35</ele>
        <time>2015-01-11T11:53:07Z</time>
      </trkpt>
      <trkpt lat="47.16633" lon="-1.54873">
        <ele>35</ele>
        <time>2015-01-11T11:53:10Z</time>
      </trkpt>
      <trkpt lat="47.16628" lon="-1.5485">
        <ele>35</ele>
        <time>2015-01-11T11:53:13Z</time>
      </trkpt>
      <trkpt lat="47.16624" lon="-1.54827">
        <ele>34.9</ele>
        <time>2015-01-11T11:53:16Z</time>
      </trkpt>
      <trkpt lat="47.16619" lon="-1.54804">
        <ele>34.6</ele>
        <time>2015-01-11T11:53:19Z</time>
      </trkpt>
      <trkpt lat="47.16612" lon="-1.54771">
        <ele>34.5</ele>
        <time>2015-01-11T11:53:21Z</time>
      </trkpt>
      <trkpt lat="47.16641" lon="-1.54785">
        <ele>34.4</ele>
        <time>2015-01-11T11:53:22Z</time>
      </trkpt>
      <trkpt lat="47.1665" lon="-1.54776">
        <ele>34.3</ele>
        <time>2015-01-11T11:53:24Z</time>
      </trkpt>
      <trkpt lat="47.16668" lon="-1.54768">
        <ele>34.1</ele>
        <time>2015-01-11T11:53:28Z</time>
      </trkpt>
      <trkpt lat="47.16678" lon="-1.54764">
        <ele>34.1</ele>
        <time>2015-01-11T11:53:30Z</time>
      </trkpt>
      <trkpt lat="47.16689" lon="-1.5476">
        <ele>34.1</ele>
        <time>2015-01-11T11:53:32Z</time>
      </trkpt>
      <trkpt lat="47.16702" lon="-1.54755">
        <ele>34.1</ele>
        <time>2015-01-11T11:53:35Z</time>
      </trkpt>
      <trkpt lat="47.16711" lon="-1.54776">
        <ele>34.1</ele>
        <time>2015-01-11T11:53:38Z</time>
      </trkpt>
      <trkpt lat="47.16724" lon="-1.54744">
        <ele>34.1</ele>
        <time>2015-01-11T11:53:41Z</time>
      </trkpt>
      <trkpt lat="47.1671" lon="-1.54754">
        <ele>34.1</ele>
        <time>2015-01-11T11:53:42Z</time>
      </trkpt>
      <trkpt lat="47.1669" lon="-1.5476">
        <ele>34.1</ele>
        <time>2015-01-11T11:53:45Z</time>
      </trkpt>
      <trkpt lat="47.1668" lon="-1.54764">
        <ele>34.1</ele>
        <time>2015-01-11T11:53:47Z</time>
      </trkpt>
      <trkpt lat="47.16667" lon="-1.54768">
        <ele>34.2</ele>
        <time>2015-01-11T11:53:50Z</time>
      </trkpt>
      <trkpt lat="47.16669" lon="-1.54844">
        <ele>34.4</ele>
        <time>2015-01-11T11:53:53Z</time>
      </trkpt>
      <trkpt lat="47.16663" lon="-1.54848">
        <ele>34.8</ele>
        <time>2015-01-11T11:53:55Z</time>
      </trkpt>
      <trkpt lat="47.16658" lon="-1.54839">
        <ele>34.8</ele>
        <time>2015-01-11T11:53:58Z</time>
      </trkpt>
      <trkpt lat="47.16652" lon="-1.54819">
        <ele>35</ele>
        <time>2015-01-11T11:54:02Z</time>
      </trkpt>
      <trkpt lat="47.16646" lon="-1.54803">
        <ele>35.1</ele>
        <time>2015-01-11T11:54:07Z</time>
      </trkpt>
      <trkpt lat="47.16645" lon="-1.54801">
        <ele>35.2</ele>
        <time>2015-01-11T11:54:09Z</time>
      </trkpt>
      <trkpt lat="47.16645" lon="-1.54799">
        <ele>32.4</ele>
        <time>2015-01-11T11:54:16Z</time>
      </trkpt>
      <trkpt lat="47.16645" lon="-1.54799">
        <ele>36.2</ele>
        <time>2015-01-11T11:54:16Z</time>
      </trkpt>
      <trkpt lat="47.16645" lon="-1.54799">
        <ele>36.2</ele>
        <time>2015-01-11T11:55:26Z</time>
      </trkpt>
    </trkseg>
  </trk>
</gpx>